<?xml version="1.0" encoding="UTF-8" standalone="no" ?>
<gpx xmlns="http://www.topografix.com/GPX/1/1" xmlns:xsi="http://www.w3.org/2001/XMLSchema-instance" xsi:schemaLocation="http://www.topografix.com/GPX/1/1 http://www.topografix.com/GPX/1/1/gpx.xsd" version="1.1" creator="VisuGPX - https://www.visugpx.com">
  <metadata>
    <name>Belle Combe à partir de la Baume d'Hostun</name>
    <desc><![CDATA[Rando du Club Alpin de Valence menée par François ; 11 participants.
Aucune difficulté.]]></desc>
  </metadata>
  <trk>
    <name><![CDATA[15-NOV-18 13:43:26]]></name>
    <trkseg>
      <trkpt lat="45.05606" lon="5.22645">
        <ele>122.71</ele>
        <time>2018-11-15T08:37:50Z</time>
      </trkpt>
      <trkpt lat="45.05608" lon="5.22644">
        <ele>122.22</ele>
        <time>2018-11-15T08:37:51Z</time>
      </trkpt>
      <trkpt lat="45.05608" lon="5.22644">
        <ele>127.03</ele>
        <time>2018-11-15T08:37:52Z</time>
      </trkpt>
      <trkpt lat="45.05608" lon="5.22644">
        <ele>121.26</ele>
        <time>2018-11-15T08:37:53Z</time>
      </trkpt>
      <trkpt lat="45.05613" lon="5.22642">
        <ele>121.74</ele>
        <time>2018-11-15T08:38:07Z</time>
      </trkpt>
      <trkpt lat="45.05614" lon="5.22639">
        <ele>122.22</ele>
        <time>2018-11-15T08:38:21Z</time>
      </trkpt>
      <trkpt lat="45.05609" lon="5.22641">
        <ele>122.22</ele>
        <time>2018-11-15T08:38:36Z</time>
      </trkpt>
      <trkpt lat="45.05612" lon="5.22641">
        <ele>113.57</ele>
        <time>2018-11-15T08:38:46Z</time>
      </trkpt>
      <trkpt lat="45.05612" lon="5.22641">
        <ele>101.08</ele>
        <time>2018-11-15T08:38:47Z</time>
      </trkpt>
      <trkpt lat="45.05612" lon="5.22642">
        <ele>158.27</ele>
        <time>2018-11-15T08:38:48Z</time>
      </trkpt>
      <trkpt lat="45.05612" lon="5.22642">
        <ele>101.56</ele>
        <time>2018-11-15T08:38:49Z</time>
      </trkpt>
      <trkpt lat="45.05615" lon="5.22638">
        <ele>136.16</ele>
        <time>2018-11-15T08:38:50Z</time>
      </trkpt>
      <trkpt lat="45.05615" lon="5.22635">
        <ele>122.71</ele>
        <time>2018-11-15T08:38:53Z</time>
      </trkpt>
      <trkpt lat="45.05614" lon="5.22634">
        <ele>123.67</ele>
        <time>2018-11-15T08:38:54Z</time>
      </trkpt>
      <trkpt lat="45.05613" lon="5.22634">
        <ele>125.11</ele>
        <time>2018-11-15T08:38:55Z</time>
      </trkpt>
      <trkpt lat="45.05607" lon="5.22628">
        <ele>124.63</ele>
        <time>2018-11-15T08:39:01Z</time>
      </trkpt>
      <trkpt lat="45.05603" lon="5.22626">
        <ele>124.15</ele>
        <time>2018-11-15T08:39:04Z</time>
      </trkpt>
      <trkpt lat="45.056" lon="5.2262">
        <ele>122.22</ele>
        <time>2018-11-15T08:39:08Z</time>
      </trkpt>
      <trkpt lat="45.05599" lon="5.22617">
        <ele>125.59</ele>
        <time>2018-11-15T08:39:10Z</time>
      </trkpt>
      <trkpt lat="45.05598" lon="5.22617">
        <ele>125.59</ele>
        <time>2018-11-15T08:39:11Z</time>
      </trkpt>
      <trkpt lat="45.05595" lon="5.22619">
        <ele>123.67</ele>
        <time>2018-11-15T08:39:13Z</time>
      </trkpt>
      <trkpt lat="45.05592" lon="5.2262">
        <ele>127.03</ele>
        <time>2018-11-15T08:39:15Z</time>
      </trkpt>
      <trkpt lat="45.05591" lon="5.22622">
        <ele>123.67</ele>
        <time>2018-11-15T08:39:17Z</time>
      </trkpt>
      <trkpt lat="45.0559" lon="5.22623">
        <ele>126.07</ele>
        <time>2018-11-15T08:39:18Z</time>
      </trkpt>
      <trkpt lat="45.05585" lon="5.22636">
        <ele>126.55</ele>
        <time>2018-11-15T08:39:28Z</time>
      </trkpt>
      <trkpt lat="45.05583" lon="5.22641">
        <ele>126.07</ele>
        <time>2018-11-15T08:39:32Z</time>
      </trkpt>
      <trkpt lat="45.0558" lon="5.22644">
        <ele>126.07</ele>
        <time>2018-11-15T08:39:35Z</time>
      </trkpt>
      <trkpt lat="45.05575" lon="5.22654">
        <ele>128.47</ele>
        <time>2018-11-15T08:39:46Z</time>
      </trkpt>
      <trkpt lat="45.05569" lon="5.22665">
        <ele>128.95</ele>
        <time>2018-11-15T08:39:57Z</time>
      </trkpt>
      <trkpt lat="45.05565" lon="5.2267">
        <ele>131.36</ele>
        <time>2018-11-15T08:40:03Z</time>
      </trkpt>
      <trkpt lat="45.05565" lon="5.22671">
        <ele>129.43</ele>
        <time>2018-11-15T08:40:04Z</time>
      </trkpt>
      <trkpt lat="45.05559" lon="5.22681">
        <ele>132.8</ele>
        <time>2018-11-15T08:40:12Z</time>
      </trkpt>
      <trkpt lat="45.05556" lon="5.22693">
        <ele>131.84</ele>
        <time>2018-11-15T08:40:23Z</time>
      </trkpt>
      <trkpt lat="45.05555" lon="5.22696">
        <ele>133.76</ele>
        <time>2018-11-15T08:40:24Z</time>
      </trkpt>
      <trkpt lat="45.05553" lon="5.22699">
        <ele>132.32</ele>
        <time>2018-11-15T08:40:27Z</time>
      </trkpt>
      <trkpt lat="45.05548" lon="5.22706">
        <ele>135.68</ele>
        <time>2018-11-15T08:40:30Z</time>
      </trkpt>
      <trkpt lat="45.05543" lon="5.22713">
        <ele>136.16</ele>
        <time>2018-11-15T08:40:40Z</time>
      </trkpt>
      <trkpt lat="45.05542" lon="5.22718">
        <ele>137.61</ele>
        <time>2018-11-15T08:40:55Z</time>
      </trkpt>
      <trkpt lat="45.05552" lon="5.22725">
        <ele>138.57</ele>
        <time>2018-11-15T08:41:06Z</time>
      </trkpt>
      <trkpt lat="45.05559" lon="5.22731">
        <ele>141.93</ele>
        <time>2018-11-15T08:41:15Z</time>
      </trkpt>
      <trkpt lat="45.05561" lon="5.22734">
        <ele>141.93</ele>
        <time>2018-11-15T08:41:19Z</time>
      </trkpt>
      <trkpt lat="45.05565" lon="5.22737">
        <ele>144.82</ele>
        <time>2018-11-15T08:41:25Z</time>
      </trkpt>
      <trkpt lat="45.05565" lon="5.22738">
        <ele>144.82</ele>
        <time>2018-11-15T08:41:26Z</time>
      </trkpt>
      <trkpt lat="45.05573" lon="5.22744">
        <ele>144.82</ele>
        <time>2018-11-15T08:41:37Z</time>
      </trkpt>
      <trkpt lat="45.05574" lon="5.22745">
        <ele>144.82</ele>
        <time>2018-11-15T08:41:38Z</time>
      </trkpt>
      <trkpt lat="45.05581" lon="5.22753">
        <ele>146.74</ele>
        <time>2018-11-15T08:41:50Z</time>
      </trkpt>
      <trkpt lat="45.05583" lon="5.22756">
        <ele>150.1</ele>
        <time>2018-11-15T08:41:56Z</time>
      </trkpt>
      <trkpt lat="45.05591" lon="5.22768">
        <ele>151.54</ele>
        <time>2018-11-15T08:42:07Z</time>
      </trkpt>
      <trkpt lat="45.05595" lon="5.22774">
        <ele>152.99</ele>
        <time>2018-11-15T08:42:13Z</time>
      </trkpt>
      <trkpt lat="45.05596" lon="5.22775">
        <ele>151.54</ele>
        <time>2018-11-15T08:42:14Z</time>
      </trkpt>
      <trkpt lat="45.056" lon="5.22786">
        <ele>154.91</ele>
        <time>2018-11-15T08:42:26Z</time>
      </trkpt>
      <trkpt lat="45.05605" lon="5.22793">
        <ele>156.35</ele>
        <time>2018-11-15T08:42:36Z</time>
      </trkpt>
      <trkpt lat="45.05606" lon="5.228">
        <ele>157.31</ele>
        <time>2018-11-15T08:42:45Z</time>
      </trkpt>
      <trkpt lat="45.05605" lon="5.22808">
        <ele>158.75</ele>
        <time>2018-11-15T08:42:51Z</time>
      </trkpt>
      <trkpt lat="45.05596" lon="5.2282">
        <ele>157.79</ele>
        <time>2018-11-15T08:43:03Z</time>
      </trkpt>
      <trkpt lat="45.05592" lon="5.22824">
        <ele>160.68</ele>
        <time>2018-11-15T08:43:06Z</time>
      </trkpt>
      <trkpt lat="45.05588" lon="5.2283">
        <ele>159.72</ele>
        <time>2018-11-15T08:43:12Z</time>
      </trkpt>
      <trkpt lat="45.05582" lon="5.22844">
        <ele>159.24</ele>
        <time>2018-11-15T08:43:22Z</time>
      </trkpt>
      <trkpt lat="45.05582" lon="5.22847">
        <ele>163.08</ele>
        <time>2018-11-15T08:43:25Z</time>
      </trkpt>
      <trkpt lat="45.05583" lon="5.22849">
        <ele>162.6</ele>
        <time>2018-11-15T08:43:26Z</time>
      </trkpt>
      <trkpt lat="45.05583" lon="5.22863">
        <ele>162.6</ele>
        <time>2018-11-15T08:43:37Z</time>
      </trkpt>
      <trkpt lat="45.05581" lon="5.22869">
        <ele>163.56</ele>
        <time>2018-11-15T08:43:46Z</time>
      </trkpt>
      <trkpt lat="45.0558" lon="5.2287">
        <ele>163.56</ele>
        <time>2018-11-15T08:43:49Z</time>
      </trkpt>
      <trkpt lat="45.05572" lon="5.22874">
        <ele>162.12</ele>
        <time>2018-11-15T08:43:57Z</time>
      </trkpt>
      <trkpt lat="45.05562" lon="5.22881">
        <ele>162.6</ele>
        <time>2018-11-15T08:44:07Z</time>
      </trkpt>
      <trkpt lat="45.0556" lon="5.22881">
        <ele>165.48</ele>
        <time>2018-11-15T08:44:08Z</time>
      </trkpt>
      <trkpt lat="45.05552" lon="5.22895">
        <ele>165.48</ele>
        <time>2018-11-15T08:44:17Z</time>
      </trkpt>
      <trkpt lat="45.05552" lon="5.22899">
        <ele>169.33</ele>
        <time>2018-11-15T08:44:19Z</time>
      </trkpt>
      <trkpt lat="45.05553" lon="5.22905">
        <ele>165.48</ele>
        <time>2018-11-15T08:44:24Z</time>
      </trkpt>
      <trkpt lat="45.05553" lon="5.22907">
        <ele>169.33</ele>
        <time>2018-11-15T08:44:26Z</time>
      </trkpt>
      <trkpt lat="45.05553" lon="5.2291">
        <ele>169.33</ele>
        <time>2018-11-15T08:44:27Z</time>
      </trkpt>
      <trkpt lat="45.05553" lon="5.22912">
        <ele>171.25</ele>
        <time>2018-11-15T08:44:28Z</time>
      </trkpt>
      <trkpt lat="45.05554" lon="5.22916">
        <ele>170.77</ele>
        <time>2018-11-15T08:44:31Z</time>
      </trkpt>
      <trkpt lat="45.05555" lon="5.22919">
        <ele>166.45</ele>
        <time>2018-11-15T08:44:33Z</time>
      </trkpt>
      <trkpt lat="45.05556" lon="5.22921">
        <ele>170.29</ele>
        <time>2018-11-15T08:44:34Z</time>
      </trkpt>
      <trkpt lat="45.05559" lon="5.22927">
        <ele>174.14</ele>
        <time>2018-11-15T08:44:44Z</time>
      </trkpt>
      <trkpt lat="45.05559" lon="5.22927">
        <ele>169.33</ele>
        <time>2018-11-15T08:44:45Z</time>
      </trkpt>
      <trkpt lat="45.05559" lon="5.22927">
        <ele>173.66</ele>
        <time>2018-11-15T08:44:47Z</time>
      </trkpt>
      <trkpt lat="45.05559" lon="5.2293">
        <ele>169.81</ele>
        <time>2018-11-15T08:44:49Z</time>
      </trkpt>
      <trkpt lat="45.05559" lon="5.22931">
        <ele>171.73</ele>
        <time>2018-11-15T08:44:50Z</time>
      </trkpt>
      <trkpt lat="45.05559" lon="5.22935">
        <ele>174.62</ele>
        <time>2018-11-15T08:44:52Z</time>
      </trkpt>
      <trkpt lat="45.05558" lon="5.22938">
        <ele>171.25</ele>
        <time>2018-11-15T08:44:54Z</time>
      </trkpt>
      <trkpt lat="45.05557" lon="5.22939">
        <ele>171.25</ele>
        <time>2018-11-15T08:44:55Z</time>
      </trkpt>
      <trkpt lat="45.05557" lon="5.22941">
        <ele>177.02</ele>
        <time>2018-11-15T08:44:56Z</time>
      </trkpt>
      <trkpt lat="45.05557" lon="5.22942">
        <ele>177.02</ele>
        <time>2018-11-15T08:44:57Z</time>
      </trkpt>
      <trkpt lat="45.05557" lon="5.22944">
        <ele>172.69</ele>
        <time>2018-11-15T08:44:58Z</time>
      </trkpt>
      <trkpt lat="45.05556" lon="5.22945">
        <ele>174.62</ele>
        <time>2018-11-15T08:44:59Z</time>
      </trkpt>
      <trkpt lat="45.05554" lon="5.22956">
        <ele>177.98</ele>
        <time>2018-11-15T08:45:04Z</time>
      </trkpt>
      <trkpt lat="45.05553" lon="5.22958">
        <ele>177.5</ele>
        <time>2018-11-15T08:45:05Z</time>
      </trkpt>
      <trkpt lat="45.05553" lon="5.2296">
        <ele>174.14</ele>
        <time>2018-11-15T08:45:06Z</time>
      </trkpt>
      <trkpt lat="45.05552" lon="5.22962">
        <ele>177.5</ele>
        <time>2018-11-15T08:45:07Z</time>
      </trkpt>
      <trkpt lat="45.05551" lon="5.2297">
        <ele>180.38</ele>
        <time>2018-11-15T08:45:13Z</time>
      </trkpt>
      <trkpt lat="45.0555" lon="5.22971">
        <ele>176.06</ele>
        <time>2018-11-15T08:45:14Z</time>
      </trkpt>
      <trkpt lat="45.05549" lon="5.22973">
        <ele>179.9</ele>
        <time>2018-11-15T08:45:16Z</time>
      </trkpt>
      <trkpt lat="45.05549" lon="5.22975">
        <ele>176.06</ele>
        <time>2018-11-15T08:45:18Z</time>
      </trkpt>
      <trkpt lat="45.05549" lon="5.22976">
        <ele>179.9</ele>
        <time>2018-11-15T08:45:19Z</time>
      </trkpt>
      <trkpt lat="45.05548" lon="5.22978">
        <ele>180.87</ele>
        <time>2018-11-15T08:45:21Z</time>
      </trkpt>
      <trkpt lat="45.05548" lon="5.22981">
        <ele>177.98</ele>
        <time>2018-11-15T08:45:23Z</time>
      </trkpt>
      <trkpt lat="45.05548" lon="5.22983">
        <ele>181.35</ele>
        <time>2018-11-15T08:45:24Z</time>
      </trkpt>
      <trkpt lat="45.05548" lon="5.22988">
        <ele>184.71</ele>
        <time>2018-11-15T08:45:29Z</time>
      </trkpt>
      <trkpt lat="45.05549" lon="5.22989">
        <ele>180.87</ele>
        <time>2018-11-15T08:45:30Z</time>
      </trkpt>
      <trkpt lat="45.0555" lon="5.22997">
        <ele>185.19</ele>
        <time>2018-11-15T08:45:37Z</time>
      </trkpt>
      <trkpt lat="45.05551" lon="5.22998">
        <ele>181.83</ele>
        <time>2018-11-15T08:45:38Z</time>
      </trkpt>
      <trkpt lat="45.05553" lon="5.23001">
        <ele>185.19</ele>
        <time>2018-11-15T08:45:41Z</time>
      </trkpt>
      <trkpt lat="45.05553" lon="5.23002">
        <ele>180.87</ele>
        <time>2018-11-15T08:45:42Z</time>
      </trkpt>
      <trkpt lat="45.05554" lon="5.23003">
        <ele>184.23</ele>
        <time>2018-11-15T08:45:43Z</time>
      </trkpt>
      <trkpt lat="45.05559" lon="5.2301">
        <ele>184.71</ele>
        <time>2018-11-15T08:45:55Z</time>
      </trkpt>
      <trkpt lat="45.05563" lon="5.23012">
        <ele>187.59</ele>
        <time>2018-11-15T08:46:03Z</time>
      </trkpt>
      <trkpt lat="45.05566" lon="5.23015">
        <ele>188.08</ele>
        <time>2018-11-15T08:46:07Z</time>
      </trkpt>
      <trkpt lat="45.05568" lon="5.23016">
        <ele>185.19</ele>
        <time>2018-11-15T08:46:08Z</time>
      </trkpt>
      <trkpt lat="45.05569" lon="5.23018">
        <ele>186.63</ele>
        <time>2018-11-15T08:46:09Z</time>
      </trkpt>
      <trkpt lat="45.05571" lon="5.23021">
        <ele>187.59</ele>
        <time>2018-11-15T08:46:11Z</time>
      </trkpt>
      <trkpt lat="45.05581" lon="5.23032">
        <ele>186.63</ele>
        <time>2018-11-15T08:46:20Z</time>
      </trkpt>
      <trkpt lat="45.05583" lon="5.23038">
        <ele>189.04</ele>
        <time>2018-11-15T08:46:31Z</time>
      </trkpt>
      <trkpt lat="45.05583" lon="5.23039">
        <ele>189.04</ele>
        <time>2018-11-15T08:46:50Z</time>
      </trkpt>
      <trkpt lat="45.05587" lon="5.23038">
        <ele>190</ele>
        <time>2018-11-15T08:47:08Z</time>
      </trkpt>
      <trkpt lat="45.05592" lon="5.2304">
        <ele>189.52</ele>
        <time>2018-11-15T08:47:23Z</time>
      </trkpt>
      <trkpt lat="45.05601" lon="5.23045">
        <ele>188.56</ele>
        <time>2018-11-15T08:47:37Z</time>
      </trkpt>
      <trkpt lat="45.05605" lon="5.23048">
        <ele>188.08</ele>
        <time>2018-11-15T08:47:46Z</time>
      </trkpt>
      <trkpt lat="45.05612" lon="5.23055">
        <ele>188.08</ele>
        <time>2018-11-15T08:47:57Z</time>
      </trkpt>
      <trkpt lat="45.05619" lon="5.23064">
        <ele>189.52</ele>
        <time>2018-11-15T08:48:08Z</time>
      </trkpt>
      <trkpt lat="45.05636" lon="5.23066">
        <ele>188.08</ele>
        <time>2018-11-15T08:48:23Z</time>
      </trkpt>
      <trkpt lat="45.05646" lon="5.23062">
        <ele>188.08</ele>
        <time>2018-11-15T08:48:36Z</time>
      </trkpt>
      <trkpt lat="45.05651" lon="5.23056">
        <ele>188.56</ele>
        <time>2018-11-15T08:48:40Z</time>
      </trkpt>
      <trkpt lat="45.05664" lon="5.23049">
        <ele>187.11</ele>
        <time>2018-11-15T08:48:50Z</time>
      </trkpt>
      <trkpt lat="45.05673" lon="5.23045">
        <ele>187.11</ele>
        <time>2018-11-15T08:49:01Z</time>
      </trkpt>
      <trkpt lat="45.05677" lon="5.23044">
        <ele>189.04</ele>
        <time>2018-11-15T08:49:04Z</time>
      </trkpt>
      <trkpt lat="45.05686" lon="5.23048">
        <ele>188.08</ele>
        <time>2018-11-15T08:49:14Z</time>
      </trkpt>
      <trkpt lat="45.05687" lon="5.23048">
        <ele>186.63</ele>
        <time>2018-11-15T08:49:18Z</time>
      </trkpt>
      <trkpt lat="45.05689" lon="5.23048">
        <ele>188.08</ele>
        <time>2018-11-15T08:49:20Z</time>
      </trkpt>
      <trkpt lat="45.05704" lon="5.23059">
        <ele>188.56</ele>
        <time>2018-11-15T08:49:35Z</time>
      </trkpt>
      <trkpt lat="45.05728" lon="5.23059">
        <ele>189.04</ele>
        <time>2018-11-15T08:49:49Z</time>
      </trkpt>
      <trkpt lat="45.05737" lon="5.23059">
        <ele>188.56</ele>
        <time>2018-11-15T08:49:55Z</time>
      </trkpt>
      <trkpt lat="45.05746" lon="5.23064">
        <ele>191.44</ele>
        <time>2018-11-15T08:50:04Z</time>
      </trkpt>
      <trkpt lat="45.05753" lon="5.23069">
        <ele>190.48</ele>
        <time>2018-11-15T08:50:11Z</time>
      </trkpt>
      <trkpt lat="45.05756" lon="5.23071">
        <ele>191.44</ele>
        <time>2018-11-15T08:50:13Z</time>
      </trkpt>
      <trkpt lat="45.05766" lon="5.23078">
        <ele>192.88</ele>
        <time>2018-11-15T08:50:24Z</time>
      </trkpt>
      <trkpt lat="45.05771" lon="5.23083">
        <ele>190.48</ele>
        <time>2018-11-15T08:50:36Z</time>
      </trkpt>
      <trkpt lat="45.05775" lon="5.23083">
        <ele>193.36</ele>
        <time>2018-11-15T08:50:41Z</time>
      </trkpt>
      <trkpt lat="45.05777" lon="5.23083">
        <ele>191.92</ele>
        <time>2018-11-15T08:50:43Z</time>
      </trkpt>
      <trkpt lat="45.05788" lon="5.23086">
        <ele>191.92</ele>
        <time>2018-11-15T08:50:54Z</time>
      </trkpt>
      <trkpt lat="45.05797" lon="5.23089">
        <ele>192.88</ele>
        <time>2018-11-15T08:51:06Z</time>
      </trkpt>
      <trkpt lat="45.05798" lon="5.23089">
        <ele>192.88</ele>
        <time>2018-11-15T08:51:26Z</time>
      </trkpt>
      <trkpt lat="45.0581" lon="5.23081">
        <ele>191.92</ele>
        <time>2018-11-15T08:51:36Z</time>
      </trkpt>
      <trkpt lat="45.05811" lon="5.2308">
        <ele>191.44</ele>
        <time>2018-11-15T08:51:37Z</time>
      </trkpt>
      <trkpt lat="45.05815" lon="5.23079">
        <ele>191.92</ele>
        <time>2018-11-15T08:51:39Z</time>
      </trkpt>
      <trkpt lat="45.0583" lon="5.23065">
        <ele>190.48</ele>
        <time>2018-11-15T08:51:51Z</time>
      </trkpt>
      <trkpt lat="45.0584" lon="5.23056">
        <ele>189.52</ele>
        <time>2018-11-15T08:52:02Z</time>
      </trkpt>
      <trkpt lat="45.0584" lon="5.23057">
        <ele>189.52</ele>
        <time>2018-11-15T08:52:15Z</time>
      </trkpt>
      <trkpt lat="45.05841" lon="5.23056">
        <ele>189.52</ele>
        <time>2018-11-15T08:52:40Z</time>
      </trkpt>
      <trkpt lat="45.0585" lon="5.23049">
        <ele>188.56</ele>
        <time>2018-11-15T08:52:49Z</time>
      </trkpt>
      <trkpt lat="45.05851" lon="5.23047">
        <ele>189.04</ele>
        <time>2018-11-15T08:52:50Z</time>
      </trkpt>
      <trkpt lat="45.05864" lon="5.23035">
        <ele>188.56</ele>
        <time>2018-11-15T08:53:01Z</time>
      </trkpt>
      <trkpt lat="45.05874" lon="5.2303">
        <ele>187.59</ele>
        <time>2018-11-15T08:53:11Z</time>
      </trkpt>
      <trkpt lat="45.05883" lon="5.23028">
        <ele>185.19</ele>
        <time>2018-11-15T08:53:22Z</time>
      </trkpt>
      <trkpt lat="45.05894" lon="5.23024">
        <ele>183.27</ele>
        <time>2018-11-15T08:53:33Z</time>
      </trkpt>
      <trkpt lat="45.05911" lon="5.23013">
        <ele>180.87</ele>
        <time>2018-11-15T08:53:45Z</time>
      </trkpt>
      <trkpt lat="45.05917" lon="5.23006">
        <ele>178.94</ele>
        <time>2018-11-15T08:53:56Z</time>
      </trkpt>
      <trkpt lat="45.05924" lon="5.23002">
        <ele>176.54</ele>
        <time>2018-11-15T08:54:04Z</time>
      </trkpt>
      <trkpt lat="45.05932" lon="5.23002">
        <ele>174.62</ele>
        <time>2018-11-15T08:54:15Z</time>
      </trkpt>
      <trkpt lat="45.05937" lon="5.23002">
        <ele>173.17</ele>
        <time>2018-11-15T08:54:27Z</time>
      </trkpt>
      <trkpt lat="45.05947" lon="5.23001">
        <ele>171.25</ele>
        <time>2018-11-15T08:54:37Z</time>
      </trkpt>
      <trkpt lat="45.05954" lon="5.23">
        <ele>170.29</ele>
        <time>2018-11-15T08:54:48Z</time>
      </trkpt>
      <trkpt lat="45.05967" lon="5.22999">
        <ele>169.81</ele>
        <time>2018-11-15T08:55:00Z</time>
      </trkpt>
      <trkpt lat="45.05979" lon="5.22989">
        <ele>167.41</ele>
        <time>2018-11-15T08:55:11Z</time>
      </trkpt>
      <trkpt lat="45.05982" lon="5.22981">
        <ele>166.93</ele>
        <time>2018-11-15T08:55:21Z</time>
      </trkpt>
      <trkpt lat="45.05989" lon="5.22971">
        <ele>165.96</ele>
        <time>2018-11-15T08:55:32Z</time>
      </trkpt>
      <trkpt lat="45.05992" lon="5.22971">
        <ele>165.48</ele>
        <time>2018-11-15T08:55:37Z</time>
      </trkpt>
      <trkpt lat="45.06006" lon="5.22975">
        <ele>166.93</ele>
        <time>2018-11-15T08:55:47Z</time>
      </trkpt>
      <trkpt lat="45.06007" lon="5.22976">
        <ele>164.52</ele>
        <time>2018-11-15T08:55:48Z</time>
      </trkpt>
      <trkpt lat="45.06012" lon="5.22977">
        <ele>167.89</ele>
        <time>2018-11-15T08:55:51Z</time>
      </trkpt>
      <trkpt lat="45.06016" lon="5.22978">
        <ele>165</ele>
        <time>2018-11-15T08:55:55Z</time>
      </trkpt>
      <trkpt lat="45.06019" lon="5.22979">
        <ele>168.37</ele>
        <time>2018-11-15T08:55:58Z</time>
      </trkpt>
      <trkpt lat="45.0602" lon="5.2298">
        <ele>168.37</ele>
        <time>2018-11-15T08:56:02Z</time>
      </trkpt>
      <trkpt lat="45.06032" lon="5.22986">
        <ele>170.29</ele>
        <time>2018-11-15T08:56:16Z</time>
      </trkpt>
      <trkpt lat="45.06033" lon="5.22987">
        <ele>166.93</ele>
        <time>2018-11-15T08:56:18Z</time>
      </trkpt>
      <trkpt lat="45.06036" lon="5.2299">
        <ele>169.81</ele>
        <time>2018-11-15T08:56:20Z</time>
      </trkpt>
      <trkpt lat="45.06038" lon="5.22991">
        <ele>167.89</ele>
        <time>2018-11-15T08:56:22Z</time>
      </trkpt>
      <trkpt lat="45.06041" lon="5.22993">
        <ele>170.29</ele>
        <time>2018-11-15T08:56:25Z</time>
      </trkpt>
      <trkpt lat="45.06052" lon="5.22999">
        <ele>168.37</ele>
        <time>2018-11-15T08:56:35Z</time>
      </trkpt>
      <trkpt lat="45.06055" lon="5.23">
        <ele>171.73</ele>
        <time>2018-11-15T08:56:37Z</time>
      </trkpt>
      <trkpt lat="45.06059" lon="5.23001">
        <ele>170.77</ele>
        <time>2018-11-15T08:56:41Z</time>
      </trkpt>
      <trkpt lat="45.06067" lon="5.23002">
        <ele>170.77</ele>
        <time>2018-11-15T08:56:50Z</time>
      </trkpt>
      <trkpt lat="45.06076" lon="5.23008">
        <ele>170.29</ele>
        <time>2018-11-15T08:57:02Z</time>
      </trkpt>
      <trkpt lat="45.06084" lon="5.23014">
        <ele>172.21</ele>
        <time>2018-11-15T08:57:13Z</time>
      </trkpt>
      <trkpt lat="45.06089" lon="5.23017">
        <ele>171.73</ele>
        <time>2018-11-15T08:57:25Z</time>
      </trkpt>
      <trkpt lat="45.06092" lon="5.23024">
        <ele>171.73</ele>
        <time>2018-11-15T08:57:35Z</time>
      </trkpt>
      <trkpt lat="45.06096" lon="5.23029">
        <ele>173.66</ele>
        <time>2018-11-15T08:57:40Z</time>
      </trkpt>
      <trkpt lat="45.06099" lon="5.23032">
        <ele>172.21</ele>
        <time>2018-11-15T08:57:42Z</time>
      </trkpt>
      <trkpt lat="45.06111" lon="5.23036">
        <ele>170.77</ele>
        <time>2018-11-15T08:57:52Z</time>
      </trkpt>
      <trkpt lat="45.06121" lon="5.23036">
        <ele>172.69</ele>
        <time>2018-11-15T08:58:05Z</time>
      </trkpt>
      <trkpt lat="45.06123" lon="5.23034">
        <ele>170.77</ele>
        <time>2018-11-15T08:58:10Z</time>
      </trkpt>
      <trkpt lat="45.06135" lon="5.23039">
        <ele>170.77</ele>
        <time>2018-11-15T08:58:21Z</time>
      </trkpt>
      <trkpt lat="45.06149" lon="5.2304">
        <ele>172.21</ele>
        <time>2018-11-15T08:58:32Z</time>
      </trkpt>
      <trkpt lat="45.06154" lon="5.23045">
        <ele>169.81</ele>
        <time>2018-11-15T08:58:40Z</time>
      </trkpt>
      <trkpt lat="45.06158" lon="5.23047">
        <ele>173.17</ele>
        <time>2018-11-15T08:58:43Z</time>
      </trkpt>
      <trkpt lat="45.06158" lon="5.23048">
        <ele>169.33</ele>
        <time>2018-11-15T08:58:44Z</time>
      </trkpt>
      <trkpt lat="45.06159" lon="5.23048">
        <ele>173.17</ele>
        <time>2018-11-15T08:58:45Z</time>
      </trkpt>
      <trkpt lat="45.06165" lon="5.23053">
        <ele>174.14</ele>
        <time>2018-11-15T08:58:56Z</time>
      </trkpt>
      <trkpt lat="45.06167" lon="5.23055">
        <ele>172.69</ele>
        <time>2018-11-15T08:58:59Z</time>
      </trkpt>
      <trkpt lat="45.06169" lon="5.23057">
        <ele>174.62</ele>
        <time>2018-11-15T08:59:01Z</time>
      </trkpt>
      <trkpt lat="45.06172" lon="5.23058">
        <ele>175.1</ele>
        <time>2018-11-15T08:59:11Z</time>
      </trkpt>
      <trkpt lat="45.06175" lon="5.23061">
        <ele>177.98</ele>
        <time>2018-11-15T08:59:23Z</time>
      </trkpt>
      <trkpt lat="45.06173" lon="5.23065">
        <ele>177.98</ele>
        <time>2018-11-15T08:59:33Z</time>
      </trkpt>
      <trkpt lat="45.06173" lon="5.23066">
        <ele>179.9</ele>
        <time>2018-11-15T08:59:39Z</time>
      </trkpt>
      <trkpt lat="45.06174" lon="5.23067">
        <ele>177.02</ele>
        <time>2018-11-15T08:59:40Z</time>
      </trkpt>
      <trkpt lat="45.06174" lon="5.23067">
        <ele>177.98</ele>
        <time>2018-11-15T08:59:41Z</time>
      </trkpt>
      <trkpt lat="45.0618" lon="5.23075">
        <ele>177.98</ele>
        <time>2018-11-15T08:59:51Z</time>
      </trkpt>
      <trkpt lat="45.06181" lon="5.23075">
        <ele>178.94</ele>
        <time>2018-11-15T08:59:53Z</time>
      </trkpt>
      <trkpt lat="45.06188" lon="5.23079">
        <ele>178.94</ele>
        <time>2018-11-15T09:00:02Z</time>
      </trkpt>
      <trkpt lat="45.06198" lon="5.23088">
        <ele>178.94</ele>
        <time>2018-11-15T09:00:12Z</time>
      </trkpt>
      <trkpt lat="45.06209" lon="5.23096">
        <ele>177.5</ele>
        <time>2018-11-15T09:00:23Z</time>
      </trkpt>
      <trkpt lat="45.06211" lon="5.23098">
        <ele>181.35</ele>
        <time>2018-11-15T09:00:26Z</time>
      </trkpt>
      <trkpt lat="45.06212" lon="5.23098">
        <ele>180.87</ele>
        <time>2018-11-15T09:00:27Z</time>
      </trkpt>
      <trkpt lat="45.06214" lon="5.231">
        <ele>178.46</ele>
        <time>2018-11-15T09:00:29Z</time>
      </trkpt>
      <trkpt lat="45.06225" lon="5.23107">
        <ele>179.42</ele>
        <time>2018-11-15T09:00:39Z</time>
      </trkpt>
      <trkpt lat="45.06237" lon="5.23113">
        <ele>180.87</ele>
        <time>2018-11-15T09:00:50Z</time>
      </trkpt>
      <trkpt lat="45.06246" lon="5.23116">
        <ele>178.46</ele>
        <time>2018-11-15T09:01:00Z</time>
      </trkpt>
      <trkpt lat="45.06248" lon="5.23119">
        <ele>179.42</ele>
        <time>2018-11-15T09:01:02Z</time>
      </trkpt>
      <trkpt lat="45.06253" lon="5.23124">
        <ele>179.42</ele>
        <time>2018-11-15T09:01:06Z</time>
      </trkpt>
      <trkpt lat="45.06261" lon="5.23134">
        <ele>180.38</ele>
        <time>2018-11-15T09:01:16Z</time>
      </trkpt>
      <trkpt lat="45.0627" lon="5.2314">
        <ele>178.46</ele>
        <time>2018-11-15T09:01:27Z</time>
      </trkpt>
      <trkpt lat="45.06281" lon="5.23143">
        <ele>178.46</ele>
        <time>2018-11-15T09:01:38Z</time>
      </trkpt>
      <trkpt lat="45.06297" lon="5.23153">
        <ele>177.98</ele>
        <time>2018-11-15T09:01:50Z</time>
      </trkpt>
      <trkpt lat="45.0631" lon="5.23158">
        <ele>177.02</ele>
        <time>2018-11-15T09:02:03Z</time>
      </trkpt>
      <trkpt lat="45.06319" lon="5.23163">
        <ele>177.02</ele>
        <time>2018-11-15T09:02:11Z</time>
      </trkpt>
      <trkpt lat="45.06326" lon="5.23168">
        <ele>176.06</ele>
        <time>2018-11-15T09:02:20Z</time>
      </trkpt>
      <trkpt lat="45.06336" lon="5.23173">
        <ele>175.58</ele>
        <time>2018-11-15T09:02:31Z</time>
      </trkpt>
      <trkpt lat="45.06344" lon="5.23184">
        <ele>174.62</ele>
        <time>2018-11-15T09:02:42Z</time>
      </trkpt>
      <trkpt lat="45.06352" lon="5.23192">
        <ele>174.62</ele>
        <time>2018-11-15T09:02:53Z</time>
      </trkpt>
      <trkpt lat="45.06361" lon="5.23202">
        <ele>173.17</ele>
        <time>2018-11-15T09:03:05Z</time>
      </trkpt>
      <trkpt lat="45.06363" lon="5.23205">
        <ele>173.17</ele>
        <time>2018-11-15T09:03:08Z</time>
      </trkpt>
      <trkpt lat="45.0637" lon="5.23211">
        <ele>173.17</ele>
        <time>2018-11-15T09:03:17Z</time>
      </trkpt>
      <trkpt lat="45.06372" lon="5.23213">
        <ele>173.66</ele>
        <time>2018-11-15T09:03:21Z</time>
      </trkpt>
      <trkpt lat="45.06374" lon="5.23222">
        <ele>173.66</ele>
        <time>2018-11-15T09:03:32Z</time>
      </trkpt>
      <trkpt lat="45.06375" lon="5.23221">
        <ele>173.66</ele>
        <time>2018-11-15T09:03:44Z</time>
      </trkpt>
      <trkpt lat="45.06384" lon="5.2322">
        <ele>170.29</ele>
        <time>2018-11-15T09:03:53Z</time>
      </trkpt>
      <trkpt lat="45.06385" lon="5.2322">
        <ele>170.29</ele>
        <time>2018-11-15T09:03:54Z</time>
      </trkpt>
      <trkpt lat="45.06392" lon="5.23222">
        <ele>169.33</ele>
        <time>2018-11-15T09:03:59Z</time>
      </trkpt>
      <trkpt lat="45.06401" lon="5.23233">
        <ele>168.37</ele>
        <time>2018-11-15T09:04:09Z</time>
      </trkpt>
      <trkpt lat="45.06413" lon="5.23243">
        <ele>165.96</ele>
        <time>2018-11-15T09:04:21Z</time>
      </trkpt>
      <trkpt lat="45.06416" lon="5.23244">
        <ele>167.41</ele>
        <time>2018-11-15T09:04:23Z</time>
      </trkpt>
      <trkpt lat="45.06422" lon="5.23251">
        <ele>166.45</ele>
        <time>2018-11-15T09:04:33Z</time>
      </trkpt>
      <trkpt lat="45.06427" lon="5.23259">
        <ele>166.45</ele>
        <time>2018-11-15T09:04:43Z</time>
      </trkpt>
      <trkpt lat="45.06439" lon="5.23267">
        <ele>164.04</ele>
        <time>2018-11-15T09:04:57Z</time>
      </trkpt>
      <trkpt lat="45.06447" lon="5.23278">
        <ele>165.96</ele>
        <time>2018-11-15T09:05:09Z</time>
      </trkpt>
      <trkpt lat="45.06453" lon="5.23285">
        <ele>165</ele>
        <time>2018-11-15T09:05:15Z</time>
      </trkpt>
      <trkpt lat="45.06455" lon="5.23289">
        <ele>165.96</ele>
        <time>2018-11-15T09:05:26Z</time>
      </trkpt>
      <trkpt lat="45.06465" lon="5.23292">
        <ele>165</ele>
        <time>2018-11-15T09:05:37Z</time>
      </trkpt>
      <trkpt lat="45.06471" lon="5.233">
        <ele>165</ele>
        <time>2018-11-15T09:05:43Z</time>
      </trkpt>
      <trkpt lat="45.06472" lon="5.23304">
        <ele>162.12</ele>
        <time>2018-11-15T09:05:46Z</time>
      </trkpt>
      <trkpt lat="45.06473" lon="5.23305">
        <ele>166.45</ele>
        <time>2018-11-15T09:05:48Z</time>
      </trkpt>
      <trkpt lat="45.06475" lon="5.23306">
        <ele>162.6</ele>
        <time>2018-11-15T09:05:49Z</time>
      </trkpt>
      <trkpt lat="45.06476" lon="5.23308">
        <ele>166.45</ele>
        <time>2018-11-15T09:05:51Z</time>
      </trkpt>
      <trkpt lat="45.06476" lon="5.23309">
        <ele>163.56</ele>
        <time>2018-11-15T09:05:52Z</time>
      </trkpt>
      <trkpt lat="45.06477" lon="5.2331">
        <ele>165.48</ele>
        <time>2018-11-15T09:05:53Z</time>
      </trkpt>
      <trkpt lat="45.06478" lon="5.23316">
        <ele>165</ele>
        <time>2018-11-15T09:05:57Z</time>
      </trkpt>
      <trkpt lat="45.0648" lon="5.23315">
        <ele>164.52</ele>
        <time>2018-11-15T09:06:10Z</time>
      </trkpt>
      <trkpt lat="45.06481" lon="5.23313">
        <ele>167.41</ele>
        <time>2018-11-15T09:06:20Z</time>
      </trkpt>
      <trkpt lat="45.06481" lon="5.23312">
        <ele>164.52</ele>
        <time>2018-11-15T09:06:22Z</time>
      </trkpt>
      <trkpt lat="45.06479" lon="5.23294">
        <ele>164.52</ele>
        <time>2018-11-15T09:06:33Z</time>
      </trkpt>
      <trkpt lat="45.06478" lon="5.2328">
        <ele>163.56</ele>
        <time>2018-11-15T09:06:44Z</time>
      </trkpt>
      <trkpt lat="45.0648" lon="5.23278">
        <ele>163.56</ele>
        <time>2018-11-15T09:06:46Z</time>
      </trkpt>
      <trkpt lat="45.06484" lon="5.23288">
        <ele>164.52</ele>
        <time>2018-11-15T09:06:53Z</time>
      </trkpt>
      <trkpt lat="45.0649" lon="5.23303">
        <ele>162.6</ele>
        <time>2018-11-15T09:07:02Z</time>
      </trkpt>
      <trkpt lat="45.06491" lon="5.23305">
        <ele>164.52</ele>
        <time>2018-11-15T09:07:03Z</time>
      </trkpt>
      <trkpt lat="45.06491" lon="5.23306">
        <ele>163.56</ele>
        <time>2018-11-15T09:07:04Z</time>
      </trkpt>
      <trkpt lat="45.06493" lon="5.23315">
        <ele>162.12</ele>
        <time>2018-11-15T09:07:09Z</time>
      </trkpt>
      <trkpt lat="45.06493" lon="5.23316">
        <ele>164.04</ele>
        <time>2018-11-15T09:07:10Z</time>
      </trkpt>
      <trkpt lat="45.06494" lon="5.23324">
        <ele>165</ele>
        <time>2018-11-15T09:07:15Z</time>
      </trkpt>
      <trkpt lat="45.06495" lon="5.23326">
        <ele>165</ele>
        <time>2018-11-15T09:07:16Z</time>
      </trkpt>
      <trkpt lat="45.06498" lon="5.23332">
        <ele>163.56</ele>
        <time>2018-11-15T09:07:20Z</time>
      </trkpt>
      <trkpt lat="45.06499" lon="5.23334">
        <ele>164.04</ele>
        <time>2018-11-15T09:07:22Z</time>
      </trkpt>
      <trkpt lat="45.065" lon="5.23336">
        <ele>165.96</ele>
        <time>2018-11-15T09:07:23Z</time>
      </trkpt>
      <trkpt lat="45.065" lon="5.23339">
        <ele>164.04</ele>
        <time>2018-11-15T09:07:25Z</time>
      </trkpt>
      <trkpt lat="45.065" lon="5.23339">
        <ele>163.08</ele>
        <time>2018-11-15T09:07:26Z</time>
      </trkpt>
      <trkpt lat="45.06502" lon="5.23348">
        <ele>165</ele>
        <time>2018-11-15T09:07:32Z</time>
      </trkpt>
      <trkpt lat="45.06503" lon="5.23352">
        <ele>165</ele>
        <time>2018-11-15T09:07:34Z</time>
      </trkpt>
      <trkpt lat="45.06505" lon="5.2336">
        <ele>164.52</ele>
        <time>2018-11-15T09:07:38Z</time>
      </trkpt>
      <trkpt lat="45.06506" lon="5.23364">
        <ele>163.56</ele>
        <time>2018-11-15T09:07:41Z</time>
      </trkpt>
      <trkpt lat="45.06506" lon="5.23365">
        <ele>165.48</ele>
        <time>2018-11-15T09:07:42Z</time>
      </trkpt>
      <trkpt lat="45.06506" lon="5.23366">
        <ele>165.96</ele>
        <time>2018-11-15T09:07:43Z</time>
      </trkpt>
      <trkpt lat="45.06507" lon="5.23374">
        <ele>164.04</ele>
        <time>2018-11-15T09:07:47Z</time>
      </trkpt>
      <trkpt lat="45.0651" lon="5.2338">
        <ele>166.45</ele>
        <time>2018-11-15T09:07:51Z</time>
      </trkpt>
      <trkpt lat="45.0651" lon="5.23382">
        <ele>165.48</ele>
        <time>2018-11-15T09:07:52Z</time>
      </trkpt>
      <trkpt lat="45.06513" lon="5.23386">
        <ele>165</ele>
        <time>2018-11-15T09:07:55Z</time>
      </trkpt>
      <trkpt lat="45.06518" lon="5.23395">
        <ele>164.52</ele>
        <time>2018-11-15T09:08:01Z</time>
      </trkpt>
      <trkpt lat="45.06522" lon="5.23412">
        <ele>163.08</ele>
        <time>2018-11-15T09:08:11Z</time>
      </trkpt>
      <trkpt lat="45.06523" lon="5.23413">
        <ele>163.56</ele>
        <time>2018-11-15T09:08:12Z</time>
      </trkpt>
      <trkpt lat="45.06527" lon="5.23423">
        <ele>163.08</ele>
        <time>2018-11-15T09:08:17Z</time>
      </trkpt>
      <trkpt lat="45.06534" lon="5.23437">
        <ele>165</ele>
        <time>2018-11-15T09:08:25Z</time>
      </trkpt>
      <trkpt lat="45.06534" lon="5.23438">
        <ele>163.56</ele>
        <time>2018-11-15T09:08:26Z</time>
      </trkpt>
      <trkpt lat="45.06541" lon="5.23447">
        <ele>162.6</ele>
        <time>2018-11-15T09:08:35Z</time>
      </trkpt>
      <trkpt lat="45.06542" lon="5.2345">
        <ele>162.6</ele>
        <time>2018-11-15T09:08:48Z</time>
      </trkpt>
      <trkpt lat="45.06544" lon="5.23454">
        <ele>161.64</ele>
        <time>2018-11-15T09:08:53Z</time>
      </trkpt>
      <trkpt lat="45.06543" lon="5.23455">
        <ele>165.48</ele>
        <time>2018-11-15T09:08:56Z</time>
      </trkpt>
      <trkpt lat="45.06543" lon="5.23455">
        <ele>159.72</ele>
        <time>2018-11-15T09:08:57Z</time>
      </trkpt>
      <trkpt lat="45.06543" lon="5.23456">
        <ele>163.56</ele>
        <time>2018-11-15T09:08:58Z</time>
      </trkpt>
      <trkpt lat="45.06542" lon="5.23458">
        <ele>162.12</ele>
        <time>2018-11-15T09:09:00Z</time>
      </trkpt>
      <trkpt lat="45.06542" lon="5.23461">
        <ele>164.52</ele>
        <time>2018-11-15T09:09:02Z</time>
      </trkpt>
      <trkpt lat="45.06541" lon="5.23461">
        <ele>161.16</ele>
        <time>2018-11-15T09:09:03Z</time>
      </trkpt>
      <trkpt lat="45.06541" lon="5.23464">
        <ele>165.96</ele>
        <time>2018-11-15T09:09:04Z</time>
      </trkpt>
      <trkpt lat="45.06541" lon="5.23465">
        <ele>164.52</ele>
        <time>2018-11-15T09:09:05Z</time>
      </trkpt>
      <trkpt lat="45.0654" lon="5.23468">
        <ele>163.56</ele>
        <time>2018-11-15T09:09:07Z</time>
      </trkpt>
      <trkpt lat="45.06539" lon="5.23469">
        <ele>165.48</ele>
        <time>2018-11-15T09:09:08Z</time>
      </trkpt>
      <trkpt lat="45.06539" lon="5.2347">
        <ele>164.04</ele>
        <time>2018-11-15T09:09:09Z</time>
      </trkpt>
      <trkpt lat="45.06537" lon="5.23473">
        <ele>163.56</ele>
        <time>2018-11-15T09:09:12Z</time>
      </trkpt>
      <trkpt lat="45.06537" lon="5.23474">
        <ele>166.93</ele>
        <time>2018-11-15T09:09:13Z</time>
      </trkpt>
      <trkpt lat="45.06536" lon="5.23475">
        <ele>161.64</ele>
        <time>2018-11-15T09:09:14Z</time>
      </trkpt>
      <trkpt lat="45.06534" lon="5.2348">
        <ele>167.89</ele>
        <time>2018-11-15T09:09:19Z</time>
      </trkpt>
      <trkpt lat="45.06534" lon="5.23481">
        <ele>164.52</ele>
        <time>2018-11-15T09:09:20Z</time>
      </trkpt>
      <trkpt lat="45.06533" lon="5.23482">
        <ele>162.6</ele>
        <time>2018-11-15T09:09:22Z</time>
      </trkpt>
      <trkpt lat="45.06533" lon="5.23482">
        <ele>166.45</ele>
        <time>2018-11-15T09:09:23Z</time>
      </trkpt>
      <trkpt lat="45.06532" lon="5.23483">
        <ele>165</ele>
        <time>2018-11-15T09:09:24Z</time>
      </trkpt>
      <trkpt lat="45.06532" lon="5.23483">
        <ele>166.45</ele>
        <time>2018-11-15T09:09:25Z</time>
      </trkpt>
      <trkpt lat="45.0653" lon="5.23483">
        <ele>168.37</ele>
        <time>2018-11-15T09:09:26Z</time>
      </trkpt>
      <trkpt lat="45.06529" lon="5.23483">
        <ele>165.96</ele>
        <time>2018-11-15T09:09:27Z</time>
      </trkpt>
      <trkpt lat="45.06528" lon="5.23484">
        <ele>163.08</ele>
        <time>2018-11-15T09:09:30Z</time>
      </trkpt>
      <trkpt lat="45.06528" lon="5.23485">
        <ele>170.29</ele>
        <time>2018-11-15T09:09:31Z</time>
      </trkpt>
      <trkpt lat="45.06528" lon="5.23485">
        <ele>165</ele>
        <time>2018-11-15T09:09:32Z</time>
      </trkpt>
      <trkpt lat="45.06527" lon="5.23485">
        <ele>167.89</ele>
        <time>2018-11-15T09:09:33Z</time>
      </trkpt>
      <trkpt lat="45.06526" lon="5.23486">
        <ele>164.52</ele>
        <time>2018-11-15T09:09:35Z</time>
      </trkpt>
      <trkpt lat="45.06527" lon="5.23487">
        <ele>169.81</ele>
        <time>2018-11-15T09:09:36Z</time>
      </trkpt>
      <trkpt lat="45.06526" lon="5.23487">
        <ele>165.96</ele>
        <time>2018-11-15T09:09:37Z</time>
      </trkpt>
      <trkpt lat="45.06525" lon="5.23488">
        <ele>168.37</ele>
        <time>2018-11-15T09:09:38Z</time>
      </trkpt>
      <trkpt lat="45.06525" lon="5.23488">
        <ele>165</ele>
        <time>2018-11-15T09:09:39Z</time>
      </trkpt>
      <trkpt lat="45.06524" lon="5.23489">
        <ele>166.93</ele>
        <time>2018-11-15T09:09:40Z</time>
      </trkpt>
      <trkpt lat="45.06524" lon="5.23489">
        <ele>168.85</ele>
        <time>2018-11-15T09:09:41Z</time>
      </trkpt>
      <trkpt lat="45.06524" lon="5.23489">
        <ele>165.96</ele>
        <time>2018-11-15T09:09:42Z</time>
      </trkpt>
      <trkpt lat="45.06524" lon="5.2349">
        <ele>169.33</ele>
        <time>2018-11-15T09:09:43Z</time>
      </trkpt>
      <trkpt lat="45.06524" lon="5.23491">
        <ele>165.96</ele>
        <time>2018-11-15T09:09:44Z</time>
      </trkpt>
      <trkpt lat="45.06524" lon="5.23492">
        <ele>169.33</ele>
        <time>2018-11-15T09:09:45Z</time>
      </trkpt>
      <trkpt lat="45.06522" lon="5.23495">
        <ele>166.93</ele>
        <time>2018-11-15T09:09:48Z</time>
      </trkpt>
      <trkpt lat="45.06522" lon="5.23496">
        <ele>169.33</ele>
        <time>2018-11-15T09:09:49Z</time>
      </trkpt>
      <trkpt lat="45.06522" lon="5.23498">
        <ele>165.48</ele>
        <time>2018-11-15T09:09:50Z</time>
      </trkpt>
      <trkpt lat="45.0652" lon="5.23499">
        <ele>165.48</ele>
        <time>2018-11-15T09:09:53Z</time>
      </trkpt>
      <trkpt lat="45.0652" lon="5.23499">
        <ele>170.29</ele>
        <time>2018-11-15T09:09:54Z</time>
      </trkpt>
      <trkpt lat="45.0652" lon="5.23499">
        <ele>166.45</ele>
        <time>2018-11-15T09:09:55Z</time>
      </trkpt>
      <trkpt lat="45.06519" lon="5.23499">
        <ele>170.29</ele>
        <time>2018-11-15T09:09:56Z</time>
      </trkpt>
      <trkpt lat="45.06519" lon="5.235">
        <ele>167.89</ele>
        <time>2018-11-15T09:09:57Z</time>
      </trkpt>
      <trkpt lat="45.06519" lon="5.235">
        <ele>170.77</ele>
        <time>2018-11-15T09:09:58Z</time>
      </trkpt>
      <trkpt lat="45.06519" lon="5.235">
        <ele>173.17</ele>
        <time>2018-11-15T09:09:59Z</time>
      </trkpt>
      <trkpt lat="45.06519" lon="5.235">
        <ele>168.37</ele>
        <time>2018-11-15T09:10:00Z</time>
      </trkpt>
      <trkpt lat="45.06518" lon="5.235">
        <ele>171.25</ele>
        <time>2018-11-15T09:10:01Z</time>
      </trkpt>
      <trkpt lat="45.06518" lon="5.235">
        <ele>167.89</ele>
        <time>2018-11-15T09:10:02Z</time>
      </trkpt>
      <trkpt lat="45.06518" lon="5.235">
        <ele>167.41</ele>
        <time>2018-11-15T09:10:03Z</time>
      </trkpt>
      <trkpt lat="45.06518" lon="5.235">
        <ele>167.41</ele>
        <time>2018-11-15T09:10:04Z</time>
      </trkpt>
      <trkpt lat="45.06518" lon="5.235">
        <ele>173.66</ele>
        <time>2018-11-15T09:10:09Z</time>
      </trkpt>
      <trkpt lat="45.06518" lon="5.235">
        <ele>171.25</ele>
        <time>2018-11-15T09:10:10Z</time>
      </trkpt>
      <trkpt lat="45.06518" lon="5.235">
        <ele>172.69</ele>
        <time>2018-11-15T09:10:11Z</time>
      </trkpt>
      <trkpt lat="45.06516" lon="5.23501">
        <ele>168.37</ele>
        <time>2018-11-15T09:10:12Z</time>
      </trkpt>
      <trkpt lat="45.06516" lon="5.23501">
        <ele>174.62</ele>
        <time>2018-11-15T09:10:13Z</time>
      </trkpt>
      <trkpt lat="45.06516" lon="5.23501">
        <ele>170.29</ele>
        <time>2018-11-15T09:10:14Z</time>
      </trkpt>
      <trkpt lat="45.06516" lon="5.23501">
        <ele>172.21</ele>
        <time>2018-11-15T09:10:15Z</time>
      </trkpt>
      <trkpt lat="45.06516" lon="5.23501">
        <ele>174.14</ele>
        <time>2018-11-15T09:10:16Z</time>
      </trkpt>
      <trkpt lat="45.06513" lon="5.235">
        <ele>169.33</ele>
        <time>2018-11-15T09:10:18Z</time>
      </trkpt>
      <trkpt lat="45.06513" lon="5.235">
        <ele>173.66</ele>
        <time>2018-11-15T09:10:19Z</time>
      </trkpt>
      <trkpt lat="45.06509" lon="5.23499">
        <ele>174.14</ele>
        <time>2018-11-15T09:10:21Z</time>
      </trkpt>
      <trkpt lat="45.06509" lon="5.23499">
        <ele>169.81</ele>
        <time>2018-11-15T09:10:22Z</time>
      </trkpt>
      <trkpt lat="45.06508" lon="5.23498">
        <ele>174.14</ele>
        <time>2018-11-15T09:10:23Z</time>
      </trkpt>
      <trkpt lat="45.06507" lon="5.23498">
        <ele>168.85</ele>
        <time>2018-11-15T09:10:24Z</time>
      </trkpt>
      <trkpt lat="45.06506" lon="5.23498">
        <ele>175.58</ele>
        <time>2018-11-15T09:10:25Z</time>
      </trkpt>
      <trkpt lat="45.06506" lon="5.23498">
        <ele>170.29</ele>
        <time>2018-11-15T09:10:26Z</time>
      </trkpt>
      <trkpt lat="45.06506" lon="5.23498">
        <ele>175.1</ele>
        <time>2018-11-15T09:10:27Z</time>
      </trkpt>
      <trkpt lat="45.06505" lon="5.23498">
        <ele>171.25</ele>
        <time>2018-11-15T09:10:28Z</time>
      </trkpt>
      <trkpt lat="45.06504" lon="5.23499">
        <ele>170.77</ele>
        <time>2018-11-15T09:10:29Z</time>
      </trkpt>
      <trkpt lat="45.06504" lon="5.23499">
        <ele>176.06</ele>
        <time>2018-11-15T09:10:30Z</time>
      </trkpt>
      <trkpt lat="45.06502" lon="5.235">
        <ele>171.25</ele>
        <time>2018-11-15T09:10:31Z</time>
      </trkpt>
      <trkpt lat="45.06501" lon="5.23502">
        <ele>174.62</ele>
        <time>2018-11-15T09:10:32Z</time>
      </trkpt>
      <trkpt lat="45.065" lon="5.23503">
        <ele>170.77</ele>
        <time>2018-11-15T09:10:33Z</time>
      </trkpt>
      <trkpt lat="45.065" lon="5.23503">
        <ele>175.1</ele>
        <time>2018-11-15T09:10:34Z</time>
      </trkpt>
      <trkpt lat="45.06499" lon="5.23504">
        <ele>172.69</ele>
        <time>2018-11-15T09:10:35Z</time>
      </trkpt>
      <trkpt lat="45.06499" lon="5.23504">
        <ele>174.62</ele>
        <time>2018-11-15T09:10:36Z</time>
      </trkpt>
      <trkpt lat="45.06499" lon="5.23504">
        <ele>172.69</ele>
        <time>2018-11-15T09:10:37Z</time>
      </trkpt>
      <trkpt lat="45.06499" lon="5.23504">
        <ele>175.1</ele>
        <time>2018-11-15T09:10:38Z</time>
      </trkpt>
      <trkpt lat="45.06499" lon="5.23505">
        <ele>173.66</ele>
        <time>2018-11-15T09:10:39Z</time>
      </trkpt>
      <trkpt lat="45.06497" lon="5.23506">
        <ele>176.54</ele>
        <time>2018-11-15T09:10:41Z</time>
      </trkpt>
      <trkpt lat="45.06497" lon="5.23506">
        <ele>173.66</ele>
        <time>2018-11-15T09:10:43Z</time>
      </trkpt>
      <trkpt lat="45.06496" lon="5.23507">
        <ele>177.5</ele>
        <time>2018-11-15T09:10:44Z</time>
      </trkpt>
      <trkpt lat="45.06495" lon="5.23507">
        <ele>174.14</ele>
        <time>2018-11-15T09:10:45Z</time>
      </trkpt>
      <trkpt lat="45.06495" lon="5.23508">
        <ele>176.06</ele>
        <time>2018-11-15T09:10:46Z</time>
      </trkpt>
      <trkpt lat="45.06495" lon="5.23508">
        <ele>172.69</ele>
        <time>2018-11-15T09:10:47Z</time>
      </trkpt>
      <trkpt lat="45.06495" lon="5.23509">
        <ele>177.5</ele>
        <time>2018-11-15T09:10:48Z</time>
      </trkpt>
      <trkpt lat="45.06495" lon="5.23509">
        <ele>174.14</ele>
        <time>2018-11-15T09:10:49Z</time>
      </trkpt>
      <trkpt lat="45.06495" lon="5.23509">
        <ele>176.54</ele>
        <time>2018-11-15T09:10:50Z</time>
      </trkpt>
      <trkpt lat="45.06495" lon="5.2351">
        <ele>173.66</ele>
        <time>2018-11-15T09:10:51Z</time>
      </trkpt>
      <trkpt lat="45.06494" lon="5.23511">
        <ele>178.94</ele>
        <time>2018-11-15T09:10:53Z</time>
      </trkpt>
      <trkpt lat="45.06495" lon="5.23512">
        <ele>175.58</ele>
        <time>2018-11-15T09:10:54Z</time>
      </trkpt>
      <trkpt lat="45.06495" lon="5.23512">
        <ele>175.58</ele>
        <time>2018-11-15T09:10:55Z</time>
      </trkpt>
      <trkpt lat="45.06496" lon="5.23513">
        <ele>177.5</ele>
        <time>2018-11-15T09:10:56Z</time>
      </trkpt>
      <trkpt lat="45.06495" lon="5.23514">
        <ele>181.35</ele>
        <time>2018-11-15T09:10:59Z</time>
      </trkpt>
      <trkpt lat="45.06495" lon="5.23514">
        <ele>176.54</ele>
        <time>2018-11-15T09:11:00Z</time>
      </trkpt>
      <trkpt lat="45.06495" lon="5.23515">
        <ele>182.79</ele>
        <time>2018-11-15T09:11:01Z</time>
      </trkpt>
      <trkpt lat="45.06494" lon="5.23514">
        <ele>177.98</ele>
        <time>2018-11-15T09:11:02Z</time>
      </trkpt>
      <trkpt lat="45.06494" lon="5.23515">
        <ele>176.06</ele>
        <time>2018-11-15T09:11:04Z</time>
      </trkpt>
      <trkpt lat="45.06494" lon="5.23516">
        <ele>179.9</ele>
        <time>2018-11-15T09:11:05Z</time>
      </trkpt>
      <trkpt lat="45.06494" lon="5.23516">
        <ele>179.42</ele>
        <time>2018-11-15T09:11:06Z</time>
      </trkpt>
      <trkpt lat="45.06494" lon="5.23518">
        <ele>176.54</ele>
        <time>2018-11-15T09:11:07Z</time>
      </trkpt>
      <trkpt lat="45.06494" lon="5.23519">
        <ele>180.87</ele>
        <time>2018-11-15T09:11:08Z</time>
      </trkpt>
      <trkpt lat="45.06493" lon="5.23519">
        <ele>177.5</ele>
        <time>2018-11-15T09:11:09Z</time>
      </trkpt>
      <trkpt lat="45.06493" lon="5.2352">
        <ele>179.42</ele>
        <time>2018-11-15T09:11:10Z</time>
      </trkpt>
      <trkpt lat="45.06493" lon="5.2352">
        <ele>181.35</ele>
        <time>2018-11-15T09:11:11Z</time>
      </trkpt>
      <trkpt lat="45.06493" lon="5.23521">
        <ele>179.42</ele>
        <time>2018-11-15T09:11:12Z</time>
      </trkpt>
      <trkpt lat="45.06493" lon="5.23521">
        <ele>183.27</ele>
        <time>2018-11-15T09:11:13Z</time>
      </trkpt>
      <trkpt lat="45.06493" lon="5.23522">
        <ele>178.94</ele>
        <time>2018-11-15T09:11:14Z</time>
      </trkpt>
      <trkpt lat="45.06493" lon="5.23523">
        <ele>183.27</ele>
        <time>2018-11-15T09:11:15Z</time>
      </trkpt>
      <trkpt lat="45.06493" lon="5.23524">
        <ele>177.98</ele>
        <time>2018-11-15T09:11:16Z</time>
      </trkpt>
      <trkpt lat="45.06493" lon="5.23525">
        <ele>180.38</ele>
        <time>2018-11-15T09:11:17Z</time>
      </trkpt>
      <trkpt lat="45.06493" lon="5.23526">
        <ele>178.46</ele>
        <time>2018-11-15T09:11:18Z</time>
      </trkpt>
      <trkpt lat="45.06493" lon="5.23527">
        <ele>180.38</ele>
        <time>2018-11-15T09:11:19Z</time>
      </trkpt>
      <trkpt lat="45.06492" lon="5.23529">
        <ele>178.94</ele>
        <time>2018-11-15T09:11:22Z</time>
      </trkpt>
      <trkpt lat="45.06492" lon="5.23529">
        <ele>180.87</ele>
        <time>2018-11-15T09:11:23Z</time>
      </trkpt>
      <trkpt lat="45.06492" lon="5.23529">
        <ele>180.87</ele>
        <time>2018-11-15T09:11:25Z</time>
      </trkpt>
      <trkpt lat="45.06492" lon="5.2353">
        <ele>178.94</ele>
        <time>2018-11-15T09:11:26Z</time>
      </trkpt>
      <trkpt lat="45.06492" lon="5.2353">
        <ele>181.83</ele>
        <time>2018-11-15T09:11:27Z</time>
      </trkpt>
      <trkpt lat="45.06492" lon="5.23531">
        <ele>177.98</ele>
        <time>2018-11-15T09:11:29Z</time>
      </trkpt>
      <trkpt lat="45.06492" lon="5.23531">
        <ele>182.79</ele>
        <time>2018-11-15T09:11:30Z</time>
      </trkpt>
      <trkpt lat="45.06492" lon="5.2353">
        <ele>180.87</ele>
        <time>2018-11-15T09:11:31Z</time>
      </trkpt>
      <trkpt lat="45.06492" lon="5.2353">
        <ele>182.31</ele>
        <time>2018-11-15T09:11:32Z</time>
      </trkpt>
      <trkpt lat="45.06492" lon="5.23531">
        <ele>179.9</ele>
        <time>2018-11-15T09:11:33Z</time>
      </trkpt>
      <trkpt lat="45.06492" lon="5.23531">
        <ele>185.19</ele>
        <time>2018-11-15T09:11:34Z</time>
      </trkpt>
      <trkpt lat="45.06491" lon="5.23533">
        <ele>180.38</ele>
        <time>2018-11-15T09:11:37Z</time>
      </trkpt>
      <trkpt lat="45.06491" lon="5.23534">
        <ele>186.15</ele>
        <time>2018-11-15T09:11:38Z</time>
      </trkpt>
      <trkpt lat="45.06491" lon="5.23535">
        <ele>182.31</ele>
        <time>2018-11-15T09:11:39Z</time>
      </trkpt>
      <trkpt lat="45.06491" lon="5.23536">
        <ele>184.23</ele>
        <time>2018-11-15T09:11:40Z</time>
      </trkpt>
      <trkpt lat="45.06491" lon="5.23537">
        <ele>179.42</ele>
        <time>2018-11-15T09:11:41Z</time>
      </trkpt>
      <trkpt lat="45.06491" lon="5.23537">
        <ele>181.83</ele>
        <time>2018-11-15T09:11:42Z</time>
      </trkpt>
      <trkpt lat="45.06491" lon="5.23537">
        <ele>185.67</ele>
        <time>2018-11-15T09:11:43Z</time>
      </trkpt>
      <trkpt lat="45.06491" lon="5.23537">
        <ele>183.75</ele>
        <time>2018-11-15T09:11:44Z</time>
      </trkpt>
      <trkpt lat="45.0649" lon="5.23539">
        <ele>187.11</ele>
        <time>2018-11-15T09:11:45Z</time>
      </trkpt>
      <trkpt lat="45.0649" lon="5.2354">
        <ele>184.23</ele>
        <time>2018-11-15T09:11:46Z</time>
      </trkpt>
      <trkpt lat="45.0649" lon="5.23541">
        <ele>186.15</ele>
        <time>2018-11-15T09:11:47Z</time>
      </trkpt>
      <trkpt lat="45.0649" lon="5.23541">
        <ele>183.27</ele>
        <time>2018-11-15T09:11:48Z</time>
      </trkpt>
      <trkpt lat="45.0649" lon="5.23541">
        <ele>187.11</ele>
        <time>2018-11-15T09:11:49Z</time>
      </trkpt>
      <trkpt lat="45.06489" lon="5.23542">
        <ele>182.31</ele>
        <time>2018-11-15T09:11:50Z</time>
      </trkpt>
      <trkpt lat="45.06488" lon="5.23543">
        <ele>186.15</ele>
        <time>2018-11-15T09:11:51Z</time>
      </trkpt>
      <trkpt lat="45.06488" lon="5.23544">
        <ele>181.83</ele>
        <time>2018-11-15T09:11:52Z</time>
      </trkpt>
      <trkpt lat="45.06488" lon="5.23545">
        <ele>181.35</ele>
        <time>2018-11-15T09:11:54Z</time>
      </trkpt>
      <trkpt lat="45.06488" lon="5.23545">
        <ele>185.19</ele>
        <time>2018-11-15T09:11:55Z</time>
      </trkpt>
      <trkpt lat="45.06487" lon="5.23546">
        <ele>181.83</ele>
        <time>2018-11-15T09:11:56Z</time>
      </trkpt>
      <trkpt lat="45.06487" lon="5.23548">
        <ele>183.75</ele>
        <time>2018-11-15T09:11:58Z</time>
      </trkpt>
      <trkpt lat="45.06486" lon="5.23549">
        <ele>182.31</ele>
        <time>2018-11-15T09:12:00Z</time>
      </trkpt>
      <trkpt lat="45.06486" lon="5.23549">
        <ele>186.15</ele>
        <time>2018-11-15T09:12:01Z</time>
      </trkpt>
      <trkpt lat="45.06486" lon="5.23551">
        <ele>184.23</ele>
        <time>2018-11-15T09:12:04Z</time>
      </trkpt>
      <trkpt lat="45.06486" lon="5.23552">
        <ele>183.75</ele>
        <time>2018-11-15T09:12:05Z</time>
      </trkpt>
      <trkpt lat="45.06486" lon="5.23552">
        <ele>188.56</ele>
        <time>2018-11-15T09:12:06Z</time>
      </trkpt>
      <trkpt lat="45.06486" lon="5.23552">
        <ele>186.15</ele>
        <time>2018-11-15T09:12:07Z</time>
      </trkpt>
      <trkpt lat="45.06486" lon="5.23552">
        <ele>188.08</ele>
        <time>2018-11-15T09:12:08Z</time>
      </trkpt>
      <trkpt lat="45.06486" lon="5.23554">
        <ele>186.15</ele>
        <time>2018-11-15T09:12:09Z</time>
      </trkpt>
      <trkpt lat="45.06486" lon="5.23555">
        <ele>183.75</ele>
        <time>2018-11-15T09:12:10Z</time>
      </trkpt>
      <trkpt lat="45.06486" lon="5.23555">
        <ele>187.11</ele>
        <time>2018-11-15T09:12:11Z</time>
      </trkpt>
      <trkpt lat="45.06486" lon="5.23556">
        <ele>185.19</ele>
        <time>2018-11-15T09:12:12Z</time>
      </trkpt>
      <trkpt lat="45.06486" lon="5.23556">
        <ele>187.11</ele>
        <time>2018-11-15T09:12:13Z</time>
      </trkpt>
      <trkpt lat="45.06486" lon="5.23556">
        <ele>187.59</ele>
        <time>2018-11-15T09:12:14Z</time>
      </trkpt>
      <trkpt lat="45.06485" lon="5.23557">
        <ele>188.56</ele>
        <time>2018-11-15T09:12:16Z</time>
      </trkpt>
      <trkpt lat="45.06485" lon="5.23557">
        <ele>186.15</ele>
        <time>2018-11-15T09:12:17Z</time>
      </trkpt>
      <trkpt lat="45.06486" lon="5.23558">
        <ele>188.08</ele>
        <time>2018-11-15T09:12:18Z</time>
      </trkpt>
      <trkpt lat="45.06485" lon="5.23561">
        <ele>188.08</ele>
        <time>2018-11-15T09:12:22Z</time>
      </trkpt>
      <trkpt lat="45.06485" lon="5.23562">
        <ele>187.11</ele>
        <time>2018-11-15T09:12:25Z</time>
      </trkpt>
      <trkpt lat="45.06485" lon="5.23562">
        <ele>189.04</ele>
        <time>2018-11-15T09:12:26Z</time>
      </trkpt>
      <trkpt lat="45.06484" lon="5.23564">
        <ele>182.79</ele>
        <time>2018-11-15T09:12:30Z</time>
      </trkpt>
      <trkpt lat="45.06484" lon="5.23565">
        <ele>190.48</ele>
        <time>2018-11-15T09:12:31Z</time>
      </trkpt>
      <trkpt lat="45.06484" lon="5.23566">
        <ele>187.11</ele>
        <time>2018-11-15T09:12:32Z</time>
      </trkpt>
      <trkpt lat="45.06484" lon="5.23566">
        <ele>189.52</ele>
        <time>2018-11-15T09:12:33Z</time>
      </trkpt>
      <trkpt lat="45.06482" lon="5.2357">
        <ele>191.92</ele>
        <time>2018-11-15T09:12:39Z</time>
      </trkpt>
      <trkpt lat="45.06482" lon="5.2357">
        <ele>190.48</ele>
        <time>2018-11-15T09:12:40Z</time>
      </trkpt>
      <trkpt lat="45.06482" lon="5.2357">
        <ele>191.92</ele>
        <time>2018-11-15T09:12:41Z</time>
      </trkpt>
      <trkpt lat="45.06482" lon="5.2357">
        <ele>188.56</ele>
        <time>2018-11-15T09:12:42Z</time>
      </trkpt>
      <trkpt lat="45.06481" lon="5.23571">
        <ele>190.48</ele>
        <time>2018-11-15T09:12:43Z</time>
      </trkpt>
      <trkpt lat="45.06481" lon="5.23571">
        <ele>186.15</ele>
        <time>2018-11-15T09:12:45Z</time>
      </trkpt>
      <trkpt lat="45.06481" lon="5.23571">
        <ele>193.84</ele>
        <time>2018-11-15T09:12:46Z</time>
      </trkpt>
      <trkpt lat="45.06481" lon="5.23571">
        <ele>190</ele>
        <time>2018-11-15T09:12:47Z</time>
      </trkpt>
      <trkpt lat="45.06479" lon="5.23572">
        <ele>191.44</ele>
        <time>2018-11-15T09:12:48Z</time>
      </trkpt>
      <trkpt lat="45.06478" lon="5.23572">
        <ele>189.04</ele>
        <time>2018-11-15T09:12:49Z</time>
      </trkpt>
      <trkpt lat="45.06478" lon="5.23573">
        <ele>192.88</ele>
        <time>2018-11-15T09:12:50Z</time>
      </trkpt>
      <trkpt lat="45.06477" lon="5.23573">
        <ele>191.44</ele>
        <time>2018-11-15T09:12:51Z</time>
      </trkpt>
      <trkpt lat="45.06477" lon="5.23573">
        <ele>194.8</ele>
        <time>2018-11-15T09:12:53Z</time>
      </trkpt>
      <trkpt lat="45.06477" lon="5.23573">
        <ele>191.92</ele>
        <time>2018-11-15T09:12:54Z</time>
      </trkpt>
      <trkpt lat="45.06476" lon="5.23574">
        <ele>189.52</ele>
        <time>2018-11-15T09:12:55Z</time>
      </trkpt>
      <trkpt lat="45.06476" lon="5.23575">
        <ele>192.4</ele>
        <time>2018-11-15T09:12:56Z</time>
      </trkpt>
      <trkpt lat="45.06475" lon="5.23576">
        <ele>186.63</ele>
        <time>2018-11-15T09:12:57Z</time>
      </trkpt>
      <trkpt lat="45.06475" lon="5.23576">
        <ele>194.8</ele>
        <time>2018-11-15T09:12:58Z</time>
      </trkpt>
      <trkpt lat="45.06475" lon="5.23577">
        <ele>191.44</ele>
        <time>2018-11-15T09:12:59Z</time>
      </trkpt>
      <trkpt lat="45.06475" lon="5.23577">
        <ele>190</ele>
        <time>2018-11-15T09:13:01Z</time>
      </trkpt>
      <trkpt lat="45.06475" lon="5.23577">
        <ele>194.8</ele>
        <time>2018-11-15T09:13:02Z</time>
      </trkpt>
      <trkpt lat="45.06475" lon="5.23577">
        <ele>191.92</ele>
        <time>2018-11-15T09:13:03Z</time>
      </trkpt>
      <trkpt lat="45.06475" lon="5.23577">
        <ele>189.04</ele>
        <time>2018-11-15T09:13:05Z</time>
      </trkpt>
      <trkpt lat="45.06474" lon="5.23578">
        <ele>191.44</ele>
        <time>2018-11-15T09:13:06Z</time>
      </trkpt>
      <trkpt lat="45.06474" lon="5.23579">
        <ele>195.77</ele>
        <time>2018-11-15T09:13:07Z</time>
      </trkpt>
      <trkpt lat="45.06474" lon="5.23579">
        <ele>193.36</ele>
        <time>2018-11-15T09:13:08Z</time>
      </trkpt>
      <trkpt lat="45.06473" lon="5.2358">
        <ele>190.48</ele>
        <time>2018-11-15T09:13:09Z</time>
      </trkpt>
      <trkpt lat="45.06473" lon="5.23581">
        <ele>198.17</ele>
        <time>2018-11-15T09:13:10Z</time>
      </trkpt>
      <trkpt lat="45.06472" lon="5.23582">
        <ele>192.4</ele>
        <time>2018-11-15T09:13:11Z</time>
      </trkpt>
      <trkpt lat="45.06471" lon="5.23582">
        <ele>188.56</ele>
        <time>2018-11-15T09:13:13Z</time>
      </trkpt>
      <trkpt lat="45.06471" lon="5.23583">
        <ele>194.32</ele>
        <time>2018-11-15T09:13:14Z</time>
      </trkpt>
      <trkpt lat="45.0647" lon="5.23583">
        <ele>190</ele>
        <time>2018-11-15T09:13:15Z</time>
      </trkpt>
      <trkpt lat="45.0647" lon="5.23583">
        <ele>194.8</ele>
        <time>2018-11-15T09:13:16Z</time>
      </trkpt>
      <trkpt lat="45.0647" lon="5.23584">
        <ele>190.96</ele>
        <time>2018-11-15T09:13:17Z</time>
      </trkpt>
      <trkpt lat="45.0647" lon="5.23584">
        <ele>192.4</ele>
        <time>2018-11-15T09:13:18Z</time>
      </trkpt>
      <trkpt lat="45.0647" lon="5.23584">
        <ele>195.77</ele>
        <time>2018-11-15T09:13:19Z</time>
      </trkpt>
      <trkpt lat="45.0647" lon="5.23584">
        <ele>190.48</ele>
        <time>2018-11-15T09:13:20Z</time>
      </trkpt>
      <trkpt lat="45.0647" lon="5.23584">
        <ele>194.8</ele>
        <time>2018-11-15T09:13:21Z</time>
      </trkpt>
      <trkpt lat="45.0647" lon="5.23584">
        <ele>191.44</ele>
        <time>2018-11-15T09:13:22Z</time>
      </trkpt>
      <trkpt lat="45.0647" lon="5.23584">
        <ele>195.28</ele>
        <time>2018-11-15T09:13:23Z</time>
      </trkpt>
      <trkpt lat="45.06468" lon="5.23585">
        <ele>192.4</ele>
        <time>2018-11-15T09:13:25Z</time>
      </trkpt>
      <trkpt lat="45.06468" lon="5.23585">
        <ele>195.77</ele>
        <time>2018-11-15T09:13:26Z</time>
      </trkpt>
      <trkpt lat="45.06467" lon="5.23585">
        <ele>197.69</ele>
        <time>2018-11-15T09:13:28Z</time>
      </trkpt>
      <trkpt lat="45.06467" lon="5.23585">
        <ele>192.88</ele>
        <time>2018-11-15T09:13:29Z</time>
      </trkpt>
      <trkpt lat="45.06466" lon="5.23585">
        <ele>198.65</ele>
        <time>2018-11-15T09:13:30Z</time>
      </trkpt>
      <trkpt lat="45.06465" lon="5.23584">
        <ele>197.69</ele>
        <time>2018-11-15T09:13:33Z</time>
      </trkpt>
      <trkpt lat="45.06465" lon="5.23584">
        <ele>194.32</ele>
        <time>2018-11-15T09:13:34Z</time>
      </trkpt>
      <trkpt lat="45.06465" lon="5.23584">
        <ele>197.69</ele>
        <time>2018-11-15T09:13:35Z</time>
      </trkpt>
      <trkpt lat="45.06464" lon="5.23584">
        <ele>193.84</ele>
        <time>2018-11-15T09:13:38Z</time>
      </trkpt>
      <trkpt lat="45.06464" lon="5.23584">
        <ele>200.09</ele>
        <time>2018-11-15T09:13:39Z</time>
      </trkpt>
      <trkpt lat="45.06463" lon="5.23584">
        <ele>193.36</ele>
        <time>2018-11-15T09:13:40Z</time>
      </trkpt>
      <trkpt lat="45.06463" lon="5.23584">
        <ele>200.09</ele>
        <time>2018-11-15T09:13:41Z</time>
      </trkpt>
      <trkpt lat="45.06463" lon="5.23584">
        <ele>197.69</ele>
        <time>2018-11-15T09:13:42Z</time>
      </trkpt>
      <trkpt lat="45.06463" lon="5.23583">
        <ele>200.09</ele>
        <time>2018-11-15T09:13:43Z</time>
      </trkpt>
      <trkpt lat="45.06462" lon="5.23583">
        <ele>196.25</ele>
        <time>2018-11-15T09:13:44Z</time>
      </trkpt>
      <trkpt lat="45.06461" lon="5.23584">
        <ele>199.61</ele>
        <time>2018-11-15T09:13:45Z</time>
      </trkpt>
      <trkpt lat="45.06461" lon="5.23584">
        <ele>196.25</ele>
        <time>2018-11-15T09:13:46Z</time>
      </trkpt>
      <trkpt lat="45.0646" lon="5.23584">
        <ele>201.53</ele>
        <time>2018-11-15T09:13:47Z</time>
      </trkpt>
      <trkpt lat="45.0646" lon="5.23584">
        <ele>197.69</ele>
        <time>2018-11-15T09:13:48Z</time>
      </trkpt>
      <trkpt lat="45.0646" lon="5.23584">
        <ele>201.05</ele>
        <time>2018-11-15T09:13:49Z</time>
      </trkpt>
      <trkpt lat="45.0646" lon="5.23584">
        <ele>195.77</ele>
        <time>2018-11-15T09:13:50Z</time>
      </trkpt>
      <trkpt lat="45.0646" lon="5.23584">
        <ele>199.61</ele>
        <time>2018-11-15T09:13:51Z</time>
      </trkpt>
      <trkpt lat="45.06458" lon="5.23585">
        <ele>195.77</ele>
        <time>2018-11-15T09:13:53Z</time>
      </trkpt>
      <trkpt lat="45.06458" lon="5.23585">
        <ele>199.13</ele>
        <time>2018-11-15T09:13:54Z</time>
      </trkpt>
      <trkpt lat="45.06458" lon="5.23585">
        <ele>202.01</ele>
        <time>2018-11-15T09:13:55Z</time>
      </trkpt>
      <trkpt lat="45.06458" lon="5.23585">
        <ele>194.8</ele>
        <time>2018-11-15T09:13:56Z</time>
      </trkpt>
      <trkpt lat="45.06458" lon="5.23585">
        <ele>201.53</ele>
        <time>2018-11-15T09:13:57Z</time>
      </trkpt>
      <trkpt lat="45.06457" lon="5.23585">
        <ele>199.61</ele>
        <time>2018-11-15T09:13:58Z</time>
      </trkpt>
      <trkpt lat="45.06456" lon="5.23585">
        <ele>202.01</ele>
        <time>2018-11-15T09:13:59Z</time>
      </trkpt>
      <trkpt lat="45.06455" lon="5.23585">
        <ele>198.17</ele>
        <time>2018-11-15T09:14:00Z</time>
      </trkpt>
      <trkpt lat="45.06455" lon="5.23585">
        <ele>201.05</ele>
        <time>2018-11-15T09:14:01Z</time>
      </trkpt>
      <trkpt lat="45.06454" lon="5.23586">
        <ele>199.61</ele>
        <time>2018-11-15T09:14:02Z</time>
      </trkpt>
      <trkpt lat="45.06453" lon="5.23587">
        <ele>203.46</ele>
        <time>2018-11-15T09:14:03Z</time>
      </trkpt>
      <trkpt lat="45.06453" lon="5.23587">
        <ele>199.61</ele>
        <time>2018-11-15T09:14:04Z</time>
      </trkpt>
      <trkpt lat="45.06452" lon="5.23587">
        <ele>201.53</ele>
        <time>2018-11-15T09:14:05Z</time>
      </trkpt>
      <trkpt lat="45.06452" lon="5.23587">
        <ele>197.21</ele>
        <time>2018-11-15T09:14:06Z</time>
      </trkpt>
      <trkpt lat="45.06452" lon="5.23587">
        <ele>198.65</ele>
        <time>2018-11-15T09:14:09Z</time>
      </trkpt>
      <trkpt lat="45.06452" lon="5.23587">
        <ele>203.94</ele>
        <time>2018-11-15T09:14:10Z</time>
      </trkpt>
      <trkpt lat="45.06452" lon="5.23587">
        <ele>197.69</ele>
        <time>2018-11-15T09:14:11Z</time>
      </trkpt>
      <trkpt lat="45.06451" lon="5.23588">
        <ele>201.53</ele>
        <time>2018-11-15T09:14:12Z</time>
      </trkpt>
      <trkpt lat="45.06451" lon="5.23588">
        <ele>197.69</ele>
        <time>2018-11-15T09:14:13Z</time>
      </trkpt>
      <trkpt lat="45.06451" lon="5.23588">
        <ele>204.42</ele>
        <time>2018-11-15T09:14:14Z</time>
      </trkpt>
      <trkpt lat="45.06451" lon="5.23588">
        <ele>199.61</ele>
        <time>2018-11-15T09:14:15Z</time>
      </trkpt>
      <trkpt lat="45.0645" lon="5.23588">
        <ele>202.49</ele>
        <time>2018-11-15T09:14:16Z</time>
      </trkpt>
      <trkpt lat="45.06449" lon="5.23588">
        <ele>195.77</ele>
        <time>2018-11-15T09:14:17Z</time>
      </trkpt>
      <trkpt lat="45.06449" lon="5.23588">
        <ele>203.94</ele>
        <time>2018-11-15T09:14:18Z</time>
      </trkpt>
      <trkpt lat="45.06445" lon="5.2359">
        <ele>197.69</ele>
        <time>2018-11-15T09:14:20Z</time>
      </trkpt>
      <trkpt lat="45.06444" lon="5.2359">
        <ele>203.94</ele>
        <time>2018-11-15T09:14:21Z</time>
      </trkpt>
      <trkpt lat="45.06443" lon="5.23591">
        <ele>199.13</ele>
        <time>2018-11-15T09:14:22Z</time>
      </trkpt>
      <trkpt lat="45.06441" lon="5.23591">
        <ele>203.46</ele>
        <time>2018-11-15T09:14:23Z</time>
      </trkpt>
      <trkpt lat="45.0644" lon="5.23592">
        <ele>199.13</ele>
        <time>2018-11-15T09:14:24Z</time>
      </trkpt>
      <trkpt lat="45.06439" lon="5.23592">
        <ele>203.46</ele>
        <time>2018-11-15T09:14:25Z</time>
      </trkpt>
      <trkpt lat="45.06438" lon="5.23592">
        <ele>199.61</ele>
        <time>2018-11-15T09:14:26Z</time>
      </trkpt>
      <trkpt lat="45.06437" lon="5.23592">
        <ele>203.46</ele>
        <time>2018-11-15T09:14:27Z</time>
      </trkpt>
      <trkpt lat="45.06437" lon="5.23592">
        <ele>200.09</ele>
        <time>2018-11-15T09:14:28Z</time>
      </trkpt>
      <trkpt lat="45.06437" lon="5.23592">
        <ele>206.82</ele>
        <time>2018-11-15T09:14:29Z</time>
      </trkpt>
      <trkpt lat="45.06436" lon="5.23592">
        <ele>202.01</ele>
        <time>2018-11-15T09:14:30Z</time>
      </trkpt>
      <trkpt lat="45.06436" lon="5.23593">
        <ele>200.09</ele>
        <time>2018-11-15T09:14:31Z</time>
      </trkpt>
      <trkpt lat="45.06436" lon="5.23593">
        <ele>204.9</ele>
        <time>2018-11-15T09:14:32Z</time>
      </trkpt>
      <trkpt lat="45.06436" lon="5.23593">
        <ele>200.09</ele>
        <time>2018-11-15T09:14:33Z</time>
      </trkpt>
      <trkpt lat="45.06436" lon="5.23593">
        <ele>207.78</ele>
        <time>2018-11-15T09:14:34Z</time>
      </trkpt>
      <trkpt lat="45.06435" lon="5.23593">
        <ele>203.94</ele>
        <time>2018-11-15T09:14:35Z</time>
      </trkpt>
      <trkpt lat="45.06435" lon="5.23593">
        <ele>208.74</ele>
        <time>2018-11-15T09:14:36Z</time>
      </trkpt>
      <trkpt lat="45.06435" lon="5.23593">
        <ele>204.42</ele>
        <time>2018-11-15T09:14:37Z</time>
      </trkpt>
      <trkpt lat="45.06435" lon="5.23592">
        <ele>206.82</ele>
        <time>2018-11-15T09:14:38Z</time>
      </trkpt>
      <trkpt lat="45.06435" lon="5.23592">
        <ele>203.46</ele>
        <time>2018-11-15T09:14:39Z</time>
      </trkpt>
      <trkpt lat="45.06435" lon="5.23592">
        <ele>207.78</ele>
        <time>2018-11-15T09:14:40Z</time>
      </trkpt>
      <trkpt lat="45.06434" lon="5.23592">
        <ele>203.46</ele>
        <time>2018-11-15T09:14:41Z</time>
      </trkpt>
      <trkpt lat="45.06434" lon="5.23592">
        <ele>206.34</ele>
        <time>2018-11-15T09:14:42Z</time>
      </trkpt>
      <trkpt lat="45.06433" lon="5.23592">
        <ele>204.42</ele>
        <time>2018-11-15T09:14:43Z</time>
      </trkpt>
      <trkpt lat="45.06433" lon="5.23592">
        <ele>205.38</ele>
        <time>2018-11-15T09:14:44Z</time>
      </trkpt>
      <trkpt lat="45.06431" lon="5.23592">
        <ele>206.82</ele>
        <time>2018-11-15T09:14:46Z</time>
      </trkpt>
      <trkpt lat="45.06431" lon="5.23592">
        <ele>209.7</ele>
        <time>2018-11-15T09:14:47Z</time>
      </trkpt>
      <trkpt lat="45.06431" lon="5.23592">
        <ele>205.86</ele>
        <time>2018-11-15T09:14:48Z</time>
      </trkpt>
      <trkpt lat="45.06431" lon="5.23592">
        <ele>208.26</ele>
        <time>2018-11-15T09:14:49Z</time>
      </trkpt>
      <trkpt lat="45.06431" lon="5.23592">
        <ele>206.34</ele>
        <time>2018-11-15T09:14:50Z</time>
      </trkpt>
      <trkpt lat="45.06431" lon="5.23592">
        <ele>210.19</ele>
        <time>2018-11-15T09:14:51Z</time>
      </trkpt>
      <trkpt lat="45.0643" lon="5.23592">
        <ele>202.49</ele>
        <time>2018-11-15T09:14:52Z</time>
      </trkpt>
      <trkpt lat="45.0643" lon="5.23592">
        <ele>210.67</ele>
        <time>2018-11-15T09:14:53Z</time>
      </trkpt>
      <trkpt lat="45.0643" lon="5.23591">
        <ele>207.78</ele>
        <time>2018-11-15T09:14:54Z</time>
      </trkpt>
      <trkpt lat="45.06428" lon="5.23591">
        <ele>207.3</ele>
        <time>2018-11-15T09:14:55Z</time>
      </trkpt>
      <trkpt lat="45.06428" lon="5.23591">
        <ele>203.94</ele>
        <time>2018-11-15T09:14:56Z</time>
      </trkpt>
      <trkpt lat="45.06426" lon="5.23591">
        <ele>207.78</ele>
        <time>2018-11-15T09:14:57Z</time>
      </trkpt>
      <trkpt lat="45.06426" lon="5.23591">
        <ele>204.9</ele>
        <time>2018-11-15T09:14:58Z</time>
      </trkpt>
      <trkpt lat="45.06426" lon="5.23592">
        <ele>209.22</ele>
        <time>2018-11-15T09:14:59Z</time>
      </trkpt>
      <trkpt lat="45.06424" lon="5.23592">
        <ele>205.38</ele>
        <time>2018-11-15T09:15:00Z</time>
      </trkpt>
      <trkpt lat="45.06423" lon="5.23592">
        <ele>208.26</ele>
        <time>2018-11-15T09:15:01Z</time>
      </trkpt>
      <trkpt lat="45.06421" lon="5.23592">
        <ele>203.46</ele>
        <time>2018-11-15T09:15:02Z</time>
      </trkpt>
      <trkpt lat="45.0642" lon="5.23592">
        <ele>209.22</ele>
        <time>2018-11-15T09:15:03Z</time>
      </trkpt>
      <trkpt lat="45.06419" lon="5.23592">
        <ele>206.34</ele>
        <time>2018-11-15T09:15:04Z</time>
      </trkpt>
      <trkpt lat="45.06419" lon="5.23592">
        <ele>209.22</ele>
        <time>2018-11-15T09:15:05Z</time>
      </trkpt>
      <trkpt lat="45.06418" lon="5.23592">
        <ele>203.94</ele>
        <time>2018-11-15T09:15:06Z</time>
      </trkpt>
      <trkpt lat="45.06417" lon="5.23592">
        <ele>212.11</ele>
        <time>2018-11-15T09:15:07Z</time>
      </trkpt>
      <trkpt lat="45.06417" lon="5.23592">
        <ele>209.7</ele>
        <time>2018-11-15T09:15:08Z</time>
      </trkpt>
      <trkpt lat="45.06415" lon="5.23592">
        <ele>204.42</ele>
        <time>2018-11-15T09:15:09Z</time>
      </trkpt>
      <trkpt lat="45.06414" lon="5.23593">
        <ele>210.67</ele>
        <time>2018-11-15T09:15:10Z</time>
      </trkpt>
      <trkpt lat="45.06414" lon="5.23593">
        <ele>207.78</ele>
        <time>2018-11-15T09:15:11Z</time>
      </trkpt>
      <trkpt lat="45.06413" lon="5.23593">
        <ele>211.15</ele>
        <time>2018-11-15T09:15:13Z</time>
      </trkpt>
      <trkpt lat="45.06413" lon="5.23593">
        <ele>207.3</ele>
        <time>2018-11-15T09:15:14Z</time>
      </trkpt>
      <trkpt lat="45.06412" lon="5.23593">
        <ele>211.15</ele>
        <time>2018-11-15T09:15:15Z</time>
      </trkpt>
      <trkpt lat="45.06412" lon="5.23593">
        <ele>208.74</ele>
        <time>2018-11-15T09:15:16Z</time>
      </trkpt>
      <trkpt lat="45.06412" lon="5.23593">
        <ele>210.67</ele>
        <time>2018-11-15T09:15:17Z</time>
      </trkpt>
      <trkpt lat="45.06411" lon="5.23593">
        <ele>211.15</ele>
        <time>2018-11-15T09:15:18Z</time>
      </trkpt>
      <trkpt lat="45.06411" lon="5.23594">
        <ele>209.22</ele>
        <time>2018-11-15T09:15:19Z</time>
      </trkpt>
      <trkpt lat="45.06411" lon="5.23593">
        <ele>211.63</ele>
        <time>2018-11-15T09:15:20Z</time>
      </trkpt>
      <trkpt lat="45.06411" lon="5.23594">
        <ele>208.26</ele>
        <time>2018-11-15T09:15:21Z</time>
      </trkpt>
      <trkpt lat="45.06411" lon="5.23594">
        <ele>211.15</ele>
        <time>2018-11-15T09:15:22Z</time>
      </trkpt>
      <trkpt lat="45.06409" lon="5.23593">
        <ele>214.03</ele>
        <time>2018-11-15T09:15:36Z</time>
      </trkpt>
      <trkpt lat="45.06409" lon="5.23593">
        <ele>212.11</ele>
        <time>2018-11-15T09:15:37Z</time>
      </trkpt>
      <trkpt lat="45.06406" lon="5.23592">
        <ele>214.51</ele>
        <time>2018-11-15T09:15:39Z</time>
      </trkpt>
      <trkpt lat="45.06406" lon="5.23592">
        <ele>208.26</ele>
        <time>2018-11-15T09:15:40Z</time>
      </trkpt>
      <trkpt lat="45.06405" lon="5.23592">
        <ele>210.67</ele>
        <time>2018-11-15T09:15:41Z</time>
      </trkpt>
      <trkpt lat="45.06403" lon="5.23592">
        <ele>215.95</ele>
        <time>2018-11-15T09:15:42Z</time>
      </trkpt>
      <trkpt lat="45.06403" lon="5.23592">
        <ele>213.07</ele>
        <time>2018-11-15T09:15:43Z</time>
      </trkpt>
      <trkpt lat="45.06403" lon="5.23593">
        <ele>214.51</ele>
        <time>2018-11-15T09:15:44Z</time>
      </trkpt>
      <trkpt lat="45.06401" lon="5.23593">
        <ele>215.95</ele>
        <time>2018-11-15T09:15:45Z</time>
      </trkpt>
      <trkpt lat="45.06398" lon="5.23594">
        <ele>214.51</ele>
        <time>2018-11-15T09:15:46Z</time>
      </trkpt>
      <trkpt lat="45.06398" lon="5.23594">
        <ele>216.91</ele>
        <time>2018-11-15T09:15:47Z</time>
      </trkpt>
      <trkpt lat="45.06396" lon="5.23594">
        <ele>211.15</ele>
        <time>2018-11-15T09:15:48Z</time>
      </trkpt>
      <trkpt lat="45.06396" lon="5.23594">
        <ele>214.99</ele>
        <time>2018-11-15T09:15:49Z</time>
      </trkpt>
      <trkpt lat="45.06396" lon="5.23594">
        <ele>210.67</ele>
        <time>2018-11-15T09:15:50Z</time>
      </trkpt>
      <trkpt lat="45.06396" lon="5.23594">
        <ele>215.95</ele>
        <time>2018-11-15T09:15:51Z</time>
      </trkpt>
      <trkpt lat="45.06396" lon="5.23594">
        <ele>218.84</ele>
        <time>2018-11-15T09:15:52Z</time>
      </trkpt>
      <trkpt lat="45.06394" lon="5.23594">
        <ele>215.47</ele>
        <time>2018-11-15T09:15:53Z</time>
      </trkpt>
      <trkpt lat="45.06394" lon="5.23594">
        <ele>219.8</ele>
        <time>2018-11-15T09:15:54Z</time>
      </trkpt>
      <trkpt lat="45.06394" lon="5.23594">
        <ele>215.47</ele>
        <time>2018-11-15T09:15:55Z</time>
      </trkpt>
      <trkpt lat="45.06392" lon="5.23594">
        <ele>216.91</ele>
        <time>2018-11-15T09:15:56Z</time>
      </trkpt>
      <trkpt lat="45.06392" lon="5.23594">
        <ele>220.28</ele>
        <time>2018-11-15T09:15:57Z</time>
      </trkpt>
      <trkpt lat="45.06392" lon="5.23594">
        <ele>215.95</ele>
        <time>2018-11-15T09:15:58Z</time>
      </trkpt>
      <trkpt lat="45.06392" lon="5.23594">
        <ele>218.84</ele>
        <time>2018-11-15T09:15:59Z</time>
      </trkpt>
      <trkpt lat="45.06392" lon="5.23594">
        <ele>214.51</ele>
        <time>2018-11-15T09:16:00Z</time>
      </trkpt>
      <trkpt lat="45.0639" lon="5.23594">
        <ele>219.8</ele>
        <time>2018-11-15T09:16:01Z</time>
      </trkpt>
      <trkpt lat="45.0639" lon="5.23594">
        <ele>214.99</ele>
        <time>2018-11-15T09:16:02Z</time>
      </trkpt>
      <trkpt lat="45.0639" lon="5.23594">
        <ele>217.4</ele>
        <time>2018-11-15T09:16:03Z</time>
      </trkpt>
      <trkpt lat="45.06387" lon="5.23596">
        <ele>220.28</ele>
        <time>2018-11-15T09:16:06Z</time>
      </trkpt>
      <trkpt lat="45.06387" lon="5.23596">
        <ele>216.43</ele>
        <time>2018-11-15T09:16:07Z</time>
      </trkpt>
      <trkpt lat="45.06386" lon="5.23596">
        <ele>218.84</ele>
        <time>2018-11-15T09:16:08Z</time>
      </trkpt>
      <trkpt lat="45.06385" lon="5.23597">
        <ele>220.76</ele>
        <time>2018-11-15T09:16:09Z</time>
      </trkpt>
      <trkpt lat="45.06383" lon="5.23598">
        <ele>214.03</ele>
        <time>2018-11-15T09:16:10Z</time>
      </trkpt>
      <trkpt lat="45.06381" lon="5.236">
        <ele>218.84</ele>
        <time>2018-11-15T09:16:11Z</time>
      </trkpt>
      <trkpt lat="45.06379" lon="5.23601">
        <ele>215.47</ele>
        <time>2018-11-15T09:16:13Z</time>
      </trkpt>
      <trkpt lat="45.06379" lon="5.23601">
        <ele>221.72</ele>
        <time>2018-11-15T09:16:14Z</time>
      </trkpt>
      <trkpt lat="45.06379" lon="5.23601">
        <ele>219.32</ele>
        <time>2018-11-15T09:16:15Z</time>
      </trkpt>
      <trkpt lat="45.06379" lon="5.23601">
        <ele>221.72</ele>
        <time>2018-11-15T09:16:16Z</time>
      </trkpt>
      <trkpt lat="45.06379" lon="5.23601">
        <ele>218.84</ele>
        <time>2018-11-15T09:16:17Z</time>
      </trkpt>
      <trkpt lat="45.06379" lon="5.23601">
        <ele>222.2</ele>
        <time>2018-11-15T09:16:18Z</time>
      </trkpt>
      <trkpt lat="45.06378" lon="5.23601">
        <ele>217.88</ele>
        <time>2018-11-15T09:16:19Z</time>
      </trkpt>
      <trkpt lat="45.06378" lon="5.23601">
        <ele>214.99</ele>
        <time>2018-11-15T09:16:20Z</time>
      </trkpt>
      <trkpt lat="45.06378" lon="5.23601">
        <ele>223.64</ele>
        <time>2018-11-15T09:16:21Z</time>
      </trkpt>
      <trkpt lat="45.06378" lon="5.23601">
        <ele>219.32</ele>
        <time>2018-11-15T09:16:22Z</time>
      </trkpt>
      <trkpt lat="45.06377" lon="5.23601">
        <ele>221.24</ele>
        <time>2018-11-15T09:16:23Z</time>
      </trkpt>
      <trkpt lat="45.06377" lon="5.23602">
        <ele>215.47</ele>
        <time>2018-11-15T09:16:24Z</time>
      </trkpt>
      <trkpt lat="45.06376" lon="5.23602">
        <ele>221.72</ele>
        <time>2018-11-15T09:16:25Z</time>
      </trkpt>
      <trkpt lat="45.06373" lon="5.23603">
        <ele>221.24</ele>
        <time>2018-11-15T09:16:27Z</time>
      </trkpt>
      <trkpt lat="45.06372" lon="5.23604">
        <ele>224.61</ele>
        <time>2018-11-15T09:16:28Z</time>
      </trkpt>
      <trkpt lat="45.06372" lon="5.23605">
        <ele>220.76</ele>
        <time>2018-11-15T09:16:29Z</time>
      </trkpt>
      <trkpt lat="45.0637" lon="5.23606">
        <ele>222.68</ele>
        <time>2018-11-15T09:16:30Z</time>
      </trkpt>
      <trkpt lat="45.0637" lon="5.23607">
        <ele>217.88</ele>
        <time>2018-11-15T09:16:31Z</time>
      </trkpt>
      <trkpt lat="45.06369" lon="5.23607">
        <ele>223.64</ele>
        <time>2018-11-15T09:16:33Z</time>
      </trkpt>
      <trkpt lat="45.06369" lon="5.23607">
        <ele>220.28</ele>
        <time>2018-11-15T09:16:34Z</time>
      </trkpt>
      <trkpt lat="45.06368" lon="5.23608">
        <ele>224.12</ele>
        <time>2018-11-15T09:16:35Z</time>
      </trkpt>
      <trkpt lat="45.06366" lon="5.23609">
        <ele>219.8</ele>
        <time>2018-11-15T09:16:36Z</time>
      </trkpt>
      <trkpt lat="45.06366" lon="5.2361">
        <ele>223.16</ele>
        <time>2018-11-15T09:16:37Z</time>
      </trkpt>
      <trkpt lat="45.06366" lon="5.2361">
        <ele>217.88</ele>
        <time>2018-11-15T09:16:38Z</time>
      </trkpt>
      <trkpt lat="45.06365" lon="5.2361">
        <ele>223.16</ele>
        <time>2018-11-15T09:16:39Z</time>
      </trkpt>
      <trkpt lat="45.06365" lon="5.23611">
        <ele>219.32</ele>
        <time>2018-11-15T09:16:40Z</time>
      </trkpt>
      <trkpt lat="45.06365" lon="5.23612">
        <ele>222.68</ele>
        <time>2018-11-15T09:16:41Z</time>
      </trkpt>
      <trkpt lat="45.06364" lon="5.23613">
        <ele>223.16</ele>
        <time>2018-11-15T09:16:42Z</time>
      </trkpt>
      <trkpt lat="45.06364" lon="5.23613">
        <ele>219.32</ele>
        <time>2018-11-15T09:16:43Z</time>
      </trkpt>
      <trkpt lat="45.06363" lon="5.23613">
        <ele>224.61</ele>
        <time>2018-11-15T09:16:44Z</time>
      </trkpt>
      <trkpt lat="45.06363" lon="5.23613">
        <ele>220.28</ele>
        <time>2018-11-15T09:16:45Z</time>
      </trkpt>
      <trkpt lat="45.06363" lon="5.23613">
        <ele>224.12</ele>
        <time>2018-11-15T09:16:46Z</time>
      </trkpt>
      <trkpt lat="45.06362" lon="5.23614">
        <ele>225.57</ele>
        <time>2018-11-15T09:16:49Z</time>
      </trkpt>
      <trkpt lat="45.06361" lon="5.23614">
        <ele>222.2</ele>
        <time>2018-11-15T09:16:50Z</time>
      </trkpt>
      <trkpt lat="45.06361" lon="5.23614">
        <ele>224.61</ele>
        <time>2018-11-15T09:16:51Z</time>
      </trkpt>
      <trkpt lat="45.06361" lon="5.23614">
        <ele>219.32</ele>
        <time>2018-11-15T09:16:52Z</time>
      </trkpt>
      <trkpt lat="45.06361" lon="5.23615">
        <ele>226.05</ele>
        <time>2018-11-15T09:16:53Z</time>
      </trkpt>
      <trkpt lat="45.06361" lon="5.23615">
        <ele>224.61</ele>
        <time>2018-11-15T09:16:54Z</time>
      </trkpt>
      <trkpt lat="45.06361" lon="5.23615">
        <ele>227.97</ele>
        <time>2018-11-15T09:16:55Z</time>
      </trkpt>
      <trkpt lat="45.0636" lon="5.23617">
        <ele>223.16</ele>
        <time>2018-11-15T09:16:57Z</time>
      </trkpt>
      <trkpt lat="45.06359" lon="5.23618">
        <ele>225.57</ele>
        <time>2018-11-15T09:16:58Z</time>
      </trkpt>
      <trkpt lat="45.06359" lon="5.2362">
        <ele>224.12</ele>
        <time>2018-11-15T09:17:00Z</time>
      </trkpt>
      <trkpt lat="45.06359" lon="5.2362">
        <ele>227.49</ele>
        <time>2018-11-15T09:17:01Z</time>
      </trkpt>
      <trkpt lat="45.06359" lon="5.2362">
        <ele>223.64</ele>
        <time>2018-11-15T09:17:02Z</time>
      </trkpt>
      <trkpt lat="45.06359" lon="5.2362">
        <ele>226.05</ele>
        <time>2018-11-15T09:17:03Z</time>
      </trkpt>
      <trkpt lat="45.06359" lon="5.2362">
        <ele>228.45</ele>
        <time>2018-11-15T09:17:04Z</time>
      </trkpt>
      <trkpt lat="45.06359" lon="5.2362">
        <ele>222.68</ele>
        <time>2018-11-15T09:17:05Z</time>
      </trkpt>
      <trkpt lat="45.06358" lon="5.23621">
        <ele>228.45</ele>
        <time>2018-11-15T09:17:06Z</time>
      </trkpt>
      <trkpt lat="45.06357" lon="5.23622">
        <ele>221.72</ele>
        <time>2018-11-15T09:17:07Z</time>
      </trkpt>
      <trkpt lat="45.06356" lon="5.23623">
        <ele>231.33</ele>
        <time>2018-11-15T09:17:08Z</time>
      </trkpt>
      <trkpt lat="45.06356" lon="5.23623">
        <ele>228.93</ele>
        <time>2018-11-15T09:17:09Z</time>
      </trkpt>
      <trkpt lat="45.06356" lon="5.23623">
        <ele>223.16</ele>
        <time>2018-11-15T09:17:10Z</time>
      </trkpt>
      <trkpt lat="45.06356" lon="5.23623">
        <ele>228.45</ele>
        <time>2018-11-15T09:17:11Z</time>
      </trkpt>
      <trkpt lat="45.06355" lon="5.23623">
        <ele>223.16</ele>
        <time>2018-11-15T09:17:12Z</time>
      </trkpt>
      <trkpt lat="45.06355" lon="5.23624">
        <ele>228.45</ele>
        <time>2018-11-15T09:17:13Z</time>
      </trkpt>
      <trkpt lat="45.06353" lon="5.23627">
        <ele>225.57</ele>
        <time>2018-11-15T09:17:15Z</time>
      </trkpt>
      <trkpt lat="45.06353" lon="5.23627">
        <ele>230.37</ele>
        <time>2018-11-15T09:17:16Z</time>
      </trkpt>
      <trkpt lat="45.06352" lon="5.23628">
        <ele>224.61</ele>
        <time>2018-11-15T09:17:17Z</time>
      </trkpt>
      <trkpt lat="45.06352" lon="5.2363">
        <ele>229.41</ele>
        <time>2018-11-15T09:17:18Z</time>
      </trkpt>
      <trkpt lat="45.0635" lon="5.23632">
        <ele>227.01</ele>
        <time>2018-11-15T09:17:19Z</time>
      </trkpt>
      <trkpt lat="45.06349" lon="5.23633">
        <ele>226.05</ele>
        <time>2018-11-15T09:17:20Z</time>
      </trkpt>
      <trkpt lat="45.06349" lon="5.23634">
        <ele>227.49</ele>
        <time>2018-11-15T09:17:22Z</time>
      </trkpt>
      <trkpt lat="45.06348" lon="5.23635">
        <ele>229.89</ele>
        <time>2018-11-15T09:17:23Z</time>
      </trkpt>
      <trkpt lat="45.06348" lon="5.23636">
        <ele>227.01</ele>
        <time>2018-11-15T09:17:24Z</time>
      </trkpt>
      <trkpt lat="45.06348" lon="5.23636">
        <ele>229.41</ele>
        <time>2018-11-15T09:17:25Z</time>
      </trkpt>
      <trkpt lat="45.06348" lon="5.23637">
        <ele>231.33</ele>
        <time>2018-11-15T09:17:26Z</time>
      </trkpt>
      <trkpt lat="45.06348" lon="5.23637">
        <ele>226.53</ele>
        <time>2018-11-15T09:17:27Z</time>
      </trkpt>
      <trkpt lat="45.06347" lon="5.23637">
        <ele>230.37</ele>
        <time>2018-11-15T09:17:28Z</time>
      </trkpt>
      <trkpt lat="45.06343" lon="5.23639">
        <ele>232.78</ele>
        <time>2018-11-15T09:17:31Z</time>
      </trkpt>
      <trkpt lat="45.06342" lon="5.23639">
        <ele>227.01</ele>
        <time>2018-11-15T09:17:32Z</time>
      </trkpt>
      <trkpt lat="45.0634" lon="5.2364">
        <ele>230.37</ele>
        <time>2018-11-15T09:17:33Z</time>
      </trkpt>
      <trkpt lat="45.0634" lon="5.2364">
        <ele>232.78</ele>
        <time>2018-11-15T09:17:34Z</time>
      </trkpt>
      <trkpt lat="45.0634" lon="5.2364">
        <ele>227.01</ele>
        <time>2018-11-15T09:17:35Z</time>
      </trkpt>
      <trkpt lat="45.0634" lon="5.23641">
        <ele>231.81</ele>
        <time>2018-11-15T09:17:36Z</time>
      </trkpt>
      <trkpt lat="45.06336" lon="5.23643">
        <ele>232.78</ele>
        <time>2018-11-15T09:17:39Z</time>
      </trkpt>
      <trkpt lat="45.06336" lon="5.23643">
        <ele>228.45</ele>
        <time>2018-11-15T09:17:40Z</time>
      </trkpt>
      <trkpt lat="45.06336" lon="5.23643">
        <ele>231.81</ele>
        <time>2018-11-15T09:17:41Z</time>
      </trkpt>
      <trkpt lat="45.06335" lon="5.23643">
        <ele>234.7</ele>
        <time>2018-11-15T09:17:42Z</time>
      </trkpt>
      <trkpt lat="45.06334" lon="5.23644">
        <ele>231.33</ele>
        <time>2018-11-15T09:17:43Z</time>
      </trkpt>
      <trkpt lat="45.06331" lon="5.23644">
        <ele>233.26</ele>
        <time>2018-11-15T09:17:44Z</time>
      </trkpt>
      <trkpt lat="45.06331" lon="5.23644">
        <ele>236.62</ele>
        <time>2018-11-15T09:17:45Z</time>
      </trkpt>
      <trkpt lat="45.06331" lon="5.23644">
        <ele>231.81</ele>
        <time>2018-11-15T09:17:46Z</time>
      </trkpt>
      <trkpt lat="45.06333" lon="5.23645">
        <ele>233.26</ele>
        <time>2018-11-15T09:17:47Z</time>
      </trkpt>
      <trkpt lat="45.0634" lon="5.23647">
        <ele>229.41</ele>
        <time>2018-11-15T09:17:51Z</time>
      </trkpt>
      <trkpt lat="45.0634" lon="5.23646">
        <ele>234.7</ele>
        <time>2018-11-15T09:17:52Z</time>
      </trkpt>
      <trkpt lat="45.0634" lon="5.23647">
        <ele>228.93</ele>
        <time>2018-11-15T09:17:53Z</time>
      </trkpt>
      <trkpt lat="45.06341" lon="5.23648">
        <ele>234.22</ele>
        <time>2018-11-15T09:17:54Z</time>
      </trkpt>
      <trkpt lat="45.06339" lon="5.23653">
        <ele>235.18</ele>
        <time>2018-11-15T09:18:09Z</time>
      </trkpt>
      <trkpt lat="45.06336" lon="5.2366">
        <ele>236.14</ele>
        <time>2018-11-15T09:18:22Z</time>
      </trkpt>
      <trkpt lat="45.06334" lon="5.23669">
        <ele>239.02</ele>
        <time>2018-11-15T09:18:33Z</time>
      </trkpt>
      <trkpt lat="45.06333" lon="5.23671">
        <ele>236.14</ele>
        <time>2018-11-15T09:18:35Z</time>
      </trkpt>
      <trkpt lat="45.06331" lon="5.23676">
        <ele>239.99</ele>
        <time>2018-11-15T09:18:41Z</time>
      </trkpt>
      <trkpt lat="45.06331" lon="5.23676">
        <ele>236.14</ele>
        <time>2018-11-15T09:18:42Z</time>
      </trkpt>
      <trkpt lat="45.06322" lon="5.23673">
        <ele>238.54</ele>
        <time>2018-11-15T09:18:56Z</time>
      </trkpt>
      <trkpt lat="45.06324" lon="5.23673">
        <ele>239.02</ele>
        <time>2018-11-15T09:19:17Z</time>
      </trkpt>
      <trkpt lat="45.06325" lon="5.23673">
        <ele>239.51</ele>
        <time>2018-11-15T09:19:36Z</time>
      </trkpt>
      <trkpt lat="45.06324" lon="5.23672">
        <ele>239.99</ele>
        <time>2018-11-15T09:19:56Z</time>
      </trkpt>
      <trkpt lat="45.06322" lon="5.2367">
        <ele>239.99</ele>
        <time>2018-11-15T09:20:17Z</time>
      </trkpt>
      <trkpt lat="45.06322" lon="5.2367">
        <ele>240.95</ele>
        <time>2018-11-15T09:20:40Z</time>
      </trkpt>
      <trkpt lat="45.06322" lon="5.23671">
        <ele>241.91</ele>
        <time>2018-11-15T09:21:03Z</time>
      </trkpt>
      <trkpt lat="45.06323" lon="5.23671">
        <ele>241.91</ele>
        <time>2018-11-15T09:21:19Z</time>
      </trkpt>
      <trkpt lat="45.06323" lon="5.23671">
        <ele>242.39</ele>
        <time>2018-11-15T09:21:42Z</time>
      </trkpt>
      <trkpt lat="45.06323" lon="5.23672">
        <ele>243.35</ele>
        <time>2018-11-15T09:22:08Z</time>
      </trkpt>
      <trkpt lat="45.06322" lon="5.23677">
        <ele>244.31</ele>
        <time>2018-11-15T09:22:37Z</time>
      </trkpt>
      <trkpt lat="45.06321" lon="5.23679">
        <ele>245.27</ele>
        <time>2018-11-15T09:23:01Z</time>
      </trkpt>
      <trkpt lat="45.0632" lon="5.23679">
        <ele>245.27</ele>
        <time>2018-11-15T09:23:23Z</time>
      </trkpt>
      <trkpt lat="45.0632" lon="5.23677">
        <ele>245.75</ele>
        <time>2018-11-15T09:23:44Z</time>
      </trkpt>
      <trkpt lat="45.0632" lon="5.23676">
        <ele>248.64</ele>
        <time>2018-11-15T09:23:58Z</time>
      </trkpt>
      <trkpt lat="45.0632" lon="5.23676">
        <ele>243.83</ele>
        <time>2018-11-15T09:23:59Z</time>
      </trkpt>
      <trkpt lat="45.06319" lon="5.23676">
        <ele>246.72</ele>
        <time>2018-11-15T09:24:00Z</time>
      </trkpt>
      <trkpt lat="45.06316" lon="5.23671">
        <ele>250.08</ele>
        <time>2018-11-15T09:24:10Z</time>
      </trkpt>
      <trkpt lat="45.06316" lon="5.2367">
        <ele>246.72</ele>
        <time>2018-11-15T09:24:11Z</time>
      </trkpt>
      <trkpt lat="45.06316" lon="5.2367">
        <ele>250.08</ele>
        <time>2018-11-15T09:24:12Z</time>
      </trkpt>
      <trkpt lat="45.06315" lon="5.23668">
        <ele>244.79</ele>
        <time>2018-11-15T09:24:14Z</time>
      </trkpt>
      <trkpt lat="45.06315" lon="5.23668">
        <ele>250.08</ele>
        <time>2018-11-15T09:24:15Z</time>
      </trkpt>
      <trkpt lat="45.06312" lon="5.23658">
        <ele>252.96</ele>
        <time>2018-11-15T09:24:28Z</time>
      </trkpt>
      <trkpt lat="45.0631" lon="5.23656">
        <ele>249.12</ele>
        <time>2018-11-15T09:24:31Z</time>
      </trkpt>
      <trkpt lat="45.0631" lon="5.23655">
        <ele>252</ele>
        <time>2018-11-15T09:24:32Z</time>
      </trkpt>
      <trkpt lat="45.06308" lon="5.23653">
        <ele>253.44</ele>
        <time>2018-11-15T09:24:38Z</time>
      </trkpt>
      <trkpt lat="45.06306" lon="5.23652">
        <ele>256.81</ele>
        <time>2018-11-15T09:24:44Z</time>
      </trkpt>
      <trkpt lat="45.06305" lon="5.23652">
        <ele>252.96</ele>
        <time>2018-11-15T09:24:45Z</time>
      </trkpt>
      <trkpt lat="45.06305" lon="5.23652">
        <ele>255.85</ele>
        <time>2018-11-15T09:24:46Z</time>
      </trkpt>
      <trkpt lat="45.06305" lon="5.23652">
        <ele>252.96</ele>
        <time>2018-11-15T09:24:47Z</time>
      </trkpt>
      <trkpt lat="45.06304" lon="5.23651">
        <ele>256.33</ele>
        <time>2018-11-15T09:24:48Z</time>
      </trkpt>
      <trkpt lat="45.06303" lon="5.2365">
        <ele>251.52</ele>
        <time>2018-11-15T09:24:49Z</time>
      </trkpt>
      <trkpt lat="45.06302" lon="5.23649">
        <ele>251.04</ele>
        <time>2018-11-15T09:24:50Z</time>
      </trkpt>
      <trkpt lat="45.063" lon="5.23648">
        <ele>256.33</ele>
        <time>2018-11-15T09:24:51Z</time>
      </trkpt>
      <trkpt lat="45.06299" lon="5.23648">
        <ele>252.48</ele>
        <time>2018-11-15T09:24:52Z</time>
      </trkpt>
      <trkpt lat="45.06299" lon="5.23648">
        <ele>255.85</ele>
        <time>2018-11-15T09:24:53Z</time>
      </trkpt>
      <trkpt lat="45.06299" lon="5.23648">
        <ele>252</ele>
        <time>2018-11-15T09:24:54Z</time>
      </trkpt>
      <trkpt lat="45.06299" lon="5.23648">
        <ele>256.81</ele>
        <time>2018-11-15T09:24:55Z</time>
      </trkpt>
      <trkpt lat="45.06299" lon="5.23648">
        <ele>252.48</ele>
        <time>2018-11-15T09:24:56Z</time>
      </trkpt>
      <trkpt lat="45.06299" lon="5.23647">
        <ele>255.85</ele>
        <time>2018-11-15T09:24:57Z</time>
      </trkpt>
      <trkpt lat="45.06297" lon="5.23647">
        <ele>257.29</ele>
        <time>2018-11-15T09:25:00Z</time>
      </trkpt>
      <trkpt lat="45.06296" lon="5.23645">
        <ele>258.25</ele>
        <time>2018-11-15T09:25:02Z</time>
      </trkpt>
      <trkpt lat="45.06292" lon="5.23641">
        <ele>255.85</ele>
        <time>2018-11-15T09:25:06Z</time>
      </trkpt>
      <trkpt lat="45.0629" lon="5.23637">
        <ele>260.65</ele>
        <time>2018-11-15T09:25:13Z</time>
      </trkpt>
      <trkpt lat="45.0629" lon="5.23636">
        <ele>257.29</ele>
        <time>2018-11-15T09:25:14Z</time>
      </trkpt>
      <trkpt lat="45.0629" lon="5.23635">
        <ele>253.44</ele>
        <time>2018-11-15T09:25:16Z</time>
      </trkpt>
      <trkpt lat="45.0629" lon="5.23635">
        <ele>260.65</ele>
        <time>2018-11-15T09:25:17Z</time>
      </trkpt>
      <trkpt lat="45.0629" lon="5.23635">
        <ele>256.33</ele>
        <time>2018-11-15T09:25:18Z</time>
      </trkpt>
      <trkpt lat="45.0629" lon="5.23634">
        <ele>260.17</ele>
        <time>2018-11-15T09:25:21Z</time>
      </trkpt>
      <trkpt lat="45.06287" lon="5.23629">
        <ele>257.29</ele>
        <time>2018-11-15T09:25:33Z</time>
      </trkpt>
      <trkpt lat="45.06287" lon="5.23628">
        <ele>261.14</ele>
        <time>2018-11-15T09:25:34Z</time>
      </trkpt>
      <trkpt lat="45.06285" lon="5.23626">
        <ele>264.02</ele>
        <time>2018-11-15T09:25:37Z</time>
      </trkpt>
      <trkpt lat="45.06285" lon="5.23625">
        <ele>261.14</ele>
        <time>2018-11-15T09:25:38Z</time>
      </trkpt>
      <trkpt lat="45.06285" lon="5.23625">
        <ele>264.98</ele>
        <time>2018-11-15T09:25:39Z</time>
      </trkpt>
      <trkpt lat="45.06285" lon="5.23625">
        <ele>262.1</ele>
        <time>2018-11-15T09:25:40Z</time>
      </trkpt>
      <trkpt lat="45.06285" lon="5.23623">
        <ele>264.98</ele>
        <time>2018-11-15T09:25:48Z</time>
      </trkpt>
      <trkpt lat="45.06284" lon="5.23622">
        <ele>260.65</ele>
        <time>2018-11-15T09:25:52Z</time>
      </trkpt>
      <trkpt lat="45.06284" lon="5.23622">
        <ele>265.46</ele>
        <time>2018-11-15T09:25:57Z</time>
      </trkpt>
      <trkpt lat="45.06283" lon="5.23622">
        <ele>261.14</ele>
        <time>2018-11-15T09:26:01Z</time>
      </trkpt>
      <trkpt lat="45.06282" lon="5.23621">
        <ele>265.94</ele>
        <time>2018-11-15T09:26:02Z</time>
      </trkpt>
      <trkpt lat="45.06282" lon="5.23621">
        <ele>259.69</ele>
        <time>2018-11-15T09:26:03Z</time>
      </trkpt>
      <trkpt lat="45.06282" lon="5.23621">
        <ele>266.9</ele>
        <time>2018-11-15T09:26:04Z</time>
      </trkpt>
      <trkpt lat="45.06281" lon="5.2362">
        <ele>263.54</ele>
        <time>2018-11-15T09:26:05Z</time>
      </trkpt>
      <trkpt lat="45.0628" lon="5.23619">
        <ele>267.38</ele>
        <time>2018-11-15T09:26:08Z</time>
      </trkpt>
      <trkpt lat="45.0628" lon="5.23618">
        <ele>263.06</ele>
        <time>2018-11-15T09:26:11Z</time>
      </trkpt>
      <trkpt lat="45.0628" lon="5.23618">
        <ele>269.31</ele>
        <time>2018-11-15T09:26:12Z</time>
      </trkpt>
      <trkpt lat="45.0628" lon="5.23618">
        <ele>265.94</ele>
        <time>2018-11-15T09:26:13Z</time>
      </trkpt>
      <trkpt lat="45.06278" lon="5.23617">
        <ele>269.31</ele>
        <time>2018-11-15T09:26:16Z</time>
      </trkpt>
      <trkpt lat="45.06276" lon="5.23614">
        <ele>264.98</ele>
        <time>2018-11-15T09:26:23Z</time>
      </trkpt>
      <trkpt lat="45.06276" lon="5.23614">
        <ele>270.27</ele>
        <time>2018-11-15T09:26:24Z</time>
      </trkpt>
      <trkpt lat="45.06275" lon="5.23613">
        <ele>265.94</ele>
        <time>2018-11-15T09:26:25Z</time>
      </trkpt>
      <trkpt lat="45.06275" lon="5.23612">
        <ele>269.31</ele>
        <time>2018-11-15T09:26:26Z</time>
      </trkpt>
      <trkpt lat="45.06273" lon="5.23611">
        <ele>272.67</ele>
        <time>2018-11-15T09:26:28Z</time>
      </trkpt>
      <trkpt lat="45.06272" lon="5.2361">
        <ele>268.83</ele>
        <time>2018-11-15T09:26:29Z</time>
      </trkpt>
      <trkpt lat="45.06266" lon="5.23607">
        <ele>272.19</ele>
        <time>2018-11-15T09:26:40Z</time>
      </trkpt>
      <trkpt lat="45.06266" lon="5.23606">
        <ele>266.42</ele>
        <time>2018-11-15T09:26:41Z</time>
      </trkpt>
      <trkpt lat="45.06266" lon="5.23606">
        <ele>271.71</ele>
        <time>2018-11-15T09:26:42Z</time>
      </trkpt>
      <trkpt lat="45.06266" lon="5.23606">
        <ele>267.86</ele>
        <time>2018-11-15T09:26:43Z</time>
      </trkpt>
      <trkpt lat="45.06266" lon="5.23606">
        <ele>271.71</ele>
        <time>2018-11-15T09:26:44Z</time>
      </trkpt>
      <trkpt lat="45.06266" lon="5.23605">
        <ele>268.35</ele>
        <time>2018-11-15T09:26:45Z</time>
      </trkpt>
      <trkpt lat="45.06265" lon="5.23605">
        <ele>272.19</ele>
        <time>2018-11-15T09:26:46Z</time>
      </trkpt>
      <trkpt lat="45.06265" lon="5.23604">
        <ele>267.86</ele>
        <time>2018-11-15T09:26:47Z</time>
      </trkpt>
      <trkpt lat="45.06265" lon="5.23605">
        <ele>271.71</ele>
        <time>2018-11-15T09:26:48Z</time>
      </trkpt>
      <trkpt lat="45.06262" lon="5.23603">
        <ele>275.56</ele>
        <time>2018-11-15T09:26:57Z</time>
      </trkpt>
      <trkpt lat="45.0626" lon="5.23602">
        <ele>269.79</ele>
        <time>2018-11-15T09:27:00Z</time>
      </trkpt>
      <trkpt lat="45.0626" lon="5.23601">
        <ele>274.11</ele>
        <time>2018-11-15T09:27:01Z</time>
      </trkpt>
      <trkpt lat="45.0626" lon="5.23601">
        <ele>269.79</ele>
        <time>2018-11-15T09:27:02Z</time>
      </trkpt>
      <trkpt lat="45.0626" lon="5.23601">
        <ele>274.11</ele>
        <time>2018-11-15T09:27:03Z</time>
      </trkpt>
      <trkpt lat="45.0626" lon="5.23601">
        <ele>271.23</ele>
        <time>2018-11-15T09:27:04Z</time>
      </trkpt>
      <trkpt lat="45.0626" lon="5.23601">
        <ele>274.11</ele>
        <time>2018-11-15T09:27:05Z</time>
      </trkpt>
      <trkpt lat="45.06257" lon="5.23598">
        <ele>277.48</ele>
        <time>2018-11-15T09:27:16Z</time>
      </trkpt>
      <trkpt lat="45.06255" lon="5.23598">
        <ele>274.11</ele>
        <time>2018-11-15T09:27:32Z</time>
      </trkpt>
      <trkpt lat="45.06255" lon="5.23597">
        <ele>278.92</ele>
        <time>2018-11-15T09:27:33Z</time>
      </trkpt>
      <trkpt lat="45.06255" lon="5.23597">
        <ele>282.77</ele>
        <time>2018-11-15T09:27:36Z</time>
      </trkpt>
      <trkpt lat="45.06255" lon="5.23597">
        <ele>278.92</ele>
        <time>2018-11-15T09:27:37Z</time>
      </trkpt>
      <trkpt lat="45.06254" lon="5.23596">
        <ele>275.56</ele>
        <time>2018-11-15T09:27:47Z</time>
      </trkpt>
      <trkpt lat="45.06254" lon="5.23596">
        <ele>281.32</ele>
        <time>2018-11-15T09:27:48Z</time>
      </trkpt>
      <trkpt lat="45.06253" lon="5.23596">
        <ele>277.96</ele>
        <time>2018-11-15T09:27:50Z</time>
      </trkpt>
      <trkpt lat="45.06253" lon="5.23596">
        <ele>282.28</ele>
        <time>2018-11-15T09:27:51Z</time>
      </trkpt>
      <trkpt lat="45.06239" lon="5.23594">
        <ele>282.28</ele>
        <time>2018-11-15T09:28:04Z</time>
      </trkpt>
      <trkpt lat="45.06239" lon="5.23594">
        <ele>278.44</ele>
        <time>2018-11-15T09:28:05Z</time>
      </trkpt>
      <trkpt lat="45.06238" lon="5.23594">
        <ele>283.25</ele>
        <time>2018-11-15T09:28:06Z</time>
      </trkpt>
      <trkpt lat="45.06236" lon="5.23593">
        <ele>278.92</ele>
        <time>2018-11-15T09:28:07Z</time>
      </trkpt>
      <trkpt lat="45.06236" lon="5.23593">
        <ele>283.73</ele>
        <time>2018-11-15T09:28:08Z</time>
      </trkpt>
      <trkpt lat="45.06231" lon="5.2359">
        <ele>279.88</ele>
        <time>2018-11-15T09:28:16Z</time>
      </trkpt>
      <trkpt lat="45.06231" lon="5.2359">
        <ele>285.17</ele>
        <time>2018-11-15T09:28:17Z</time>
      </trkpt>
      <trkpt lat="45.06231" lon="5.2359">
        <ele>281.32</ele>
        <time>2018-11-15T09:28:20Z</time>
      </trkpt>
      <trkpt lat="45.06231" lon="5.2359">
        <ele>286.13</ele>
        <time>2018-11-15T09:28:21Z</time>
      </trkpt>
      <trkpt lat="45.0623" lon="5.23591">
        <ele>282.77</ele>
        <time>2018-11-15T09:28:25Z</time>
      </trkpt>
      <trkpt lat="45.06225" lon="5.2359">
        <ele>285.65</ele>
        <time>2018-11-15T09:28:30Z</time>
      </trkpt>
      <trkpt lat="45.06222" lon="5.23591">
        <ele>282.77</ele>
        <time>2018-11-15T09:28:34Z</time>
      </trkpt>
      <trkpt lat="45.06221" lon="5.23591">
        <ele>286.61</ele>
        <time>2018-11-15T09:28:35Z</time>
      </trkpt>
      <trkpt lat="45.06218" lon="5.2359">
        <ele>290.94</ele>
        <time>2018-11-15T09:28:40Z</time>
      </trkpt>
      <trkpt lat="45.06218" lon="5.2359">
        <ele>285.65</ele>
        <time>2018-11-15T09:28:41Z</time>
      </trkpt>
      <trkpt lat="45.06218" lon="5.2359">
        <ele>289.01</ele>
        <time>2018-11-15T09:28:45Z</time>
      </trkpt>
      <trkpt lat="45.06215" lon="5.2359">
        <ele>284.69</ele>
        <time>2018-11-15T09:28:51Z</time>
      </trkpt>
      <trkpt lat="45.06213" lon="5.23589">
        <ele>289.49</ele>
        <time>2018-11-15T09:28:52Z</time>
      </trkpt>
      <trkpt lat="45.06208" lon="5.2359">
        <ele>292.86</ele>
        <time>2018-11-15T09:28:57Z</time>
      </trkpt>
      <trkpt lat="45.06208" lon="5.2359">
        <ele>289.01</ele>
        <time>2018-11-15T09:28:58Z</time>
      </trkpt>
      <trkpt lat="45.06207" lon="5.2359">
        <ele>291.9</ele>
        <time>2018-11-15T09:28:59Z</time>
      </trkpt>
      <trkpt lat="45.06206" lon="5.2359">
        <ele>288.53</ele>
        <time>2018-11-15T09:29:00Z</time>
      </trkpt>
      <trkpt lat="45.06205" lon="5.23591">
        <ele>291.9</ele>
        <time>2018-11-15T09:29:01Z</time>
      </trkpt>
      <trkpt lat="45.06201" lon="5.23591">
        <ele>289.01</ele>
        <time>2018-11-15T09:29:07Z</time>
      </trkpt>
      <trkpt lat="45.06201" lon="5.23591">
        <ele>292.38</ele>
        <time>2018-11-15T09:29:08Z</time>
      </trkpt>
      <trkpt lat="45.06201" lon="5.23591">
        <ele>286.13</ele>
        <time>2018-11-15T09:29:09Z</time>
      </trkpt>
      <trkpt lat="45.06201" lon="5.23591">
        <ele>291.9</ele>
        <time>2018-11-15T09:29:10Z</time>
      </trkpt>
      <trkpt lat="45.06201" lon="5.23591">
        <ele>287.57</ele>
        <time>2018-11-15T09:29:12Z</time>
      </trkpt>
      <trkpt lat="45.06201" lon="5.23591">
        <ele>293.82</ele>
        <time>2018-11-15T09:29:13Z</time>
      </trkpt>
      <trkpt lat="45.06197" lon="5.23589">
        <ele>289.97</ele>
        <time>2018-11-15T09:29:19Z</time>
      </trkpt>
      <trkpt lat="45.06195" lon="5.23589">
        <ele>293.34</ele>
        <time>2018-11-15T09:29:20Z</time>
      </trkpt>
      <trkpt lat="45.06194" lon="5.23588">
        <ele>289.49</ele>
        <time>2018-11-15T09:29:21Z</time>
      </trkpt>
      <trkpt lat="45.06193" lon="5.23588">
        <ele>292.86</ele>
        <time>2018-11-15T09:29:22Z</time>
      </trkpt>
      <trkpt lat="45.06189" lon="5.2359">
        <ele>295.74</ele>
        <time>2018-11-15T09:29:26Z</time>
      </trkpt>
      <trkpt lat="45.06188" lon="5.2359">
        <ele>292.86</ele>
        <time>2018-11-15T09:29:27Z</time>
      </trkpt>
      <trkpt lat="45.06187" lon="5.2359">
        <ele>293.82</ele>
        <time>2018-11-15T09:29:28Z</time>
      </trkpt>
      <trkpt lat="45.06186" lon="5.23591">
        <ele>290.46</ele>
        <time>2018-11-15T09:29:29Z</time>
      </trkpt>
      <trkpt lat="45.06185" lon="5.23591">
        <ele>293.34</ele>
        <time>2018-11-15T09:29:30Z</time>
      </trkpt>
      <trkpt lat="45.06182" lon="5.23592">
        <ele>297.18</ele>
        <time>2018-11-15T09:29:34Z</time>
      </trkpt>
      <trkpt lat="45.06181" lon="5.23592">
        <ele>293.34</ele>
        <time>2018-11-15T09:29:35Z</time>
      </trkpt>
      <trkpt lat="45.06177" lon="5.23588">
        <ele>295.26</ele>
        <time>2018-11-15T09:29:49Z</time>
      </trkpt>
      <trkpt lat="45.06175" lon="5.23587">
        <ele>298.63</ele>
        <time>2018-11-15T09:29:53Z</time>
      </trkpt>
      <trkpt lat="45.06175" lon="5.23586">
        <ele>295.26</ele>
        <time>2018-11-15T09:29:56Z</time>
      </trkpt>
      <trkpt lat="45.06174" lon="5.23586">
        <ele>299.11</ele>
        <time>2018-11-15T09:29:57Z</time>
      </trkpt>
      <trkpt lat="45.06174" lon="5.23586">
        <ele>296.22</ele>
        <time>2018-11-15T09:29:58Z</time>
      </trkpt>
      <trkpt lat="45.06174" lon="5.23586">
        <ele>292.86</ele>
        <time>2018-11-15T09:30:04Z</time>
      </trkpt>
      <trkpt lat="45.06174" lon="5.23586">
        <ele>297.18</ele>
        <time>2018-11-15T09:30:05Z</time>
      </trkpt>
      <trkpt lat="45.06173" lon="5.23585">
        <ele>291.9</ele>
        <time>2018-11-15T09:30:06Z</time>
      </trkpt>
      <trkpt lat="45.06171" lon="5.23585">
        <ele>297.67</ele>
        <time>2018-11-15T09:30:07Z</time>
      </trkpt>
      <trkpt lat="45.06168" lon="5.23584">
        <ele>298.15</ele>
        <time>2018-11-15T09:30:20Z</time>
      </trkpt>
      <trkpt lat="45.06168" lon="5.23582">
        <ele>293.82</ele>
        <time>2018-11-15T09:30:26Z</time>
      </trkpt>
      <trkpt lat="45.06168" lon="5.23582">
        <ele>298.63</ele>
        <time>2018-11-15T09:30:27Z</time>
      </trkpt>
      <trkpt lat="45.06166" lon="5.23582">
        <ele>299.11</ele>
        <time>2018-11-15T09:30:43Z</time>
      </trkpt>
      <trkpt lat="45.06158" lon="5.2358">
        <ele>295.26</ele>
        <time>2018-11-15T09:30:58Z</time>
      </trkpt>
      <trkpt lat="45.06158" lon="5.2358">
        <ele>298.63</ele>
        <time>2018-11-15T09:31:00Z</time>
      </trkpt>
      <trkpt lat="45.06157" lon="5.23578">
        <ele>298.63</ele>
        <time>2018-11-15T09:31:20Z</time>
      </trkpt>
      <trkpt lat="45.06155" lon="5.23578">
        <ele>299.11</ele>
        <time>2018-11-15T09:31:40Z</time>
      </trkpt>
      <trkpt lat="45.06148" lon="5.23576">
        <ele>299.11</ele>
        <time>2018-11-15T09:32:03Z</time>
      </trkpt>
      <trkpt lat="45.06146" lon="5.23578">
        <ele>299.59</ele>
        <time>2018-11-15T09:32:27Z</time>
      </trkpt>
      <trkpt lat="45.06145" lon="5.23577">
        <ele>300.07</ele>
        <time>2018-11-15T09:32:43Z</time>
      </trkpt>
      <trkpt lat="45.06141" lon="5.23576">
        <ele>300.07</ele>
        <time>2018-11-15T09:32:58Z</time>
      </trkpt>
      <trkpt lat="45.0614" lon="5.23577">
        <ele>300.55</ele>
        <time>2018-11-15T09:33:21Z</time>
      </trkpt>
      <trkpt lat="45.06136" lon="5.23574">
        <ele>303.91</ele>
        <time>2018-11-15T09:33:37Z</time>
      </trkpt>
      <trkpt lat="45.06134" lon="5.23573">
        <ele>299.59</ele>
        <time>2018-11-15T09:33:38Z</time>
      </trkpt>
      <trkpt lat="45.06131" lon="5.23571">
        <ele>296.7</ele>
        <time>2018-11-15T09:33:40Z</time>
      </trkpt>
      <trkpt lat="45.06129" lon="5.2357">
        <ele>302.47</ele>
        <time>2018-11-15T09:33:41Z</time>
      </trkpt>
      <trkpt lat="45.06129" lon="5.2357">
        <ele>298.15</ele>
        <time>2018-11-15T09:33:43Z</time>
      </trkpt>
      <trkpt lat="45.06128" lon="5.2357">
        <ele>302.47</ele>
        <time>2018-11-15T09:33:44Z</time>
      </trkpt>
      <trkpt lat="45.06126" lon="5.23566">
        <ele>298.63</ele>
        <time>2018-11-15T09:33:50Z</time>
      </trkpt>
      <trkpt lat="45.06126" lon="5.23566">
        <ele>304.39</ele>
        <time>2018-11-15T09:33:51Z</time>
      </trkpt>
      <trkpt lat="45.06125" lon="5.23566">
        <ele>301.03</ele>
        <time>2018-11-15T09:33:52Z</time>
      </trkpt>
      <trkpt lat="45.06124" lon="5.23565">
        <ele>304.39</ele>
        <time>2018-11-15T09:33:54Z</time>
      </trkpt>
      <trkpt lat="45.06124" lon="5.23565">
        <ele>301.51</ele>
        <time>2018-11-15T09:33:55Z</time>
      </trkpt>
      <trkpt lat="45.06123" lon="5.23564">
        <ele>304.88</ele>
        <time>2018-11-15T09:33:56Z</time>
      </trkpt>
      <trkpt lat="45.0612" lon="5.23559">
        <ele>301.03</ele>
        <time>2018-11-15T09:34:06Z</time>
      </trkpt>
      <trkpt lat="45.0612" lon="5.23558">
        <ele>306.8</ele>
        <time>2018-11-15T09:34:07Z</time>
      </trkpt>
      <trkpt lat="45.0612" lon="5.23555">
        <ele>311.12</ele>
        <time>2018-11-15T09:34:14Z</time>
      </trkpt>
      <trkpt lat="45.06119" lon="5.23554">
        <ele>307.76</ele>
        <time>2018-11-15T09:34:15Z</time>
      </trkpt>
      <trkpt lat="45.06119" lon="5.23554">
        <ele>312.57</ele>
        <time>2018-11-15T09:34:20Z</time>
      </trkpt>
      <trkpt lat="45.06119" lon="5.23554">
        <ele>307.76</ele>
        <time>2018-11-15T09:34:21Z</time>
      </trkpt>
      <trkpt lat="45.06118" lon="5.23551">
        <ele>312.09</ele>
        <time>2018-11-15T09:34:24Z</time>
      </trkpt>
      <trkpt lat="45.06117" lon="5.23551">
        <ele>309.2</ele>
        <time>2018-11-15T09:34:25Z</time>
      </trkpt>
      <trkpt lat="45.06117" lon="5.23551">
        <ele>313.53</ele>
        <time>2018-11-15T09:34:26Z</time>
      </trkpt>
      <trkpt lat="45.06117" lon="5.23551">
        <ele>310.16</ele>
        <time>2018-11-15T09:34:27Z</time>
      </trkpt>
      <trkpt lat="45.06117" lon="5.2355">
        <ele>307.28</ele>
        <time>2018-11-15T09:34:30Z</time>
      </trkpt>
      <trkpt lat="45.06117" lon="5.2355">
        <ele>313.05</ele>
        <time>2018-11-15T09:34:31Z</time>
      </trkpt>
      <trkpt lat="45.06117" lon="5.23548">
        <ele>305.36</ele>
        <time>2018-11-15T09:34:34Z</time>
      </trkpt>
      <trkpt lat="45.06117" lon="5.23548">
        <ele>318.81</ele>
        <time>2018-11-15T09:34:35Z</time>
      </trkpt>
      <trkpt lat="45.06117" lon="5.23548">
        <ele>306.8</ele>
        <time>2018-11-15T09:34:36Z</time>
      </trkpt>
      <trkpt lat="45.06118" lon="5.23548">
        <ele>313.53</ele>
        <time>2018-11-15T09:34:37Z</time>
      </trkpt>
      <trkpt lat="45.06118" lon="5.23547">
        <ele>309.68</ele>
        <time>2018-11-15T09:34:38Z</time>
      </trkpt>
      <trkpt lat="45.06118" lon="5.23547">
        <ele>312.57</ele>
        <time>2018-11-15T09:34:39Z</time>
      </trkpt>
      <trkpt lat="45.06117" lon="5.23541">
        <ele>316.89</ele>
        <time>2018-11-15T09:34:45Z</time>
      </trkpt>
      <trkpt lat="45.06117" lon="5.23539">
        <ele>312.57</ele>
        <time>2018-11-15T09:34:46Z</time>
      </trkpt>
      <trkpt lat="45.06117" lon="5.23539">
        <ele>315.93</ele>
        <time>2018-11-15T09:34:47Z</time>
      </trkpt>
      <trkpt lat="45.06117" lon="5.23539">
        <ele>310.16</ele>
        <time>2018-11-15T09:34:48Z</time>
      </trkpt>
      <trkpt lat="45.06116" lon="5.23538">
        <ele>314.97</ele>
        <time>2018-11-15T09:34:49Z</time>
      </trkpt>
      <trkpt lat="45.06116" lon="5.23536">
        <ele>317.85</ele>
        <time>2018-11-15T09:34:57Z</time>
      </trkpt>
      <trkpt lat="45.06116" lon="5.23535">
        <ele>314.01</ele>
        <time>2018-11-15T09:35:00Z</time>
      </trkpt>
      <trkpt lat="45.06115" lon="5.23534">
        <ele>317.85</ele>
        <time>2018-11-15T09:35:01Z</time>
      </trkpt>
      <trkpt lat="45.06115" lon="5.23531">
        <ele>321.7</ele>
        <time>2018-11-15T09:35:11Z</time>
      </trkpt>
      <trkpt lat="45.06115" lon="5.23531">
        <ele>317.85</ele>
        <time>2018-11-15T09:35:12Z</time>
      </trkpt>
      <trkpt lat="45.06115" lon="5.2353">
        <ele>322.18</ele>
        <time>2018-11-15T09:35:13Z</time>
      </trkpt>
      <trkpt lat="45.06115" lon="5.2353">
        <ele>316.89</ele>
        <time>2018-11-15T09:35:14Z</time>
      </trkpt>
      <trkpt lat="45.06115" lon="5.2353">
        <ele>320.74</ele>
        <time>2018-11-15T09:35:15Z</time>
      </trkpt>
      <trkpt lat="45.06115" lon="5.23528">
        <ele>314.97</ele>
        <time>2018-11-15T09:35:18Z</time>
      </trkpt>
      <trkpt lat="45.06115" lon="5.23528">
        <ele>319.78</ele>
        <time>2018-11-15T09:35:19Z</time>
      </trkpt>
      <trkpt lat="45.06115" lon="5.23527">
        <ele>314.49</ele>
        <time>2018-11-15T09:35:20Z</time>
      </trkpt>
      <trkpt lat="45.06115" lon="5.23525">
        <ele>319.3</ele>
        <time>2018-11-15T09:35:21Z</time>
      </trkpt>
      <trkpt lat="45.06115" lon="5.2352">
        <ele>319.78</ele>
        <time>2018-11-15T09:35:29Z</time>
      </trkpt>
      <trkpt lat="45.06112" lon="5.23513">
        <ele>314.01</ele>
        <time>2018-11-15T09:35:37Z</time>
      </trkpt>
      <trkpt lat="45.06112" lon="5.23511">
        <ele>322.18</ele>
        <time>2018-11-15T09:35:38Z</time>
      </trkpt>
      <trkpt lat="45.06112" lon="5.2351">
        <ele>318.81</ele>
        <time>2018-11-15T09:35:39Z</time>
      </trkpt>
      <trkpt lat="45.06112" lon="5.23507">
        <ele>324.58</ele>
        <time>2018-11-15T09:35:41Z</time>
      </trkpt>
      <trkpt lat="45.06112" lon="5.23506">
        <ele>320.26</ele>
        <time>2018-11-15T09:35:42Z</time>
      </trkpt>
      <trkpt lat="45.06112" lon="5.23505">
        <ele>324.58</ele>
        <time>2018-11-15T09:35:43Z</time>
      </trkpt>
      <trkpt lat="45.06112" lon="5.23504">
        <ele>320.74</ele>
        <time>2018-11-15T09:35:44Z</time>
      </trkpt>
      <trkpt lat="45.06112" lon="5.23503">
        <ele>324.58</ele>
        <time>2018-11-15T09:35:50Z</time>
      </trkpt>
      <trkpt lat="45.06113" lon="5.23499">
        <ele>320.74</ele>
        <time>2018-11-15T09:35:57Z</time>
      </trkpt>
      <trkpt lat="45.06113" lon="5.23499">
        <ele>324.1</ele>
        <time>2018-11-15T09:35:58Z</time>
      </trkpt>
      <trkpt lat="45.06113" lon="5.23499">
        <ele>319.3</ele>
        <time>2018-11-15T09:35:59Z</time>
      </trkpt>
      <trkpt lat="45.06113" lon="5.23499">
        <ele>326.02</ele>
        <time>2018-11-15T09:36:00Z</time>
      </trkpt>
      <trkpt lat="45.06113" lon="5.23496">
        <ele>318.81</ele>
        <time>2018-11-15T09:36:04Z</time>
      </trkpt>
      <trkpt lat="45.06113" lon="5.23496">
        <ele>327.47</ele>
        <time>2018-11-15T09:36:05Z</time>
      </trkpt>
      <trkpt lat="45.06112" lon="5.23494">
        <ele>319.78</ele>
        <time>2018-11-15T09:36:09Z</time>
      </trkpt>
      <trkpt lat="45.06112" lon="5.23492">
        <ele>329.39</ele>
        <time>2018-11-15T09:36:10Z</time>
      </trkpt>
      <trkpt lat="45.06111" lon="5.23491">
        <ele>324.1</ele>
        <time>2018-11-15T09:36:11Z</time>
      </trkpt>
      <trkpt lat="45.06111" lon="5.23489">
        <ele>327.47</ele>
        <time>2018-11-15T09:36:14Z</time>
      </trkpt>
      <trkpt lat="45.06111" lon="5.23488">
        <ele>323.62</ele>
        <time>2018-11-15T09:36:15Z</time>
      </trkpt>
      <trkpt lat="45.06111" lon="5.23488">
        <ele>327.95</ele>
        <time>2018-11-15T09:36:16Z</time>
      </trkpt>
      <trkpt lat="45.06111" lon="5.23483">
        <ele>328.91</ele>
        <time>2018-11-15T09:36:28Z</time>
      </trkpt>
      <trkpt lat="45.06111" lon="5.23483">
        <ele>325.06</ele>
        <time>2018-11-15T09:36:29Z</time>
      </trkpt>
      <trkpt lat="45.06111" lon="5.23483">
        <ele>329.39</ele>
        <time>2018-11-15T09:36:30Z</time>
      </trkpt>
      <trkpt lat="45.06113" lon="5.23476">
        <ele>331.31</ele>
        <time>2018-11-15T09:36:40Z</time>
      </trkpt>
      <trkpt lat="45.06113" lon="5.23475">
        <ele>326.99</ele>
        <time>2018-11-15T09:36:41Z</time>
      </trkpt>
      <trkpt lat="45.06113" lon="5.23475">
        <ele>331.79</ele>
        <time>2018-11-15T09:36:42Z</time>
      </trkpt>
      <trkpt lat="45.06112" lon="5.23475">
        <ele>326.99</ele>
        <time>2018-11-15T09:36:43Z</time>
      </trkpt>
      <trkpt lat="45.06112" lon="5.23475">
        <ele>331.79</ele>
        <time>2018-11-15T09:36:44Z</time>
      </trkpt>
      <trkpt lat="45.06112" lon="5.23474">
        <ele>328.91</ele>
        <time>2018-11-15T09:36:46Z</time>
      </trkpt>
      <trkpt lat="45.06112" lon="5.23473">
        <ele>332.27</ele>
        <time>2018-11-15T09:36:47Z</time>
      </trkpt>
      <trkpt lat="45.06109" lon="5.23467">
        <ele>328.91</ele>
        <time>2018-11-15T09:36:55Z</time>
      </trkpt>
      <trkpt lat="45.06109" lon="5.23467">
        <ele>332.75</ele>
        <time>2018-11-15T09:36:56Z</time>
      </trkpt>
      <trkpt lat="45.06109" lon="5.23466">
        <ele>336.6</ele>
        <time>2018-11-15T09:37:02Z</time>
      </trkpt>
      <trkpt lat="45.06109" lon="5.23466">
        <ele>331.79</ele>
        <time>2018-11-15T09:37:03Z</time>
      </trkpt>
      <trkpt lat="45.06108" lon="5.23466">
        <ele>335.64</ele>
        <time>2018-11-15T09:37:07Z</time>
      </trkpt>
      <trkpt lat="45.06106" lon="5.23462">
        <ele>330.83</ele>
        <time>2018-11-15T09:37:13Z</time>
      </trkpt>
      <trkpt lat="45.06106" lon="5.23461">
        <ele>335.16</ele>
        <time>2018-11-15T09:37:14Z</time>
      </trkpt>
      <trkpt lat="45.06106" lon="5.23461">
        <ele>339.48</ele>
        <time>2018-11-15T09:37:15Z</time>
      </trkpt>
      <trkpt lat="45.06106" lon="5.23461">
        <ele>332.27</ele>
        <time>2018-11-15T09:37:16Z</time>
      </trkpt>
      <trkpt lat="45.06106" lon="5.23461">
        <ele>337.08</ele>
        <time>2018-11-15T09:37:17Z</time>
      </trkpt>
      <trkpt lat="45.06106" lon="5.23461">
        <ele>333.23</ele>
        <time>2018-11-15T09:37:19Z</time>
      </trkpt>
      <trkpt lat="45.06106" lon="5.23461">
        <ele>336.12</ele>
        <time>2018-11-15T09:37:20Z</time>
      </trkpt>
      <trkpt lat="45.06106" lon="5.2346">
        <ele>340.44</ele>
        <time>2018-11-15T09:37:21Z</time>
      </trkpt>
      <trkpt lat="45.06106" lon="5.2346">
        <ele>339</ele>
        <time>2018-11-15T09:37:22Z</time>
      </trkpt>
      <trkpt lat="45.06105" lon="5.2346">
        <ele>333.23</ele>
        <time>2018-11-15T09:37:23Z</time>
      </trkpt>
      <trkpt lat="45.06105" lon="5.2346">
        <ele>339.48</ele>
        <time>2018-11-15T09:37:24Z</time>
      </trkpt>
      <trkpt lat="45.06105" lon="5.23459">
        <ele>335.16</ele>
        <time>2018-11-15T09:37:25Z</time>
      </trkpt>
      <trkpt lat="45.06104" lon="5.23459">
        <ele>339.48</ele>
        <time>2018-11-15T09:37:27Z</time>
      </trkpt>
      <trkpt lat="45.06103" lon="5.23457">
        <ele>334.68</ele>
        <time>2018-11-15T09:37:28Z</time>
      </trkpt>
      <trkpt lat="45.06103" lon="5.23457">
        <ele>338.04</ele>
        <time>2018-11-15T09:37:29Z</time>
      </trkpt>
      <trkpt lat="45.06094" lon="5.2345">
        <ele>341.41</ele>
        <time>2018-11-15T09:37:38Z</time>
      </trkpt>
      <trkpt lat="45.06094" lon="5.23449">
        <ele>334.68</ele>
        <time>2018-11-15T09:37:39Z</time>
      </trkpt>
      <trkpt lat="45.06093" lon="5.23448">
        <ele>340.44</ele>
        <time>2018-11-15T09:37:40Z</time>
      </trkpt>
      <trkpt lat="45.06092" lon="5.23446">
        <ele>344.29</ele>
        <time>2018-11-15T09:37:43Z</time>
      </trkpt>
      <trkpt lat="45.06091" lon="5.23445">
        <ele>338.52</ele>
        <time>2018-11-15T09:37:44Z</time>
      </trkpt>
      <trkpt lat="45.06089" lon="5.23443">
        <ele>344.77</ele>
        <time>2018-11-15T09:37:49Z</time>
      </trkpt>
      <trkpt lat="45.06088" lon="5.23442">
        <ele>339.96</ele>
        <time>2018-11-15T09:37:50Z</time>
      </trkpt>
      <trkpt lat="45.06087" lon="5.23441">
        <ele>336.6</ele>
        <time>2018-11-15T09:37:52Z</time>
      </trkpt>
      <trkpt lat="45.06087" lon="5.23441">
        <ele>342.85</ele>
        <time>2018-11-15T09:37:53Z</time>
      </trkpt>
      <trkpt lat="45.06082" lon="5.23436">
        <ele>339</ele>
        <time>2018-11-15T09:37:57Z</time>
      </trkpt>
      <trkpt lat="45.06081" lon="5.23435">
        <ele>343.33</ele>
        <time>2018-11-15T09:37:58Z</time>
      </trkpt>
      <trkpt lat="45.0608" lon="5.23435">
        <ele>339</ele>
        <time>2018-11-15T09:38:00Z</time>
      </trkpt>
      <trkpt lat="45.06079" lon="5.23434">
        <ele>344.77</ele>
        <time>2018-11-15T09:38:01Z</time>
      </trkpt>
      <trkpt lat="45.06077" lon="5.23432">
        <ele>340.92</ele>
        <time>2018-11-15T09:38:03Z</time>
      </trkpt>
      <trkpt lat="45.06076" lon="5.23431">
        <ele>344.77</ele>
        <time>2018-11-15T09:38:04Z</time>
      </trkpt>
      <trkpt lat="45.06076" lon="5.23431">
        <ele>341.41</ele>
        <time>2018-11-15T09:38:05Z</time>
      </trkpt>
      <trkpt lat="45.06074" lon="5.23428">
        <ele>345.73</ele>
        <time>2018-11-15T09:38:09Z</time>
      </trkpt>
      <trkpt lat="45.0607" lon="5.23428">
        <ele>350.06</ele>
        <time>2018-11-15T09:38:14Z</time>
      </trkpt>
      <trkpt lat="45.0607" lon="5.23429">
        <ele>344.29</ele>
        <time>2018-11-15T09:38:15Z</time>
      </trkpt>
      <trkpt lat="45.06067" lon="5.2343">
        <ele>349.58</ele>
        <time>2018-11-15T09:38:21Z</time>
      </trkpt>
      <trkpt lat="45.06066" lon="5.2343">
        <ele>345.25</ele>
        <time>2018-11-15T09:38:22Z</time>
      </trkpt>
      <trkpt lat="45.06066" lon="5.23429">
        <ele>348.62</ele>
        <time>2018-11-15T09:38:24Z</time>
      </trkpt>
      <trkpt lat="45.06065" lon="5.23429">
        <ele>348.13</ele>
        <time>2018-11-15T09:38:25Z</time>
      </trkpt>
      <trkpt lat="45.06064" lon="5.23429">
        <ele>344.77</ele>
        <time>2018-11-15T09:38:26Z</time>
      </trkpt>
      <trkpt lat="45.06063" lon="5.23428">
        <ele>349.58</ele>
        <time>2018-11-15T09:38:27Z</time>
      </trkpt>
      <trkpt lat="45.06062" lon="5.23428">
        <ele>342.37</ele>
        <time>2018-11-15T09:38:28Z</time>
      </trkpt>
      <trkpt lat="45.06061" lon="5.23428">
        <ele>347.65</ele>
        <time>2018-11-15T09:38:29Z</time>
      </trkpt>
      <trkpt lat="45.06059" lon="5.23429">
        <ele>351.02</ele>
        <time>2018-11-15T09:38:30Z</time>
      </trkpt>
      <trkpt lat="45.06058" lon="5.23429">
        <ele>347.17</ele>
        <time>2018-11-15T09:38:31Z</time>
      </trkpt>
      <trkpt lat="45.06056" lon="5.2343">
        <ele>342.85</ele>
        <time>2018-11-15T09:38:33Z</time>
      </trkpt>
      <trkpt lat="45.06055" lon="5.2343">
        <ele>349.1</ele>
        <time>2018-11-15T09:38:34Z</time>
      </trkpt>
      <trkpt lat="45.06051" lon="5.23429">
        <ele>344.77</ele>
        <time>2018-11-15T09:38:39Z</time>
      </trkpt>
      <trkpt lat="45.0605" lon="5.23428">
        <ele>349.58</ele>
        <time>2018-11-15T09:38:40Z</time>
      </trkpt>
      <trkpt lat="45.06045" lon="5.23426">
        <ele>353.42</ele>
        <time>2018-11-15T09:38:47Z</time>
      </trkpt>
      <trkpt lat="45.06045" lon="5.23426">
        <ele>349.1</ele>
        <time>2018-11-15T09:38:48Z</time>
      </trkpt>
      <trkpt lat="45.06044" lon="5.23426">
        <ele>352.46</ele>
        <time>2018-11-15T09:38:49Z</time>
      </trkpt>
      <trkpt lat="45.06043" lon="5.23427">
        <ele>347.17</ele>
        <time>2018-11-15T09:38:50Z</time>
      </trkpt>
      <trkpt lat="45.06043" lon="5.23427">
        <ele>351.02</ele>
        <time>2018-11-15T09:38:51Z</time>
      </trkpt>
      <trkpt lat="45.06042" lon="5.23428">
        <ele>353.9</ele>
        <time>2018-11-15T09:38:52Z</time>
      </trkpt>
      <trkpt lat="45.06042" lon="5.23428">
        <ele>350.06</ele>
        <time>2018-11-15T09:38:53Z</time>
      </trkpt>
      <trkpt lat="45.06041" lon="5.23429">
        <ele>353.9</ele>
        <time>2018-11-15T09:38:54Z</time>
      </trkpt>
      <trkpt lat="45.06041" lon="5.23429">
        <ele>345.73</ele>
        <time>2018-11-15T09:38:55Z</time>
      </trkpt>
      <trkpt lat="45.06041" lon="5.23431">
        <ele>352.46</ele>
        <time>2018-11-15T09:38:56Z</time>
      </trkpt>
      <trkpt lat="45.0604" lon="5.23435">
        <ele>351.02</ele>
        <time>2018-11-15T09:38:59Z</time>
      </trkpt>
      <trkpt lat="45.0604" lon="5.23436">
        <ele>354.38</ele>
        <time>2018-11-15T09:39:00Z</time>
      </trkpt>
      <trkpt lat="45.06039" lon="5.23436">
        <ele>350.54</ele>
        <time>2018-11-15T09:39:01Z</time>
      </trkpt>
      <trkpt lat="45.06039" lon="5.23436">
        <ele>355.83</ele>
        <time>2018-11-15T09:39:03Z</time>
      </trkpt>
      <trkpt lat="45.06039" lon="5.23437">
        <ele>349.58</ele>
        <time>2018-11-15T09:39:04Z</time>
      </trkpt>
      <trkpt lat="45.06038" lon="5.23438">
        <ele>353.9</ele>
        <time>2018-11-15T09:39:05Z</time>
      </trkpt>
      <trkpt lat="45.06035" lon="5.2344">
        <ele>350.06</ele>
        <time>2018-11-15T09:39:09Z</time>
      </trkpt>
      <trkpt lat="45.06034" lon="5.23441">
        <ele>355.34</ele>
        <time>2018-11-15T09:39:10Z</time>
      </trkpt>
      <trkpt lat="45.06033" lon="5.23443">
        <ele>351.02</ele>
        <time>2018-11-15T09:39:13Z</time>
      </trkpt>
      <trkpt lat="45.06033" lon="5.23443">
        <ele>357.75</ele>
        <time>2018-11-15T09:39:14Z</time>
      </trkpt>
      <trkpt lat="45.06032" lon="5.23443">
        <ele>351.5</ele>
        <time>2018-11-15T09:39:15Z</time>
      </trkpt>
      <trkpt lat="45.06032" lon="5.23443">
        <ele>355.83</ele>
        <time>2018-11-15T09:39:16Z</time>
      </trkpt>
      <trkpt lat="45.06031" lon="5.23443">
        <ele>351.02</ele>
        <time>2018-11-15T09:39:17Z</time>
      </trkpt>
      <trkpt lat="45.0603" lon="5.23443">
        <ele>357.27</ele>
        <time>2018-11-15T09:39:19Z</time>
      </trkpt>
      <trkpt lat="45.06029" lon="5.23445">
        <ele>361.11</ele>
        <time>2018-11-15T09:39:22Z</time>
      </trkpt>
      <trkpt lat="45.06028" lon="5.23446">
        <ele>353.42</ele>
        <time>2018-11-15T09:39:23Z</time>
      </trkpt>
      <trkpt lat="45.06028" lon="5.23447">
        <ele>358.23</ele>
        <time>2018-11-15T09:39:24Z</time>
      </trkpt>
      <trkpt lat="45.0602" lon="5.2345">
        <ele>358.71</ele>
        <time>2018-11-15T09:39:36Z</time>
      </trkpt>
      <trkpt lat="45.06017" lon="5.23451">
        <ele>358.71</ele>
        <time>2018-11-15T09:39:40Z</time>
      </trkpt>
      <trkpt lat="45.06016" lon="5.23454">
        <ele>360.15</ele>
        <time>2018-11-15T09:39:42Z</time>
      </trkpt>
      <trkpt lat="45.0601" lon="5.23458">
        <ele>358.71</ele>
        <time>2018-11-15T09:39:50Z</time>
      </trkpt>
      <trkpt lat="45.06009" lon="5.23461">
        <ele>361.59</ele>
        <time>2018-11-15T09:39:51Z</time>
      </trkpt>
      <trkpt lat="45.06007" lon="5.23464">
        <ele>358.71</ele>
        <time>2018-11-15T09:39:53Z</time>
      </trkpt>
      <trkpt lat="45.06006" lon="5.23465">
        <ele>361.59</ele>
        <time>2018-11-15T09:39:54Z</time>
      </trkpt>
      <trkpt lat="45.06006" lon="5.23467">
        <ele>358.71</ele>
        <time>2018-11-15T09:39:56Z</time>
      </trkpt>
      <trkpt lat="45.06006" lon="5.23468">
        <ele>362.07</ele>
        <time>2018-11-15T09:39:57Z</time>
      </trkpt>
      <trkpt lat="45.06001" lon="5.23478">
        <ele>363.04</ele>
        <time>2018-11-15T09:40:09Z</time>
      </trkpt>
      <trkpt lat="45.05998" lon="5.23482">
        <ele>363.52</ele>
        <time>2018-11-15T09:40:16Z</time>
      </trkpt>
      <trkpt lat="45.06004" lon="5.23489">
        <ele>361.59</ele>
        <time>2018-11-15T09:40:26Z</time>
      </trkpt>
      <trkpt lat="45.06008" lon="5.23499">
        <ele>365.92</ele>
        <time>2018-11-15T09:40:37Z</time>
      </trkpt>
      <trkpt lat="45.0601" lon="5.23504">
        <ele>364.96</ele>
        <time>2018-11-15T09:40:45Z</time>
      </trkpt>
      <trkpt lat="45.06011" lon="5.23509">
        <ele>364.48</ele>
        <time>2018-11-15T09:40:56Z</time>
      </trkpt>
      <trkpt lat="45.06011" lon="5.23511">
        <ele>364.96</ele>
        <time>2018-11-15T09:41:10Z</time>
      </trkpt>
      <trkpt lat="45.06012" lon="5.23511">
        <ele>364.48</ele>
        <time>2018-11-15T09:41:31Z</time>
      </trkpt>
      <trkpt lat="45.06012" lon="5.23512">
        <ele>364.96</ele>
        <time>2018-11-15T09:41:57Z</time>
      </trkpt>
      <trkpt lat="45.06012" lon="5.23514">
        <ele>364.96</ele>
        <time>2018-11-15T09:42:17Z</time>
      </trkpt>
      <trkpt lat="45.06013" lon="5.23513">
        <ele>365.92</ele>
        <time>2018-11-15T09:42:33Z</time>
      </trkpt>
      <trkpt lat="45.06015" lon="5.23508">
        <ele>364.96</ele>
        <time>2018-11-15T09:42:42Z</time>
      </trkpt>
      <trkpt lat="45.06013" lon="5.23505">
        <ele>366.4</ele>
        <time>2018-11-15T09:42:55Z</time>
      </trkpt>
      <trkpt lat="45.06008" lon="5.23499">
        <ele>364.48</ele>
        <time>2018-11-15T09:43:08Z</time>
      </trkpt>
      <trkpt lat="45.05993" lon="5.23492">
        <ele>363.04</ele>
        <time>2018-11-15T09:43:19Z</time>
      </trkpt>
      <trkpt lat="45.05992" lon="5.23492">
        <ele>366.88</ele>
        <time>2018-11-15T09:43:21Z</time>
      </trkpt>
      <trkpt lat="45.0598" lon="5.23498">
        <ele>366.88</ele>
        <time>2018-11-15T09:43:34Z</time>
      </trkpt>
      <trkpt lat="45.05973" lon="5.23505">
        <ele>367.84</ele>
        <time>2018-11-15T09:43:44Z</time>
      </trkpt>
      <trkpt lat="45.05967" lon="5.23511">
        <ele>369.76</ele>
        <time>2018-11-15T09:43:56Z</time>
      </trkpt>
      <trkpt lat="45.05967" lon="5.23511">
        <ele>366.4</ele>
        <time>2018-11-15T09:43:57Z</time>
      </trkpt>
      <trkpt lat="45.05966" lon="5.23512">
        <ele>372.65</ele>
        <time>2018-11-15T09:43:58Z</time>
      </trkpt>
      <trkpt lat="45.05966" lon="5.23512">
        <ele>368.8</ele>
        <time>2018-11-15T09:43:59Z</time>
      </trkpt>
      <trkpt lat="45.05966" lon="5.23513">
        <ele>372.17</ele>
        <time>2018-11-15T09:44:02Z</time>
      </trkpt>
      <trkpt lat="45.05964" lon="5.23514">
        <ele>367.84</ele>
        <time>2018-11-15T09:44:08Z</time>
      </trkpt>
      <trkpt lat="45.05964" lon="5.23514">
        <ele>370.73</ele>
        <time>2018-11-15T09:44:09Z</time>
      </trkpt>
      <trkpt lat="45.05956" lon="5.23516">
        <ele>372.17</ele>
        <time>2018-11-15T09:44:23Z</time>
      </trkpt>
      <trkpt lat="45.05951" lon="5.23521">
        <ele>374.09</ele>
        <time>2018-11-15T09:44:35Z</time>
      </trkpt>
      <trkpt lat="45.05947" lon="5.23526">
        <ele>374.57</ele>
        <time>2018-11-15T09:44:43Z</time>
      </trkpt>
      <trkpt lat="45.05947" lon="5.23527">
        <ele>378.42</ele>
        <time>2018-11-15T09:44:44Z</time>
      </trkpt>
      <trkpt lat="45.05948" lon="5.23528">
        <ele>375.05</ele>
        <time>2018-11-15T09:44:45Z</time>
      </trkpt>
      <trkpt lat="45.05946" lon="5.23529">
        <ele>378.9</ele>
        <time>2018-11-15T09:44:47Z</time>
      </trkpt>
      <trkpt lat="45.05946" lon="5.23529">
        <ele>373.61</ele>
        <time>2018-11-15T09:44:48Z</time>
      </trkpt>
      <trkpt lat="45.05945" lon="5.23529">
        <ele>376.97</ele>
        <time>2018-11-15T09:44:49Z</time>
      </trkpt>
      <trkpt lat="45.05944" lon="5.2353">
        <ele>372.65</ele>
        <time>2018-11-15T09:44:50Z</time>
      </trkpt>
      <trkpt lat="45.05944" lon="5.23531">
        <ele>376.49</ele>
        <time>2018-11-15T09:44:51Z</time>
      </trkpt>
      <trkpt lat="45.0594" lon="5.23535">
        <ele>373.61</ele>
        <time>2018-11-15T09:44:56Z</time>
      </trkpt>
      <trkpt lat="45.0594" lon="5.23536">
        <ele>378.9</ele>
        <time>2018-11-15T09:44:57Z</time>
      </trkpt>
      <trkpt lat="45.0594" lon="5.23536">
        <ele>374.09</ele>
        <time>2018-11-15T09:44:58Z</time>
      </trkpt>
      <trkpt lat="45.05939" lon="5.23537">
        <ele>377.94</ele>
        <time>2018-11-15T09:45:00Z</time>
      </trkpt>
      <trkpt lat="45.05937" lon="5.23539">
        <ele>374.57</ele>
        <time>2018-11-15T09:45:03Z</time>
      </trkpt>
      <trkpt lat="45.05936" lon="5.23539">
        <ele>377.45</ele>
        <time>2018-11-15T09:45:04Z</time>
      </trkpt>
      <trkpt lat="45.05935" lon="5.23541">
        <ele>377.45</ele>
        <time>2018-11-15T09:45:06Z</time>
      </trkpt>
      <trkpt lat="45.05933" lon="5.23542">
        <ele>376.01</ele>
        <time>2018-11-15T09:45:08Z</time>
      </trkpt>
      <trkpt lat="45.05925" lon="5.23547">
        <ele>378.9</ele>
        <time>2018-11-15T09:45:20Z</time>
      </trkpt>
      <trkpt lat="45.0592" lon="5.23548">
        <ele>378.42</ele>
        <time>2018-11-15T09:45:35Z</time>
      </trkpt>
      <trkpt lat="45.05916" lon="5.23547">
        <ele>377.94</ele>
        <time>2018-11-15T09:45:48Z</time>
      </trkpt>
      <trkpt lat="45.05904" lon="5.23543">
        <ele>377.45</ele>
        <time>2018-11-15T09:46:03Z</time>
      </trkpt>
      <trkpt lat="45.05901" lon="5.23544">
        <ele>378.9</ele>
        <time>2018-11-15T09:46:17Z</time>
      </trkpt>
      <trkpt lat="45.0589" lon="5.23536">
        <ele>376.97</ele>
        <time>2018-11-15T09:46:31Z</time>
      </trkpt>
      <trkpt lat="45.05886" lon="5.2354">
        <ele>380.82</ele>
        <time>2018-11-15T09:46:35Z</time>
      </trkpt>
      <trkpt lat="45.05883" lon="5.23549">
        <ele>377.94</ele>
        <time>2018-11-15T09:46:44Z</time>
      </trkpt>
      <trkpt lat="45.0588" lon="5.23552">
        <ele>381.78</ele>
        <time>2018-11-15T09:46:48Z</time>
      </trkpt>
      <trkpt lat="45.05877" lon="5.2356">
        <ele>380.34</ele>
        <time>2018-11-15T09:46:59Z</time>
      </trkpt>
      <trkpt lat="45.05877" lon="5.2356">
        <ele>385.63</ele>
        <time>2018-11-15T09:47:00Z</time>
      </trkpt>
      <trkpt lat="45.05877" lon="5.2356">
        <ele>381.78</ele>
        <time>2018-11-15T09:47:01Z</time>
      </trkpt>
      <trkpt lat="45.05877" lon="5.23561">
        <ele>385.63</ele>
        <time>2018-11-15T09:47:03Z</time>
      </trkpt>
      <trkpt lat="45.05877" lon="5.23561">
        <ele>381.78</ele>
        <time>2018-11-15T09:47:04Z</time>
      </trkpt>
      <trkpt lat="45.05875" lon="5.23561">
        <ele>386.11</ele>
        <time>2018-11-15T09:47:18Z</time>
      </trkpt>
      <trkpt lat="45.05875" lon="5.23562">
        <ele>381.3</ele>
        <time>2018-11-15T09:47:19Z</time>
      </trkpt>
      <trkpt lat="45.05875" lon="5.23563">
        <ele>384.66</ele>
        <time>2018-11-15T09:47:23Z</time>
      </trkpt>
      <trkpt lat="45.05874" lon="5.23564">
        <ele>378.9</ele>
        <time>2018-11-15T09:47:24Z</time>
      </trkpt>
      <trkpt lat="45.05874" lon="5.23566">
        <ele>383.7</ele>
        <time>2018-11-15T09:47:25Z</time>
      </trkpt>
      <trkpt lat="45.05867" lon="5.23569">
        <ele>381.3</ele>
        <time>2018-11-15T09:47:36Z</time>
      </trkpt>
      <trkpt lat="45.05867" lon="5.23569">
        <ele>384.66</ele>
        <time>2018-11-15T09:47:37Z</time>
      </trkpt>
      <trkpt lat="45.05864" lon="5.23571">
        <ele>383.7</ele>
        <time>2018-11-15T09:47:49Z</time>
      </trkpt>
      <trkpt lat="45.05863" lon="5.2357">
        <ele>385.15</ele>
        <time>2018-11-15T09:48:07Z</time>
      </trkpt>
      <trkpt lat="45.05863" lon="5.23568">
        <ele>385.63</ele>
        <time>2018-11-15T09:48:24Z</time>
      </trkpt>
      <trkpt lat="45.05863" lon="5.23566">
        <ele>385.15</ele>
        <time>2018-11-15T09:48:39Z</time>
      </trkpt>
      <trkpt lat="45.05861" lon="5.23568">
        <ele>386.11</ele>
        <time>2018-11-15T09:48:52Z</time>
      </trkpt>
      <trkpt lat="45.05856" lon="5.23584">
        <ele>384.66</ele>
        <time>2018-11-15T09:49:02Z</time>
      </trkpt>
      <trkpt lat="45.05855" lon="5.23587">
        <ele>388.03</ele>
        <time>2018-11-15T09:49:04Z</time>
      </trkpt>
      <trkpt lat="45.05853" lon="5.23588">
        <ele>387.07</ele>
        <time>2018-11-15T09:49:08Z</time>
      </trkpt>
      <trkpt lat="45.05846" lon="5.23593">
        <ele>390.91</ele>
        <time>2018-11-15T09:49:15Z</time>
      </trkpt>
      <trkpt lat="45.05846" lon="5.23593">
        <ele>385.15</ele>
        <time>2018-11-15T09:49:16Z</time>
      </trkpt>
      <trkpt lat="45.05845" lon="5.23594">
        <ele>388.99</ele>
        <time>2018-11-15T09:49:18Z</time>
      </trkpt>
      <trkpt lat="45.05839" lon="5.23599">
        <ele>389.95</ele>
        <time>2018-11-15T09:49:28Z</time>
      </trkpt>
      <trkpt lat="45.05838" lon="5.23601">
        <ele>389.95</ele>
        <time>2018-11-15T09:49:32Z</time>
      </trkpt>
      <trkpt lat="45.05832" lon="5.23604">
        <ele>391.39</ele>
        <time>2018-11-15T09:49:42Z</time>
      </trkpt>
      <trkpt lat="45.05826" lon="5.23607">
        <ele>394.76</ele>
        <time>2018-11-15T09:49:51Z</time>
      </trkpt>
      <trkpt lat="45.05825" lon="5.23607">
        <ele>390.91</ele>
        <time>2018-11-15T09:49:53Z</time>
      </trkpt>
      <trkpt lat="45.05823" lon="5.23609">
        <ele>395.72</ele>
        <time>2018-11-15T09:49:55Z</time>
      </trkpt>
      <trkpt lat="45.05823" lon="5.2361">
        <ele>390.91</ele>
        <time>2018-11-15T09:49:56Z</time>
      </trkpt>
      <trkpt lat="45.05822" lon="5.2361">
        <ele>395.72</ele>
        <time>2018-11-15T09:49:58Z</time>
      </trkpt>
      <trkpt lat="45.05821" lon="5.23611">
        <ele>390.91</ele>
        <time>2018-11-15T09:49:59Z</time>
      </trkpt>
      <trkpt lat="45.05821" lon="5.23611">
        <ele>394.76</ele>
        <time>2018-11-15T09:50:00Z</time>
      </trkpt>
      <trkpt lat="45.05819" lon="5.23612">
        <ele>390.91</ele>
        <time>2018-11-15T09:50:02Z</time>
      </trkpt>
      <trkpt lat="45.05818" lon="5.23613">
        <ele>395.72</ele>
        <time>2018-11-15T09:50:04Z</time>
      </trkpt>
      <trkpt lat="45.05816" lon="5.23614">
        <ele>390.43</ele>
        <time>2018-11-15T09:50:06Z</time>
      </trkpt>
      <trkpt lat="45.05815" lon="5.23615">
        <ele>396.2</ele>
        <time>2018-11-15T09:50:07Z</time>
      </trkpt>
      <trkpt lat="45.05814" lon="5.23619">
        <ele>391.87</ele>
        <time>2018-11-15T09:50:09Z</time>
      </trkpt>
      <trkpt lat="45.05813" lon="5.23618">
        <ele>396.68</ele>
        <time>2018-11-15T09:50:10Z</time>
      </trkpt>
      <trkpt lat="45.05811" lon="5.23618">
        <ele>391.87</ele>
        <time>2018-11-15T09:50:12Z</time>
      </trkpt>
      <trkpt lat="45.05809" lon="5.23621">
        <ele>396.68</ele>
        <time>2018-11-15T09:50:13Z</time>
      </trkpt>
      <trkpt lat="45.058" lon="5.2363">
        <ele>396.68</ele>
        <time>2018-11-15T09:50:22Z</time>
      </trkpt>
      <trkpt lat="45.05797" lon="5.23633">
        <ele>398.12</ele>
        <time>2018-11-15T09:50:24Z</time>
      </trkpt>
      <trkpt lat="45.05792" lon="5.23633">
        <ele>399.57</ele>
        <time>2018-11-15T09:50:31Z</time>
      </trkpt>
      <trkpt lat="45.05788" lon="5.23639">
        <ele>401.97</ele>
        <time>2018-11-15T09:50:40Z</time>
      </trkpt>
      <trkpt lat="45.05788" lon="5.23639">
        <ele>399.57</ele>
        <time>2018-11-15T09:50:42Z</time>
      </trkpt>
      <trkpt lat="45.05783" lon="5.2365">
        <ele>403.89</ele>
        <time>2018-11-15T09:50:52Z</time>
      </trkpt>
      <trkpt lat="45.05782" lon="5.2365">
        <ele>403.89</ele>
        <time>2018-11-15T09:50:53Z</time>
      </trkpt>
      <trkpt lat="45.05779" lon="5.23651">
        <ele>399.08</ele>
        <time>2018-11-15T09:50:55Z</time>
      </trkpt>
      <trkpt lat="45.05774" lon="5.23653">
        <ele>401.49</ele>
        <time>2018-11-15T09:50:59Z</time>
      </trkpt>
      <trkpt lat="45.05771" lon="5.23653">
        <ele>403.41</ele>
        <time>2018-11-15T09:51:01Z</time>
      </trkpt>
      <trkpt lat="45.05764" lon="5.23657">
        <ele>400.05</ele>
        <time>2018-11-15T09:51:10Z</time>
      </trkpt>
      <trkpt lat="45.05763" lon="5.23658">
        <ele>404.37</ele>
        <time>2018-11-15T09:51:11Z</time>
      </trkpt>
      <trkpt lat="45.05759" lon="5.23662">
        <ele>405.33</ele>
        <time>2018-11-15T09:51:16Z</time>
      </trkpt>
      <trkpt lat="45.05756" lon="5.23662">
        <ele>401.97</ele>
        <time>2018-11-15T09:51:24Z</time>
      </trkpt>
      <trkpt lat="45.05754" lon="5.23662">
        <ele>405.81</ele>
        <time>2018-11-15T09:51:25Z</time>
      </trkpt>
      <trkpt lat="45.05753" lon="5.23662">
        <ele>401.97</ele>
        <time>2018-11-15T09:51:27Z</time>
      </trkpt>
      <trkpt lat="45.05751" lon="5.23666">
        <ele>405.81</ele>
        <time>2018-11-15T09:51:28Z</time>
      </trkpt>
      <trkpt lat="45.05745" lon="5.23673">
        <ele>402.93</ele>
        <time>2018-11-15T09:51:34Z</time>
      </trkpt>
      <trkpt lat="45.05744" lon="5.23675">
        <ele>406.77</ele>
        <time>2018-11-15T09:51:35Z</time>
      </trkpt>
      <trkpt lat="45.05733" lon="5.2368">
        <ele>410.14</ele>
        <time>2018-11-15T09:51:48Z</time>
      </trkpt>
      <trkpt lat="45.05733" lon="5.2368">
        <ele>403.89</ele>
        <time>2018-11-15T09:51:49Z</time>
      </trkpt>
      <trkpt lat="45.05733" lon="5.23682">
        <ele>409.18</ele>
        <time>2018-11-15T09:51:50Z</time>
      </trkpt>
      <trkpt lat="45.05728" lon="5.23685">
        <ele>410.62</ele>
        <time>2018-11-15T09:51:55Z</time>
      </trkpt>
      <trkpt lat="45.05725" lon="5.23683">
        <ele>407.26</ele>
        <time>2018-11-15T09:51:58Z</time>
      </trkpt>
      <trkpt lat="45.05724" lon="5.23682">
        <ele>410.62</ele>
        <time>2018-11-15T09:51:59Z</time>
      </trkpt>
      <trkpt lat="45.05724" lon="5.23681">
        <ele>413.5</ele>
        <time>2018-11-15T09:52:00Z</time>
      </trkpt>
      <trkpt lat="45.05723" lon="5.23681">
        <ele>408.22</ele>
        <time>2018-11-15T09:52:01Z</time>
      </trkpt>
      <trkpt lat="45.05721" lon="5.23682">
        <ele>413.02</ele>
        <time>2018-11-15T09:52:05Z</time>
      </trkpt>
      <trkpt lat="45.0572" lon="5.23684">
        <ele>409.66</ele>
        <time>2018-11-15T09:52:07Z</time>
      </trkpt>
      <trkpt lat="45.05719" lon="5.23686">
        <ele>415.91</ele>
        <time>2018-11-15T09:52:09Z</time>
      </trkpt>
      <trkpt lat="45.05718" lon="5.23686">
        <ele>411.1</ele>
        <time>2018-11-15T09:52:10Z</time>
      </trkpt>
      <trkpt lat="45.05714" lon="5.23687">
        <ele>415.43</ele>
        <time>2018-11-15T09:52:14Z</time>
      </trkpt>
      <trkpt lat="45.05713" lon="5.23687">
        <ele>410.62</ele>
        <time>2018-11-15T09:52:15Z</time>
      </trkpt>
      <trkpt lat="45.05712" lon="5.23687">
        <ele>416.39</ele>
        <time>2018-11-15T09:52:17Z</time>
      </trkpt>
      <trkpt lat="45.05711" lon="5.23687">
        <ele>414.95</ele>
        <time>2018-11-15T09:52:18Z</time>
      </trkpt>
      <trkpt lat="45.05711" lon="5.23688">
        <ele>411.58</ele>
        <time>2018-11-15T09:52:19Z</time>
      </trkpt>
      <trkpt lat="45.0571" lon="5.23688">
        <ele>415.43</ele>
        <time>2018-11-15T09:52:20Z</time>
      </trkpt>
      <trkpt lat="45.0571" lon="5.23689">
        <ele>411.58</ele>
        <time>2018-11-15T09:52:24Z</time>
      </trkpt>
      <trkpt lat="45.05709" lon="5.23689">
        <ele>415.43</ele>
        <time>2018-11-15T09:52:25Z</time>
      </trkpt>
      <trkpt lat="45.05704" lon="5.23694">
        <ele>418.31</ele>
        <time>2018-11-15T09:52:32Z</time>
      </trkpt>
      <trkpt lat="45.05704" lon="5.23694">
        <ele>413.98</ele>
        <time>2018-11-15T09:52:33Z</time>
      </trkpt>
      <trkpt lat="45.05704" lon="5.23694">
        <ele>417.83</ele>
        <time>2018-11-15T09:52:34Z</time>
      </trkpt>
      <trkpt lat="45.05704" lon="5.23694">
        <ele>413.02</ele>
        <time>2018-11-15T09:52:35Z</time>
      </trkpt>
      <trkpt lat="45.05704" lon="5.23694">
        <ele>417.35</ele>
        <time>2018-11-15T09:52:36Z</time>
      </trkpt>
      <trkpt lat="45.057" lon="5.23696">
        <ele>413.98</ele>
        <time>2018-11-15T09:52:40Z</time>
      </trkpt>
      <trkpt lat="45.057" lon="5.23695">
        <ele>417.83</ele>
        <time>2018-11-15T09:52:41Z</time>
      </trkpt>
      <trkpt lat="45.05695" lon="5.237">
        <ele>423.12</ele>
        <time>2018-11-15T09:52:49Z</time>
      </trkpt>
      <trkpt lat="45.05694" lon="5.237">
        <ele>418.31</ele>
        <time>2018-11-15T09:52:50Z</time>
      </trkpt>
      <trkpt lat="45.05692" lon="5.23699">
        <ele>414.95</ele>
        <time>2018-11-15T09:52:52Z</time>
      </trkpt>
      <trkpt lat="45.05691" lon="5.23699">
        <ele>420.23</ele>
        <time>2018-11-15T09:52:53Z</time>
      </trkpt>
      <trkpt lat="45.0569" lon="5.23702">
        <ele>423.12</ele>
        <time>2018-11-15T09:52:58Z</time>
      </trkpt>
      <trkpt lat="45.0569" lon="5.23702">
        <ele>417.83</ele>
        <time>2018-11-15T09:52:59Z</time>
      </trkpt>
      <trkpt lat="45.05689" lon="5.23703">
        <ele>421.19</ele>
        <time>2018-11-15T09:53:01Z</time>
      </trkpt>
      <trkpt lat="45.05686" lon="5.23703">
        <ele>418.31</ele>
        <time>2018-11-15T09:53:06Z</time>
      </trkpt>
      <trkpt lat="45.05686" lon="5.23703">
        <ele>422.16</ele>
        <time>2018-11-15T09:53:07Z</time>
      </trkpt>
      <trkpt lat="45.05684" lon="5.23704">
        <ele>425.52</ele>
        <time>2018-11-15T09:53:10Z</time>
      </trkpt>
      <trkpt lat="45.05683" lon="5.23705">
        <ele>420.71</ele>
        <time>2018-11-15T09:53:11Z</time>
      </trkpt>
      <trkpt lat="45.05683" lon="5.23706">
        <ele>424.08</ele>
        <time>2018-11-15T09:53:12Z</time>
      </trkpt>
      <trkpt lat="45.05682" lon="5.23706">
        <ele>420.23</ele>
        <time>2018-11-15T09:53:13Z</time>
      </trkpt>
      <trkpt lat="45.05682" lon="5.23707">
        <ele>425.52</ele>
        <time>2018-11-15T09:53:14Z</time>
      </trkpt>
      <trkpt lat="45.05682" lon="5.23707">
        <ele>420.71</ele>
        <time>2018-11-15T09:53:15Z</time>
      </trkpt>
      <trkpt lat="45.05682" lon="5.23708">
        <ele>424.08</ele>
        <time>2018-11-15T09:53:16Z</time>
      </trkpt>
      <trkpt lat="45.05678" lon="5.23714">
        <ele>427.44</ele>
        <time>2018-11-15T09:53:27Z</time>
      </trkpt>
      <trkpt lat="45.05678" lon="5.23715">
        <ele>424.56</ele>
        <time>2018-11-15T09:53:28Z</time>
      </trkpt>
      <trkpt lat="45.05678" lon="5.23715">
        <ele>427.44</ele>
        <time>2018-11-15T09:53:29Z</time>
      </trkpt>
      <trkpt lat="45.05677" lon="5.23716">
        <ele>423.6</ele>
        <time>2018-11-15T09:53:32Z</time>
      </trkpt>
      <trkpt lat="45.05674" lon="5.23717">
        <ele>426.96</ele>
        <time>2018-11-15T09:53:39Z</time>
      </trkpt>
      <trkpt lat="45.05672" lon="5.23721">
        <ele>424.56</ele>
        <time>2018-11-15T09:53:51Z</time>
      </trkpt>
      <trkpt lat="45.05671" lon="5.23721">
        <ele>428.4</ele>
        <time>2018-11-15T09:53:52Z</time>
      </trkpt>
      <trkpt lat="45.05671" lon="5.23722">
        <ele>425.04</ele>
        <time>2018-11-15T09:53:53Z</time>
      </trkpt>
      <trkpt lat="45.0567" lon="5.23723">
        <ele>428.89</ele>
        <time>2018-11-15T09:53:54Z</time>
      </trkpt>
      <trkpt lat="45.05668" lon="5.23732">
        <ele>426</ele>
        <time>2018-11-15T09:54:06Z</time>
      </trkpt>
      <trkpt lat="45.05667" lon="5.23733">
        <ele>433.69</ele>
        <time>2018-11-15T09:54:08Z</time>
      </trkpt>
      <trkpt lat="45.05667" lon="5.23734">
        <ele>428.89</ele>
        <time>2018-11-15T09:54:09Z</time>
      </trkpt>
      <trkpt lat="45.05663" lon="5.23732">
        <ele>431.29</ele>
        <time>2018-11-15T09:54:22Z</time>
      </trkpt>
      <trkpt lat="45.05663" lon="5.23735">
        <ele>430.81</ele>
        <time>2018-11-15T09:54:45Z</time>
      </trkpt>
      <trkpt lat="45.05663" lon="5.23735">
        <ele>432.73</ele>
        <time>2018-11-15T09:55:05Z</time>
      </trkpt>
      <trkpt lat="45.05667" lon="5.23739">
        <ele>432.25</ele>
        <time>2018-11-15T09:55:26Z</time>
      </trkpt>
      <trkpt lat="45.05665" lon="5.23738">
        <ele>432.73</ele>
        <time>2018-11-15T09:55:49Z</time>
      </trkpt>
      <trkpt lat="45.05664" lon="5.23737">
        <ele>433.21</ele>
        <time>2018-11-15T09:56:12Z</time>
      </trkpt>
      <trkpt lat="45.05664" lon="5.23737">
        <ele>433.21</ele>
        <time>2018-11-15T09:56:35Z</time>
      </trkpt>
      <trkpt lat="45.05667" lon="5.23747">
        <ele>433.21</ele>
        <time>2018-11-15T09:56:48Z</time>
      </trkpt>
      <trkpt lat="45.05667" lon="5.23751">
        <ele>433.21</ele>
        <time>2018-11-15T09:57:09Z</time>
      </trkpt>
      <trkpt lat="45.05666" lon="5.2375">
        <ele>433.69</ele>
        <time>2018-11-15T09:57:31Z</time>
      </trkpt>
      <trkpt lat="45.05667" lon="5.23749">
        <ele>433.69</ele>
        <time>2018-11-15T09:57:53Z</time>
      </trkpt>
      <trkpt lat="45.05667" lon="5.23748">
        <ele>434.17</ele>
        <time>2018-11-15T09:58:16Z</time>
      </trkpt>
      <trkpt lat="45.05668" lon="5.2375">
        <ele>434.17</ele>
        <time>2018-11-15T09:58:38Z</time>
      </trkpt>
      <trkpt lat="45.05667" lon="5.23748">
        <ele>434.65</ele>
        <time>2018-11-15T09:59:03Z</time>
      </trkpt>
      <trkpt lat="45.05668" lon="5.23748">
        <ele>435.13</ele>
        <time>2018-11-15T09:59:25Z</time>
      </trkpt>
      <trkpt lat="45.05668" lon="5.23746">
        <ele>435.13</ele>
        <time>2018-11-15T09:59:51Z</time>
      </trkpt>
      <trkpt lat="45.05668" lon="5.23746">
        <ele>435.61</ele>
        <time>2018-11-15T10:00:20Z</time>
      </trkpt>
      <trkpt lat="45.0567" lon="5.23747">
        <ele>436.1</ele>
        <time>2018-11-15T10:00:49Z</time>
      </trkpt>
      <trkpt lat="45.05669" lon="5.23747">
        <ele>436.1</ele>
        <time>2018-11-15T10:01:15Z</time>
      </trkpt>
      <trkpt lat="45.05667" lon="5.23742">
        <ele>434.17</ele>
        <time>2018-11-15T10:01:37Z</time>
      </trkpt>
      <trkpt lat="45.05666" lon="5.2374">
        <ele>438.02</ele>
        <time>2018-11-15T10:01:38Z</time>
      </trkpt>
      <trkpt lat="45.05661" lon="5.23732">
        <ele>434.65</ele>
        <time>2018-11-15T10:01:47Z</time>
      </trkpt>
      <trkpt lat="45.05661" lon="5.23732">
        <ele>438.98</ele>
        <time>2018-11-15T10:01:48Z</time>
      </trkpt>
      <trkpt lat="45.05659" lon="5.23728">
        <ele>442.34</ele>
        <time>2018-11-15T10:01:54Z</time>
      </trkpt>
      <trkpt lat="45.05659" lon="5.23728">
        <ele>438.98</ele>
        <time>2018-11-15T10:01:55Z</time>
      </trkpt>
      <trkpt lat="45.05658" lon="5.23727">
        <ele>442.34</ele>
        <time>2018-11-15T10:01:56Z</time>
      </trkpt>
      <trkpt lat="45.05658" lon="5.23727">
        <ele>438.98</ele>
        <time>2018-11-15T10:01:57Z</time>
      </trkpt>
      <trkpt lat="45.05658" lon="5.23727">
        <ele>442.34</ele>
        <time>2018-11-15T10:02:00Z</time>
      </trkpt>
      <trkpt lat="45.05658" lon="5.23726">
        <ele>436.58</ele>
        <time>2018-11-15T10:02:03Z</time>
      </trkpt>
      <trkpt lat="45.05658" lon="5.23726">
        <ele>441.86</ele>
        <time>2018-11-15T10:02:04Z</time>
      </trkpt>
      <trkpt lat="45.05658" lon="5.23726">
        <ele>448.59</ele>
        <time>2018-11-15T10:02:06Z</time>
      </trkpt>
      <trkpt lat="45.05657" lon="5.23726">
        <ele>442.34</ele>
        <time>2018-11-15T10:02:07Z</time>
      </trkpt>
      <trkpt lat="45.05652" lon="5.2372">
        <ele>442.82</ele>
        <time>2018-11-15T10:02:19Z</time>
      </trkpt>
      <trkpt lat="45.05648" lon="5.23718">
        <ele>448.59</ele>
        <time>2018-11-15T10:02:28Z</time>
      </trkpt>
      <trkpt lat="45.05648" lon="5.23718">
        <ele>445.23</ele>
        <time>2018-11-15T10:02:29Z</time>
      </trkpt>
      <trkpt lat="45.05645" lon="5.23716">
        <ele>450.03</ele>
        <time>2018-11-15T10:02:40Z</time>
      </trkpt>
      <trkpt lat="45.05644" lon="5.23715">
        <ele>446.67</ele>
        <time>2018-11-15T10:02:44Z</time>
      </trkpt>
      <trkpt lat="45.05643" lon="5.23716">
        <ele>450.52</ele>
        <time>2018-11-15T10:02:51Z</time>
      </trkpt>
      <trkpt lat="45.05642" lon="5.23716">
        <ele>444.75</ele>
        <time>2018-11-15T10:02:54Z</time>
      </trkpt>
      <trkpt lat="45.05642" lon="5.23716">
        <ele>449.55</ele>
        <time>2018-11-15T10:02:55Z</time>
      </trkpt>
      <trkpt lat="45.05641" lon="5.23715">
        <ele>446.19</ele>
        <time>2018-11-15T10:02:59Z</time>
      </trkpt>
      <trkpt lat="45.05641" lon="5.23715">
        <ele>450.52</ele>
        <time>2018-11-15T10:03:00Z</time>
      </trkpt>
      <trkpt lat="45.0564" lon="5.23715">
        <ele>444.27</ele>
        <time>2018-11-15T10:03:01Z</time>
      </trkpt>
      <trkpt lat="45.0564" lon="5.23715">
        <ele>449.07</ele>
        <time>2018-11-15T10:03:02Z</time>
      </trkpt>
      <trkpt lat="45.05638" lon="5.23715">
        <ele>450.52</ele>
        <time>2018-11-15T10:03:04Z</time>
      </trkpt>
      <trkpt lat="45.05636" lon="5.23714">
        <ele>447.15</ele>
        <time>2018-11-15T10:03:12Z</time>
      </trkpt>
      <trkpt lat="45.05636" lon="5.23714">
        <ele>452.92</ele>
        <time>2018-11-15T10:03:13Z</time>
      </trkpt>
      <trkpt lat="45.05636" lon="5.23713">
        <ele>452.44</ele>
        <time>2018-11-15T10:03:14Z</time>
      </trkpt>
      <trkpt lat="45.05635" lon="5.2371">
        <ele>451</ele>
        <time>2018-11-15T10:03:25Z</time>
      </trkpt>
      <trkpt lat="45.05634" lon="5.23709">
        <ele>454.36</ele>
        <time>2018-11-15T10:03:27Z</time>
      </trkpt>
      <trkpt lat="45.05632" lon="5.23708">
        <ele>457.24</ele>
        <time>2018-11-15T10:03:43Z</time>
      </trkpt>
      <trkpt lat="45.05632" lon="5.23707">
        <ele>453.88</ele>
        <time>2018-11-15T10:03:45Z</time>
      </trkpt>
      <trkpt lat="45.05632" lon="5.23707">
        <ele>457.24</ele>
        <time>2018-11-15T10:03:46Z</time>
      </trkpt>
      <trkpt lat="45.05631" lon="5.23707">
        <ele>453.4</ele>
        <time>2018-11-15T10:03:47Z</time>
      </trkpt>
      <trkpt lat="45.05631" lon="5.23707">
        <ele>459.17</ele>
        <time>2018-11-15T10:03:48Z</time>
      </trkpt>
      <trkpt lat="45.05631" lon="5.23706">
        <ele>454.84</ele>
        <time>2018-11-15T10:03:49Z</time>
      </trkpt>
      <trkpt lat="45.05629" lon="5.23705">
        <ele>458.21</ele>
        <time>2018-11-15T10:03:51Z</time>
      </trkpt>
      <trkpt lat="45.05626" lon="5.23701">
        <ele>458.21</ele>
        <time>2018-11-15T10:04:04Z</time>
      </trkpt>
      <trkpt lat="45.05626" lon="5.237">
        <ele>463.97</ele>
        <time>2018-11-15T10:04:05Z</time>
      </trkpt>
      <trkpt lat="45.05626" lon="5.237">
        <ele>459.65</ele>
        <time>2018-11-15T10:04:06Z</time>
      </trkpt>
      <trkpt lat="45.05623" lon="5.23698">
        <ele>456.28</ele>
        <time>2018-11-15T10:04:11Z</time>
      </trkpt>
      <trkpt lat="45.05623" lon="5.23698">
        <ele>460.13</ele>
        <time>2018-11-15T10:04:12Z</time>
      </trkpt>
      <trkpt lat="45.05621" lon="5.23698">
        <ele>455.8</ele>
        <time>2018-11-15T10:04:15Z</time>
      </trkpt>
      <trkpt lat="45.05621" lon="5.23698">
        <ele>461.09</ele>
        <time>2018-11-15T10:04:16Z</time>
      </trkpt>
      <trkpt lat="45.05619" lon="5.23696">
        <ele>463.97</ele>
        <time>2018-11-15T10:04:21Z</time>
      </trkpt>
      <trkpt lat="45.05619" lon="5.23696">
        <ele>460.61</ele>
        <time>2018-11-15T10:04:24Z</time>
      </trkpt>
      <trkpt lat="45.05618" lon="5.23693">
        <ele>463.49</ele>
        <time>2018-11-15T10:04:29Z</time>
      </trkpt>
      <trkpt lat="45.05616" lon="5.2369">
        <ele>466.38</ele>
        <time>2018-11-15T10:04:37Z</time>
      </trkpt>
      <trkpt lat="45.05616" lon="5.2369">
        <ele>461.57</ele>
        <time>2018-11-15T10:04:38Z</time>
      </trkpt>
      <trkpt lat="45.05615" lon="5.2369">
        <ele>464.93</ele>
        <time>2018-11-15T10:04:39Z</time>
      </trkpt>
      <trkpt lat="45.05614" lon="5.23688">
        <ele>468.3</ele>
        <time>2018-11-15T10:04:42Z</time>
      </trkpt>
      <trkpt lat="45.05613" lon="5.23688">
        <ele>463.49</ele>
        <time>2018-11-15T10:04:43Z</time>
      </trkpt>
      <trkpt lat="45.05613" lon="5.23687">
        <ele>466.86</ele>
        <time>2018-11-15T10:04:44Z</time>
      </trkpt>
      <trkpt lat="45.05609" lon="5.23687">
        <ele>465.9</ele>
        <time>2018-11-15T10:04:53Z</time>
      </trkpt>
      <trkpt lat="45.05606" lon="5.23684">
        <ele>469.74</ele>
        <time>2018-11-15T10:05:03Z</time>
      </trkpt>
      <trkpt lat="45.05604" lon="5.23681">
        <ele>468.78</ele>
        <time>2018-11-15T10:05:15Z</time>
      </trkpt>
      <trkpt lat="45.05604" lon="5.23681">
        <ele>465.42</ele>
        <time>2018-11-15T10:05:16Z</time>
      </trkpt>
      <trkpt lat="45.05604" lon="5.23681">
        <ele>474.55</ele>
        <time>2018-11-15T10:05:17Z</time>
      </trkpt>
      <trkpt lat="45.05604" lon="5.23681">
        <ele>469.74</ele>
        <time>2018-11-15T10:05:18Z</time>
      </trkpt>
      <trkpt lat="45.05603" lon="5.23681">
        <ele>469.26</ele>
        <time>2018-11-15T10:05:20Z</time>
      </trkpt>
      <trkpt lat="45.05603" lon="5.23681">
        <ele>475.03</ele>
        <time>2018-11-15T10:05:21Z</time>
      </trkpt>
      <trkpt lat="45.05602" lon="5.2368">
        <ele>469.26</ele>
        <time>2018-11-15T10:05:22Z</time>
      </trkpt>
      <trkpt lat="45.05602" lon="5.23679">
        <ele>476.47</ele>
        <time>2018-11-15T10:05:25Z</time>
      </trkpt>
      <trkpt lat="45.05601" lon="5.23679">
        <ele>470.7</ele>
        <time>2018-11-15T10:05:26Z</time>
      </trkpt>
      <trkpt lat="45.05601" lon="5.23679">
        <ele>473.59</ele>
        <time>2018-11-15T10:05:29Z</time>
      </trkpt>
      <trkpt lat="45.05601" lon="5.23678">
        <ele>469.74</ele>
        <time>2018-11-15T10:05:30Z</time>
      </trkpt>
      <trkpt lat="45.05601" lon="5.23678">
        <ele>473.59</ele>
        <time>2018-11-15T10:05:31Z</time>
      </trkpt>
      <trkpt lat="45.056" lon="5.23678">
        <ele>467.82</ele>
        <time>2018-11-15T10:05:32Z</time>
      </trkpt>
      <trkpt lat="45.05599" lon="5.23677">
        <ele>474.07</ele>
        <time>2018-11-15T10:05:33Z</time>
      </trkpt>
      <trkpt lat="45.05599" lon="5.23677">
        <ele>469.74</ele>
        <time>2018-11-15T10:05:34Z</time>
      </trkpt>
      <trkpt lat="45.05598" lon="5.23676">
        <ele>473.59</ele>
        <time>2018-11-15T10:05:35Z</time>
      </trkpt>
      <trkpt lat="45.05597" lon="5.23676">
        <ele>466.38</ele>
        <time>2018-11-15T10:05:36Z</time>
      </trkpt>
      <trkpt lat="45.05596" lon="5.23677">
        <ele>474.07</ele>
        <time>2018-11-15T10:05:37Z</time>
      </trkpt>
      <trkpt lat="45.05596" lon="5.23677">
        <ele>471.18</ele>
        <time>2018-11-15T10:05:38Z</time>
      </trkpt>
      <trkpt lat="45.05594" lon="5.23678">
        <ele>475.03</ele>
        <time>2018-11-15T10:05:42Z</time>
      </trkpt>
      <trkpt lat="45.05592" lon="5.23677">
        <ele>472.14</ele>
        <time>2018-11-15T10:05:45Z</time>
      </trkpt>
      <trkpt lat="45.05592" lon="5.23677">
        <ele>475.51</ele>
        <time>2018-11-15T10:05:46Z</time>
      </trkpt>
      <trkpt lat="45.05589" lon="5.23675">
        <ele>471.18</ele>
        <time>2018-11-15T10:05:54Z</time>
      </trkpt>
      <trkpt lat="45.05589" lon="5.23675">
        <ele>475.51</ele>
        <time>2018-11-15T10:05:55Z</time>
      </trkpt>
      <trkpt lat="45.05589" lon="5.23675">
        <ele>472.14</ele>
        <time>2018-11-15T10:05:56Z</time>
      </trkpt>
      <trkpt lat="45.05589" lon="5.23675">
        <ele>477.91</ele>
        <time>2018-11-15T10:05:57Z</time>
      </trkpt>
      <trkpt lat="45.05589" lon="5.23675">
        <ele>474.55</ele>
        <time>2018-11-15T10:05:58Z</time>
      </trkpt>
      <trkpt lat="45.05588" lon="5.23672">
        <ele>479.35</ele>
        <time>2018-11-15T10:06:04Z</time>
      </trkpt>
      <trkpt lat="45.05587" lon="5.23672">
        <ele>475.99</ele>
        <time>2018-11-15T10:06:09Z</time>
      </trkpt>
      <trkpt lat="45.05586" lon="5.23671">
        <ele>480.32</ele>
        <time>2018-11-15T10:06:12Z</time>
      </trkpt>
      <trkpt lat="45.05586" lon="5.23671">
        <ele>476.95</ele>
        <time>2018-11-15T10:06:14Z</time>
      </trkpt>
      <trkpt lat="45.05584" lon="5.23671">
        <ele>479.84</ele>
        <time>2018-11-15T10:06:17Z</time>
      </trkpt>
      <trkpt lat="45.05583" lon="5.2367">
        <ele>476.47</ele>
        <time>2018-11-15T10:06:18Z</time>
      </trkpt>
      <trkpt lat="45.05582" lon="5.2367">
        <ele>479.84</ele>
        <time>2018-11-15T10:06:19Z</time>
      </trkpt>
      <trkpt lat="45.05581" lon="5.23669">
        <ele>475.99</ele>
        <time>2018-11-15T10:06:20Z</time>
      </trkpt>
      <trkpt lat="45.05581" lon="5.23669">
        <ele>479.35</ele>
        <time>2018-11-15T10:06:21Z</time>
      </trkpt>
      <trkpt lat="45.05575" lon="5.23668">
        <ele>479.84</ele>
        <time>2018-11-15T10:06:30Z</time>
      </trkpt>
      <trkpt lat="45.05572" lon="5.23669">
        <ele>482.72</ele>
        <time>2018-11-15T10:06:38Z</time>
      </trkpt>
      <trkpt lat="45.05567" lon="5.2367">
        <ele>478.87</ele>
        <time>2018-11-15T10:06:47Z</time>
      </trkpt>
      <trkpt lat="45.05566" lon="5.23669">
        <ele>482.72</ele>
        <time>2018-11-15T10:06:48Z</time>
      </trkpt>
      <trkpt lat="45.05563" lon="5.23669">
        <ele>481.28</ele>
        <time>2018-11-15T10:06:59Z</time>
      </trkpt>
      <trkpt lat="45.0556" lon="5.23669">
        <ele>484.64</ele>
        <time>2018-11-15T10:07:04Z</time>
      </trkpt>
      <trkpt lat="45.05555" lon="5.23667">
        <ele>488.01</ele>
        <time>2018-11-15T10:07:15Z</time>
      </trkpt>
      <trkpt lat="45.05554" lon="5.23667">
        <ele>483.68</ele>
        <time>2018-11-15T10:07:18Z</time>
      </trkpt>
      <trkpt lat="45.05553" lon="5.23667">
        <ele>488.49</ele>
        <time>2018-11-15T10:07:19Z</time>
      </trkpt>
      <trkpt lat="45.05552" lon="5.23667">
        <ele>484.64</ele>
        <time>2018-11-15T10:07:20Z</time>
      </trkpt>
      <trkpt lat="45.05551" lon="5.23667">
        <ele>489.93</ele>
        <time>2018-11-15T10:07:23Z</time>
      </trkpt>
      <trkpt lat="45.0555" lon="5.23667">
        <ele>486.56</ele>
        <time>2018-11-15T10:07:24Z</time>
      </trkpt>
      <trkpt lat="45.05546" lon="5.23666">
        <ele>485.6</ele>
        <time>2018-11-15T10:07:33Z</time>
      </trkpt>
      <trkpt lat="45.05546" lon="5.23666">
        <ele>489.45</ele>
        <time>2018-11-15T10:07:34Z</time>
      </trkpt>
      <trkpt lat="45.05545" lon="5.23665">
        <ele>486.08</ele>
        <time>2018-11-15T10:07:37Z</time>
      </trkpt>
      <trkpt lat="45.05539" lon="5.23663">
        <ele>491.85</ele>
        <time>2018-11-15T10:07:45Z</time>
      </trkpt>
      <trkpt lat="45.05537" lon="5.23663">
        <ele>488.49</ele>
        <time>2018-11-15T10:07:48Z</time>
      </trkpt>
      <trkpt lat="45.05537" lon="5.23662">
        <ele>491.37</ele>
        <time>2018-11-15T10:07:49Z</time>
      </trkpt>
      <trkpt lat="45.05532" lon="5.2366">
        <ele>485.6</ele>
        <time>2018-11-15T10:08:00Z</time>
      </trkpt>
      <trkpt lat="45.05531" lon="5.2366">
        <ele>492.33</ele>
        <time>2018-11-15T10:08:01Z</time>
      </trkpt>
      <trkpt lat="45.05531" lon="5.23659">
        <ele>487.53</ele>
        <time>2018-11-15T10:08:07Z</time>
      </trkpt>
      <trkpt lat="45.0553" lon="5.23659">
        <ele>493.29</ele>
        <time>2018-11-15T10:08:08Z</time>
      </trkpt>
      <trkpt lat="45.0553" lon="5.23659">
        <ele>489.93</ele>
        <time>2018-11-15T10:08:09Z</time>
      </trkpt>
      <trkpt lat="45.05529" lon="5.23657">
        <ele>493.29</ele>
        <time>2018-11-15T10:08:12Z</time>
      </trkpt>
      <trkpt lat="45.05529" lon="5.23657">
        <ele>489.45</ele>
        <time>2018-11-15T10:08:13Z</time>
      </trkpt>
      <trkpt lat="45.05529" lon="5.23657">
        <ele>493.29</ele>
        <time>2018-11-15T10:08:14Z</time>
      </trkpt>
      <trkpt lat="45.05528" lon="5.23656">
        <ele>488.49</ele>
        <time>2018-11-15T10:08:15Z</time>
      </trkpt>
      <trkpt lat="45.05528" lon="5.23656">
        <ele>492.81</ele>
        <time>2018-11-15T10:08:16Z</time>
      </trkpt>
      <trkpt lat="45.05527" lon="5.23656">
        <ele>488.97</ele>
        <time>2018-11-15T10:08:21Z</time>
      </trkpt>
      <trkpt lat="45.05527" lon="5.23655">
        <ele>498.1</ele>
        <time>2018-11-15T10:08:22Z</time>
      </trkpt>
      <trkpt lat="45.05527" lon="5.23655">
        <ele>493.77</ele>
        <time>2018-11-15T10:08:23Z</time>
      </trkpt>
      <trkpt lat="45.05526" lon="5.23655">
        <ele>488.97</ele>
        <time>2018-11-15T10:08:24Z</time>
      </trkpt>
      <trkpt lat="45.05525" lon="5.23654">
        <ele>494.74</ele>
        <time>2018-11-15T10:08:25Z</time>
      </trkpt>
      <trkpt lat="45.05525" lon="5.23654">
        <ele>488.97</ele>
        <time>2018-11-15T10:08:32Z</time>
      </trkpt>
      <trkpt lat="45.05524" lon="5.23654">
        <ele>496.66</ele>
        <time>2018-11-15T10:08:33Z</time>
      </trkpt>
      <trkpt lat="45.05524" lon="5.23655">
        <ele>493.77</ele>
        <time>2018-11-15T10:08:35Z</time>
      </trkpt>
      <trkpt lat="45.05523" lon="5.23654">
        <ele>490.41</ele>
        <time>2018-11-15T10:08:37Z</time>
      </trkpt>
      <trkpt lat="45.05522" lon="5.23654">
        <ele>496.66</ele>
        <time>2018-11-15T10:08:38Z</time>
      </trkpt>
      <trkpt lat="45.05521" lon="5.23652">
        <ele>495.22</ele>
        <time>2018-11-15T10:08:49Z</time>
      </trkpt>
      <trkpt lat="45.05521" lon="5.23652">
        <ele>499.54</ele>
        <time>2018-11-15T10:08:50Z</time>
      </trkpt>
      <trkpt lat="45.0552" lon="5.23652">
        <ele>496.18</ele>
        <time>2018-11-15T10:08:52Z</time>
      </trkpt>
      <trkpt lat="45.05519" lon="5.23652">
        <ele>500.02</ele>
        <time>2018-11-15T10:08:53Z</time>
      </trkpt>
      <trkpt lat="45.05519" lon="5.23652">
        <ele>496.66</ele>
        <time>2018-11-15T10:08:54Z</time>
      </trkpt>
      <trkpt lat="45.05519" lon="5.23652">
        <ele>500.98</ele>
        <time>2018-11-15T10:08:55Z</time>
      </trkpt>
      <trkpt lat="45.05517" lon="5.23652">
        <ele>494.26</ele>
        <time>2018-11-15T10:09:02Z</time>
      </trkpt>
      <trkpt lat="45.05516" lon="5.23653">
        <ele>500.02</ele>
        <time>2018-11-15T10:09:03Z</time>
      </trkpt>
      <trkpt lat="45.05516" lon="5.23653">
        <ele>496.18</ele>
        <time>2018-11-15T10:09:04Z</time>
      </trkpt>
      <trkpt lat="45.05516" lon="5.23653">
        <ele>500.02</ele>
        <time>2018-11-15T10:09:05Z</time>
      </trkpt>
      <trkpt lat="45.05511" lon="5.23655">
        <ele>496.66</ele>
        <time>2018-11-15T10:09:16Z</time>
      </trkpt>
      <trkpt lat="45.0551" lon="5.23655">
        <ele>501.46</ele>
        <time>2018-11-15T10:09:17Z</time>
      </trkpt>
      <trkpt lat="45.05507" lon="5.23657">
        <ele>504.83</ele>
        <time>2018-11-15T10:09:25Z</time>
      </trkpt>
      <trkpt lat="45.05507" lon="5.23657">
        <ele>500.5</ele>
        <time>2018-11-15T10:09:26Z</time>
      </trkpt>
      <trkpt lat="45.05502" lon="5.23658">
        <ele>500.98</ele>
        <time>2018-11-15T10:09:37Z</time>
      </trkpt>
      <trkpt lat="45.05502" lon="5.23658">
        <ele>504.83</ele>
        <time>2018-11-15T10:09:38Z</time>
      </trkpt>
      <trkpt lat="45.05501" lon="5.23659">
        <ele>501.95</ele>
        <time>2018-11-15T10:09:42Z</time>
      </trkpt>
      <trkpt lat="45.05499" lon="5.23659">
        <ele>505.79</ele>
        <time>2018-11-15T10:09:48Z</time>
      </trkpt>
      <trkpt lat="45.05499" lon="5.23659">
        <ele>502.91</ele>
        <time>2018-11-15T10:09:50Z</time>
      </trkpt>
      <trkpt lat="45.05498" lon="5.23659">
        <ele>505.79</ele>
        <time>2018-11-15T10:09:52Z</time>
      </trkpt>
      <trkpt lat="45.05496" lon="5.23659">
        <ele>502.91</ele>
        <time>2018-11-15T10:09:55Z</time>
      </trkpt>
      <trkpt lat="45.05495" lon="5.23659">
        <ele>506.27</ele>
        <time>2018-11-15T10:10:02Z</time>
      </trkpt>
      <trkpt lat="45.05494" lon="5.23659">
        <ele>503.39</ele>
        <time>2018-11-15T10:10:04Z</time>
      </trkpt>
      <trkpt lat="45.05494" lon="5.23659">
        <ele>503.39</ele>
        <time>2018-11-15T10:10:05Z</time>
      </trkpt>
      <trkpt lat="45.05491" lon="5.23659">
        <ele>502.91</ele>
        <time>2018-11-15T10:10:11Z</time>
      </trkpt>
      <trkpt lat="45.05489" lon="5.23659">
        <ele>500.5</ele>
        <time>2018-11-15T10:10:14Z</time>
      </trkpt>
      <trkpt lat="45.05488" lon="5.23659">
        <ele>505.31</ele>
        <time>2018-11-15T10:10:15Z</time>
      </trkpt>
      <trkpt lat="45.05487" lon="5.23659">
        <ele>505.31</ele>
        <time>2018-11-15T10:10:16Z</time>
      </trkpt>
      <trkpt lat="45.05487" lon="5.23659">
        <ele>503.39</ele>
        <time>2018-11-15T10:10:18Z</time>
      </trkpt>
      <trkpt lat="45.05486" lon="5.23659">
        <ele>500.02</ele>
        <time>2018-11-15T10:10:21Z</time>
      </trkpt>
      <trkpt lat="45.05486" lon="5.23659">
        <ele>507.71</ele>
        <time>2018-11-15T10:10:22Z</time>
      </trkpt>
      <trkpt lat="45.05486" lon="5.2366">
        <ele>504.35</ele>
        <time>2018-11-15T10:10:23Z</time>
      </trkpt>
      <trkpt lat="45.05486" lon="5.2366">
        <ele>499.54</ele>
        <time>2018-11-15T10:10:25Z</time>
      </trkpt>
      <trkpt lat="45.05486" lon="5.2366">
        <ele>508.19</ele>
        <time>2018-11-15T10:10:26Z</time>
      </trkpt>
      <trkpt lat="45.05485" lon="5.23661">
        <ele>504.35</ele>
        <time>2018-11-15T10:10:27Z</time>
      </trkpt>
      <trkpt lat="45.05483" lon="5.23662">
        <ele>507.71</ele>
        <time>2018-11-15T10:10:30Z</time>
      </trkpt>
      <trkpt lat="45.05483" lon="5.23662">
        <ele>502.43</ele>
        <time>2018-11-15T10:10:31Z</time>
      </trkpt>
      <trkpt lat="45.05482" lon="5.23662">
        <ele>506.75</ele>
        <time>2018-11-15T10:10:32Z</time>
      </trkpt>
      <trkpt lat="45.05478" lon="5.23662">
        <ele>504.83</ele>
        <time>2018-11-15T10:10:44Z</time>
      </trkpt>
      <trkpt lat="45.05478" lon="5.23662">
        <ele>507.23</ele>
        <time>2018-11-15T10:10:46Z</time>
      </trkpt>
      <trkpt lat="45.05478" lon="5.23662">
        <ele>510.12</ele>
        <time>2018-11-15T10:10:48Z</time>
      </trkpt>
      <trkpt lat="45.05477" lon="5.23662">
        <ele>507.23</ele>
        <time>2018-11-15T10:10:49Z</time>
      </trkpt>
      <trkpt lat="45.05473" lon="5.23664">
        <ele>507.23</ele>
        <time>2018-11-15T10:10:57Z</time>
      </trkpt>
      <trkpt lat="45.05472" lon="5.23664">
        <ele>503.39</ele>
        <time>2018-11-15T10:10:58Z</time>
      </trkpt>
      <trkpt lat="45.05472" lon="5.23664">
        <ele>508.67</ele>
        <time>2018-11-15T10:10:59Z</time>
      </trkpt>
      <trkpt lat="45.05469" lon="5.23665">
        <ele>506.75</ele>
        <time>2018-11-15T10:11:07Z</time>
      </trkpt>
      <trkpt lat="45.05466" lon="5.23664">
        <ele>509.64</ele>
        <time>2018-11-15T10:11:13Z</time>
      </trkpt>
      <trkpt lat="45.05465" lon="5.23665">
        <ele>510.12</ele>
        <time>2018-11-15T10:11:14Z</time>
      </trkpt>
      <trkpt lat="45.05464" lon="5.23665">
        <ele>506.27</ele>
        <time>2018-11-15T10:11:17Z</time>
      </trkpt>
      <trkpt lat="45.05464" lon="5.23665">
        <ele>509.64</ele>
        <time>2018-11-15T10:11:18Z</time>
      </trkpt>
      <trkpt lat="45.05463" lon="5.23665">
        <ele>506.27</ele>
        <time>2018-11-15T10:11:19Z</time>
      </trkpt>
      <trkpt lat="45.05462" lon="5.23664">
        <ele>510.12</ele>
        <time>2018-11-15T10:11:20Z</time>
      </trkpt>
      <trkpt lat="45.05459" lon="5.23665">
        <ele>506.75</ele>
        <time>2018-11-15T10:11:27Z</time>
      </trkpt>
      <trkpt lat="45.05458" lon="5.23665">
        <ele>510.12</ele>
        <time>2018-11-15T10:11:28Z</time>
      </trkpt>
      <trkpt lat="45.05456" lon="5.23664">
        <ele>511.08</ele>
        <time>2018-11-15T10:11:31Z</time>
      </trkpt>
      <trkpt lat="45.05454" lon="5.23664">
        <ele>508.19</ele>
        <time>2018-11-15T10:11:36Z</time>
      </trkpt>
      <trkpt lat="45.05454" lon="5.23664">
        <ele>512.52</ele>
        <time>2018-11-15T10:11:37Z</time>
      </trkpt>
      <trkpt lat="45.05448" lon="5.23665">
        <ele>511.08</ele>
        <time>2018-11-15T10:11:46Z</time>
      </trkpt>
      <trkpt lat="45.05444" lon="5.23665">
        <ele>510.6</ele>
        <time>2018-11-15T10:11:56Z</time>
      </trkpt>
      <trkpt lat="45.05442" lon="5.23666">
        <ele>511.56</ele>
        <time>2018-11-15T10:12:05Z</time>
      </trkpt>
      <trkpt lat="45.05437" lon="5.23664">
        <ele>511.08</ele>
        <time>2018-11-15T10:12:14Z</time>
      </trkpt>
      <trkpt lat="45.05435" lon="5.23664">
        <ele>512.52</ele>
        <time>2018-11-15T10:12:24Z</time>
      </trkpt>
      <trkpt lat="45.05433" lon="5.23664">
        <ele>513</ele>
        <time>2018-11-15T10:12:34Z</time>
      </trkpt>
      <trkpt lat="45.0543" lon="5.23663">
        <ele>511.56</ele>
        <time>2018-11-15T10:12:44Z</time>
      </trkpt>
      <trkpt lat="45.05423" lon="5.23661">
        <ele>514.44</ele>
        <time>2018-11-15T10:12:53Z</time>
      </trkpt>
      <trkpt lat="45.05417" lon="5.23661">
        <ele>511.56</ele>
        <time>2018-11-15T10:13:03Z</time>
      </trkpt>
      <trkpt lat="45.05412" lon="5.23661">
        <ele>513.48</ele>
        <time>2018-11-15T10:13:12Z</time>
      </trkpt>
      <trkpt lat="45.05405" lon="5.23661">
        <ele>512.04</ele>
        <time>2018-11-15T10:13:21Z</time>
      </trkpt>
      <trkpt lat="45.05399" lon="5.23661">
        <ele>512.52</ele>
        <time>2018-11-15T10:13:29Z</time>
      </trkpt>
      <trkpt lat="45.05394" lon="5.23662">
        <ele>511.56</ele>
        <time>2018-11-15T10:13:38Z</time>
      </trkpt>
      <trkpt lat="45.05393" lon="5.23662">
        <ele>514.44</ele>
        <time>2018-11-15T10:13:40Z</time>
      </trkpt>
      <trkpt lat="45.05389" lon="5.23661">
        <ele>512.04</ele>
        <time>2018-11-15T10:13:51Z</time>
      </trkpt>
      <trkpt lat="45.05384" lon="5.2366">
        <ele>513.96</ele>
        <time>2018-11-15T10:14:00Z</time>
      </trkpt>
      <trkpt lat="45.05382" lon="5.2366">
        <ele>514.92</ele>
        <time>2018-11-15T10:14:04Z</time>
      </trkpt>
      <trkpt lat="45.05378" lon="5.23659">
        <ele>512.04</ele>
        <time>2018-11-15T10:14:15Z</time>
      </trkpt>
      <trkpt lat="45.05378" lon="5.23659">
        <ele>516.37</ele>
        <time>2018-11-15T10:14:17Z</time>
      </trkpt>
      <trkpt lat="45.05377" lon="5.23659">
        <ele>513</ele>
        <time>2018-11-15T10:14:19Z</time>
      </trkpt>
      <trkpt lat="45.05368" lon="5.23658">
        <ele>516.37</ele>
        <time>2018-11-15T10:14:27Z</time>
      </trkpt>
      <trkpt lat="45.05367" lon="5.23657">
        <ele>513</ele>
        <time>2018-11-15T10:14:28Z</time>
      </trkpt>
      <trkpt lat="45.0536" lon="5.23655">
        <ele>516.37</ele>
        <time>2018-11-15T10:14:35Z</time>
      </trkpt>
      <trkpt lat="45.05355" lon="5.23655">
        <ele>514.44</ele>
        <time>2018-11-15T10:14:45Z</time>
      </trkpt>
      <trkpt lat="45.05347" lon="5.2365">
        <ele>514.44</ele>
        <time>2018-11-15T10:14:56Z</time>
      </trkpt>
      <trkpt lat="45.05339" lon="5.23644">
        <ele>514.92</ele>
        <time>2018-11-15T10:15:07Z</time>
      </trkpt>
      <trkpt lat="45.05333" lon="5.23642">
        <ele>515.88</ele>
        <time>2018-11-15T10:15:16Z</time>
      </trkpt>
      <trkpt lat="45.05327" lon="5.23645">
        <ele>516.37</ele>
        <time>2018-11-15T10:15:28Z</time>
      </trkpt>
      <trkpt lat="45.05323" lon="5.23648">
        <ele>517.33</ele>
        <time>2018-11-15T10:15:39Z</time>
      </trkpt>
      <trkpt lat="45.05318" lon="5.2365">
        <ele>516.85</ele>
        <time>2018-11-15T10:15:49Z</time>
      </trkpt>
      <trkpt lat="45.05315" lon="5.23653">
        <ele>520.21</ele>
        <time>2018-11-15T10:15:58Z</time>
      </trkpt>
      <trkpt lat="45.05314" lon="5.23653">
        <ele>515.88</ele>
        <time>2018-11-15T10:15:59Z</time>
      </trkpt>
      <trkpt lat="45.05312" lon="5.23654">
        <ele>519.25</ele>
        <time>2018-11-15T10:16:01Z</time>
      </trkpt>
      <trkpt lat="45.0531" lon="5.23655">
        <ele>517.33</ele>
        <time>2018-11-15T10:16:11Z</time>
      </trkpt>
      <trkpt lat="45.05297" lon="5.23658">
        <ele>517.81</ele>
        <time>2018-11-15T10:16:22Z</time>
      </trkpt>
      <trkpt lat="45.05292" lon="5.23666">
        <ele>517.81</ele>
        <time>2018-11-15T10:16:32Z</time>
      </trkpt>
      <trkpt lat="45.05286" lon="5.2367">
        <ele>517.33</ele>
        <time>2018-11-15T10:16:45Z</time>
      </trkpt>
      <trkpt lat="45.05277" lon="5.2367">
        <ele>517.81</ele>
        <time>2018-11-15T10:16:56Z</time>
      </trkpt>
      <trkpt lat="45.05275" lon="5.23678">
        <ele>518.29</ele>
        <time>2018-11-15T10:17:05Z</time>
      </trkpt>
      <trkpt lat="45.05273" lon="5.23682">
        <ele>518.77</ele>
        <time>2018-11-15T10:17:09Z</time>
      </trkpt>
      <trkpt lat="45.05272" lon="5.23684">
        <ele>517.33</ele>
        <time>2018-11-15T10:17:12Z</time>
      </trkpt>
      <trkpt lat="45.05271" lon="5.23692">
        <ele>518.29</ele>
        <time>2018-11-15T10:17:23Z</time>
      </trkpt>
      <trkpt lat="45.0527" lon="5.23696">
        <ele>517.33</ele>
        <time>2018-11-15T10:17:35Z</time>
      </trkpt>
      <trkpt lat="45.0526" lon="5.23693">
        <ele>516.85</ele>
        <time>2018-11-15T10:17:46Z</time>
      </trkpt>
      <trkpt lat="45.05252" lon="5.23694">
        <ele>515.88</ele>
        <time>2018-11-15T10:17:56Z</time>
      </trkpt>
      <trkpt lat="45.05244" lon="5.23698">
        <ele>514.92</ele>
        <time>2018-11-15T10:18:06Z</time>
      </trkpt>
      <trkpt lat="45.05239" lon="5.23704">
        <ele>514.92</ele>
        <time>2018-11-15T10:18:17Z</time>
      </trkpt>
      <trkpt lat="45.05234" lon="5.23706">
        <ele>513.48</ele>
        <time>2018-11-15T10:18:26Z</time>
      </trkpt>
      <trkpt lat="45.05227" lon="5.23708">
        <ele>513.48</ele>
        <time>2018-11-15T10:18:35Z</time>
      </trkpt>
      <trkpt lat="45.05218" lon="5.23707">
        <ele>512.04</ele>
        <time>2018-11-15T10:18:47Z</time>
      </trkpt>
      <trkpt lat="45.05213" lon="5.23711">
        <ele>511.56</ele>
        <time>2018-11-15T10:18:59Z</time>
      </trkpt>
      <trkpt lat="45.05208" lon="5.23713">
        <ele>510.12</ele>
        <time>2018-11-15T10:19:10Z</time>
      </trkpt>
      <trkpt lat="45.052" lon="5.23715">
        <ele>511.08</ele>
        <time>2018-11-15T10:19:18Z</time>
      </trkpt>
      <trkpt lat="45.05198" lon="5.23716">
        <ele>510.12</ele>
        <time>2018-11-15T10:19:20Z</time>
      </trkpt>
      <trkpt lat="45.05193" lon="5.23717">
        <ele>510.12</ele>
        <time>2018-11-15T10:19:32Z</time>
      </trkpt>
      <trkpt lat="45.05184" lon="5.23717">
        <ele>511.56</ele>
        <time>2018-11-15T10:19:44Z</time>
      </trkpt>
      <trkpt lat="45.05177" lon="5.23719">
        <ele>515.4</ele>
        <time>2018-11-15T10:19:56Z</time>
      </trkpt>
      <trkpt lat="45.05176" lon="5.23719">
        <ele>508.67</ele>
        <time>2018-11-15T10:19:57Z</time>
      </trkpt>
      <trkpt lat="45.05175" lon="5.23719">
        <ele>513.48</ele>
        <time>2018-11-15T10:19:58Z</time>
      </trkpt>
      <trkpt lat="45.05173" lon="5.23712">
        <ele>514.92</ele>
        <time>2018-11-15T10:20:08Z</time>
      </trkpt>
      <trkpt lat="45.05173" lon="5.23712">
        <ele>511.56</ele>
        <time>2018-11-15T10:20:09Z</time>
      </trkpt>
      <trkpt lat="45.05173" lon="5.23712">
        <ele>514.44</ele>
        <time>2018-11-15T10:20:10Z</time>
      </trkpt>
      <trkpt lat="45.05172" lon="5.23711">
        <ele>510.6</ele>
        <time>2018-11-15T10:20:13Z</time>
      </trkpt>
      <trkpt lat="45.05171" lon="5.23711">
        <ele>514.44</ele>
        <time>2018-11-15T10:20:14Z</time>
      </trkpt>
      <trkpt lat="45.0517" lon="5.2371">
        <ele>509.64</ele>
        <time>2018-11-15T10:20:26Z</time>
      </trkpt>
      <trkpt lat="45.0517" lon="5.2371">
        <ele>520.21</ele>
        <time>2018-11-15T10:20:27Z</time>
      </trkpt>
      <trkpt lat="45.05169" lon="5.23709">
        <ele>512.04</ele>
        <time>2018-11-15T10:20:28Z</time>
      </trkpt>
      <trkpt lat="45.05168" lon="5.23709">
        <ele>515.88</ele>
        <time>2018-11-15T10:20:29Z</time>
      </trkpt>
      <trkpt lat="45.05167" lon="5.23708">
        <ele>517.81</ele>
        <time>2018-11-15T10:20:31Z</time>
      </trkpt>
      <trkpt lat="45.05166" lon="5.23708">
        <ele>514.44</ele>
        <time>2018-11-15T10:20:33Z</time>
      </trkpt>
      <trkpt lat="45.05163" lon="5.23707">
        <ele>518.29</ele>
        <time>2018-11-15T10:20:38Z</time>
      </trkpt>
      <trkpt lat="45.05163" lon="5.23707">
        <ele>513.96</ele>
        <time>2018-11-15T10:20:39Z</time>
      </trkpt>
      <trkpt lat="45.05163" lon="5.23707">
        <ele>517.81</ele>
        <time>2018-11-15T10:20:40Z</time>
      </trkpt>
      <trkpt lat="45.05162" lon="5.23707">
        <ele>513</ele>
        <time>2018-11-15T10:20:41Z</time>
      </trkpt>
      <trkpt lat="45.05162" lon="5.23707">
        <ele>517.81</ele>
        <time>2018-11-15T10:20:42Z</time>
      </trkpt>
      <trkpt lat="45.05161" lon="5.23706">
        <ele>520.21</ele>
        <time>2018-11-15T10:20:54Z</time>
      </trkpt>
      <trkpt lat="45.05161" lon="5.23706">
        <ele>513.48</ele>
        <time>2018-11-15T10:20:55Z</time>
      </trkpt>
      <trkpt lat="45.05161" lon="5.23706">
        <ele>524.06</ele>
        <time>2018-11-15T10:20:56Z</time>
      </trkpt>
      <trkpt lat="45.05161" lon="5.23706">
        <ele>516.85</ele>
        <time>2018-11-15T10:20:57Z</time>
      </trkpt>
      <trkpt lat="45.05161" lon="5.23706">
        <ele>520.69</ele>
        <time>2018-11-15T10:20:58Z</time>
      </trkpt>
      <trkpt lat="45.05161" lon="5.23706">
        <ele>513.48</ele>
        <time>2018-11-15T10:20:59Z</time>
      </trkpt>
      <trkpt lat="45.0516" lon="5.23706">
        <ele>522.13</ele>
        <time>2018-11-15T10:21:00Z</time>
      </trkpt>
      <trkpt lat="45.0516" lon="5.23706">
        <ele>517.81</ele>
        <time>2018-11-15T10:21:01Z</time>
      </trkpt>
      <trkpt lat="45.05156" lon="5.23705">
        <ele>521.17</ele>
        <time>2018-11-15T10:21:04Z</time>
      </trkpt>
      <trkpt lat="45.05153" lon="5.23705">
        <ele>516.85</ele>
        <time>2018-11-15T10:21:13Z</time>
      </trkpt>
      <trkpt lat="45.05152" lon="5.23704">
        <ele>523.58</ele>
        <time>2018-11-15T10:21:14Z</time>
      </trkpt>
      <trkpt lat="45.05151" lon="5.23704">
        <ele>520.21</ele>
        <time>2018-11-15T10:21:15Z</time>
      </trkpt>
      <trkpt lat="45.05149" lon="5.23704">
        <ele>525.5</ele>
        <time>2018-11-15T10:21:21Z</time>
      </trkpt>
      <trkpt lat="45.05148" lon="5.23704">
        <ele>522.13</ele>
        <time>2018-11-15T10:21:22Z</time>
      </trkpt>
      <trkpt lat="45.05146" lon="5.23704">
        <ele>525.5</ele>
        <time>2018-11-15T10:21:26Z</time>
      </trkpt>
      <trkpt lat="45.05145" lon="5.23704">
        <ele>519.25</ele>
        <time>2018-11-15T10:21:31Z</time>
      </trkpt>
      <trkpt lat="45.05145" lon="5.23704">
        <ele>525.5</ele>
        <time>2018-11-15T10:21:32Z</time>
      </trkpt>
      <trkpt lat="45.05144" lon="5.23704">
        <ele>520.69</ele>
        <time>2018-11-15T10:21:35Z</time>
      </trkpt>
      <trkpt lat="45.05144" lon="5.23704">
        <ele>526.94</ele>
        <time>2018-11-15T10:21:36Z</time>
      </trkpt>
      <trkpt lat="45.05143" lon="5.23704">
        <ele>521.65</ele>
        <time>2018-11-15T10:21:37Z</time>
      </trkpt>
      <trkpt lat="45.05142" lon="5.23704">
        <ele>526.46</ele>
        <time>2018-11-15T10:21:38Z</time>
      </trkpt>
      <trkpt lat="45.05138" lon="5.23706">
        <ele>524.54</ele>
        <time>2018-11-15T10:21:46Z</time>
      </trkpt>
      <trkpt lat="45.05137" lon="5.23707">
        <ele>527.9</ele>
        <time>2018-11-15T10:21:47Z</time>
      </trkpt>
      <trkpt lat="45.05136" lon="5.23707">
        <ele>524.54</ele>
        <time>2018-11-15T10:21:48Z</time>
      </trkpt>
      <trkpt lat="45.05136" lon="5.23707">
        <ele>527.9</ele>
        <time>2018-11-15T10:21:49Z</time>
      </trkpt>
      <trkpt lat="45.05136" lon="5.23707">
        <ele>522.61</ele>
        <time>2018-11-15T10:21:50Z</time>
      </trkpt>
      <trkpt lat="45.05135" lon="5.23707">
        <ele>528.86</ele>
        <time>2018-11-15T10:21:51Z</time>
      </trkpt>
      <trkpt lat="45.05135" lon="5.23706">
        <ele>525.02</ele>
        <time>2018-11-15T10:21:52Z</time>
      </trkpt>
      <trkpt lat="45.05134" lon="5.23706">
        <ele>528.38</ele>
        <time>2018-11-15T10:21:53Z</time>
      </trkpt>
      <trkpt lat="45.05133" lon="5.23706">
        <ele>524.06</ele>
        <time>2018-11-15T10:21:54Z</time>
      </trkpt>
      <trkpt lat="45.05132" lon="5.23706">
        <ele>527.9</ele>
        <time>2018-11-15T10:21:55Z</time>
      </trkpt>
      <trkpt lat="45.05125" lon="5.23704">
        <ele>530.79</ele>
        <time>2018-11-15T10:22:07Z</time>
      </trkpt>
      <trkpt lat="45.05122" lon="5.23705">
        <ele>526.94</ele>
        <time>2018-11-15T10:22:12Z</time>
      </trkpt>
      <trkpt lat="45.05122" lon="5.23705">
        <ele>532.23</ele>
        <time>2018-11-15T10:22:13Z</time>
      </trkpt>
      <trkpt lat="45.05122" lon="5.23705">
        <ele>526.94</ele>
        <time>2018-11-15T10:22:14Z</time>
      </trkpt>
      <trkpt lat="45.05121" lon="5.23706">
        <ele>530.3</ele>
        <time>2018-11-15T10:22:15Z</time>
      </trkpt>
      <trkpt lat="45.05118" lon="5.23705">
        <ele>533.67</ele>
        <time>2018-11-15T10:22:26Z</time>
      </trkpt>
      <trkpt lat="45.05118" lon="5.23705">
        <ele>529.34</ele>
        <time>2018-11-15T10:22:35Z</time>
      </trkpt>
      <trkpt lat="45.05117" lon="5.23705">
        <ele>534.15</ele>
        <time>2018-11-15T10:22:42Z</time>
      </trkpt>
      <trkpt lat="45.05117" lon="5.23705">
        <ele>526.46</ele>
        <time>2018-11-15T10:22:44Z</time>
      </trkpt>
      <trkpt lat="45.05116" lon="5.23705">
        <ele>532.71</ele>
        <time>2018-11-15T10:22:45Z</time>
      </trkpt>
      <trkpt lat="45.05116" lon="5.23705">
        <ele>533.19</ele>
        <time>2018-11-15T10:22:46Z</time>
      </trkpt>
      <trkpt lat="45.05116" lon="5.23705">
        <ele>520.69</ele>
        <time>2018-11-15T10:22:52Z</time>
      </trkpt>
      <trkpt lat="45.05116" lon="5.23705">
        <ele>537.03</ele>
        <time>2018-11-15T10:22:53Z</time>
      </trkpt>
      <trkpt lat="45.05114" lon="5.23704">
        <ele>534.63</ele>
        <time>2018-11-15T10:22:54Z</time>
      </trkpt>
      <trkpt lat="45.05111" lon="5.23703">
        <ele>529.82</ele>
        <time>2018-11-15T10:22:59Z</time>
      </trkpt>
      <trkpt lat="45.0511" lon="5.23704">
        <ele>534.63</ele>
        <time>2018-11-15T10:23:00Z</time>
      </trkpt>
      <trkpt lat="45.05101" lon="5.23706">
        <ele>534.63</ele>
        <time>2018-11-15T10:23:09Z</time>
      </trkpt>
      <trkpt lat="45.05098" lon="5.23708">
        <ele>533.19</ele>
        <time>2018-11-15T10:23:20Z</time>
      </trkpt>
      <trkpt lat="45.05097" lon="5.23709">
        <ele>537.03</ele>
        <time>2018-11-15T10:23:21Z</time>
      </trkpt>
      <trkpt lat="45.05097" lon="5.23709">
        <ele>532.71</ele>
        <time>2018-11-15T10:23:22Z</time>
      </trkpt>
      <trkpt lat="45.05095" lon="5.23712">
        <ele>536.07</ele>
        <time>2018-11-15T10:23:27Z</time>
      </trkpt>
      <trkpt lat="45.05094" lon="5.23713">
        <ele>532.23</ele>
        <time>2018-11-15T10:23:28Z</time>
      </trkpt>
      <trkpt lat="45.05092" lon="5.23715">
        <ele>536.07</ele>
        <time>2018-11-15T10:23:32Z</time>
      </trkpt>
      <trkpt lat="45.05092" lon="5.23716">
        <ele>532.71</ele>
        <time>2018-11-15T10:23:35Z</time>
      </trkpt>
      <trkpt lat="45.05091" lon="5.23717">
        <ele>536.55</ele>
        <time>2018-11-15T10:23:37Z</time>
      </trkpt>
      <trkpt lat="45.05088" lon="5.23719">
        <ele>532.23</ele>
        <time>2018-11-15T10:23:40Z</time>
      </trkpt>
      <trkpt lat="45.05088" lon="5.2372">
        <ele>536.07</ele>
        <time>2018-11-15T10:23:41Z</time>
      </trkpt>
      <trkpt lat="45.05087" lon="5.23722">
        <ele>534.63</ele>
        <time>2018-11-15T10:23:43Z</time>
      </trkpt>
      <trkpt lat="45.05085" lon="5.23724">
        <ele>532.23</ele>
        <time>2018-11-15T10:23:45Z</time>
      </trkpt>
      <trkpt lat="45.05085" lon="5.23725">
        <ele>536.55</ele>
        <time>2018-11-15T10:23:46Z</time>
      </trkpt>
      <trkpt lat="45.05084" lon="5.23725">
        <ele>534.63</ele>
        <time>2018-11-15T10:23:48Z</time>
      </trkpt>
      <trkpt lat="45.0508" lon="5.23725">
        <ele>537.03</ele>
        <time>2018-11-15T10:23:51Z</time>
      </trkpt>
      <trkpt lat="45.05075" lon="5.23724">
        <ele>537.03</ele>
        <time>2018-11-15T10:24:00Z</time>
      </trkpt>
      <trkpt lat="45.05069" lon="5.23727">
        <ele>536.07</ele>
        <time>2018-11-15T10:24:08Z</time>
      </trkpt>
      <trkpt lat="45.05064" lon="5.23724">
        <ele>537.03</ele>
        <time>2018-11-15T10:24:18Z</time>
      </trkpt>
      <trkpt lat="45.05057" lon="5.23725">
        <ele>537.51</ele>
        <time>2018-11-15T10:24:29Z</time>
      </trkpt>
      <trkpt lat="45.05053" lon="5.23729">
        <ele>537.03</ele>
        <time>2018-11-15T10:24:41Z</time>
      </trkpt>
      <trkpt lat="45.05053" lon="5.23729">
        <ele>537.51</ele>
        <time>2018-11-15T10:24:58Z</time>
      </trkpt>
      <trkpt lat="45.05053" lon="5.23729">
        <ele>537.51</ele>
        <time>2018-11-15T10:25:14Z</time>
      </trkpt>
      <trkpt lat="45.05052" lon="5.23728">
        <ele>537.03</ele>
        <time>2018-11-15T10:25:31Z</time>
      </trkpt>
      <trkpt lat="45.05049" lon="5.23725">
        <ele>537.03</ele>
        <time>2018-11-15T10:25:43Z</time>
      </trkpt>
      <trkpt lat="45.05044" lon="5.23722">
        <ele>536.07</ele>
        <time>2018-11-15T10:25:54Z</time>
      </trkpt>
      <trkpt lat="45.05041" lon="5.23718">
        <ele>537.99</ele>
        <time>2018-11-15T10:26:05Z</time>
      </trkpt>
      <trkpt lat="45.05037" lon="5.23719">
        <ele>535.11</ele>
        <time>2018-11-15T10:26:15Z</time>
      </trkpt>
      <trkpt lat="45.05031" lon="5.23718">
        <ele>536.55</ele>
        <time>2018-11-15T10:26:25Z</time>
      </trkpt>
      <trkpt lat="45.05029" lon="5.23718">
        <ele>534.63</ele>
        <time>2018-11-15T10:26:31Z</time>
      </trkpt>
      <trkpt lat="45.05021" lon="5.23717">
        <ele>536.07</ele>
        <time>2018-11-15T10:26:42Z</time>
      </trkpt>
      <trkpt lat="45.05018" lon="5.23717">
        <ele>535.11</ele>
        <time>2018-11-15T10:26:54Z</time>
      </trkpt>
      <trkpt lat="45.05015" lon="5.23717">
        <ele>532.71</ele>
        <time>2018-11-15T10:26:57Z</time>
      </trkpt>
      <trkpt lat="45.05005" lon="5.23718">
        <ele>535.11</ele>
        <time>2018-11-15T10:27:06Z</time>
      </trkpt>
      <trkpt lat="45.05002" lon="5.23719">
        <ele>527.42</ele>
        <time>2018-11-15T10:27:12Z</time>
      </trkpt>
      <trkpt lat="45.05002" lon="5.23719">
        <ele>536.55</ele>
        <time>2018-11-15T10:27:13Z</time>
      </trkpt>
      <trkpt lat="45.04997" lon="5.2372">
        <ele>533.19</ele>
        <time>2018-11-15T10:27:23Z</time>
      </trkpt>
      <trkpt lat="45.04995" lon="5.2372">
        <ele>536.55</ele>
        <time>2018-11-15T10:27:26Z</time>
      </trkpt>
      <trkpt lat="45.04995" lon="5.2372">
        <ele>535.59</ele>
        <time>2018-11-15T10:27:27Z</time>
      </trkpt>
      <trkpt lat="45.04993" lon="5.23721">
        <ele>538.48</ele>
        <time>2018-11-15T10:27:29Z</time>
      </trkpt>
      <trkpt lat="45.04992" lon="5.23721">
        <ele>537.51</ele>
        <time>2018-11-15T10:27:30Z</time>
      </trkpt>
      <trkpt lat="45.04991" lon="5.23721">
        <ele>533.19</ele>
        <time>2018-11-15T10:27:35Z</time>
      </trkpt>
      <trkpt lat="45.0499" lon="5.23722">
        <ele>537.51</ele>
        <time>2018-11-15T10:27:36Z</time>
      </trkpt>
      <trkpt lat="45.04985" lon="5.23722">
        <ele>535.59</ele>
        <time>2018-11-15T10:27:47Z</time>
      </trkpt>
      <trkpt lat="45.04982" lon="5.23722">
        <ele>538.96</ele>
        <time>2018-11-15T10:27:52Z</time>
      </trkpt>
      <trkpt lat="45.04982" lon="5.23721">
        <ele>535.59</ele>
        <time>2018-11-15T10:27:53Z</time>
      </trkpt>
      <trkpt lat="45.04981" lon="5.23721">
        <ele>538.96</ele>
        <time>2018-11-15T10:27:55Z</time>
      </trkpt>
      <trkpt lat="45.04981" lon="5.23721">
        <ele>537.03</ele>
        <time>2018-11-15T10:27:56Z</time>
      </trkpt>
      <trkpt lat="45.0498" lon="5.23721">
        <ele>533.19</ele>
        <time>2018-11-15T10:27:57Z</time>
      </trkpt>
      <trkpt lat="45.0498" lon="5.23721">
        <ele>537.51</ele>
        <time>2018-11-15T10:27:58Z</time>
      </trkpt>
      <trkpt lat="45.04975" lon="5.23724">
        <ele>537.51</ele>
        <time>2018-11-15T10:28:08Z</time>
      </trkpt>
      <trkpt lat="45.04972" lon="5.23722">
        <ele>537.51</ele>
        <time>2018-11-15T10:28:19Z</time>
      </trkpt>
      <trkpt lat="45.0497" lon="5.23723">
        <ele>533.19</ele>
        <time>2018-11-15T10:28:23Z</time>
      </trkpt>
      <trkpt lat="45.0497" lon="5.23724">
        <ele>537.99</ele>
        <time>2018-11-15T10:28:24Z</time>
      </trkpt>
      <trkpt lat="45.04968" lon="5.23724">
        <ele>537.51</ele>
        <time>2018-11-15T10:28:33Z</time>
      </trkpt>
      <trkpt lat="45.04969" lon="5.23723">
        <ele>537.99</ele>
        <time>2018-11-15T10:28:51Z</time>
      </trkpt>
      <trkpt lat="45.04969" lon="5.23723">
        <ele>537.51</ele>
        <time>2018-11-15T10:29:12Z</time>
      </trkpt>
      <trkpt lat="45.04968" lon="5.23724">
        <ele>537.99</ele>
        <time>2018-11-15T10:29:28Z</time>
      </trkpt>
      <trkpt lat="45.04968" lon="5.23724">
        <ele>537.99</ele>
        <time>2018-11-15T10:29:52Z</time>
      </trkpt>
      <trkpt lat="45.04968" lon="5.23724">
        <ele>537.51</ele>
        <time>2018-11-15T10:30:10Z</time>
      </trkpt>
      <trkpt lat="45.04968" lon="5.23723">
        <ele>537.99</ele>
        <time>2018-11-15T10:30:25Z</time>
      </trkpt>
      <trkpt lat="45.04968" lon="5.23724">
        <ele>537.99</ele>
        <time>2018-11-15T10:30:45Z</time>
      </trkpt>
      <trkpt lat="45.04963" lon="5.23724">
        <ele>538.48</ele>
        <time>2018-11-15T10:30:55Z</time>
      </trkpt>
      <trkpt lat="45.0496" lon="5.23724">
        <ele>538.48</ele>
        <time>2018-11-15T10:31:00Z</time>
      </trkpt>
      <trkpt lat="45.04957" lon="5.23723">
        <ele>541.36</ele>
        <time>2018-11-15T10:31:05Z</time>
      </trkpt>
      <trkpt lat="45.04957" lon="5.23723">
        <ele>537.99</ele>
        <time>2018-11-15T10:31:06Z</time>
      </trkpt>
      <trkpt lat="45.04957" lon="5.23723">
        <ele>538.48</ele>
        <time>2018-11-15T10:31:07Z</time>
      </trkpt>
      <trkpt lat="45.04955" lon="5.23722">
        <ele>540.88</ele>
        <time>2018-11-15T10:31:09Z</time>
      </trkpt>
      <trkpt lat="45.04954" lon="5.23722">
        <ele>533.19</ele>
        <time>2018-11-15T10:31:10Z</time>
      </trkpt>
      <trkpt lat="45.04954" lon="5.23722">
        <ele>538.48</ele>
        <time>2018-11-15T10:31:11Z</time>
      </trkpt>
      <trkpt lat="45.0495" lon="5.2372">
        <ele>539.92</ele>
        <time>2018-11-15T10:31:16Z</time>
      </trkpt>
      <trkpt lat="45.04943" lon="5.23717">
        <ele>536.07</ele>
        <time>2018-11-15T10:31:26Z</time>
      </trkpt>
      <trkpt lat="45.04938" lon="5.23716">
        <ele>537.03</ele>
        <time>2018-11-15T10:31:37Z</time>
      </trkpt>
      <trkpt lat="45.04933" lon="5.23717">
        <ele>536.55</ele>
        <time>2018-11-15T10:31:48Z</time>
      </trkpt>
      <trkpt lat="45.04932" lon="5.23716">
        <ele>539.44</ele>
        <time>2018-11-15T10:31:49Z</time>
      </trkpt>
      <trkpt lat="45.04931" lon="5.23715">
        <ele>534.15</ele>
        <time>2018-11-15T10:31:50Z</time>
      </trkpt>
      <trkpt lat="45.04927" lon="5.23714">
        <ele>538.48</ele>
        <time>2018-11-15T10:31:55Z</time>
      </trkpt>
      <trkpt lat="45.04927" lon="5.23714">
        <ele>535.11</ele>
        <time>2018-11-15T10:31:56Z</time>
      </trkpt>
      <trkpt lat="45.04927" lon="5.23714">
        <ele>538.96</ele>
        <time>2018-11-15T10:31:57Z</time>
      </trkpt>
      <trkpt lat="45.04926" lon="5.23714">
        <ele>535.11</ele>
        <time>2018-11-15T10:31:58Z</time>
      </trkpt>
      <trkpt lat="45.04923" lon="5.23713">
        <ele>534.15</ele>
        <time>2018-11-15T10:32:07Z</time>
      </trkpt>
      <trkpt lat="45.04923" lon="5.23713">
        <ele>539.92</ele>
        <time>2018-11-15T10:32:08Z</time>
      </trkpt>
      <trkpt lat="45.04923" lon="5.23713">
        <ele>535.59</ele>
        <time>2018-11-15T10:32:09Z</time>
      </trkpt>
      <trkpt lat="45.04917" lon="5.23711">
        <ele>535.59</ele>
        <time>2018-11-15T10:32:20Z</time>
      </trkpt>
      <trkpt lat="45.04914" lon="5.23711">
        <ele>535.11</ele>
        <time>2018-11-15T10:32:30Z</time>
      </trkpt>
      <trkpt lat="45.04913" lon="5.23711">
        <ele>531.75</ele>
        <time>2018-11-15T10:32:36Z</time>
      </trkpt>
      <trkpt lat="45.04913" lon="5.23711">
        <ele>537.03</ele>
        <time>2018-11-15T10:32:37Z</time>
      </trkpt>
      <trkpt lat="45.04911" lon="5.23711">
        <ele>532.23</ele>
        <time>2018-11-15T10:32:48Z</time>
      </trkpt>
      <trkpt lat="45.0491" lon="5.23711">
        <ele>535.59</ele>
        <time>2018-11-15T10:32:49Z</time>
      </trkpt>
      <trkpt lat="45.04908" lon="5.23708">
        <ele>535.59</ele>
        <time>2018-11-15T10:32:56Z</time>
      </trkpt>
      <trkpt lat="45.04903" lon="5.23701">
        <ele>532.71</ele>
        <time>2018-11-15T10:33:06Z</time>
      </trkpt>
      <trkpt lat="45.04901" lon="5.23698">
        <ele>532.23</ele>
        <time>2018-11-15T10:33:19Z</time>
      </trkpt>
      <trkpt lat="45.04897" lon="5.23694">
        <ele>531.75</ele>
        <time>2018-11-15T10:33:32Z</time>
      </trkpt>
      <trkpt lat="45.04894" lon="5.23688">
        <ele>528.86</ele>
        <time>2018-11-15T10:33:43Z</time>
      </trkpt>
      <trkpt lat="45.04894" lon="5.23686">
        <ele>532.23</ele>
        <time>2018-11-15T10:33:44Z</time>
      </trkpt>
      <trkpt lat="45.04891" lon="5.23678">
        <ele>531.27</ele>
        <time>2018-11-15T10:33:58Z</time>
      </trkpt>
      <trkpt lat="45.0489" lon="5.23675">
        <ele>531.27</ele>
        <time>2018-11-15T10:34:16Z</time>
      </trkpt>
      <trkpt lat="45.0489" lon="5.23675">
        <ele>531.75</ele>
        <time>2018-11-15T10:34:29Z</time>
      </trkpt>
      <trkpt lat="45.04889" lon="5.23675">
        <ele>531.27</ele>
        <time>2018-11-15T10:34:49Z</time>
      </trkpt>
      <trkpt lat="45.04888" lon="5.23675">
        <ele>531.27</ele>
        <time>2018-11-15T10:35:12Z</time>
      </trkpt>
      <trkpt lat="45.04888" lon="5.23675">
        <ele>531.75</ele>
        <time>2018-11-15T10:35:31Z</time>
      </trkpt>
      <trkpt lat="45.04888" lon="5.23675">
        <ele>532.23</ele>
        <time>2018-11-15T10:35:56Z</time>
      </trkpt>
      <trkpt lat="45.04891" lon="5.23674">
        <ele>532.23</ele>
        <time>2018-11-15T10:36:10Z</time>
      </trkpt>
      <trkpt lat="45.04892" lon="5.23671">
        <ele>531.27</ele>
        <time>2018-11-15T10:36:24Z</time>
      </trkpt>
      <trkpt lat="45.04897" lon="5.23666">
        <ele>530.79</ele>
        <time>2018-11-15T10:36:35Z</time>
      </trkpt>
      <trkpt lat="45.04902" lon="5.23658">
        <ele>529.34</ele>
        <time>2018-11-15T10:36:49Z</time>
      </trkpt>
      <trkpt lat="45.04904" lon="5.23658">
        <ele>528.38</ele>
        <time>2018-11-15T10:37:09Z</time>
      </trkpt>
      <trkpt lat="45.04913" lon="5.23652">
        <ele>526.46</ele>
        <time>2018-11-15T10:37:23Z</time>
      </trkpt>
      <trkpt lat="45.04923" lon="5.23647">
        <ele>525.5</ele>
        <time>2018-11-15T10:37:39Z</time>
      </trkpt>
      <trkpt lat="45.04931" lon="5.23643">
        <ele>524.06</ele>
        <time>2018-11-15T10:37:55Z</time>
      </trkpt>
      <trkpt lat="45.04942" lon="5.23641">
        <ele>522.61</ele>
        <time>2018-11-15T10:38:09Z</time>
      </trkpt>
      <trkpt lat="45.04956" lon="5.23632">
        <ele>521.17</ele>
        <time>2018-11-15T10:38:23Z</time>
      </trkpt>
      <trkpt lat="45.04969" lon="5.23627">
        <ele>520.21</ele>
        <time>2018-11-15T10:38:39Z</time>
      </trkpt>
      <trkpt lat="45.04978" lon="5.23626">
        <ele>519.25</ele>
        <time>2018-11-15T10:38:52Z</time>
      </trkpt>
      <trkpt lat="45.04988" lon="5.23624">
        <ele>517.33</ele>
        <time>2018-11-15T10:39:05Z</time>
      </trkpt>
      <trkpt lat="45.04995" lon="5.23622">
        <ele>515.4</ele>
        <time>2018-11-15T10:39:18Z</time>
      </trkpt>
      <trkpt lat="45.04999" lon="5.23622">
        <ele>513.96</ele>
        <time>2018-11-15T10:39:30Z</time>
      </trkpt>
      <trkpt lat="45.05006" lon="5.2362">
        <ele>513</ele>
        <time>2018-11-15T10:39:42Z</time>
      </trkpt>
      <trkpt lat="45.05017" lon="5.23612">
        <ele>511.08</ele>
        <time>2018-11-15T10:39:54Z</time>
      </trkpt>
      <trkpt lat="45.05026" lon="5.23607">
        <ele>509.16</ele>
        <time>2018-11-15T10:40:06Z</time>
      </trkpt>
      <trkpt lat="45.05033" lon="5.23605">
        <ele>507.23</ele>
        <time>2018-11-15T10:40:18Z</time>
      </trkpt>
      <trkpt lat="45.05038" lon="5.23598">
        <ele>504.83</ele>
        <time>2018-11-15T10:40:30Z</time>
      </trkpt>
      <trkpt lat="45.05043" lon="5.2359">
        <ele>502.43</ele>
        <time>2018-11-15T10:40:44Z</time>
      </trkpt>
      <trkpt lat="45.05047" lon="5.23586">
        <ele>500.02</ele>
        <time>2018-11-15T10:40:55Z</time>
      </trkpt>
      <trkpt lat="45.0505" lon="5.23582">
        <ele>499.06</ele>
        <time>2018-11-15T10:41:04Z</time>
      </trkpt>
      <trkpt lat="45.05052" lon="5.23579">
        <ele>496.18</ele>
        <time>2018-11-15T10:41:17Z</time>
      </trkpt>
      <trkpt lat="45.05057" lon="5.23574">
        <ele>493.29</ele>
        <time>2018-11-15T10:41:30Z</time>
      </trkpt>
      <trkpt lat="45.05061" lon="5.23568">
        <ele>491.85</ele>
        <time>2018-11-15T10:41:42Z</time>
      </trkpt>
      <trkpt lat="45.05065" lon="5.23557">
        <ele>489.93</ele>
        <time>2018-11-15T10:41:53Z</time>
      </trkpt>
      <trkpt lat="45.05067" lon="5.23554">
        <ele>487.53</ele>
        <time>2018-11-15T10:42:03Z</time>
      </trkpt>
      <trkpt lat="45.05072" lon="5.23547">
        <ele>486.56</ele>
        <time>2018-11-15T10:42:15Z</time>
      </trkpt>
      <trkpt lat="45.05077" lon="5.23536">
        <ele>483.2</ele>
        <time>2018-11-15T10:42:31Z</time>
      </trkpt>
      <trkpt lat="45.05078" lon="5.23531">
        <ele>481.76</ele>
        <time>2018-11-15T10:42:45Z</time>
      </trkpt>
      <trkpt lat="45.05083" lon="5.23524">
        <ele>478.87</ele>
        <time>2018-11-15T10:42:59Z</time>
      </trkpt>
      <trkpt lat="45.05088" lon="5.23514">
        <ele>476.95</ele>
        <time>2018-11-15T10:43:11Z</time>
      </trkpt>
      <trkpt lat="45.05089" lon="5.23506">
        <ele>474.55</ele>
        <time>2018-11-15T10:43:24Z</time>
      </trkpt>
      <trkpt lat="45.0509" lon="5.235">
        <ele>473.11</ele>
        <time>2018-11-15T10:43:35Z</time>
      </trkpt>
      <trkpt lat="45.05089" lon="5.23494">
        <ele>472.14</ele>
        <time>2018-11-15T10:43:50Z</time>
      </trkpt>
      <trkpt lat="45.05087" lon="5.23483">
        <ele>470.7</ele>
        <time>2018-11-15T10:44:03Z</time>
      </trkpt>
      <trkpt lat="45.05088" lon="5.2348">
        <ele>471.18</ele>
        <time>2018-11-15T10:44:13Z</time>
      </trkpt>
      <trkpt lat="45.0509" lon="5.23474">
        <ele>465.42</ele>
        <time>2018-11-15T10:44:19Z</time>
      </trkpt>
      <trkpt lat="45.0509" lon="5.23474">
        <ele>470.22</ele>
        <time>2018-11-15T10:44:20Z</time>
      </trkpt>
      <trkpt lat="45.0509" lon="5.23474">
        <ele>466.38</ele>
        <time>2018-11-15T10:44:21Z</time>
      </trkpt>
      <trkpt lat="45.0509" lon="5.23474">
        <ele>469.74</ele>
        <time>2018-11-15T10:44:22Z</time>
      </trkpt>
      <trkpt lat="45.05089" lon="5.23473">
        <ele>465.9</ele>
        <time>2018-11-15T10:44:23Z</time>
      </trkpt>
      <trkpt lat="45.05089" lon="5.23472">
        <ele>469.26</ele>
        <time>2018-11-15T10:44:24Z</time>
      </trkpt>
      <trkpt lat="45.05088" lon="5.2347">
        <ele>465.42</ele>
        <time>2018-11-15T10:44:26Z</time>
      </trkpt>
      <trkpt lat="45.05088" lon="5.2347">
        <ele>470.22</ele>
        <time>2018-11-15T10:44:27Z</time>
      </trkpt>
      <trkpt lat="45.05086" lon="5.23468">
        <ele>466.86</ele>
        <time>2018-11-15T10:44:31Z</time>
      </trkpt>
      <trkpt lat="45.05085" lon="5.23467">
        <ele>470.22</ele>
        <time>2018-11-15T10:44:32Z</time>
      </trkpt>
      <trkpt lat="45.05081" lon="5.23461">
        <ele>468.3</ele>
        <time>2018-11-15T10:44:44Z</time>
      </trkpt>
      <trkpt lat="45.0508" lon="5.23459">
        <ele>471.66</ele>
        <time>2018-11-15T10:44:47Z</time>
      </trkpt>
      <trkpt lat="45.05074" lon="5.23451">
        <ele>468.78</ele>
        <time>2018-11-15T10:44:57Z</time>
      </trkpt>
      <trkpt lat="45.05074" lon="5.2345">
        <ele>473.11</ele>
        <time>2018-11-15T10:44:58Z</time>
      </trkpt>
      <trkpt lat="45.05072" lon="5.23447">
        <ele>469.74</ele>
        <time>2018-11-15T10:45:02Z</time>
      </trkpt>
      <trkpt lat="45.05071" lon="5.23445">
        <ele>473.59</ele>
        <time>2018-11-15T10:45:04Z</time>
      </trkpt>
      <trkpt lat="45.0507" lon="5.23444">
        <ele>472.63</ele>
        <time>2018-11-15T10:45:05Z</time>
      </trkpt>
      <trkpt lat="45.05067" lon="5.23441">
        <ele>476.95</ele>
        <time>2018-11-15T10:45:12Z</time>
      </trkpt>
      <trkpt lat="45.05066" lon="5.23441">
        <ele>470.7</ele>
        <time>2018-11-15T10:45:13Z</time>
      </trkpt>
      <trkpt lat="45.05065" lon="5.2344">
        <ele>475.03</ele>
        <time>2018-11-15T10:45:14Z</time>
      </trkpt>
      <trkpt lat="45.0506" lon="5.23435">
        <ele>470.22</ele>
        <time>2018-11-15T10:45:21Z</time>
      </trkpt>
      <trkpt lat="45.05059" lon="5.23435">
        <ele>475.03</ele>
        <time>2018-11-15T10:45:22Z</time>
      </trkpt>
      <trkpt lat="45.05054" lon="5.23431">
        <ele>471.66</ele>
        <time>2018-11-15T10:45:28Z</time>
      </trkpt>
      <trkpt lat="45.05054" lon="5.2343">
        <ele>476.47</ele>
        <time>2018-11-15T10:45:30Z</time>
      </trkpt>
      <trkpt lat="45.05053" lon="5.2343">
        <ele>471.66</ele>
        <time>2018-11-15T10:45:31Z</time>
      </trkpt>
      <trkpt lat="45.05053" lon="5.23429">
        <ele>475.99</ele>
        <time>2018-11-15T10:45:32Z</time>
      </trkpt>
      <trkpt lat="45.05049" lon="5.23424">
        <ele>472.63</ele>
        <time>2018-11-15T10:45:38Z</time>
      </trkpt>
      <trkpt lat="45.05049" lon="5.23424">
        <ele>476.95</ele>
        <time>2018-11-15T10:45:39Z</time>
      </trkpt>
      <trkpt lat="45.05048" lon="5.23423">
        <ele>472.14</ele>
        <time>2018-11-15T10:45:41Z</time>
      </trkpt>
      <trkpt lat="45.05048" lon="5.23422">
        <ele>476.95</ele>
        <time>2018-11-15T10:45:42Z</time>
      </trkpt>
      <trkpt lat="45.05046" lon="5.23418">
        <ele>472.14</ele>
        <time>2018-11-15T10:45:48Z</time>
      </trkpt>
      <trkpt lat="45.05045" lon="5.23418">
        <ele>477.91</ele>
        <time>2018-11-15T10:45:49Z</time>
      </trkpt>
      <trkpt lat="45.05041" lon="5.23411">
        <ele>474.55</ele>
        <time>2018-11-15T10:45:56Z</time>
      </trkpt>
      <trkpt lat="45.05041" lon="5.23409">
        <ele>477.91</ele>
        <time>2018-11-15T10:45:57Z</time>
      </trkpt>
      <trkpt lat="45.05036" lon="5.23404">
        <ele>475.99</ele>
        <time>2018-11-15T10:46:06Z</time>
      </trkpt>
      <trkpt lat="45.05035" lon="5.23402">
        <ele>480.8</ele>
        <time>2018-11-15T10:46:08Z</time>
      </trkpt>
      <trkpt lat="45.05034" lon="5.23402">
        <ele>477.43</ele>
        <time>2018-11-15T10:46:09Z</time>
      </trkpt>
      <trkpt lat="45.05032" lon="5.23401">
        <ele>480.32</ele>
        <time>2018-11-15T10:46:13Z</time>
      </trkpt>
      <trkpt lat="45.05031" lon="5.23399">
        <ele>476.47</ele>
        <time>2018-11-15T10:46:17Z</time>
      </trkpt>
      <trkpt lat="45.05031" lon="5.23399">
        <ele>482.24</ele>
        <time>2018-11-15T10:46:18Z</time>
      </trkpt>
      <trkpt lat="45.05031" lon="5.23399">
        <ele>476.47</ele>
        <time>2018-11-15T10:46:19Z</time>
      </trkpt>
      <trkpt lat="45.0503" lon="5.23397">
        <ele>480.32</ele>
        <time>2018-11-15T10:46:20Z</time>
      </trkpt>
      <trkpt lat="45.05029" lon="5.2339">
        <ele>484.16</ele>
        <time>2018-11-15T10:46:28Z</time>
      </trkpt>
      <trkpt lat="45.05028" lon="5.23389">
        <ele>478.39</ele>
        <time>2018-11-15T10:46:29Z</time>
      </trkpt>
      <trkpt lat="45.05024" lon="5.23379">
        <ele>482.24</ele>
        <time>2018-11-15T10:46:39Z</time>
      </trkpt>
      <trkpt lat="45.05022" lon="5.23375">
        <ele>477.43</ele>
        <time>2018-11-15T10:46:44Z</time>
      </trkpt>
      <trkpt lat="45.05022" lon="5.23374">
        <ele>483.2</ele>
        <time>2018-11-15T10:46:45Z</time>
      </trkpt>
      <trkpt lat="45.05021" lon="5.23373">
        <ele>479.35</ele>
        <time>2018-11-15T10:46:49Z</time>
      </trkpt>
      <trkpt lat="45.0502" lon="5.23371">
        <ele>483.2</ele>
        <time>2018-11-15T10:46:50Z</time>
      </trkpt>
      <trkpt lat="45.05017" lon="5.23363">
        <ele>484.16</ele>
        <time>2018-11-15T10:47:00Z</time>
      </trkpt>
      <trkpt lat="45.05015" lon="5.23358">
        <ele>480.32</ele>
        <time>2018-11-15T10:47:04Z</time>
      </trkpt>
      <trkpt lat="45.05015" lon="5.23358">
        <ele>485.12</ele>
        <time>2018-11-15T10:47:05Z</time>
      </trkpt>
      <trkpt lat="45.05014" lon="5.23356">
        <ele>481.28</ele>
        <time>2018-11-15T10:47:07Z</time>
      </trkpt>
      <trkpt lat="45.05014" lon="5.23355">
        <ele>485.12</ele>
        <time>2018-11-15T10:47:08Z</time>
      </trkpt>
      <trkpt lat="45.05013" lon="5.23353">
        <ele>480.32</ele>
        <time>2018-11-15T10:47:12Z</time>
      </trkpt>
      <trkpt lat="45.05012" lon="5.23352">
        <ele>486.08</ele>
        <time>2018-11-15T10:47:13Z</time>
      </trkpt>
      <trkpt lat="45.05009" lon="5.23347">
        <ele>481.28</ele>
        <time>2018-11-15T10:47:22Z</time>
      </trkpt>
      <trkpt lat="45.05009" lon="5.23347">
        <ele>487.05</ele>
        <time>2018-11-15T10:47:23Z</time>
      </trkpt>
      <trkpt lat="45.05003" lon="5.23341">
        <ele>483.2</ele>
        <time>2018-11-15T10:47:30Z</time>
      </trkpt>
      <trkpt lat="45.05002" lon="5.2334">
        <ele>488.01</ele>
        <time>2018-11-15T10:47:31Z</time>
      </trkpt>
      <trkpt lat="45.04999" lon="5.23338">
        <ele>483.68</ele>
        <time>2018-11-15T10:47:35Z</time>
      </trkpt>
      <trkpt lat="45.04999" lon="5.23338">
        <ele>487.53</ele>
        <time>2018-11-15T10:47:36Z</time>
      </trkpt>
      <trkpt lat="45.04999" lon="5.23338">
        <ele>490.89</ele>
        <time>2018-11-15T10:47:37Z</time>
      </trkpt>
      <trkpt lat="45.04998" lon="5.23337">
        <ele>485.12</ele>
        <time>2018-11-15T10:47:38Z</time>
      </trkpt>
      <trkpt lat="45.04997" lon="5.23337">
        <ele>488.01</ele>
        <time>2018-11-15T10:47:39Z</time>
      </trkpt>
      <trkpt lat="45.04996" lon="5.23335">
        <ele>491.37</ele>
        <time>2018-11-15T10:47:42Z</time>
      </trkpt>
      <trkpt lat="45.04996" lon="5.23335">
        <ele>486.08</ele>
        <time>2018-11-15T10:47:43Z</time>
      </trkpt>
      <trkpt lat="45.04995" lon="5.23334">
        <ele>490.41</ele>
        <time>2018-11-15T10:47:44Z</time>
      </trkpt>
      <trkpt lat="45.04991" lon="5.23331">
        <ele>486.08</ele>
        <time>2018-11-15T10:47:48Z</time>
      </trkpt>
      <trkpt lat="45.0499" lon="5.23331">
        <ele>489.93</ele>
        <time>2018-11-15T10:47:50Z</time>
      </trkpt>
      <trkpt lat="45.04988" lon="5.23329">
        <ele>490.41</ele>
        <time>2018-11-15T10:47:53Z</time>
      </trkpt>
      <trkpt lat="45.04986" lon="5.23328">
        <ele>486.56</ele>
        <time>2018-11-15T10:47:56Z</time>
      </trkpt>
      <trkpt lat="45.04986" lon="5.23327">
        <ele>491.37</ele>
        <time>2018-11-15T10:47:57Z</time>
      </trkpt>
      <trkpt lat="45.04985" lon="5.23326">
        <ele>487.05</ele>
        <time>2018-11-15T10:47:58Z</time>
      </trkpt>
      <trkpt lat="45.04983" lon="5.23324">
        <ele>492.81</ele>
        <time>2018-11-15T10:48:02Z</time>
      </trkpt>
      <trkpt lat="45.04983" lon="5.23324">
        <ele>488.97</ele>
        <time>2018-11-15T10:48:03Z</time>
      </trkpt>
      <trkpt lat="45.04981" lon="5.23323">
        <ele>493.29</ele>
        <time>2018-11-15T10:48:05Z</time>
      </trkpt>
      <trkpt lat="45.04981" lon="5.23323">
        <ele>488.01</ele>
        <time>2018-11-15T10:48:06Z</time>
      </trkpt>
      <trkpt lat="45.04981" lon="5.23322">
        <ele>492.81</ele>
        <time>2018-11-15T10:48:07Z</time>
      </trkpt>
      <trkpt lat="45.0498" lon="5.23321">
        <ele>488.49</ele>
        <time>2018-11-15T10:48:08Z</time>
      </trkpt>
      <trkpt lat="45.0498" lon="5.23321">
        <ele>492.81</ele>
        <time>2018-11-15T10:48:10Z</time>
      </trkpt>
      <trkpt lat="45.04979" lon="5.23319">
        <ele>488.49</ele>
        <time>2018-11-15T10:48:13Z</time>
      </trkpt>
      <trkpt lat="45.04978" lon="5.23319">
        <ele>492.33</ele>
        <time>2018-11-15T10:48:14Z</time>
      </trkpt>
      <trkpt lat="45.04978" lon="5.23318">
        <ele>488.97</ele>
        <time>2018-11-15T10:48:16Z</time>
      </trkpt>
      <trkpt lat="45.04977" lon="5.23318">
        <ele>492.81</ele>
        <time>2018-11-15T10:48:17Z</time>
      </trkpt>
      <trkpt lat="45.04976" lon="5.23317">
        <ele>489.93</ele>
        <time>2018-11-15T10:48:18Z</time>
      </trkpt>
      <trkpt lat="45.04974" lon="5.23316">
        <ele>493.77</ele>
        <time>2018-11-15T10:48:20Z</time>
      </trkpt>
      <trkpt lat="45.04973" lon="5.23315">
        <ele>488.97</ele>
        <time>2018-11-15T10:48:21Z</time>
      </trkpt>
      <trkpt lat="45.04972" lon="5.23315">
        <ele>493.29</ele>
        <time>2018-11-15T10:48:22Z</time>
      </trkpt>
      <trkpt lat="45.04972" lon="5.23314">
        <ele>487.53</ele>
        <time>2018-11-15T10:48:23Z</time>
      </trkpt>
      <trkpt lat="45.04971" lon="5.23314">
        <ele>492.81</ele>
        <time>2018-11-15T10:48:24Z</time>
      </trkpt>
      <trkpt lat="45.0497" lon="5.23313">
        <ele>488.01</ele>
        <time>2018-11-15T10:48:26Z</time>
      </trkpt>
      <trkpt lat="45.04969" lon="5.23312">
        <ele>493.29</ele>
        <time>2018-11-15T10:48:27Z</time>
      </trkpt>
      <trkpt lat="45.04967" lon="5.2331">
        <ele>489.45</ele>
        <time>2018-11-15T10:48:31Z</time>
      </trkpt>
      <trkpt lat="45.04966" lon="5.2331">
        <ele>493.29</ele>
        <time>2018-11-15T10:48:32Z</time>
      </trkpt>
      <trkpt lat="45.04962" lon="5.23306">
        <ele>488.97</ele>
        <time>2018-11-15T10:48:39Z</time>
      </trkpt>
      <trkpt lat="45.04962" lon="5.23306">
        <ele>494.26</ele>
        <time>2018-11-15T10:48:40Z</time>
      </trkpt>
      <trkpt lat="45.0496" lon="5.23305">
        <ele>498.1</ele>
        <time>2018-11-15T10:48:43Z</time>
      </trkpt>
      <trkpt lat="45.04959" lon="5.23304">
        <ele>492.33</ele>
        <time>2018-11-15T10:48:44Z</time>
      </trkpt>
      <trkpt lat="45.04953" lon="5.23301">
        <ele>496.18</ele>
        <time>2018-11-15T10:48:53Z</time>
      </trkpt>
      <trkpt lat="45.0495" lon="5.23299">
        <ele>491.85</ele>
        <time>2018-11-15T10:48:57Z</time>
      </trkpt>
      <trkpt lat="45.04949" lon="5.23299">
        <ele>496.18</ele>
        <time>2018-11-15T10:48:58Z</time>
      </trkpt>
      <trkpt lat="45.04946" lon="5.23298">
        <ele>491.85</ele>
        <time>2018-11-15T10:49:02Z</time>
      </trkpt>
      <trkpt lat="45.04946" lon="5.23297">
        <ele>496.18</ele>
        <time>2018-11-15T10:49:03Z</time>
      </trkpt>
      <trkpt lat="45.04943" lon="5.23296">
        <ele>499.54</ele>
        <time>2018-11-15T10:49:07Z</time>
      </trkpt>
      <trkpt lat="45.04942" lon="5.23295">
        <ele>493.77</ele>
        <time>2018-11-15T10:49:08Z</time>
      </trkpt>
      <trkpt lat="45.04942" lon="5.23295">
        <ele>498.1</ele>
        <time>2018-11-15T10:49:09Z</time>
      </trkpt>
      <trkpt lat="45.04938" lon="5.23293">
        <ele>494.74</ele>
        <time>2018-11-15T10:49:13Z</time>
      </trkpt>
      <trkpt lat="45.04937" lon="5.23292">
        <ele>497.62</ele>
        <time>2018-11-15T10:49:14Z</time>
      </trkpt>
      <trkpt lat="45.04932" lon="5.23289">
        <ele>493.29</ele>
        <time>2018-11-15T10:49:21Z</time>
      </trkpt>
      <trkpt lat="45.04931" lon="5.23289">
        <ele>498.58</ele>
        <time>2018-11-15T10:49:22Z</time>
      </trkpt>
      <trkpt lat="45.04927" lon="5.23288">
        <ele>494.74</ele>
        <time>2018-11-15T10:49:27Z</time>
      </trkpt>
      <trkpt lat="45.04926" lon="5.23288">
        <ele>499.54</ele>
        <time>2018-11-15T10:49:28Z</time>
      </trkpt>
      <trkpt lat="45.04923" lon="5.23287">
        <ele>495.22</ele>
        <time>2018-11-15T10:49:32Z</time>
      </trkpt>
      <trkpt lat="45.04922" lon="5.23287">
        <ele>500.02</ele>
        <time>2018-11-15T10:49:33Z</time>
      </trkpt>
      <trkpt lat="45.04913" lon="5.23287">
        <ele>496.66</ele>
        <time>2018-11-15T10:49:45Z</time>
      </trkpt>
      <trkpt lat="45.04913" lon="5.23287">
        <ele>500.98</ele>
        <time>2018-11-15T10:49:46Z</time>
      </trkpt>
      <trkpt lat="45.04911" lon="5.23288">
        <ele>497.14</ele>
        <time>2018-11-15T10:49:48Z</time>
      </trkpt>
      <trkpt lat="45.0491" lon="5.23288">
        <ele>500.98</ele>
        <time>2018-11-15T10:49:49Z</time>
      </trkpt>
      <trkpt lat="45.04906" lon="5.23286">
        <ele>503.39</ele>
        <time>2018-11-15T10:49:57Z</time>
      </trkpt>
      <trkpt lat="45.04905" lon="5.23287">
        <ele>500.02</ele>
        <time>2018-11-15T10:50:02Z</time>
      </trkpt>
      <trkpt lat="45.04905" lon="5.23286">
        <ele>504.35</ele>
        <time>2018-11-15T10:50:17Z</time>
      </trkpt>
      <trkpt lat="45.04904" lon="5.23285">
        <ele>499.54</ele>
        <time>2018-11-15T10:50:18Z</time>
      </trkpt>
      <trkpt lat="45.04904" lon="5.23284">
        <ele>503.39</ele>
        <time>2018-11-15T10:50:19Z</time>
      </trkpt>
      <trkpt lat="45.04903" lon="5.23284">
        <ele>498.1</ele>
        <time>2018-11-15T10:50:20Z</time>
      </trkpt>
      <trkpt lat="45.04902" lon="5.23283">
        <ele>502.91</ele>
        <time>2018-11-15T10:50:21Z</time>
      </trkpt>
      <trkpt lat="45.04901" lon="5.23282">
        <ele>498.58</ele>
        <time>2018-11-15T10:50:22Z</time>
      </trkpt>
      <trkpt lat="45.04901" lon="5.23282">
        <ele>501.95</ele>
        <time>2018-11-15T10:50:23Z</time>
      </trkpt>
      <trkpt lat="45.04902" lon="5.23282">
        <ele>501.95</ele>
        <time>2018-11-15T10:50:39Z</time>
      </trkpt>
      <trkpt lat="45.04902" lon="5.23281">
        <ele>501.95</ele>
        <time>2018-11-15T10:50:58Z</time>
      </trkpt>
      <trkpt lat="45.04903" lon="5.23281">
        <ele>501.95</ele>
        <time>2018-11-15T10:51:23Z</time>
      </trkpt>
      <trkpt lat="45.04904" lon="5.23279">
        <ele>501.95</ele>
        <time>2018-11-15T10:51:46Z</time>
      </trkpt>
      <trkpt lat="45.04904" lon="5.23279">
        <ele>501.95</ele>
        <time>2018-11-15T10:52:13Z</time>
      </trkpt>
      <trkpt lat="45.04904" lon="5.23278">
        <ele>501.46</ele>
        <time>2018-11-15T10:52:36Z</time>
      </trkpt>
      <trkpt lat="45.04903" lon="5.23282">
        <ele>503.87</ele>
        <time>2018-11-15T10:52:48Z</time>
      </trkpt>
      <trkpt lat="45.04901" lon="5.23282">
        <ele>499.54</ele>
        <time>2018-11-15T10:52:53Z</time>
      </trkpt>
      <trkpt lat="45.04901" lon="5.23282">
        <ele>504.35</ele>
        <time>2018-11-15T10:52:54Z</time>
      </trkpt>
      <trkpt lat="45.04895" lon="5.23284">
        <ele>508.67</ele>
        <time>2018-11-15T10:53:03Z</time>
      </trkpt>
      <trkpt lat="45.04894" lon="5.23284">
        <ele>502.91</ele>
        <time>2018-11-15T10:53:04Z</time>
      </trkpt>
      <trkpt lat="45.04894" lon="5.23284">
        <ele>506.27</ele>
        <time>2018-11-15T10:53:05Z</time>
      </trkpt>
      <trkpt lat="45.04893" lon="5.23284">
        <ele>502.43</ele>
        <time>2018-11-15T10:53:06Z</time>
      </trkpt>
      <trkpt lat="45.04892" lon="5.23284">
        <ele>506.75</ele>
        <time>2018-11-15T10:53:07Z</time>
      </trkpt>
      <trkpt lat="45.04891" lon="5.23284">
        <ele>510.12</ele>
        <time>2018-11-15T10:53:10Z</time>
      </trkpt>
      <trkpt lat="45.04891" lon="5.23284">
        <ele>504.83</ele>
        <time>2018-11-15T10:53:12Z</time>
      </trkpt>
      <trkpt lat="45.0489" lon="5.23284">
        <ele>508.19</ele>
        <time>2018-11-15T10:53:13Z</time>
      </trkpt>
      <trkpt lat="45.0489" lon="5.23284">
        <ele>504.35</ele>
        <time>2018-11-15T10:53:14Z</time>
      </trkpt>
      <trkpt lat="45.04889" lon="5.23284">
        <ele>507.71</ele>
        <time>2018-11-15T10:53:15Z</time>
      </trkpt>
      <trkpt lat="45.04886" lon="5.23285">
        <ele>511.08</ele>
        <time>2018-11-15T10:53:19Z</time>
      </trkpt>
      <trkpt lat="45.04885" lon="5.23284">
        <ele>504.83</ele>
        <time>2018-11-15T10:53:20Z</time>
      </trkpt>
      <trkpt lat="45.04885" lon="5.23284">
        <ele>509.64</ele>
        <time>2018-11-15T10:53:21Z</time>
      </trkpt>
      <trkpt lat="45.04883" lon="5.23285">
        <ele>505.79</ele>
        <time>2018-11-15T10:53:23Z</time>
      </trkpt>
      <trkpt lat="45.04882" lon="5.23285">
        <ele>508.19</ele>
        <time>2018-11-15T10:53:24Z</time>
      </trkpt>
      <trkpt lat="45.04879" lon="5.23285">
        <ele>511.56</ele>
        <time>2018-11-15T10:53:28Z</time>
      </trkpt>
      <trkpt lat="45.04878" lon="5.23285">
        <ele>507.71</ele>
        <time>2018-11-15T10:53:29Z</time>
      </trkpt>
      <trkpt lat="45.04876" lon="5.23285">
        <ele>510.6</ele>
        <time>2018-11-15T10:53:31Z</time>
      </trkpt>
      <trkpt lat="45.0487" lon="5.23288">
        <ele>507.23</ele>
        <time>2018-11-15T10:53:40Z</time>
      </trkpt>
      <trkpt lat="45.04869" lon="5.23289">
        <ele>512.04</ele>
        <time>2018-11-15T10:53:41Z</time>
      </trkpt>
      <trkpt lat="45.04869" lon="5.2329">
        <ele>507.23</ele>
        <time>2018-11-15T10:53:43Z</time>
      </trkpt>
      <trkpt lat="45.04868" lon="5.23291">
        <ele>512.04</ele>
        <time>2018-11-15T10:53:44Z</time>
      </trkpt>
      <trkpt lat="45.04865" lon="5.23295">
        <ele>508.67</ele>
        <time>2018-11-15T10:53:48Z</time>
      </trkpt>
      <trkpt lat="45.04864" lon="5.23295">
        <ele>512.52</ele>
        <time>2018-11-15T10:53:49Z</time>
      </trkpt>
      <trkpt lat="45.04863" lon="5.23295">
        <ele>511.08</ele>
        <time>2018-11-15T10:53:51Z</time>
      </trkpt>
      <trkpt lat="45.04856" lon="5.23297">
        <ele>510.12</ele>
        <time>2018-11-15T10:53:57Z</time>
      </trkpt>
      <trkpt lat="45.04854" lon="5.23298">
        <ele>513.96</ele>
        <time>2018-11-15T10:53:59Z</time>
      </trkpt>
      <trkpt lat="45.04852" lon="5.23299">
        <ele>511.08</ele>
        <time>2018-11-15T10:54:04Z</time>
      </trkpt>
      <trkpt lat="45.04847" lon="5.233">
        <ele>510.6</ele>
        <time>2018-11-15T10:54:08Z</time>
      </trkpt>
      <trkpt lat="45.04845" lon="5.233">
        <ele>513.96</ele>
        <time>2018-11-15T10:54:10Z</time>
      </trkpt>
      <trkpt lat="45.04845" lon="5.233">
        <ele>511.08</ele>
        <time>2018-11-15T10:54:11Z</time>
      </trkpt>
      <trkpt lat="45.04842" lon="5.23299">
        <ele>513.48</ele>
        <time>2018-11-15T10:54:14Z</time>
      </trkpt>
      <trkpt lat="45.04838" lon="5.233">
        <ele>510.12</ele>
        <time>2018-11-15T10:54:19Z</time>
      </trkpt>
      <trkpt lat="45.04837" lon="5.23301">
        <ele>513.48</ele>
        <time>2018-11-15T10:54:20Z</time>
      </trkpt>
      <trkpt lat="45.04832" lon="5.23301">
        <ele>513.96</ele>
        <time>2018-11-15T10:54:31Z</time>
      </trkpt>
      <trkpt lat="45.04827" lon="5.23299">
        <ele>515.4</ele>
        <time>2018-11-15T10:54:42Z</time>
      </trkpt>
      <trkpt lat="45.04826" lon="5.23297">
        <ele>510.12</ele>
        <time>2018-11-15T10:54:44Z</time>
      </trkpt>
      <trkpt lat="45.04825" lon="5.23296">
        <ele>514.44</ele>
        <time>2018-11-15T10:54:45Z</time>
      </trkpt>
      <trkpt lat="45.04819" lon="5.23295">
        <ele>514.92</ele>
        <time>2018-11-15T10:54:55Z</time>
      </trkpt>
      <trkpt lat="45.04818" lon="5.23294">
        <ele>514.44</ele>
        <time>2018-11-15T10:55:17Z</time>
      </trkpt>
      <trkpt lat="45.04819" lon="5.23293">
        <ele>514.44</ele>
        <time>2018-11-15T10:55:33Z</time>
      </trkpt>
      <trkpt lat="45.04822" lon="5.23295">
        <ele>513</ele>
        <time>2018-11-15T10:55:45Z</time>
      </trkpt>
      <trkpt lat="45.04832" lon="5.23296">
        <ele>514.44</ele>
        <time>2018-11-15T10:55:56Z</time>
      </trkpt>
      <trkpt lat="45.04847" lon="5.23294">
        <ele>512.52</ele>
        <time>2018-11-15T10:56:10Z</time>
      </trkpt>
      <trkpt lat="45.04859" lon="5.23291">
        <ele>512.04</ele>
        <time>2018-11-15T10:56:22Z</time>
      </trkpt>
      <trkpt lat="45.04867" lon="5.23287">
        <ele>512.52</ele>
        <time>2018-11-15T10:56:32Z</time>
      </trkpt>
      <trkpt lat="45.04875" lon="5.23283">
        <ele>511.56</ele>
        <time>2018-11-15T10:56:42Z</time>
      </trkpt>
      <trkpt lat="45.04883" lon="5.23286">
        <ele>508.19</ele>
        <time>2018-11-15T10:56:56Z</time>
      </trkpt>
      <trkpt lat="45.04892" lon="5.23283">
        <ele>505.79</ele>
        <time>2018-11-15T10:57:09Z</time>
      </trkpt>
      <trkpt lat="45.04899" lon="5.23282">
        <ele>502.91</ele>
        <time>2018-11-15T10:57:22Z</time>
      </trkpt>
      <trkpt lat="45.049" lon="5.23277">
        <ele>500.98</ele>
        <time>2018-11-15T10:57:27Z</time>
      </trkpt>
      <trkpt lat="45.049" lon="5.23276">
        <ele>505.31</ele>
        <time>2018-11-15T10:57:28Z</time>
      </trkpt>
      <trkpt lat="45.04899" lon="5.23275">
        <ele>503.39</ele>
        <time>2018-11-15T10:57:29Z</time>
      </trkpt>
      <trkpt lat="45.04899" lon="5.23275">
        <ele>500.02</ele>
        <time>2018-11-15T10:57:30Z</time>
      </trkpt>
      <trkpt lat="45.04899" lon="5.23274">
        <ele>504.35</ele>
        <time>2018-11-15T10:57:31Z</time>
      </trkpt>
      <trkpt lat="45.04898" lon="5.23274">
        <ele>507.23</ele>
        <time>2018-11-15T10:57:32Z</time>
      </trkpt>
      <trkpt lat="45.04897" lon="5.23274">
        <ele>498.58</ele>
        <time>2018-11-15T10:57:33Z</time>
      </trkpt>
      <trkpt lat="45.04896" lon="5.23273">
        <ele>499.54</ele>
        <time>2018-11-15T10:57:34Z</time>
      </trkpt>
      <trkpt lat="45.04895" lon="5.23272">
        <ele>504.35</ele>
        <time>2018-11-15T10:57:35Z</time>
      </trkpt>
      <trkpt lat="45.04895" lon="5.23271">
        <ele>507.23</ele>
        <time>2018-11-15T10:57:36Z</time>
      </trkpt>
      <trkpt lat="45.04895" lon="5.2327">
        <ele>502.91</ele>
        <time>2018-11-15T10:57:37Z</time>
      </trkpt>
      <trkpt lat="45.04893" lon="5.23267">
        <ele>503.87</ele>
        <time>2018-11-15T10:57:40Z</time>
      </trkpt>
      <trkpt lat="45.04892" lon="5.23264">
        <ele>504.35</ele>
        <time>2018-11-15T10:57:43Z</time>
      </trkpt>
      <trkpt lat="45.04891" lon="5.23262">
        <ele>500.02</ele>
        <time>2018-11-15T10:57:45Z</time>
      </trkpt>
      <trkpt lat="45.0489" lon="5.23261">
        <ele>505.79</ele>
        <time>2018-11-15T10:57:46Z</time>
      </trkpt>
      <trkpt lat="45.04888" lon="5.23253">
        <ele>502.91</ele>
        <time>2018-11-15T10:57:54Z</time>
      </trkpt>
      <trkpt lat="45.04887" lon="5.23252">
        <ele>506.75</ele>
        <time>2018-11-15T10:57:55Z</time>
      </trkpt>
      <trkpt lat="45.04881" lon="5.23243">
        <ele>505.31</ele>
        <time>2018-11-15T10:58:06Z</time>
      </trkpt>
      <trkpt lat="45.0488" lon="5.23242">
        <ele>508.67</ele>
        <time>2018-11-15T10:58:07Z</time>
      </trkpt>
      <trkpt lat="45.04877" lon="5.2324">
        <ele>511.56</ele>
        <time>2018-11-15T10:58:11Z</time>
      </trkpt>
      <trkpt lat="45.04877" lon="5.23239">
        <ele>503.39</ele>
        <time>2018-11-15T10:58:12Z</time>
      </trkpt>
      <trkpt lat="45.04876" lon="5.23238">
        <ele>509.16</ele>
        <time>2018-11-15T10:58:13Z</time>
      </trkpt>
      <trkpt lat="45.04875" lon="5.23237">
        <ele>506.27</ele>
        <time>2018-11-15T10:58:15Z</time>
      </trkpt>
      <trkpt lat="45.04872" lon="5.23233">
        <ele>506.27</ele>
        <time>2018-11-15T10:58:20Z</time>
      </trkpt>
      <trkpt lat="45.04871" lon="5.23232">
        <ele>509.64</ele>
        <time>2018-11-15T10:58:21Z</time>
      </trkpt>
      <trkpt lat="45.04868" lon="5.2323">
        <ele>512.52</ele>
        <time>2018-11-15T10:58:26Z</time>
      </trkpt>
      <trkpt lat="45.04867" lon="5.2323">
        <ele>506.75</ele>
        <time>2018-11-15T10:58:27Z</time>
      </trkpt>
      <trkpt lat="45.04866" lon="5.2323">
        <ele>510.6</ele>
        <time>2018-11-15T10:58:28Z</time>
      </trkpt>
      <trkpt lat="45.04865" lon="5.23229">
        <ele>506.75</ele>
        <time>2018-11-15T10:58:30Z</time>
      </trkpt>
      <trkpt lat="45.04864" lon="5.23228">
        <ele>511.56</ele>
        <time>2018-11-15T10:58:31Z</time>
      </trkpt>
      <trkpt lat="45.04861" lon="5.23227">
        <ele>507.71</ele>
        <time>2018-11-15T10:58:35Z</time>
      </trkpt>
      <trkpt lat="45.0486" lon="5.23226">
        <ele>512.52</ele>
        <time>2018-11-15T10:58:37Z</time>
      </trkpt>
      <trkpt lat="45.0486" lon="5.23226">
        <ele>506.27</ele>
        <time>2018-11-15T10:58:38Z</time>
      </trkpt>
      <trkpt lat="45.04859" lon="5.23225">
        <ele>511.56</ele>
        <time>2018-11-15T10:58:39Z</time>
      </trkpt>
      <trkpt lat="45.04855" lon="5.23218">
        <ele>512.52</ele>
        <time>2018-11-15T10:58:48Z</time>
      </trkpt>
      <trkpt lat="45.04853" lon="5.23217">
        <ele>508.67</ele>
        <time>2018-11-15T10:58:52Z</time>
      </trkpt>
      <trkpt lat="45.04852" lon="5.23216">
        <ele>513</ele>
        <time>2018-11-15T10:58:53Z</time>
      </trkpt>
      <trkpt lat="45.04851" lon="5.23215">
        <ele>507.23</ele>
        <time>2018-11-15T10:58:55Z</time>
      </trkpt>
      <trkpt lat="45.0485" lon="5.23215">
        <ele>513.48</ele>
        <time>2018-11-15T10:58:56Z</time>
      </trkpt>
      <trkpt lat="45.04847" lon="5.23211">
        <ele>510.6</ele>
        <time>2018-11-15T10:59:01Z</time>
      </trkpt>
      <trkpt lat="45.04846" lon="5.2321">
        <ele>514.44</ele>
        <time>2018-11-15T10:59:02Z</time>
      </trkpt>
      <trkpt lat="45.04842" lon="5.23206">
        <ele>510.12</ele>
        <time>2018-11-15T10:59:08Z</time>
      </trkpt>
      <trkpt lat="45.04841" lon="5.23206">
        <ele>514.44</ele>
        <time>2018-11-15T10:59:09Z</time>
      </trkpt>
      <trkpt lat="45.0484" lon="5.23204">
        <ele>510.12</ele>
        <time>2018-11-15T10:59:11Z</time>
      </trkpt>
      <trkpt lat="45.0484" lon="5.23204">
        <ele>512.04</ele>
        <time>2018-11-15T10:59:12Z</time>
      </trkpt>
      <trkpt lat="45.04839" lon="5.23203">
        <ele>515.88</ele>
        <time>2018-11-15T10:59:13Z</time>
      </trkpt>
      <trkpt lat="45.04839" lon="5.23202">
        <ele>513.96</ele>
        <time>2018-11-15T10:59:14Z</time>
      </trkpt>
      <trkpt lat="45.04838" lon="5.23201">
        <ele>517.33</ele>
        <time>2018-11-15T10:59:16Z</time>
      </trkpt>
      <trkpt lat="45.04838" lon="5.23201">
        <ele>512.04</ele>
        <time>2018-11-15T10:59:17Z</time>
      </trkpt>
      <trkpt lat="45.04837" lon="5.232">
        <ele>515.4</ele>
        <time>2018-11-15T10:59:18Z</time>
      </trkpt>
      <trkpt lat="45.0483" lon="5.23195">
        <ele>513</ele>
        <time>2018-11-15T10:59:28Z</time>
      </trkpt>
      <trkpt lat="45.04829" lon="5.23194">
        <ele>517.33</ele>
        <time>2018-11-15T10:59:29Z</time>
      </trkpt>
      <trkpt lat="45.04829" lon="5.23194">
        <ele>517.81</ele>
        <time>2018-11-15T10:59:30Z</time>
      </trkpt>
      <trkpt lat="45.04827" lon="5.23194">
        <ele>510.6</ele>
        <time>2018-11-15T10:59:33Z</time>
      </trkpt>
      <trkpt lat="45.04826" lon="5.23193">
        <ele>517.81</ele>
        <time>2018-11-15T10:59:34Z</time>
      </trkpt>
      <trkpt lat="45.04824" lon="5.23191">
        <ele>521.65</ele>
        <time>2018-11-15T10:59:37Z</time>
      </trkpt>
      <trkpt lat="45.04823" lon="5.23191">
        <ele>514.44</ele>
        <time>2018-11-15T10:59:38Z</time>
      </trkpt>
      <trkpt lat="45.04823" lon="5.2319">
        <ele>518.29</ele>
        <time>2018-11-15T10:59:39Z</time>
      </trkpt>
      <trkpt lat="45.0482" lon="5.23189">
        <ele>521.65</ele>
        <time>2018-11-15T10:59:43Z</time>
      </trkpt>
      <trkpt lat="45.0482" lon="5.23189">
        <ele>513.48</ele>
        <time>2018-11-15T10:59:44Z</time>
      </trkpt>
      <trkpt lat="45.04819" lon="5.23188">
        <ele>520.21</ele>
        <time>2018-11-15T10:59:45Z</time>
      </trkpt>
      <trkpt lat="45.04818" lon="5.23186">
        <ele>514.44</ele>
        <time>2018-11-15T10:59:47Z</time>
      </trkpt>
      <trkpt lat="45.04812" lon="5.23183">
        <ele>522.61</ele>
        <time>2018-11-15T10:59:55Z</time>
      </trkpt>
      <trkpt lat="45.04812" lon="5.23182">
        <ele>518.29</ele>
        <time>2018-11-15T10:59:56Z</time>
      </trkpt>
      <trkpt lat="45.0481" lon="5.23181">
        <ele>523.09</ele>
        <time>2018-11-15T10:59:58Z</time>
      </trkpt>
      <trkpt lat="45.04809" lon="5.2318">
        <ele>520.21</ele>
        <time>2018-11-15T11:00:00Z</time>
      </trkpt>
      <trkpt lat="45.04805" lon="5.23177">
        <ele>516.37</ele>
        <time>2018-11-15T11:00:05Z</time>
      </trkpt>
      <trkpt lat="45.04804" lon="5.23176">
        <ele>521.65</ele>
        <time>2018-11-15T11:00:06Z</time>
      </trkpt>
      <trkpt lat="45.04801" lon="5.23173">
        <ele>518.29</ele>
        <time>2018-11-15T11:00:11Z</time>
      </trkpt>
      <trkpt lat="45.048" lon="5.23172">
        <ele>522.13</ele>
        <time>2018-11-15T11:00:12Z</time>
      </trkpt>
      <trkpt lat="45.04797" lon="5.23169">
        <ele>518.77</ele>
        <time>2018-11-15T11:00:17Z</time>
      </trkpt>
      <trkpt lat="45.04796" lon="5.23169">
        <ele>522.61</ele>
        <time>2018-11-15T11:00:18Z</time>
      </trkpt>
      <trkpt lat="45.04796" lon="5.23168">
        <ele>525.5</ele>
        <time>2018-11-15T11:00:19Z</time>
      </trkpt>
      <trkpt lat="45.04795" lon="5.23168">
        <ele>520.69</ele>
        <time>2018-11-15T11:00:20Z</time>
      </trkpt>
      <trkpt lat="45.04793" lon="5.23168">
        <ele>523.58</ele>
        <time>2018-11-15T11:00:24Z</time>
      </trkpt>
      <trkpt lat="45.04787" lon="5.23165">
        <ele>520.69</ele>
        <time>2018-11-15T11:00:32Z</time>
      </trkpt>
      <trkpt lat="45.04786" lon="5.23165">
        <ele>524.06</ele>
        <time>2018-11-15T11:00:33Z</time>
      </trkpt>
      <trkpt lat="45.0478" lon="5.23162">
        <ele>520.69</ele>
        <time>2018-11-15T11:00:40Z</time>
      </trkpt>
      <trkpt lat="45.04779" lon="5.23162">
        <ele>524.54</ele>
        <time>2018-11-15T11:00:41Z</time>
      </trkpt>
      <trkpt lat="45.04776" lon="5.23159">
        <ele>521.17</ele>
        <time>2018-11-15T11:00:47Z</time>
      </trkpt>
      <trkpt lat="45.04775" lon="5.23158">
        <ele>526.46</ele>
        <time>2018-11-15T11:00:48Z</time>
      </trkpt>
      <trkpt lat="45.04772" lon="5.23156">
        <ele>523.09</ele>
        <time>2018-11-15T11:00:53Z</time>
      </trkpt>
      <trkpt lat="45.04771" lon="5.23155">
        <ele>526.46</ele>
        <time>2018-11-15T11:00:54Z</time>
      </trkpt>
      <trkpt lat="45.04768" lon="5.23152">
        <ele>529.82</ele>
        <time>2018-11-15T11:01:00Z</time>
      </trkpt>
      <trkpt lat="45.04767" lon="5.23151">
        <ele>524.54</ele>
        <time>2018-11-15T11:01:01Z</time>
      </trkpt>
      <trkpt lat="45.04766" lon="5.23151">
        <ele>527.9</ele>
        <time>2018-11-15T11:01:02Z</time>
      </trkpt>
      <trkpt lat="45.04762" lon="5.23149">
        <ele>523.09</ele>
        <time>2018-11-15T11:01:07Z</time>
      </trkpt>
      <trkpt lat="45.04761" lon="5.23149">
        <ele>528.38</ele>
        <time>2018-11-15T11:01:08Z</time>
      </trkpt>
      <trkpt lat="45.04757" lon="5.23144">
        <ele>528.86</ele>
        <time>2018-11-15T11:01:16Z</time>
      </trkpt>
      <trkpt lat="45.04753" lon="5.23142">
        <ele>531.75</ele>
        <time>2018-11-15T11:01:25Z</time>
      </trkpt>
      <trkpt lat="45.04752" lon="5.23142">
        <ele>531.75</ele>
        <time>2018-11-15T11:01:26Z</time>
      </trkpt>
      <trkpt lat="45.04752" lon="5.23141">
        <ele>527.9</ele>
        <time>2018-11-15T11:01:27Z</time>
      </trkpt>
      <trkpt lat="45.04749" lon="5.23139">
        <ele>533.19</ele>
        <time>2018-11-15T11:01:31Z</time>
      </trkpt>
      <trkpt lat="45.04748" lon="5.23138">
        <ele>527.9</ele>
        <time>2018-11-15T11:01:32Z</time>
      </trkpt>
      <trkpt lat="45.04746" lon="5.23135">
        <ele>532.71</ele>
        <time>2018-11-15T11:01:36Z</time>
      </trkpt>
      <trkpt lat="45.04746" lon="5.23135">
        <ele>527.42</ele>
        <time>2018-11-15T11:01:37Z</time>
      </trkpt>
      <trkpt lat="45.04744" lon="5.23133">
        <ele>531.27</ele>
        <time>2018-11-15T11:01:39Z</time>
      </trkpt>
      <trkpt lat="45.04741" lon="5.23131">
        <ele>527.9</ele>
        <time>2018-11-15T11:01:43Z</time>
      </trkpt>
      <trkpt lat="45.04741" lon="5.2313">
        <ele>531.27</ele>
        <time>2018-11-15T11:01:44Z</time>
      </trkpt>
      <trkpt lat="45.04736" lon="5.23124">
        <ele>529.82</ele>
        <time>2018-11-15T11:01:52Z</time>
      </trkpt>
      <trkpt lat="45.04735" lon="5.23124">
        <ele>533.19</ele>
        <time>2018-11-15T11:01:53Z</time>
      </trkpt>
      <trkpt lat="45.04733" lon="5.23121">
        <ele>528.38</ele>
        <time>2018-11-15T11:01:57Z</time>
      </trkpt>
      <trkpt lat="45.04732" lon="5.2312">
        <ele>533.67</ele>
        <time>2018-11-15T11:01:58Z</time>
      </trkpt>
      <trkpt lat="45.04728" lon="5.23118">
        <ele>530.3</ele>
        <time>2018-11-15T11:02:03Z</time>
      </trkpt>
      <trkpt lat="45.04728" lon="5.23117">
        <ele>534.63</ele>
        <time>2018-11-15T11:02:04Z</time>
      </trkpt>
      <trkpt lat="45.04725" lon="5.23114">
        <ele>537.99</ele>
        <time>2018-11-15T11:02:10Z</time>
      </trkpt>
      <trkpt lat="45.04724" lon="5.23114">
        <ele>532.23</ele>
        <time>2018-11-15T11:02:11Z</time>
      </trkpt>
      <trkpt lat="45.0472" lon="5.23111">
        <ele>534.63</ele>
        <time>2018-11-15T11:02:16Z</time>
      </trkpt>
      <trkpt lat="45.04715" lon="5.23105">
        <ele>531.27</ele>
        <time>2018-11-15T11:02:24Z</time>
      </trkpt>
      <trkpt lat="45.04714" lon="5.23104">
        <ele>536.55</ele>
        <time>2018-11-15T11:02:25Z</time>
      </trkpt>
      <trkpt lat="45.0471" lon="5.231">
        <ele>536.07</ele>
        <time>2018-11-15T11:02:34Z</time>
      </trkpt>
      <trkpt lat="45.04709" lon="5.23099">
        <ele>539.44</ele>
        <time>2018-11-15T11:02:36Z</time>
      </trkpt>
      <trkpt lat="45.04708" lon="5.23099">
        <ele>535.59</ele>
        <time>2018-11-15T11:02:37Z</time>
      </trkpt>
      <trkpt lat="45.04707" lon="5.23098">
        <ele>539.44</ele>
        <time>2018-11-15T11:02:39Z</time>
      </trkpt>
      <trkpt lat="45.04705" lon="5.23097">
        <ele>533.19</ele>
        <time>2018-11-15T11:02:42Z</time>
      </trkpt>
      <trkpt lat="45.04705" lon="5.23096">
        <ele>537.99</ele>
        <time>2018-11-15T11:02:43Z</time>
      </trkpt>
      <trkpt lat="45.04703" lon="5.23094">
        <ele>534.15</ele>
        <time>2018-11-15T11:02:47Z</time>
      </trkpt>
      <trkpt lat="45.04702" lon="5.23094">
        <ele>537.99</ele>
        <time>2018-11-15T11:02:48Z</time>
      </trkpt>
      <trkpt lat="45.04701" lon="5.23093">
        <ele>534.63</ele>
        <time>2018-11-15T11:02:50Z</time>
      </trkpt>
      <trkpt lat="45.04701" lon="5.23093">
        <ele>537.99</ele>
        <time>2018-11-15T11:02:51Z</time>
      </trkpt>
      <trkpt lat="45.04699" lon="5.23092">
        <ele>536.07</ele>
        <time>2018-11-15T11:03:04Z</time>
      </trkpt>
      <trkpt lat="45.04699" lon="5.23092">
        <ele>539.44</ele>
        <time>2018-11-15T11:03:05Z</time>
      </trkpt>
      <trkpt lat="45.04698" lon="5.23092">
        <ele>538.48</ele>
        <time>2018-11-15T11:03:18Z</time>
      </trkpt>
      <trkpt lat="45.04697" lon="5.23092">
        <ele>538.48</ele>
        <time>2018-11-15T11:03:40Z</time>
      </trkpt>
      <trkpt lat="45.04695" lon="5.23092">
        <ele>538.96</ele>
        <time>2018-11-15T11:04:03Z</time>
      </trkpt>
      <trkpt lat="45.04693" lon="5.23091">
        <ele>534.15</ele>
        <time>2018-11-15T11:04:07Z</time>
      </trkpt>
      <trkpt lat="45.04693" lon="5.23091">
        <ele>540.4</ele>
        <time>2018-11-15T11:04:08Z</time>
      </trkpt>
      <trkpt lat="45.04689" lon="5.23089">
        <ele>536.07</ele>
        <time>2018-11-15T11:04:16Z</time>
      </trkpt>
      <trkpt lat="45.04689" lon="5.23089">
        <ele>542.32</ele>
        <time>2018-11-15T11:04:17Z</time>
      </trkpt>
      <trkpt lat="45.04687" lon="5.23089">
        <ele>535.11</ele>
        <time>2018-11-15T11:04:19Z</time>
      </trkpt>
      <trkpt lat="45.04687" lon="5.23088">
        <ele>542.32</ele>
        <time>2018-11-15T11:04:20Z</time>
      </trkpt>
      <trkpt lat="45.04684" lon="5.23089">
        <ele>538.48</ele>
        <time>2018-11-15T11:04:34Z</time>
      </trkpt>
      <trkpt lat="45.04683" lon="5.23089">
        <ele>543.28</ele>
        <time>2018-11-15T11:04:35Z</time>
      </trkpt>
      <trkpt lat="45.04683" lon="5.23089">
        <ele>543.76</ele>
        <time>2018-11-15T11:04:36Z</time>
      </trkpt>
      <trkpt lat="45.04679" lon="5.23088">
        <ele>537.51</ele>
        <time>2018-11-15T11:04:42Z</time>
      </trkpt>
      <trkpt lat="45.04679" lon="5.23088">
        <ele>544.24</ele>
        <time>2018-11-15T11:04:43Z</time>
      </trkpt>
      <trkpt lat="45.04678" lon="5.23088">
        <ele>540.88</ele>
        <time>2018-11-15T11:04:45Z</time>
      </trkpt>
      <trkpt lat="45.04678" lon="5.23088">
        <ele>544.24</ele>
        <time>2018-11-15T11:04:46Z</time>
      </trkpt>
      <trkpt lat="45.04675" lon="5.23088">
        <ele>540.4</ele>
        <time>2018-11-15T11:04:50Z</time>
      </trkpt>
      <trkpt lat="45.04675" lon="5.23088">
        <ele>544.72</ele>
        <time>2018-11-15T11:04:51Z</time>
      </trkpt>
      <trkpt lat="45.04675" lon="5.23088">
        <ele>548.09</ele>
        <time>2018-11-15T11:04:54Z</time>
      </trkpt>
      <trkpt lat="45.04674" lon="5.23087">
        <ele>540.4</ele>
        <time>2018-11-15T11:04:55Z</time>
      </trkpt>
      <trkpt lat="45.04674" lon="5.23087">
        <ele>545.2</ele>
        <time>2018-11-15T11:04:56Z</time>
      </trkpt>
      <trkpt lat="45.04673" lon="5.23087">
        <ele>541.36</ele>
        <time>2018-11-15T11:04:58Z</time>
      </trkpt>
      <trkpt lat="45.04672" lon="5.23087">
        <ele>546.17</ele>
        <time>2018-11-15T11:04:59Z</time>
      </trkpt>
      <trkpt lat="45.04672" lon="5.23087">
        <ele>542.8</ele>
        <time>2018-11-15T11:05:00Z</time>
      </trkpt>
      <trkpt lat="45.04672" lon="5.23087">
        <ele>546.65</ele>
        <time>2018-11-15T11:05:01Z</time>
      </trkpt>
      <trkpt lat="45.04671" lon="5.23087">
        <ele>550.49</ele>
        <time>2018-11-15T11:05:04Z</time>
      </trkpt>
      <trkpt lat="45.04671" lon="5.23087">
        <ele>540.4</ele>
        <time>2018-11-15T11:05:05Z</time>
      </trkpt>
      <trkpt lat="45.04671" lon="5.23087">
        <ele>547.13</ele>
        <time>2018-11-15T11:05:06Z</time>
      </trkpt>
      <trkpt lat="45.04669" lon="5.23086">
        <ele>543.76</ele>
        <time>2018-11-15T11:05:10Z</time>
      </trkpt>
      <trkpt lat="45.04668" lon="5.23085">
        <ele>548.09</ele>
        <time>2018-11-15T11:05:11Z</time>
      </trkpt>
      <trkpt lat="45.04667" lon="5.23085">
        <ele>544.24</ele>
        <time>2018-11-15T11:05:15Z</time>
      </trkpt>
      <trkpt lat="45.04666" lon="5.23085">
        <ele>548.57</ele>
        <time>2018-11-15T11:05:16Z</time>
      </trkpt>
      <trkpt lat="45.04662" lon="5.23085">
        <ele>547.13</ele>
        <time>2018-11-15T11:05:26Z</time>
      </trkpt>
      <trkpt lat="45.04662" lon="5.23085">
        <ele>550.49</ele>
        <time>2018-11-15T11:05:27Z</time>
      </trkpt>
      <trkpt lat="45.04661" lon="5.23085">
        <ele>553.38</ele>
        <time>2018-11-15T11:05:28Z</time>
      </trkpt>
      <trkpt lat="45.0466" lon="5.23085">
        <ele>550.49</ele>
        <time>2018-11-15T11:05:29Z</time>
      </trkpt>
      <trkpt lat="45.04659" lon="5.23085">
        <ele>546.65</ele>
        <time>2018-11-15T11:05:31Z</time>
      </trkpt>
      <trkpt lat="45.04659" lon="5.23085">
        <ele>550.97</ele>
        <time>2018-11-15T11:05:32Z</time>
      </trkpt>
      <trkpt lat="45.04658" lon="5.23085">
        <ele>547.13</ele>
        <time>2018-11-15T11:05:36Z</time>
      </trkpt>
      <trkpt lat="45.04657" lon="5.23084">
        <ele>552.41</ele>
        <time>2018-11-15T11:05:38Z</time>
      </trkpt>
      <trkpt lat="45.04656" lon="5.23085">
        <ele>548.09</ele>
        <time>2018-11-15T11:05:40Z</time>
      </trkpt>
      <trkpt lat="45.04656" lon="5.23085">
        <ele>553.38</ele>
        <time>2018-11-15T11:05:41Z</time>
      </trkpt>
      <trkpt lat="45.04653" lon="5.23084">
        <ele>547.13</ele>
        <time>2018-11-15T11:05:49Z</time>
      </trkpt>
      <trkpt lat="45.04653" lon="5.23084">
        <ele>553.86</ele>
        <time>2018-11-15T11:05:50Z</time>
      </trkpt>
      <trkpt lat="45.04652" lon="5.23084">
        <ele>550.97</ele>
        <time>2018-11-15T11:05:53Z</time>
      </trkpt>
      <trkpt lat="45.04651" lon="5.23084">
        <ele>554.34</ele>
        <time>2018-11-15T11:05:55Z</time>
      </trkpt>
      <trkpt lat="45.04651" lon="5.23084">
        <ele>550.01</ele>
        <time>2018-11-15T11:05:56Z</time>
      </trkpt>
      <trkpt lat="45.04651" lon="5.23084">
        <ele>557.7</ele>
        <time>2018-11-15T11:05:57Z</time>
      </trkpt>
      <trkpt lat="45.0465" lon="5.23084">
        <ele>550.01</ele>
        <time>2018-11-15T11:05:58Z</time>
      </trkpt>
      <trkpt lat="45.04649" lon="5.23083">
        <ele>555.3</ele>
        <time>2018-11-15T11:05:59Z</time>
      </trkpt>
      <trkpt lat="45.04645" lon="5.23084">
        <ele>551.45</ele>
        <time>2018-11-15T11:06:06Z</time>
      </trkpt>
      <trkpt lat="45.04644" lon="5.23084">
        <ele>556.26</ele>
        <time>2018-11-15T11:06:07Z</time>
      </trkpt>
      <trkpt lat="45.04642" lon="5.23084">
        <ele>551.93</ele>
        <time>2018-11-15T11:06:10Z</time>
      </trkpt>
      <trkpt lat="45.04642" lon="5.23084">
        <ele>556.26</ele>
        <time>2018-11-15T11:06:11Z</time>
      </trkpt>
      <trkpt lat="45.04641" lon="5.23084">
        <ele>552.9</ele>
        <time>2018-11-15T11:06:13Z</time>
      </trkpt>
      <trkpt lat="45.04641" lon="5.23084">
        <ele>557.22</ele>
        <time>2018-11-15T11:06:16Z</time>
      </trkpt>
      <trkpt lat="45.04641" lon="5.23084">
        <ele>550.97</ele>
        <time>2018-11-15T11:06:17Z</time>
      </trkpt>
      <trkpt lat="45.04641" lon="5.23084">
        <ele>557.7</ele>
        <time>2018-11-15T11:06:18Z</time>
      </trkpt>
      <trkpt lat="45.04641" lon="5.23084">
        <ele>554.34</ele>
        <time>2018-11-15T11:06:19Z</time>
      </trkpt>
      <trkpt lat="45.0464" lon="5.23084">
        <ele>557.22</ele>
        <time>2018-11-15T11:06:21Z</time>
      </trkpt>
      <trkpt lat="45.04639" lon="5.23085">
        <ele>557.7</ele>
        <time>2018-11-15T11:06:22Z</time>
      </trkpt>
      <trkpt lat="45.04639" lon="5.23084">
        <ele>552.9</ele>
        <time>2018-11-15T11:06:24Z</time>
      </trkpt>
      <trkpt lat="45.04639" lon="5.23084">
        <ele>559.62</ele>
        <time>2018-11-15T11:06:25Z</time>
      </trkpt>
      <trkpt lat="45.04639" lon="5.23084">
        <ele>553.86</ele>
        <time>2018-11-15T11:06:27Z</time>
      </trkpt>
      <trkpt lat="45.04639" lon="5.23084">
        <ele>561.07</ele>
        <time>2018-11-15T11:06:28Z</time>
      </trkpt>
      <trkpt lat="45.04638" lon="5.23084">
        <ele>554.34</ele>
        <time>2018-11-15T11:06:29Z</time>
      </trkpt>
      <trkpt lat="45.04637" lon="5.23084">
        <ele>559.14</ele>
        <time>2018-11-15T11:06:30Z</time>
      </trkpt>
      <trkpt lat="45.04636" lon="5.23084">
        <ele>562.03</ele>
        <time>2018-11-15T11:06:33Z</time>
      </trkpt>
      <trkpt lat="45.04636" lon="5.23084">
        <ele>558.18</ele>
        <time>2018-11-15T11:06:34Z</time>
      </trkpt>
      <trkpt lat="45.04636" lon="5.23084">
        <ele>562.99</ele>
        <time>2018-11-15T11:06:35Z</time>
      </trkpt>
      <trkpt lat="45.04636" lon="5.23084">
        <ele>559.14</ele>
        <time>2018-11-15T11:06:36Z</time>
      </trkpt>
      <trkpt lat="45.04636" lon="5.23084">
        <ele>562.03</ele>
        <time>2018-11-15T11:06:37Z</time>
      </trkpt>
      <trkpt lat="45.04635" lon="5.23084">
        <ele>553.86</ele>
        <time>2018-11-15T11:06:38Z</time>
      </trkpt>
      <trkpt lat="45.04635" lon="5.23084">
        <ele>560.59</ele>
        <time>2018-11-15T11:06:39Z</time>
      </trkpt>
      <trkpt lat="45.04634" lon="5.23084">
        <ele>555.3</ele>
        <time>2018-11-15T11:06:40Z</time>
      </trkpt>
      <trkpt lat="45.04634" lon="5.23084">
        <ele>560.59</ele>
        <time>2018-11-15T11:06:41Z</time>
      </trkpt>
      <trkpt lat="45.04633" lon="5.23084">
        <ele>557.22</ele>
        <time>2018-11-15T11:06:45Z</time>
      </trkpt>
      <trkpt lat="45.04633" lon="5.23084">
        <ele>562.51</ele>
        <time>2018-11-15T11:06:46Z</time>
      </trkpt>
      <trkpt lat="45.04633" lon="5.23084">
        <ele>557.22</ele>
        <time>2018-11-15T11:06:47Z</time>
      </trkpt>
      <trkpt lat="45.04632" lon="5.23084">
        <ele>562.03</ele>
        <time>2018-11-15T11:06:48Z</time>
      </trkpt>
      <trkpt lat="45.04632" lon="5.23084">
        <ele>555.3</ele>
        <time>2018-11-15T11:06:49Z</time>
      </trkpt>
      <trkpt lat="45.04632" lon="5.23084">
        <ele>562.03</ele>
        <time>2018-11-15T11:06:50Z</time>
      </trkpt>
      <trkpt lat="45.04627" lon="5.23083">
        <ele>556.74</ele>
        <time>2018-11-15T11:06:56Z</time>
      </trkpt>
      <trkpt lat="45.04626" lon="5.23083">
        <ele>563.47</ele>
        <time>2018-11-15T11:06:57Z</time>
      </trkpt>
      <trkpt lat="45.04618" lon="5.23082">
        <ele>560.11</ele>
        <time>2018-11-15T11:07:10Z</time>
      </trkpt>
      <trkpt lat="45.04616" lon="5.23082">
        <ele>563.95</ele>
        <time>2018-11-15T11:07:11Z</time>
      </trkpt>
      <trkpt lat="45.04612" lon="5.23081">
        <ele>560.59</ele>
        <time>2018-11-15T11:07:15Z</time>
      </trkpt>
      <trkpt lat="45.04611" lon="5.2308">
        <ele>563.95</ele>
        <time>2018-11-15T11:07:16Z</time>
      </trkpt>
      <trkpt lat="45.0461" lon="5.2308">
        <ele>559.14</ele>
        <time>2018-11-15T11:07:17Z</time>
      </trkpt>
      <trkpt lat="45.04609" lon="5.23079">
        <ele>564.43</ele>
        <time>2018-11-15T11:07:18Z</time>
      </trkpt>
      <trkpt lat="45.04604" lon="5.2308">
        <ele>567.32</ele>
        <time>2018-11-15T11:07:23Z</time>
      </trkpt>
      <trkpt lat="45.04603" lon="5.23079">
        <ele>563.95</ele>
        <time>2018-11-15T11:07:24Z</time>
      </trkpt>
      <trkpt lat="45.04603" lon="5.2308">
        <ele>567.32</ele>
        <time>2018-11-15T11:07:25Z</time>
      </trkpt>
      <trkpt lat="45.04602" lon="5.2308">
        <ele>563.47</ele>
        <time>2018-11-15T11:07:28Z</time>
      </trkpt>
      <trkpt lat="45.04602" lon="5.2308">
        <ele>566.83</ele>
        <time>2018-11-15T11:07:29Z</time>
      </trkpt>
      <trkpt lat="45.04601" lon="5.2308">
        <ele>562.03</ele>
        <time>2018-11-15T11:07:30Z</time>
      </trkpt>
      <trkpt lat="45.04601" lon="5.2308">
        <ele>565.87</ele>
        <time>2018-11-15T11:07:31Z</time>
      </trkpt>
      <trkpt lat="45.04601" lon="5.2308">
        <ele>560.59</ele>
        <time>2018-11-15T11:07:32Z</time>
      </trkpt>
      <trkpt lat="45.04601" lon="5.2308">
        <ele>566.35</ele>
        <time>2018-11-15T11:07:33Z</time>
      </trkpt>
      <trkpt lat="45.04601" lon="5.23081">
        <ele>562.51</ele>
        <time>2018-11-15T11:07:38Z</time>
      </trkpt>
      <trkpt lat="45.04601" lon="5.2308">
        <ele>567.32</ele>
        <time>2018-11-15T11:07:39Z</time>
      </trkpt>
      <trkpt lat="45.046" lon="5.23081">
        <ele>562.99</ele>
        <time>2018-11-15T11:07:43Z</time>
      </trkpt>
      <trkpt lat="45.04599" lon="5.23082">
        <ele>567.32</ele>
        <time>2018-11-15T11:07:44Z</time>
      </trkpt>
      <trkpt lat="45.04599" lon="5.23082">
        <ele>563.47</ele>
        <time>2018-11-15T11:07:45Z</time>
      </trkpt>
      <trkpt lat="45.04599" lon="5.23082">
        <ele>567.8</ele>
        <time>2018-11-15T11:07:46Z</time>
      </trkpt>
      <trkpt lat="45.04598" lon="5.23083">
        <ele>564.91</ele>
        <time>2018-11-15T11:07:49Z</time>
      </trkpt>
      <trkpt lat="45.04598" lon="5.23083">
        <ele>568.28</ele>
        <time>2018-11-15T11:07:50Z</time>
      </trkpt>
      <trkpt lat="45.04598" lon="5.23083">
        <ele>562.99</ele>
        <time>2018-11-15T11:07:52Z</time>
      </trkpt>
      <trkpt lat="45.04596" lon="5.23083">
        <ele>571.16</ele>
        <time>2018-11-15T11:07:53Z</time>
      </trkpt>
      <trkpt lat="45.04596" lon="5.23084">
        <ele>565.39</ele>
        <time>2018-11-15T11:07:54Z</time>
      </trkpt>
      <trkpt lat="45.04596" lon="5.23084">
        <ele>569.24</ele>
        <time>2018-11-15T11:07:57Z</time>
      </trkpt>
      <trkpt lat="45.04594" lon="5.23085">
        <ele>560.59</ele>
        <time>2018-11-15T11:08:07Z</time>
      </trkpt>
      <trkpt lat="45.04594" lon="5.23085">
        <ele>561.07</ele>
        <time>2018-11-15T11:08:08Z</time>
      </trkpt>
      <trkpt lat="45.04594" lon="5.23085">
        <ele>570.2</ele>
        <time>2018-11-15T11:08:09Z</time>
      </trkpt>
      <trkpt lat="45.04594" lon="5.23085">
        <ele>576.45</ele>
        <time>2018-11-15T11:08:10Z</time>
      </trkpt>
      <trkpt lat="45.04594" lon="5.23085">
        <ele>571.16</ele>
        <time>2018-11-15T11:08:11Z</time>
      </trkpt>
      <trkpt lat="45.04594" lon="5.23085">
        <ele>570.2</ele>
        <time>2018-11-15T11:08:13Z</time>
      </trkpt>
      <trkpt lat="45.04592" lon="5.23088">
        <ele>566.35</ele>
        <time>2018-11-15T11:08:20Z</time>
      </trkpt>
      <trkpt lat="45.04592" lon="5.23089">
        <ele>575.01</ele>
        <time>2018-11-15T11:08:21Z</time>
      </trkpt>
      <trkpt lat="45.04592" lon="5.23089">
        <ele>564.43</ele>
        <time>2018-11-15T11:08:22Z</time>
      </trkpt>
      <trkpt lat="45.04592" lon="5.23089">
        <ele>564.91</ele>
        <time>2018-11-15T11:08:23Z</time>
      </trkpt>
      <trkpt lat="45.04592" lon="5.2309">
        <ele>573.08</ele>
        <time>2018-11-15T11:08:24Z</time>
      </trkpt>
      <trkpt lat="45.04591" lon="5.23091">
        <ele>569.72</ele>
        <time>2018-11-15T11:08:28Z</time>
      </trkpt>
      <trkpt lat="45.04591" lon="5.23091">
        <ele>573.08</ele>
        <time>2018-11-15T11:08:30Z</time>
      </trkpt>
      <trkpt lat="45.04591" lon="5.2309">
        <ele>569.24</ele>
        <time>2018-11-15T11:08:31Z</time>
      </trkpt>
      <trkpt lat="45.0459" lon="5.2309">
        <ele>569.24</ele>
        <time>2018-11-15T11:08:32Z</time>
      </trkpt>
      <trkpt lat="45.04589" lon="5.2309">
        <ele>572.6</ele>
        <time>2018-11-15T11:08:34Z</time>
      </trkpt>
      <trkpt lat="45.04587" lon="5.23091">
        <ele>567.8</ele>
        <time>2018-11-15T11:08:38Z</time>
      </trkpt>
      <trkpt lat="45.04586" lon="5.23092">
        <ele>572.6</ele>
        <time>2018-11-15T11:08:39Z</time>
      </trkpt>
      <trkpt lat="45.04586" lon="5.23092">
        <ele>567.8</ele>
        <time>2018-11-15T11:08:40Z</time>
      </trkpt>
      <trkpt lat="45.04586" lon="5.23092">
        <ele>573.56</ele>
        <time>2018-11-15T11:08:41Z</time>
      </trkpt>
      <trkpt lat="45.04583" lon="5.23093">
        <ele>568.28</ele>
        <time>2018-11-15T11:08:48Z</time>
      </trkpt>
      <trkpt lat="45.04583" lon="5.23093">
        <ele>574.53</ele>
        <time>2018-11-15T11:08:49Z</time>
      </trkpt>
      <trkpt lat="45.04577" lon="5.23095">
        <ele>569.24</ele>
        <time>2018-11-15T11:08:54Z</time>
      </trkpt>
      <trkpt lat="45.04577" lon="5.23095">
        <ele>575.97</ele>
        <time>2018-11-15T11:08:55Z</time>
      </trkpt>
      <trkpt lat="45.0457" lon="5.23098">
        <ele>572.6</ele>
        <time>2018-11-15T11:09:05Z</time>
      </trkpt>
      <trkpt lat="45.0457" lon="5.23098">
        <ele>579.81</ele>
        <time>2018-11-15T11:09:06Z</time>
      </trkpt>
      <trkpt lat="45.04569" lon="5.23098">
        <ele>572.6</ele>
        <time>2018-11-15T11:09:07Z</time>
      </trkpt>
      <trkpt lat="45.04569" lon="5.23098">
        <ele>579.81</ele>
        <time>2018-11-15T11:09:08Z</time>
      </trkpt>
      <trkpt lat="45.04569" lon="5.23098">
        <ele>575.01</ele>
        <time>2018-11-15T11:09:10Z</time>
      </trkpt>
      <trkpt lat="45.04569" lon="5.23098">
        <ele>576.45</ele>
        <time>2018-11-15T11:09:11Z</time>
      </trkpt>
      <trkpt lat="45.04569" lon="5.23098">
        <ele>581.25</ele>
        <time>2018-11-15T11:09:17Z</time>
      </trkpt>
      <trkpt lat="45.04569" lon="5.23098">
        <ele>574.04</ele>
        <time>2018-11-15T11:09:18Z</time>
      </trkpt>
      <trkpt lat="45.04568" lon="5.23099">
        <ele>579.33</ele>
        <time>2018-11-15T11:09:19Z</time>
      </trkpt>
      <trkpt lat="45.04567" lon="5.23099">
        <ele>575.49</ele>
        <time>2018-11-15T11:09:24Z</time>
      </trkpt>
      <trkpt lat="45.04567" lon="5.23099">
        <ele>580.29</ele>
        <time>2018-11-15T11:09:25Z</time>
      </trkpt>
      <trkpt lat="45.04567" lon="5.23099">
        <ele>575.97</ele>
        <time>2018-11-15T11:09:26Z</time>
      </trkpt>
      <trkpt lat="45.04566" lon="5.23099">
        <ele>579.33</ele>
        <time>2018-11-15T11:09:29Z</time>
      </trkpt>
      <trkpt lat="45.04566" lon="5.23099">
        <ele>574.04</ele>
        <time>2018-11-15T11:09:30Z</time>
      </trkpt>
      <trkpt lat="45.04566" lon="5.23099">
        <ele>579.33</ele>
        <time>2018-11-15T11:09:31Z</time>
      </trkpt>
      <trkpt lat="45.04565" lon="5.23099">
        <ele>574.53</ele>
        <time>2018-11-15T11:09:41Z</time>
      </trkpt>
      <trkpt lat="45.04565" lon="5.23099">
        <ele>581.73</ele>
        <time>2018-11-15T11:09:42Z</time>
      </trkpt>
      <trkpt lat="45.04564" lon="5.23099">
        <ele>577.41</ele>
        <time>2018-11-15T11:09:43Z</time>
      </trkpt>
      <trkpt lat="45.04564" lon="5.23099">
        <ele>581.25</ele>
        <time>2018-11-15T11:09:44Z</time>
      </trkpt>
      <trkpt lat="45.04564" lon="5.23099">
        <ele>576.93</ele>
        <time>2018-11-15T11:09:45Z</time>
      </trkpt>
      <trkpt lat="45.04564" lon="5.23099">
        <ele>582.22</ele>
        <time>2018-11-15T11:09:46Z</time>
      </trkpt>
      <trkpt lat="45.04563" lon="5.23099">
        <ele>578.37</ele>
        <time>2018-11-15T11:09:47Z</time>
      </trkpt>
      <trkpt lat="45.04562" lon="5.23099">
        <ele>581.73</ele>
        <time>2018-11-15T11:09:48Z</time>
      </trkpt>
      <trkpt lat="45.0456" lon="5.231">
        <ele>578.37</ele>
        <time>2018-11-15T11:09:50Z</time>
      </trkpt>
      <trkpt lat="45.0456" lon="5.23099">
        <ele>584.62</ele>
        <time>2018-11-15T11:09:51Z</time>
      </trkpt>
      <trkpt lat="45.0456" lon="5.23099">
        <ele>580.29</ele>
        <time>2018-11-15T11:09:52Z</time>
      </trkpt>
      <trkpt lat="45.04559" lon="5.23099">
        <ele>584.62</ele>
        <time>2018-11-15T11:09:55Z</time>
      </trkpt>
      <trkpt lat="45.04559" lon="5.23099">
        <ele>578.37</ele>
        <time>2018-11-15T11:09:56Z</time>
      </trkpt>
      <trkpt lat="45.04559" lon="5.23099">
        <ele>583.66</ele>
        <time>2018-11-15T11:09:57Z</time>
      </trkpt>
      <trkpt lat="45.04559" lon="5.23099">
        <ele>580.29</ele>
        <time>2018-11-15T11:10:00Z</time>
      </trkpt>
      <trkpt lat="45.04558" lon="5.23099">
        <ele>587.5</ele>
        <time>2018-11-15T11:10:02Z</time>
      </trkpt>
      <trkpt lat="45.04558" lon="5.23099">
        <ele>579.81</ele>
        <time>2018-11-15T11:10:03Z</time>
      </trkpt>
      <trkpt lat="45.04557" lon="5.23099">
        <ele>586.54</ele>
        <time>2018-11-15T11:10:04Z</time>
      </trkpt>
      <trkpt lat="45.04554" lon="5.231">
        <ele>578.85</ele>
        <time>2018-11-15T11:10:07Z</time>
      </trkpt>
      <trkpt lat="45.04553" lon="5.23099">
        <ele>586.06</ele>
        <time>2018-11-15T11:10:08Z</time>
      </trkpt>
      <trkpt lat="45.04551" lon="5.231">
        <ele>582.7</ele>
        <time>2018-11-15T11:10:14Z</time>
      </trkpt>
      <trkpt lat="45.04551" lon="5.231">
        <ele>588.95</ele>
        <time>2018-11-15T11:10:15Z</time>
      </trkpt>
      <trkpt lat="45.0455" lon="5.231">
        <ele>583.66</ele>
        <time>2018-11-15T11:10:16Z</time>
      </trkpt>
      <trkpt lat="45.0455" lon="5.231">
        <ele>588.95</ele>
        <time>2018-11-15T11:10:17Z</time>
      </trkpt>
      <trkpt lat="45.0455" lon="5.231">
        <ele>585.1</ele>
        <time>2018-11-15T11:10:18Z</time>
      </trkpt>
      <trkpt lat="45.0455" lon="5.231">
        <ele>588.46</ele>
        <time>2018-11-15T11:10:19Z</time>
      </trkpt>
      <trkpt lat="45.04548" lon="5.23099">
        <ele>582.7</ele>
        <time>2018-11-15T11:10:26Z</time>
      </trkpt>
      <trkpt lat="45.04547" lon="5.23099">
        <ele>587.5</ele>
        <time>2018-11-15T11:10:27Z</time>
      </trkpt>
      <trkpt lat="45.04547" lon="5.23099">
        <ele>583.66</ele>
        <time>2018-11-15T11:10:28Z</time>
      </trkpt>
      <trkpt lat="45.04547" lon="5.23099">
        <ele>588.46</ele>
        <time>2018-11-15T11:10:29Z</time>
      </trkpt>
      <trkpt lat="45.04546" lon="5.23099">
        <ele>583.66</ele>
        <time>2018-11-15T11:10:30Z</time>
      </trkpt>
      <trkpt lat="45.04546" lon="5.23099">
        <ele>587.98</ele>
        <time>2018-11-15T11:10:31Z</time>
      </trkpt>
      <trkpt lat="45.04546" lon="5.23099">
        <ele>584.62</ele>
        <time>2018-11-15T11:10:32Z</time>
      </trkpt>
      <trkpt lat="45.04546" lon="5.23099">
        <ele>588.95</ele>
        <time>2018-11-15T11:10:33Z</time>
      </trkpt>
      <trkpt lat="45.04545" lon="5.23099">
        <ele>585.1</ele>
        <time>2018-11-15T11:10:34Z</time>
      </trkpt>
      <trkpt lat="45.04545" lon="5.23099">
        <ele>590.39</ele>
        <time>2018-11-15T11:10:35Z</time>
      </trkpt>
      <trkpt lat="45.04543" lon="5.23099">
        <ele>584.62</ele>
        <time>2018-11-15T11:10:40Z</time>
      </trkpt>
      <trkpt lat="45.04543" lon="5.23099">
        <ele>589.43</ele>
        <time>2018-11-15T11:10:41Z</time>
      </trkpt>
      <trkpt lat="45.04543" lon="5.23099">
        <ele>584.62</ele>
        <time>2018-11-15T11:10:42Z</time>
      </trkpt>
      <trkpt lat="45.04542" lon="5.231">
        <ele>589.43</ele>
        <time>2018-11-15T11:10:43Z</time>
      </trkpt>
      <trkpt lat="45.04542" lon="5.231">
        <ele>584.14</ele>
        <time>2018-11-15T11:10:44Z</time>
      </trkpt>
      <trkpt lat="45.04541" lon="5.231">
        <ele>589.43</ele>
        <time>2018-11-15T11:10:45Z</time>
      </trkpt>
      <trkpt lat="45.04541" lon="5.231">
        <ele>586.06</ele>
        <time>2018-11-15T11:10:48Z</time>
      </trkpt>
      <trkpt lat="45.04541" lon="5.231">
        <ele>590.39</ele>
        <time>2018-11-15T11:10:49Z</time>
      </trkpt>
      <trkpt lat="45.04541" lon="5.231">
        <ele>587.02</ele>
        <time>2018-11-15T11:10:52Z</time>
      </trkpt>
      <trkpt lat="45.0454" lon="5.231">
        <ele>590.39</ele>
        <time>2018-11-15T11:10:53Z</time>
      </trkpt>
      <trkpt lat="45.04538" lon="5.231">
        <ele>585.1</ele>
        <time>2018-11-15T11:10:59Z</time>
      </trkpt>
      <trkpt lat="45.04538" lon="5.23099">
        <ele>595.67</ele>
        <time>2018-11-15T11:11:00Z</time>
      </trkpt>
      <trkpt lat="45.04537" lon="5.23099">
        <ele>590.87</ele>
        <time>2018-11-15T11:11:01Z</time>
      </trkpt>
      <trkpt lat="45.04536" lon="5.23098">
        <ele>594.71</ele>
        <time>2018-11-15T11:11:06Z</time>
      </trkpt>
      <trkpt lat="45.04536" lon="5.23098">
        <ele>588.95</ele>
        <time>2018-11-15T11:11:08Z</time>
      </trkpt>
      <trkpt lat="45.04536" lon="5.23097">
        <ele>593.27</ele>
        <time>2018-11-15T11:11:09Z</time>
      </trkpt>
      <trkpt lat="45.04535" lon="5.23097">
        <ele>588.46</ele>
        <time>2018-11-15T11:11:11Z</time>
      </trkpt>
      <trkpt lat="45.04535" lon="5.23096">
        <ele>591.83</ele>
        <time>2018-11-15T11:11:12Z</time>
      </trkpt>
      <trkpt lat="45.04532" lon="5.23096">
        <ele>595.67</ele>
        <time>2018-11-15T11:11:15Z</time>
      </trkpt>
      <trkpt lat="45.04532" lon="5.23096">
        <ele>590.39</ele>
        <time>2018-11-15T11:11:16Z</time>
      </trkpt>
      <trkpt lat="45.04532" lon="5.23096">
        <ele>594.71</ele>
        <time>2018-11-15T11:11:17Z</time>
      </trkpt>
      <trkpt lat="45.04528" lon="5.23095">
        <ele>598.08</ele>
        <time>2018-11-15T11:11:31Z</time>
      </trkpt>
      <trkpt lat="45.04528" lon="5.23095">
        <ele>595.19</ele>
        <time>2018-11-15T11:11:32Z</time>
      </trkpt>
      <trkpt lat="45.04526" lon="5.23094">
        <ele>590.87</ele>
        <time>2018-11-15T11:11:41Z</time>
      </trkpt>
      <trkpt lat="45.04525" lon="5.23094">
        <ele>596.15</ele>
        <time>2018-11-15T11:11:42Z</time>
      </trkpt>
      <trkpt lat="45.04525" lon="5.23094">
        <ele>599.52</ele>
        <time>2018-11-15T11:11:45Z</time>
      </trkpt>
      <trkpt lat="45.04524" lon="5.23094">
        <ele>593.75</ele>
        <time>2018-11-15T11:11:46Z</time>
      </trkpt>
      <trkpt lat="45.04524" lon="5.23093">
        <ele>598.08</ele>
        <time>2018-11-15T11:11:47Z</time>
      </trkpt>
      <trkpt lat="45.04524" lon="5.23093">
        <ele>595.19</ele>
        <time>2018-11-15T11:11:48Z</time>
      </trkpt>
      <trkpt lat="45.04524" lon="5.23093">
        <ele>598.56</ele>
        <time>2018-11-15T11:11:49Z</time>
      </trkpt>
      <trkpt lat="45.04524" lon="5.23093">
        <ele>592.31</ele>
        <time>2018-11-15T11:11:54Z</time>
      </trkpt>
      <trkpt lat="45.04524" lon="5.23093">
        <ele>601.92</ele>
        <time>2018-11-15T11:11:55Z</time>
      </trkpt>
      <trkpt lat="45.04524" lon="5.23093">
        <ele>596.64</ele>
        <time>2018-11-15T11:11:56Z</time>
      </trkpt>
      <trkpt lat="45.04523" lon="5.23093">
        <ele>600</ele>
        <time>2018-11-15T11:12:01Z</time>
      </trkpt>
      <trkpt lat="45.04523" lon="5.23093">
        <ele>595.67</ele>
        <time>2018-11-15T11:12:02Z</time>
      </trkpt>
      <trkpt lat="45.04523" lon="5.23093">
        <ele>600.96</ele>
        <time>2018-11-15T11:12:03Z</time>
      </trkpt>
      <trkpt lat="45.04522" lon="5.23093">
        <ele>597.12</ele>
        <time>2018-11-15T11:12:05Z</time>
      </trkpt>
      <trkpt lat="45.04522" lon="5.23093">
        <ele>600.96</ele>
        <time>2018-11-15T11:12:09Z</time>
      </trkpt>
      <trkpt lat="45.04522" lon="5.23093">
        <ele>606.73</ele>
        <time>2018-11-15T11:12:11Z</time>
      </trkpt>
      <trkpt lat="45.04522" lon="5.23093">
        <ele>599.04</ele>
        <time>2018-11-15T11:12:12Z</time>
      </trkpt>
      <trkpt lat="45.04522" lon="5.23093">
        <ele>601.92</ele>
        <time>2018-11-15T11:12:13Z</time>
      </trkpt>
      <trkpt lat="45.04519" lon="5.23095">
        <ele>601.92</ele>
        <time>2018-11-15T11:12:20Z</time>
      </trkpt>
      <trkpt lat="45.04518" lon="5.23095">
        <ele>596.64</ele>
        <time>2018-11-15T11:12:22Z</time>
      </trkpt>
      <trkpt lat="45.04518" lon="5.23095">
        <ele>601.92</ele>
        <time>2018-11-15T11:12:23Z</time>
      </trkpt>
      <trkpt lat="45.04518" lon="5.23095">
        <ele>597.12</ele>
        <time>2018-11-15T11:12:24Z</time>
      </trkpt>
      <trkpt lat="45.04518" lon="5.23095">
        <ele>604.33</ele>
        <time>2018-11-15T11:12:25Z</time>
      </trkpt>
      <trkpt lat="45.04518" lon="5.23095">
        <ele>597.12</ele>
        <time>2018-11-15T11:12:26Z</time>
      </trkpt>
      <trkpt lat="45.04518" lon="5.23095">
        <ele>604.81</ele>
        <time>2018-11-15T11:12:27Z</time>
      </trkpt>
      <trkpt lat="45.04517" lon="5.23095">
        <ele>599.52</ele>
        <time>2018-11-15T11:12:28Z</time>
      </trkpt>
      <trkpt lat="45.04516" lon="5.23095">
        <ele>602.88</ele>
        <time>2018-11-15T11:12:31Z</time>
      </trkpt>
      <trkpt lat="45.04515" lon="5.23095">
        <ele>600</ele>
        <time>2018-11-15T11:12:32Z</time>
      </trkpt>
      <trkpt lat="45.04515" lon="5.23095">
        <ele>604.81</ele>
        <time>2018-11-15T11:12:33Z</time>
      </trkpt>
      <trkpt lat="45.04515" lon="5.23095">
        <ele>599.52</ele>
        <time>2018-11-15T11:12:34Z</time>
      </trkpt>
      <trkpt lat="45.04515" lon="5.23096">
        <ele>604.81</ele>
        <time>2018-11-15T11:12:35Z</time>
      </trkpt>
      <trkpt lat="45.04514" lon="5.23096">
        <ele>601.44</ele>
        <time>2018-11-15T11:12:36Z</time>
      </trkpt>
      <trkpt lat="45.04514" lon="5.23096">
        <ele>605.29</ele>
        <time>2018-11-15T11:12:37Z</time>
      </trkpt>
      <trkpt lat="45.04514" lon="5.23096">
        <ele>599.04</ele>
        <time>2018-11-15T11:12:38Z</time>
      </trkpt>
      <trkpt lat="45.04514" lon="5.23096">
        <ele>608.65</ele>
        <time>2018-11-15T11:12:39Z</time>
      </trkpt>
      <trkpt lat="45.04514" lon="5.23096">
        <ele>602.4</ele>
        <time>2018-11-15T11:12:40Z</time>
      </trkpt>
      <trkpt lat="45.04514" lon="5.23096">
        <ele>606.25</ele>
        <time>2018-11-15T11:12:41Z</time>
      </trkpt>
      <trkpt lat="45.04513" lon="5.23096">
        <ele>599.52</ele>
        <time>2018-11-15T11:12:42Z</time>
      </trkpt>
      <trkpt lat="45.04513" lon="5.23096">
        <ele>605.29</ele>
        <time>2018-11-15T11:12:43Z</time>
      </trkpt>
      <trkpt lat="45.04513" lon="5.23096">
        <ele>608.17</ele>
        <time>2018-11-15T11:12:44Z</time>
      </trkpt>
      <trkpt lat="45.04513" lon="5.23096">
        <ele>604.33</ele>
        <time>2018-11-15T11:12:45Z</time>
      </trkpt>
      <trkpt lat="45.0451" lon="5.23095">
        <ele>599.04</ele>
        <time>2018-11-15T11:12:50Z</time>
      </trkpt>
      <trkpt lat="45.04509" lon="5.23095">
        <ele>605.77</ele>
        <time>2018-11-15T11:12:51Z</time>
      </trkpt>
      <trkpt lat="45.04506" lon="5.23094">
        <ele>601.44</ele>
        <time>2018-11-15T11:12:57Z</time>
      </trkpt>
      <trkpt lat="45.04504" lon="5.23093">
        <ele>611.06</ele>
        <time>2018-11-15T11:12:58Z</time>
      </trkpt>
      <trkpt lat="45.04503" lon="5.23093">
        <ele>605.77</ele>
        <time>2018-11-15T11:12:59Z</time>
      </trkpt>
      <trkpt lat="45.04503" lon="5.23093">
        <ele>610.57</ele>
        <time>2018-11-15T11:13:03Z</time>
      </trkpt>
      <trkpt lat="45.04503" lon="5.23093">
        <ele>607.21</ele>
        <time>2018-11-15T11:13:04Z</time>
      </trkpt>
      <trkpt lat="45.04501" lon="5.23092">
        <ele>604.33</ele>
        <time>2018-11-15T11:13:08Z</time>
      </trkpt>
      <trkpt lat="45.045" lon="5.23092">
        <ele>605.29</ele>
        <time>2018-11-15T11:13:09Z</time>
      </trkpt>
      <trkpt lat="45.045" lon="5.23093">
        <ele>608.65</ele>
        <time>2018-11-15T11:13:10Z</time>
      </trkpt>
      <trkpt lat="45.045" lon="5.23093">
        <ele>604.81</ele>
        <time>2018-11-15T11:13:11Z</time>
      </trkpt>
      <trkpt lat="45.045" lon="5.23093">
        <ele>611.54</ele>
        <time>2018-11-15T11:13:12Z</time>
      </trkpt>
      <trkpt lat="45.045" lon="5.23093">
        <ele>606.25</ele>
        <time>2018-11-15T11:13:13Z</time>
      </trkpt>
      <trkpt lat="45.04499" lon="5.23093">
        <ele>610.09</ele>
        <time>2018-11-15T11:13:16Z</time>
      </trkpt>
      <trkpt lat="45.04498" lon="5.23093">
        <ele>609.13</ele>
        <time>2018-11-15T11:13:17Z</time>
      </trkpt>
      <trkpt lat="45.04497" lon="5.23094">
        <ele>604.81</ele>
        <time>2018-11-15T11:13:20Z</time>
      </trkpt>
      <trkpt lat="45.04497" lon="5.23094">
        <ele>608.65</ele>
        <time>2018-11-15T11:13:21Z</time>
      </trkpt>
      <trkpt lat="45.04495" lon="5.23094">
        <ele>612.02</ele>
        <time>2018-11-15T11:13:29Z</time>
      </trkpt>
      <trkpt lat="45.04489" lon="5.23095">
        <ele>612.02</ele>
        <time>2018-11-15T11:13:43Z</time>
      </trkpt>
      <trkpt lat="45.04489" lon="5.23095">
        <ele>605.77</ele>
        <time>2018-11-15T11:13:44Z</time>
      </trkpt>
      <trkpt lat="45.04488" lon="5.23095">
        <ele>612.98</ele>
        <time>2018-11-15T11:13:45Z</time>
      </trkpt>
      <trkpt lat="45.04484" lon="5.23094">
        <ele>610.09</ele>
        <time>2018-11-15T11:13:51Z</time>
      </trkpt>
      <trkpt lat="45.04483" lon="5.23094">
        <ele>616.82</ele>
        <time>2018-11-15T11:13:52Z</time>
      </trkpt>
      <trkpt lat="45.04483" lon="5.23094">
        <ele>611.06</ele>
        <time>2018-11-15T11:13:53Z</time>
      </trkpt>
      <trkpt lat="45.04483" lon="5.23094">
        <ele>614.42</ele>
        <time>2018-11-15T11:13:54Z</time>
      </trkpt>
      <trkpt lat="45.04483" lon="5.23094">
        <ele>607.21</ele>
        <time>2018-11-15T11:13:55Z</time>
      </trkpt>
      <trkpt lat="45.04483" lon="5.23094">
        <ele>614.9</ele>
        <time>2018-11-15T11:13:56Z</time>
      </trkpt>
      <trkpt lat="45.04483" lon="5.23094">
        <ele>611.54</ele>
        <time>2018-11-15T11:13:57Z</time>
      </trkpt>
      <trkpt lat="45.04482" lon="5.23094">
        <ele>608.17</ele>
        <time>2018-11-15T11:13:59Z</time>
      </trkpt>
      <trkpt lat="45.04481" lon="5.23094">
        <ele>614.9</ele>
        <time>2018-11-15T11:14:00Z</time>
      </trkpt>
      <trkpt lat="45.04478" lon="5.23095">
        <ele>615.86</ele>
        <time>2018-11-15T11:14:14Z</time>
      </trkpt>
      <trkpt lat="45.04478" lon="5.23095">
        <ele>611.06</ele>
        <time>2018-11-15T11:14:18Z</time>
      </trkpt>
      <trkpt lat="45.04476" lon="5.23094">
        <ele>618.26</ele>
        <time>2018-11-15T11:14:19Z</time>
      </trkpt>
      <trkpt lat="45.04476" lon="5.23094">
        <ele>612.02</ele>
        <time>2018-11-15T11:14:20Z</time>
      </trkpt>
      <trkpt lat="45.04475" lon="5.23095">
        <ele>616.82</ele>
        <time>2018-11-15T11:14:21Z</time>
      </trkpt>
      <trkpt lat="45.04474" lon="5.23095">
        <ele>620.67</ele>
        <time>2018-11-15T11:14:23Z</time>
      </trkpt>
      <trkpt lat="45.04474" lon="5.23095">
        <ele>616.82</ele>
        <time>2018-11-15T11:14:24Z</time>
      </trkpt>
      <trkpt lat="45.04474" lon="5.23095">
        <ele>614.42</ele>
        <time>2018-11-15T11:14:26Z</time>
      </trkpt>
      <trkpt lat="45.04474" lon="5.23095">
        <ele>619.23</ele>
        <time>2018-11-15T11:14:27Z</time>
      </trkpt>
      <trkpt lat="45.04473" lon="5.23095">
        <ele>613.94</ele>
        <time>2018-11-15T11:14:28Z</time>
      </trkpt>
      <trkpt lat="45.04473" lon="5.23095">
        <ele>617.78</ele>
        <time>2018-11-15T11:14:29Z</time>
      </trkpt>
      <trkpt lat="45.04473" lon="5.23095">
        <ele>613.94</ele>
        <time>2018-11-15T11:14:30Z</time>
      </trkpt>
      <trkpt lat="45.04473" lon="5.23095">
        <ele>618.26</ele>
        <time>2018-11-15T11:14:31Z</time>
      </trkpt>
      <trkpt lat="45.04473" lon="5.23095">
        <ele>611.54</ele>
        <time>2018-11-15T11:14:32Z</time>
      </trkpt>
      <trkpt lat="45.04472" lon="5.23095">
        <ele>622.59</ele>
        <time>2018-11-15T11:14:33Z</time>
      </trkpt>
      <trkpt lat="45.04472" lon="5.23095">
        <ele>618.26</ele>
        <time>2018-11-15T11:14:34Z</time>
      </trkpt>
      <trkpt lat="45.04471" lon="5.23095">
        <ele>623.55</ele>
        <time>2018-11-15T11:14:41Z</time>
      </trkpt>
      <trkpt lat="45.04471" lon="5.23095">
        <ele>619.71</ele>
        <time>2018-11-15T11:14:42Z</time>
      </trkpt>
      <trkpt lat="45.04471" lon="5.23095">
        <ele>623.55</ele>
        <time>2018-11-15T11:14:45Z</time>
      </trkpt>
      <trkpt lat="45.04471" lon="5.23095">
        <ele>619.71</ele>
        <time>2018-11-15T11:14:46Z</time>
      </trkpt>
      <trkpt lat="45.04469" lon="5.23096">
        <ele>624.99</ele>
        <time>2018-11-15T11:14:57Z</time>
      </trkpt>
      <trkpt lat="45.04469" lon="5.23096">
        <ele>621.63</ele>
        <time>2018-11-15T11:14:58Z</time>
      </trkpt>
      <trkpt lat="45.04464" lon="5.23097">
        <ele>626.44</ele>
        <time>2018-11-15T11:15:13Z</time>
      </trkpt>
      <trkpt lat="45.04464" lon="5.23097">
        <ele>619.71</ele>
        <time>2018-11-15T11:15:14Z</time>
      </trkpt>
      <trkpt lat="45.04464" lon="5.23098">
        <ele>623.55</ele>
        <time>2018-11-15T11:15:15Z</time>
      </trkpt>
      <trkpt lat="45.04464" lon="5.23098">
        <ele>628.84</ele>
        <time>2018-11-15T11:15:19Z</time>
      </trkpt>
      <trkpt lat="45.04464" lon="5.23098">
        <ele>621.63</ele>
        <time>2018-11-15T11:15:20Z</time>
      </trkpt>
      <trkpt lat="45.04464" lon="5.23098">
        <ele>624.51</ele>
        <time>2018-11-15T11:15:21Z</time>
      </trkpt>
      <trkpt lat="45.04462" lon="5.23098">
        <ele>628.36</ele>
        <time>2018-11-15T11:15:28Z</time>
      </trkpt>
      <trkpt lat="45.04462" lon="5.23097">
        <ele>624.51</ele>
        <time>2018-11-15T11:15:29Z</time>
      </trkpt>
      <trkpt lat="45.04461" lon="5.23098">
        <ele>619.23</ele>
        <time>2018-11-15T11:15:32Z</time>
      </trkpt>
      <trkpt lat="45.0446" lon="5.23098">
        <ele>637.97</ele>
        <time>2018-11-15T11:15:33Z</time>
      </trkpt>
      <trkpt lat="45.0446" lon="5.23097">
        <ele>626.44</ele>
        <time>2018-11-15T11:15:34Z</time>
      </trkpt>
      <trkpt lat="45.04459" lon="5.23097">
        <ele>623.07</ele>
        <time>2018-11-15T11:15:35Z</time>
      </trkpt>
      <trkpt lat="45.04458" lon="5.23097">
        <ele>627.4</ele>
        <time>2018-11-15T11:15:36Z</time>
      </trkpt>
      <trkpt lat="45.04457" lon="5.23096">
        <ele>624.03</ele>
        <time>2018-11-15T11:15:39Z</time>
      </trkpt>
      <trkpt lat="45.04456" lon="5.23096">
        <ele>627.88</ele>
        <time>2018-11-15T11:15:40Z</time>
      </trkpt>
      <trkpt lat="45.04455" lon="5.23095">
        <ele>624.03</ele>
        <time>2018-11-15T11:15:41Z</time>
      </trkpt>
      <trkpt lat="45.04447" lon="5.23096">
        <ele>625.47</ele>
        <time>2018-11-15T11:15:53Z</time>
      </trkpt>
      <trkpt lat="45.04445" lon="5.23097">
        <ele>622.11</ele>
        <time>2018-11-15T11:16:02Z</time>
      </trkpt>
      <trkpt lat="45.04444" lon="5.23096">
        <ele>626.44</ele>
        <time>2018-11-15T11:16:03Z</time>
      </trkpt>
      <trkpt lat="45.04436" lon="5.2309">
        <ele>627.4</ele>
        <time>2018-11-15T11:16:11Z</time>
      </trkpt>
      <trkpt lat="45.04433" lon="5.23087">
        <ele>626.92</ele>
        <time>2018-11-15T11:16:22Z</time>
      </trkpt>
      <trkpt lat="45.04434" lon="5.23085">
        <ele>626.92</ele>
        <time>2018-11-15T11:16:39Z</time>
      </trkpt>
      <trkpt lat="45.04434" lon="5.23084">
        <ele>626.92</ele>
        <time>2018-11-15T11:17:06Z</time>
      </trkpt>
      <trkpt lat="45.04433" lon="5.23085">
        <ele>626.92</ele>
        <time>2018-11-15T11:17:29Z</time>
      </trkpt>
      <trkpt lat="45.04433" lon="5.23085">
        <ele>624.03</ele>
        <time>2018-11-15T11:17:31Z</time>
      </trkpt>
      <trkpt lat="45.04433" lon="5.23084">
        <ele>627.88</ele>
        <time>2018-11-15T11:17:32Z</time>
      </trkpt>
      <trkpt lat="45.04428" lon="5.23081">
        <ele>624.51</ele>
        <time>2018-11-15T11:17:36Z</time>
      </trkpt>
      <trkpt lat="45.04428" lon="5.23081">
        <ele>627.88</ele>
        <time>2018-11-15T11:17:37Z</time>
      </trkpt>
      <trkpt lat="45.04426" lon="5.23079">
        <ele>629.32</ele>
        <time>2018-11-15T11:17:39Z</time>
      </trkpt>
      <trkpt lat="45.04422" lon="5.23076">
        <ele>625.47</ele>
        <time>2018-11-15T11:17:45Z</time>
      </trkpt>
      <trkpt lat="45.04421" lon="5.23075">
        <ele>631.24</ele>
        <time>2018-11-15T11:17:47Z</time>
      </trkpt>
      <trkpt lat="45.04421" lon="5.23075">
        <ele>626.44</ele>
        <time>2018-11-15T11:17:48Z</time>
      </trkpt>
      <trkpt lat="45.04419" lon="5.23073">
        <ele>629.8</ele>
        <time>2018-11-15T11:17:50Z</time>
      </trkpt>
      <trkpt lat="45.04409" lon="5.23066">
        <ele>628.36</ele>
        <time>2018-11-15T11:18:01Z</time>
      </trkpt>
      <trkpt lat="45.04408" lon="5.23066">
        <ele>628.84</ele>
        <time>2018-11-15T11:18:02Z</time>
      </trkpt>
      <trkpt lat="45.04408" lon="5.23065">
        <ele>632.68</ele>
        <time>2018-11-15T11:18:03Z</time>
      </trkpt>
      <trkpt lat="45.04408" lon="5.23064">
        <ele>628.36</ele>
        <time>2018-11-15T11:18:04Z</time>
      </trkpt>
      <trkpt lat="45.04406" lon="5.23063">
        <ele>631.72</ele>
        <time>2018-11-15T11:18:06Z</time>
      </trkpt>
      <trkpt lat="45.044" lon="5.23058">
        <ele>635.57</ele>
        <time>2018-11-15T11:18:16Z</time>
      </trkpt>
      <trkpt lat="45.04399" lon="5.23058">
        <ele>628.36</ele>
        <time>2018-11-15T11:18:17Z</time>
      </trkpt>
      <trkpt lat="45.04395" lon="5.23055">
        <ele>629.32</ele>
        <time>2018-11-15T11:18:23Z</time>
      </trkpt>
      <trkpt lat="45.04391" lon="5.23052">
        <ele>628.84</ele>
        <time>2018-11-15T11:18:35Z</time>
      </trkpt>
      <trkpt lat="45.0439" lon="5.23052">
        <ele>633.17</ele>
        <time>2018-11-15T11:18:36Z</time>
      </trkpt>
      <trkpt lat="45.04388" lon="5.23051">
        <ele>631.24</ele>
        <time>2018-11-15T11:18:39Z</time>
      </trkpt>
      <trkpt lat="45.04387" lon="5.2305">
        <ele>632.68</ele>
        <time>2018-11-15T11:18:41Z</time>
      </trkpt>
      <trkpt lat="45.04385" lon="5.23049">
        <ele>633.17</ele>
        <time>2018-11-15T11:18:45Z</time>
      </trkpt>
      <trkpt lat="45.04382" lon="5.23049">
        <ele>631.24</ele>
        <time>2018-11-15T11:18:47Z</time>
      </trkpt>
      <trkpt lat="45.04381" lon="5.23048">
        <ele>634.13</ele>
        <time>2018-11-15T11:18:48Z</time>
      </trkpt>
      <trkpt lat="45.04379" lon="5.23047">
        <ele>630.28</ele>
        <time>2018-11-15T11:18:50Z</time>
      </trkpt>
      <trkpt lat="45.04379" lon="5.23046">
        <ele>632.2</ele>
        <time>2018-11-15T11:18:51Z</time>
      </trkpt>
      <trkpt lat="45.04376" lon="5.23044">
        <ele>636.53</ele>
        <time>2018-11-15T11:18:55Z</time>
      </trkpt>
      <trkpt lat="45.04376" lon="5.23044">
        <ele>632.68</ele>
        <time>2018-11-15T11:18:56Z</time>
      </trkpt>
      <trkpt lat="45.04374" lon="5.23043">
        <ele>632.68</ele>
        <time>2018-11-15T11:18:58Z</time>
      </trkpt>
      <trkpt lat="45.04373" lon="5.23043">
        <ele>637.97</ele>
        <time>2018-11-15T11:19:00Z</time>
      </trkpt>
      <trkpt lat="45.04372" lon="5.23043">
        <ele>634.13</ele>
        <time>2018-11-15T11:19:01Z</time>
      </trkpt>
      <trkpt lat="45.04369" lon="5.23041">
        <ele>638.45</ele>
        <time>2018-11-15T11:19:06Z</time>
      </trkpt>
      <trkpt lat="45.04369" lon="5.23041">
        <ele>633.65</ele>
        <time>2018-11-15T11:19:07Z</time>
      </trkpt>
      <trkpt lat="45.04365" lon="5.23039">
        <ele>638.45</ele>
        <time>2018-11-15T11:19:11Z</time>
      </trkpt>
      <trkpt lat="45.04364" lon="5.23038">
        <ele>632.68</ele>
        <time>2018-11-15T11:19:12Z</time>
      </trkpt>
      <trkpt lat="45.04364" lon="5.23038">
        <ele>636.53</ele>
        <time>2018-11-15T11:19:13Z</time>
      </trkpt>
      <trkpt lat="45.0436" lon="5.23038">
        <ele>634.13</ele>
        <time>2018-11-15T11:19:18Z</time>
      </trkpt>
      <trkpt lat="45.04354" lon="5.23035">
        <ele>638.93</ele>
        <time>2018-11-15T11:19:28Z</time>
      </trkpt>
      <trkpt lat="45.04353" lon="5.23035">
        <ele>634.13</ele>
        <time>2018-11-15T11:19:29Z</time>
      </trkpt>
      <trkpt lat="45.04352" lon="5.23034">
        <ele>637.97</ele>
        <time>2018-11-15T11:19:30Z</time>
      </trkpt>
      <trkpt lat="45.04348" lon="5.23032">
        <ele>641.82</ele>
        <time>2018-11-15T11:19:38Z</time>
      </trkpt>
      <trkpt lat="45.04347" lon="5.23032">
        <ele>636.05</ele>
        <time>2018-11-15T11:19:39Z</time>
      </trkpt>
      <trkpt lat="45.04347" lon="5.23032">
        <ele>639.41</ele>
        <time>2018-11-15T11:19:40Z</time>
      </trkpt>
      <trkpt lat="45.04346" lon="5.23032">
        <ele>635.57</ele>
        <time>2018-11-15T11:19:41Z</time>
      </trkpt>
      <trkpt lat="45.04345" lon="5.23032">
        <ele>639.41</ele>
        <time>2018-11-15T11:19:42Z</time>
      </trkpt>
      <trkpt lat="45.04344" lon="5.23032">
        <ele>636.05</ele>
        <time>2018-11-15T11:19:43Z</time>
      </trkpt>
      <trkpt lat="45.04343" lon="5.23032">
        <ele>639.41</ele>
        <time>2018-11-15T11:19:45Z</time>
      </trkpt>
      <trkpt lat="45.04342" lon="5.23032">
        <ele>637.49</ele>
        <time>2018-11-15T11:19:46Z</time>
      </trkpt>
      <trkpt lat="45.04339" lon="5.23032">
        <ele>641.34</ele>
        <time>2018-11-15T11:19:50Z</time>
      </trkpt>
      <trkpt lat="45.04339" lon="5.23031">
        <ele>639.89</ele>
        <time>2018-11-15T11:19:52Z</time>
      </trkpt>
      <trkpt lat="45.04337" lon="5.23029">
        <ele>636.05</ele>
        <time>2018-11-15T11:19:54Z</time>
      </trkpt>
      <trkpt lat="45.04337" lon="5.23029">
        <ele>640.38</ele>
        <time>2018-11-15T11:19:55Z</time>
      </trkpt>
      <trkpt lat="45.04331" lon="5.23027">
        <ele>641.34</ele>
        <time>2018-11-15T11:20:06Z</time>
      </trkpt>
      <trkpt lat="45.04323" lon="5.23026">
        <ele>643.26</ele>
        <time>2018-11-15T11:20:17Z</time>
      </trkpt>
      <trkpt lat="45.04322" lon="5.23026">
        <ele>639.41</ele>
        <time>2018-11-15T11:20:18Z</time>
      </trkpt>
      <trkpt lat="45.04321" lon="5.23026">
        <ele>642.78</ele>
        <time>2018-11-15T11:20:19Z</time>
      </trkpt>
      <trkpt lat="45.04319" lon="5.23027">
        <ele>639.41</ele>
        <time>2018-11-15T11:20:21Z</time>
      </trkpt>
      <trkpt lat="45.04318" lon="5.23027">
        <ele>643.26</ele>
        <time>2018-11-15T11:20:23Z</time>
      </trkpt>
      <trkpt lat="45.04316" lon="5.23026">
        <ele>639.41</ele>
        <time>2018-11-15T11:20:26Z</time>
      </trkpt>
      <trkpt lat="45.04315" lon="5.23026">
        <ele>642.78</ele>
        <time>2018-11-15T11:20:27Z</time>
      </trkpt>
      <trkpt lat="45.04312" lon="5.23027">
        <ele>639.41</ele>
        <time>2018-11-15T11:20:32Z</time>
      </trkpt>
      <trkpt lat="45.04311" lon="5.23027">
        <ele>643.26</ele>
        <time>2018-11-15T11:20:33Z</time>
      </trkpt>
      <trkpt lat="45.04304" lon="5.23029">
        <ele>644.7</ele>
        <time>2018-11-15T11:20:41Z</time>
      </trkpt>
      <trkpt lat="45.043" lon="5.2303">
        <ele>640.86</ele>
        <time>2018-11-15T11:20:46Z</time>
      </trkpt>
      <trkpt lat="45.043" lon="5.2303">
        <ele>645.18</ele>
        <time>2018-11-15T11:20:47Z</time>
      </trkpt>
      <trkpt lat="45.04298" lon="5.23031">
        <ele>641.82</ele>
        <time>2018-11-15T11:20:51Z</time>
      </trkpt>
      <trkpt lat="45.04297" lon="5.23031">
        <ele>644.7</ele>
        <time>2018-11-15T11:20:52Z</time>
      </trkpt>
      <trkpt lat="45.04296" lon="5.23032">
        <ele>642.3</ele>
        <time>2018-11-15T11:20:54Z</time>
      </trkpt>
      <trkpt lat="45.04292" lon="5.23033">
        <ele>642.3</ele>
        <time>2018-11-15T11:20:57Z</time>
      </trkpt>
      <trkpt lat="45.04291" lon="5.23034">
        <ele>645.66</ele>
        <time>2018-11-15T11:20:58Z</time>
      </trkpt>
      <trkpt lat="45.04283" lon="5.23038">
        <ele>647.1</ele>
        <time>2018-11-15T11:21:09Z</time>
      </trkpt>
      <trkpt lat="45.0428" lon="5.23039">
        <ele>645.18</ele>
        <time>2018-11-15T11:21:12Z</time>
      </trkpt>
      <trkpt lat="45.04274" lon="5.23042">
        <ele>651.43</ele>
        <time>2018-11-15T11:21:22Z</time>
      </trkpt>
      <trkpt lat="45.04274" lon="5.23042">
        <ele>648.07</ele>
        <time>2018-11-15T11:21:23Z</time>
      </trkpt>
      <trkpt lat="45.04272" lon="5.23044">
        <ele>645.66</ele>
        <time>2018-11-15T11:21:26Z</time>
      </trkpt>
      <trkpt lat="45.04271" lon="5.23045">
        <ele>649.03</ele>
        <time>2018-11-15T11:21:27Z</time>
      </trkpt>
      <trkpt lat="45.04271" lon="5.23045">
        <ele>647.59</ele>
        <time>2018-11-15T11:21:28Z</time>
      </trkpt>
      <trkpt lat="45.0427" lon="5.23046">
        <ele>650.95</ele>
        <time>2018-11-15T11:21:30Z</time>
      </trkpt>
      <trkpt lat="45.04269" lon="5.23047">
        <ele>648.07</ele>
        <time>2018-11-15T11:21:31Z</time>
      </trkpt>
      <trkpt lat="45.04267" lon="5.23049">
        <ele>650.95</ele>
        <time>2018-11-15T11:21:35Z</time>
      </trkpt>
      <trkpt lat="45.04267" lon="5.23049">
        <ele>647.59</ele>
        <time>2018-11-15T11:21:36Z</time>
      </trkpt>
      <trkpt lat="45.04265" lon="5.23051">
        <ele>650.47</ele>
        <time>2018-11-15T11:21:38Z</time>
      </trkpt>
      <trkpt lat="45.04261" lon="5.23054">
        <ele>650.47</ele>
        <time>2018-11-15T11:21:47Z</time>
      </trkpt>
      <trkpt lat="45.0426" lon="5.23055">
        <ele>646.62</ele>
        <time>2018-11-15T11:21:51Z</time>
      </trkpt>
      <trkpt lat="45.04259" lon="5.23055">
        <ele>651.43</ele>
        <time>2018-11-15T11:21:52Z</time>
      </trkpt>
      <trkpt lat="45.04256" lon="5.23057">
        <ele>647.59</ele>
        <time>2018-11-15T11:21:56Z</time>
      </trkpt>
      <trkpt lat="45.04256" lon="5.23057">
        <ele>652.39</ele>
        <time>2018-11-15T11:21:57Z</time>
      </trkpt>
      <trkpt lat="45.04254" lon="5.23058">
        <ele>648.55</ele>
        <time>2018-11-15T11:22:01Z</time>
      </trkpt>
      <trkpt lat="45.04252" lon="5.23059">
        <ele>653.83</ele>
        <time>2018-11-15T11:22:04Z</time>
      </trkpt>
      <trkpt lat="45.04248" lon="5.23061">
        <ele>649.03</ele>
        <time>2018-11-15T11:22:08Z</time>
      </trkpt>
      <trkpt lat="45.04248" lon="5.23062">
        <ele>652.87</ele>
        <time>2018-11-15T11:22:09Z</time>
      </trkpt>
      <trkpt lat="45.04244" lon="5.23064">
        <ele>649.03</ele>
        <time>2018-11-15T11:22:13Z</time>
      </trkpt>
      <trkpt lat="45.04243" lon="5.23065">
        <ele>653.83</ele>
        <time>2018-11-15T11:22:14Z</time>
      </trkpt>
      <trkpt lat="45.04239" lon="5.23066">
        <ele>649.51</ele>
        <time>2018-11-15T11:22:21Z</time>
      </trkpt>
      <trkpt lat="45.04238" lon="5.23067">
        <ele>654.31</ele>
        <time>2018-11-15T11:22:22Z</time>
      </trkpt>
      <trkpt lat="45.04236" lon="5.23068">
        <ele>650.47</ele>
        <time>2018-11-15T11:22:26Z</time>
      </trkpt>
      <trkpt lat="45.04234" lon="5.23069">
        <ele>655.28</ele>
        <time>2018-11-15T11:22:28Z</time>
      </trkpt>
      <trkpt lat="45.04233" lon="5.23069">
        <ele>653.35</ele>
        <time>2018-11-15T11:22:29Z</time>
      </trkpt>
      <trkpt lat="45.04232" lon="5.2307">
        <ele>656.72</ele>
        <time>2018-11-15T11:22:31Z</time>
      </trkpt>
      <trkpt lat="45.04231" lon="5.23071">
        <ele>650.47</ele>
        <time>2018-11-15T11:22:32Z</time>
      </trkpt>
      <trkpt lat="45.0423" lon="5.23072">
        <ele>655.76</ele>
        <time>2018-11-15T11:22:33Z</time>
      </trkpt>
      <trkpt lat="45.04229" lon="5.23072">
        <ele>652.39</ele>
        <time>2018-11-15T11:22:35Z</time>
      </trkpt>
      <trkpt lat="45.04229" lon="5.23072">
        <ele>655.76</ele>
        <time>2018-11-15T11:22:36Z</time>
      </trkpt>
      <trkpt lat="45.04223" lon="5.23074">
        <ele>652.39</ele>
        <time>2018-11-15T11:22:43Z</time>
      </trkpt>
      <trkpt lat="45.04222" lon="5.23074">
        <ele>656.72</ele>
        <time>2018-11-15T11:22:44Z</time>
      </trkpt>
      <trkpt lat="45.04221" lon="5.23075">
        <ele>652.87</ele>
        <time>2018-11-15T11:22:46Z</time>
      </trkpt>
      <trkpt lat="45.04221" lon="5.23075">
        <ele>656.72</ele>
        <time>2018-11-15T11:22:47Z</time>
      </trkpt>
      <trkpt lat="45.04216" lon="5.23079">
        <ele>657.68</ele>
        <time>2018-11-15T11:22:58Z</time>
      </trkpt>
      <trkpt lat="45.04207" lon="5.23081">
        <ele>656.72</ele>
        <time>2018-11-15T11:23:09Z</time>
      </trkpt>
      <trkpt lat="45.04201" lon="5.23083">
        <ele>659.12</ele>
        <time>2018-11-15T11:23:17Z</time>
      </trkpt>
      <trkpt lat="45.04196" lon="5.23084">
        <ele>662.01</ele>
        <time>2018-11-15T11:23:28Z</time>
      </trkpt>
      <trkpt lat="45.04195" lon="5.23085">
        <ele>657.2</ele>
        <time>2018-11-15T11:23:29Z</time>
      </trkpt>
      <trkpt lat="45.04194" lon="5.23085">
        <ele>660.56</ele>
        <time>2018-11-15T11:23:30Z</time>
      </trkpt>
      <trkpt lat="45.04182" lon="5.23092">
        <ele>662.49</ele>
        <time>2018-11-15T11:23:42Z</time>
      </trkpt>
      <trkpt lat="45.04181" lon="5.23093">
        <ele>665.85</ele>
        <time>2018-11-15T11:23:43Z</time>
      </trkpt>
      <trkpt lat="45.0418" lon="5.23093">
        <ele>662.97</ele>
        <time>2018-11-15T11:23:44Z</time>
      </trkpt>
      <trkpt lat="45.04179" lon="5.23093">
        <ele>659.6</ele>
        <time>2018-11-15T11:23:45Z</time>
      </trkpt>
      <trkpt lat="45.04179" lon="5.23093">
        <ele>662.49</ele>
        <time>2018-11-15T11:23:46Z</time>
      </trkpt>
      <trkpt lat="45.04171" lon="5.23095">
        <ele>664.89</ele>
        <time>2018-11-15T11:23:56Z</time>
      </trkpt>
      <trkpt lat="45.04169" lon="5.23095">
        <ele>662.49</ele>
        <time>2018-11-15T11:23:58Z</time>
      </trkpt>
      <trkpt lat="45.04168" lon="5.23096">
        <ele>664.41</ele>
        <time>2018-11-15T11:24:00Z</time>
      </trkpt>
      <trkpt lat="45.04166" lon="5.23097">
        <ele>663.45</ele>
        <time>2018-11-15T11:24:13Z</time>
      </trkpt>
      <trkpt lat="45.04163" lon="5.23098">
        <ele>660.08</ele>
        <time>2018-11-15T11:24:26Z</time>
      </trkpt>
      <trkpt lat="45.04161" lon="5.23098">
        <ele>665.37</ele>
        <time>2018-11-15T11:24:27Z</time>
      </trkpt>
      <trkpt lat="45.04156" lon="5.23098">
        <ele>661.04</ele>
        <time>2018-11-15T11:24:32Z</time>
      </trkpt>
      <trkpt lat="45.04156" lon="5.23099">
        <ele>665.37</ele>
        <time>2018-11-15T11:24:33Z</time>
      </trkpt>
      <trkpt lat="45.04148" lon="5.231">
        <ele>662.01</ele>
        <time>2018-11-15T11:24:40Z</time>
      </trkpt>
      <trkpt lat="45.04148" lon="5.231">
        <ele>666.33</ele>
        <time>2018-11-15T11:24:41Z</time>
      </trkpt>
      <trkpt lat="45.04148" lon="5.231">
        <ele>669.7</ele>
        <time>2018-11-15T11:24:42Z</time>
      </trkpt>
      <trkpt lat="45.04147" lon="5.231">
        <ele>663.93</ele>
        <time>2018-11-15T11:24:43Z</time>
      </trkpt>
      <trkpt lat="45.04146" lon="5.231">
        <ele>667.77</ele>
        <time>2018-11-15T11:24:44Z</time>
      </trkpt>
      <trkpt lat="45.04141" lon="5.231">
        <ele>663.45</ele>
        <time>2018-11-15T11:24:51Z</time>
      </trkpt>
      <trkpt lat="45.0414" lon="5.231">
        <ele>667.77</ele>
        <time>2018-11-15T11:24:52Z</time>
      </trkpt>
      <trkpt lat="45.04135" lon="5.231">
        <ele>671.62</ele>
        <time>2018-11-15T11:24:59Z</time>
      </trkpt>
      <trkpt lat="45.04135" lon="5.231">
        <ele>666.81</ele>
        <time>2018-11-15T11:25:00Z</time>
      </trkpt>
      <trkpt lat="45.04132" lon="5.23102">
        <ele>670.66</ele>
        <time>2018-11-15T11:25:04Z</time>
      </trkpt>
      <trkpt lat="45.04131" lon="5.23102">
        <ele>665.85</ele>
        <time>2018-11-15T11:25:05Z</time>
      </trkpt>
      <trkpt lat="45.04131" lon="5.23102">
        <ele>669.22</ele>
        <time>2018-11-15T11:25:06Z</time>
      </trkpt>
      <trkpt lat="45.04127" lon="5.23103">
        <ele>669.22</ele>
        <time>2018-11-15T11:25:11Z</time>
      </trkpt>
      <trkpt lat="45.04125" lon="5.23103">
        <ele>668.73</ele>
        <time>2018-11-15T11:25:15Z</time>
      </trkpt>
      <trkpt lat="45.04117" lon="5.23105">
        <ele>666.81</ele>
        <time>2018-11-15T11:25:20Z</time>
      </trkpt>
      <trkpt lat="45.04116" lon="5.23105">
        <ele>670.18</ele>
        <time>2018-11-15T11:25:21Z</time>
      </trkpt>
      <trkpt lat="45.04105" lon="5.23107">
        <ele>673.06</ele>
        <time>2018-11-15T11:25:32Z</time>
      </trkpt>
      <trkpt lat="45.04104" lon="5.23107">
        <ele>669.22</ele>
        <time>2018-11-15T11:25:33Z</time>
      </trkpt>
      <trkpt lat="45.04101" lon="5.23108">
        <ele>674.02</ele>
        <time>2018-11-15T11:25:37Z</time>
      </trkpt>
      <trkpt lat="45.04101" lon="5.23108">
        <ele>674.02</ele>
        <time>2018-11-15T11:25:38Z</time>
      </trkpt>
      <trkpt lat="45.041" lon="5.23108">
        <ele>668.73</ele>
        <time>2018-11-15T11:25:39Z</time>
      </trkpt>
      <trkpt lat="45.04099" lon="5.23108">
        <ele>672.58</ele>
        <time>2018-11-15T11:25:40Z</time>
      </trkpt>
      <trkpt lat="45.04097" lon="5.23108">
        <ele>669.7</ele>
        <time>2018-11-15T11:25:47Z</time>
      </trkpt>
      <trkpt lat="45.04097" lon="5.23108">
        <ele>673.06</ele>
        <time>2018-11-15T11:25:48Z</time>
      </trkpt>
      <trkpt lat="45.04096" lon="5.23109">
        <ele>674.5</ele>
        <time>2018-11-15T11:25:50Z</time>
      </trkpt>
      <trkpt lat="45.04096" lon="5.23109">
        <ele>673.54</ele>
        <time>2018-11-15T11:25:52Z</time>
      </trkpt>
      <trkpt lat="45.04086" lon="5.23114">
        <ele>673.54</ele>
        <time>2018-11-15T11:26:03Z</time>
      </trkpt>
      <trkpt lat="45.04078" lon="5.23114">
        <ele>676.91</ele>
        <time>2018-11-15T11:26:12Z</time>
      </trkpt>
      <trkpt lat="45.04077" lon="5.23114">
        <ele>673.54</ele>
        <time>2018-11-15T11:26:13Z</time>
      </trkpt>
      <trkpt lat="45.04073" lon="5.23113">
        <ele>677.87</ele>
        <time>2018-11-15T11:26:16Z</time>
      </trkpt>
      <trkpt lat="45.04073" lon="5.23113">
        <ele>672.58</ele>
        <time>2018-11-15T11:26:17Z</time>
      </trkpt>
      <trkpt lat="45.04072" lon="5.23112">
        <ele>675.94</ele>
        <time>2018-11-15T11:26:18Z</time>
      </trkpt>
      <trkpt lat="45.04066" lon="5.23112">
        <ele>672.58</ele>
        <time>2018-11-15T11:26:25Z</time>
      </trkpt>
      <trkpt lat="45.04065" lon="5.23111">
        <ele>672.58</ele>
        <time>2018-11-15T11:26:26Z</time>
      </trkpt>
      <trkpt lat="45.04064" lon="5.23111">
        <ele>676.91</ele>
        <time>2018-11-15T11:26:27Z</time>
      </trkpt>
      <trkpt lat="45.04063" lon="5.23111">
        <ele>673.54</ele>
        <time>2018-11-15T11:26:29Z</time>
      </trkpt>
      <trkpt lat="45.04062" lon="5.23111">
        <ele>677.39</ele>
        <time>2018-11-15T11:26:30Z</time>
      </trkpt>
      <trkpt lat="45.0406" lon="5.23111">
        <ele>674.02</ele>
        <time>2018-11-15T11:26:32Z</time>
      </trkpt>
      <trkpt lat="45.04054" lon="5.2311">
        <ele>673.54</ele>
        <time>2018-11-15T11:26:38Z</time>
      </trkpt>
      <trkpt lat="45.04053" lon="5.23109">
        <ele>677.39</ele>
        <time>2018-11-15T11:26:39Z</time>
      </trkpt>
      <trkpt lat="45.04046" lon="5.23108">
        <ele>674.5</ele>
        <time>2018-11-15T11:26:49Z</time>
      </trkpt>
      <trkpt lat="45.04046" lon="5.23108">
        <ele>678.83</ele>
        <time>2018-11-15T11:26:50Z</time>
      </trkpt>
      <trkpt lat="45.04042" lon="5.23105">
        <ele>675.46</ele>
        <time>2018-11-15T11:26:58Z</time>
      </trkpt>
      <trkpt lat="45.04041" lon="5.23105">
        <ele>679.31</ele>
        <time>2018-11-15T11:26:59Z</time>
      </trkpt>
      <trkpt lat="45.04032" lon="5.23101">
        <ele>681.23</ele>
        <time>2018-11-15T11:27:11Z</time>
      </trkpt>
      <trkpt lat="45.0403" lon="5.231">
        <ele>680.27</ele>
        <time>2018-11-15T11:27:14Z</time>
      </trkpt>
      <trkpt lat="45.04029" lon="5.23099">
        <ele>680.75</ele>
        <time>2018-11-15T11:27:16Z</time>
      </trkpt>
      <trkpt lat="45.04024" lon="5.23098">
        <ele>677.39</ele>
        <time>2018-11-15T11:27:25Z</time>
      </trkpt>
      <trkpt lat="45.04024" lon="5.23097">
        <ele>682.19</ele>
        <time>2018-11-15T11:27:26Z</time>
      </trkpt>
      <trkpt lat="45.04024" lon="5.23097">
        <ele>677.87</ele>
        <time>2018-11-15T11:27:28Z</time>
      </trkpt>
      <trkpt lat="45.04023" lon="5.23096">
        <ele>682.19</ele>
        <time>2018-11-15T11:27:29Z</time>
      </trkpt>
      <trkpt lat="45.04021" lon="5.23095">
        <ele>685.08</ele>
        <time>2018-11-15T11:27:31Z</time>
      </trkpt>
      <trkpt lat="45.0402" lon="5.23094">
        <ele>678.35</ele>
        <time>2018-11-15T11:27:32Z</time>
      </trkpt>
      <trkpt lat="45.0402" lon="5.23094">
        <ele>683.15</ele>
        <time>2018-11-15T11:27:33Z</time>
      </trkpt>
      <trkpt lat="45.04019" lon="5.23094">
        <ele>679.79</ele>
        <time>2018-11-15T11:27:35Z</time>
      </trkpt>
      <trkpt lat="45.04018" lon="5.23093">
        <ele>683.15</ele>
        <time>2018-11-15T11:27:36Z</time>
      </trkpt>
      <trkpt lat="45.04017" lon="5.23091">
        <ele>679.31</ele>
        <time>2018-11-15T11:27:38Z</time>
      </trkpt>
      <trkpt lat="45.04016" lon="5.23091">
        <ele>683.63</ele>
        <time>2018-11-15T11:27:39Z</time>
      </trkpt>
      <trkpt lat="45.04011" lon="5.23088">
        <ele>683.63</ele>
        <time>2018-11-15T11:27:45Z</time>
      </trkpt>
      <trkpt lat="45.04011" lon="5.23088">
        <ele>680.27</ele>
        <time>2018-11-15T11:27:47Z</time>
      </trkpt>
      <trkpt lat="45.0401" lon="5.23087">
        <ele>684.6</ele>
        <time>2018-11-15T11:27:48Z</time>
      </trkpt>
      <trkpt lat="45.04003" lon="5.23084">
        <ele>684.12</ele>
        <time>2018-11-15T11:27:57Z</time>
      </trkpt>
      <trkpt lat="45.03998" lon="5.23083">
        <ele>687.48</ele>
        <time>2018-11-15T11:28:01Z</time>
      </trkpt>
      <trkpt lat="45.03997" lon="5.23083">
        <ele>682.67</ele>
        <time>2018-11-15T11:28:02Z</time>
      </trkpt>
      <trkpt lat="45.03995" lon="5.23082">
        <ele>687.96</ele>
        <time>2018-11-15T11:28:04Z</time>
      </trkpt>
      <trkpt lat="45.03994" lon="5.23082">
        <ele>684.12</ele>
        <time>2018-11-15T11:28:05Z</time>
      </trkpt>
      <trkpt lat="45.03992" lon="5.23081">
        <ele>687</ele>
        <time>2018-11-15T11:28:08Z</time>
      </trkpt>
      <trkpt lat="45.0399" lon="5.23081">
        <ele>685.56</ele>
        <time>2018-11-15T11:28:10Z</time>
      </trkpt>
      <trkpt lat="45.03984" lon="5.23081">
        <ele>688.92</ele>
        <time>2018-11-15T11:28:17Z</time>
      </trkpt>
      <trkpt lat="45.03983" lon="5.23081">
        <ele>683.63</ele>
        <time>2018-11-15T11:28:18Z</time>
      </trkpt>
      <trkpt lat="45.03982" lon="5.2308">
        <ele>687.48</ele>
        <time>2018-11-15T11:28:19Z</time>
      </trkpt>
      <trkpt lat="45.03976" lon="5.23084">
        <ele>689.4</ele>
        <time>2018-11-15T11:28:30Z</time>
      </trkpt>
      <trkpt lat="45.03975" lon="5.23084">
        <ele>686.04</ele>
        <time>2018-11-15T11:28:31Z</time>
      </trkpt>
      <trkpt lat="45.03972" lon="5.23087">
        <ele>689.88</ele>
        <time>2018-11-15T11:28:34Z</time>
      </trkpt>
      <trkpt lat="45.03972" lon="5.23087">
        <ele>686.04</ele>
        <time>2018-11-15T11:28:35Z</time>
      </trkpt>
      <trkpt lat="45.03971" lon="5.23087">
        <ele>688.92</ele>
        <time>2018-11-15T11:28:36Z</time>
      </trkpt>
      <trkpt lat="45.0397" lon="5.23087">
        <ele>684.6</ele>
        <time>2018-11-15T11:28:38Z</time>
      </trkpt>
      <trkpt lat="45.03969" lon="5.23087">
        <ele>688.92</ele>
        <time>2018-11-15T11:28:39Z</time>
      </trkpt>
      <trkpt lat="45.03964" lon="5.2309">
        <ele>690.84</ele>
        <time>2018-11-15T11:28:44Z</time>
      </trkpt>
      <trkpt lat="45.03963" lon="5.23091">
        <ele>689.4</ele>
        <time>2018-11-15T11:28:46Z</time>
      </trkpt>
      <trkpt lat="45.03963" lon="5.23091">
        <ele>690.36</ele>
        <time>2018-11-15T11:28:48Z</time>
      </trkpt>
      <trkpt lat="45.03963" lon="5.23091">
        <ele>682.67</ele>
        <time>2018-11-15T11:28:49Z</time>
      </trkpt>
      <trkpt lat="45.03963" lon="5.23091">
        <ele>692.77</ele>
        <time>2018-11-15T11:28:50Z</time>
      </trkpt>
      <trkpt lat="45.03962" lon="5.23092">
        <ele>687.96</ele>
        <time>2018-11-15T11:28:51Z</time>
      </trkpt>
      <trkpt lat="45.0396" lon="5.23092">
        <ele>692.77</ele>
        <time>2018-11-15T11:28:53Z</time>
      </trkpt>
      <trkpt lat="45.0396" lon="5.23093">
        <ele>687.96</ele>
        <time>2018-11-15T11:28:54Z</time>
      </trkpt>
      <trkpt lat="45.03959" lon="5.23093">
        <ele>690.84</ele>
        <time>2018-11-15T11:28:55Z</time>
      </trkpt>
      <trkpt lat="45.03956" lon="5.23094">
        <ele>688.92</ele>
        <time>2018-11-15T11:28:58Z</time>
      </trkpt>
      <trkpt lat="45.03955" lon="5.23095">
        <ele>692.29</ele>
        <time>2018-11-15T11:29:00Z</time>
      </trkpt>
      <trkpt lat="45.03954" lon="5.23095">
        <ele>689.4</ele>
        <time>2018-11-15T11:29:01Z</time>
      </trkpt>
      <trkpt lat="45.03948" lon="5.23098">
        <ele>692.77</ele>
        <time>2018-11-15T11:29:08Z</time>
      </trkpt>
      <trkpt lat="45.03946" lon="5.23099">
        <ele>691.33</ele>
        <time>2018-11-15T11:29:11Z</time>
      </trkpt>
      <trkpt lat="45.03941" lon="5.23104">
        <ele>691.33</ele>
        <time>2018-11-15T11:29:20Z</time>
      </trkpt>
      <trkpt lat="45.0394" lon="5.23105">
        <ele>694.21</ele>
        <time>2018-11-15T11:29:22Z</time>
      </trkpt>
      <trkpt lat="45.03939" lon="5.23105">
        <ele>690.36</ele>
        <time>2018-11-15T11:29:23Z</time>
      </trkpt>
      <trkpt lat="45.03939" lon="5.23105">
        <ele>693.73</ele>
        <time>2018-11-15T11:29:24Z</time>
      </trkpt>
      <trkpt lat="45.03937" lon="5.23106">
        <ele>690.84</ele>
        <time>2018-11-15T11:29:28Z</time>
      </trkpt>
      <trkpt lat="45.03936" lon="5.23106">
        <ele>695.17</ele>
        <time>2018-11-15T11:29:30Z</time>
      </trkpt>
      <trkpt lat="45.03935" lon="5.23106">
        <ele>691.33</ele>
        <time>2018-11-15T11:29:31Z</time>
      </trkpt>
      <trkpt lat="45.03934" lon="5.23107">
        <ele>696.13</ele>
        <time>2018-11-15T11:29:33Z</time>
      </trkpt>
      <trkpt lat="45.03933" lon="5.23107">
        <ele>689.88</ele>
        <time>2018-11-15T11:29:34Z</time>
      </trkpt>
      <trkpt lat="45.03932" lon="5.23107">
        <ele>694.21</ele>
        <time>2018-11-15T11:29:35Z</time>
      </trkpt>
      <trkpt lat="45.03929" lon="5.23108">
        <ele>689.4</ele>
        <time>2018-11-15T11:29:39Z</time>
      </trkpt>
      <trkpt lat="45.03928" lon="5.23109">
        <ele>694.69</ele>
        <time>2018-11-15T11:29:40Z</time>
      </trkpt>
      <trkpt lat="45.03922" lon="5.23112">
        <ele>694.21</ele>
        <time>2018-11-15T11:29:50Z</time>
      </trkpt>
      <trkpt lat="45.03918" lon="5.23113">
        <ele>694.21</ele>
        <time>2018-11-15T11:30:10Z</time>
      </trkpt>
      <trkpt lat="45.03918" lon="5.23113">
        <ele>694.21</ele>
        <time>2018-11-15T11:30:31Z</time>
      </trkpt>
      <trkpt lat="45.03918" lon="5.23113">
        <ele>690.36</ele>
        <time>2018-11-15T11:30:42Z</time>
      </trkpt>
      <trkpt lat="45.03918" lon="5.23113">
        <ele>695.17</ele>
        <time>2018-11-15T11:30:43Z</time>
      </trkpt>
      <trkpt lat="45.03918" lon="5.23113">
        <ele>698.53</ele>
        <time>2018-11-15T11:30:44Z</time>
      </trkpt>
      <trkpt lat="45.03918" lon="5.23113">
        <ele>692.77</ele>
        <time>2018-11-15T11:30:45Z</time>
      </trkpt>
      <trkpt lat="45.03918" lon="5.23114">
        <ele>696.61</ele>
        <time>2018-11-15T11:30:46Z</time>
      </trkpt>
      <trkpt lat="45.03918" lon="5.23115">
        <ele>692.29</ele>
        <time>2018-11-15T11:30:47Z</time>
      </trkpt>
      <trkpt lat="45.03919" lon="5.23116">
        <ele>695.65</ele>
        <time>2018-11-15T11:30:48Z</time>
      </trkpt>
      <trkpt lat="45.03919" lon="5.23119">
        <ele>694.69</ele>
        <time>2018-11-15T11:30:50Z</time>
      </trkpt>
      <trkpt lat="45.0392" lon="5.23128">
        <ele>694.21</ele>
        <time>2018-11-15T11:30:58Z</time>
      </trkpt>
      <trkpt lat="45.0392" lon="5.23129">
        <ele>698.53</ele>
        <time>2018-11-15T11:30:59Z</time>
      </trkpt>
      <trkpt lat="45.03919" lon="5.23134">
        <ele>702.38</ele>
        <time>2018-11-15T11:31:05Z</time>
      </trkpt>
      <trkpt lat="45.03919" lon="5.23135">
        <ele>700.94</ele>
        <time>2018-11-15T11:31:06Z</time>
      </trkpt>
      <trkpt lat="45.03919" lon="5.23137">
        <ele>696.13</ele>
        <time>2018-11-15T11:31:09Z</time>
      </trkpt>
      <trkpt lat="45.0392" lon="5.23138">
        <ele>699.98</ele>
        <time>2018-11-15T11:31:10Z</time>
      </trkpt>
      <trkpt lat="45.0392" lon="5.23141">
        <ele>694.21</ele>
        <time>2018-11-15T11:31:14Z</time>
      </trkpt>
      <trkpt lat="45.0392" lon="5.23141">
        <ele>701.9</ele>
        <time>2018-11-15T11:31:15Z</time>
      </trkpt>
      <trkpt lat="45.0392" lon="5.23142">
        <ele>697.57</ele>
        <time>2018-11-15T11:31:16Z</time>
      </trkpt>
      <trkpt lat="45.0392" lon="5.23144">
        <ele>703.34</ele>
        <time>2018-11-15T11:31:18Z</time>
      </trkpt>
      <trkpt lat="45.03919" lon="5.23144">
        <ele>701.42</ele>
        <time>2018-11-15T11:31:19Z</time>
      </trkpt>
      <trkpt lat="45.03919" lon="5.23147">
        <ele>698.05</ele>
        <time>2018-11-15T11:31:22Z</time>
      </trkpt>
      <trkpt lat="45.03919" lon="5.23147">
        <ele>703.34</ele>
        <time>2018-11-15T11:31:23Z</time>
      </trkpt>
      <trkpt lat="45.0392" lon="5.23149">
        <ele>697.57</ele>
        <time>2018-11-15T11:31:26Z</time>
      </trkpt>
      <trkpt lat="45.03921" lon="5.23149">
        <ele>701.42</ele>
        <time>2018-11-15T11:31:27Z</time>
      </trkpt>
      <trkpt lat="45.0392" lon="5.23151">
        <ele>705.75</ele>
        <time>2018-11-15T11:31:32Z</time>
      </trkpt>
      <trkpt lat="45.0392" lon="5.23151">
        <ele>700.94</ele>
        <time>2018-11-15T11:31:33Z</time>
      </trkpt>
      <trkpt lat="45.0392" lon="5.23151">
        <ele>704.78</ele>
        <time>2018-11-15T11:31:34Z</time>
      </trkpt>
      <trkpt lat="45.0392" lon="5.23152">
        <ele>699.02</ele>
        <time>2018-11-15T11:31:35Z</time>
      </trkpt>
      <trkpt lat="45.0392" lon="5.23152">
        <ele>704.3</ele>
        <time>2018-11-15T11:31:36Z</time>
      </trkpt>
      <trkpt lat="45.03923" lon="5.23159">
        <ele>702.86</ele>
        <time>2018-11-15T11:31:46Z</time>
      </trkpt>
      <trkpt lat="45.03923" lon="5.2316">
        <ele>707.19</ele>
        <time>2018-11-15T11:31:47Z</time>
      </trkpt>
      <trkpt lat="45.03924" lon="5.2316">
        <ele>700.94</ele>
        <time>2018-11-15T11:31:48Z</time>
      </trkpt>
      <trkpt lat="45.03924" lon="5.23161">
        <ele>704.78</ele>
        <time>2018-11-15T11:31:49Z</time>
      </trkpt>
      <trkpt lat="45.03925" lon="5.23165">
        <ele>707.67</ele>
        <time>2018-11-15T11:31:55Z</time>
      </trkpt>
      <trkpt lat="45.03926" lon="5.23166">
        <ele>700.46</ele>
        <time>2018-11-15T11:31:56Z</time>
      </trkpt>
      <trkpt lat="45.03926" lon="5.23167">
        <ele>706.71</ele>
        <time>2018-11-15T11:31:57Z</time>
      </trkpt>
      <trkpt lat="45.03927" lon="5.23169">
        <ele>702.38</ele>
        <time>2018-11-15T11:31:59Z</time>
      </trkpt>
      <trkpt lat="45.03928" lon="5.23175">
        <ele>711.99</ele>
        <time>2018-11-15T11:32:06Z</time>
      </trkpt>
      <trkpt lat="45.03929" lon="5.23176">
        <ele>705.26</ele>
        <time>2018-11-15T11:32:07Z</time>
      </trkpt>
      <trkpt lat="45.03929" lon="5.23177">
        <ele>708.63</ele>
        <time>2018-11-15T11:32:08Z</time>
      </trkpt>
      <trkpt lat="45.0393" lon="5.23178">
        <ele>703.82</ele>
        <time>2018-11-15T11:32:09Z</time>
      </trkpt>
      <trkpt lat="45.03931" lon="5.23179">
        <ele>708.63</ele>
        <time>2018-11-15T11:32:10Z</time>
      </trkpt>
      <trkpt lat="45.03932" lon="5.2318">
        <ele>711.99</ele>
        <time>2018-11-15T11:32:11Z</time>
      </trkpt>
      <trkpt lat="45.03932" lon="5.23181">
        <ele>705.75</ele>
        <time>2018-11-15T11:32:12Z</time>
      </trkpt>
      <trkpt lat="45.03933" lon="5.23182">
        <ele>708.63</ele>
        <time>2018-11-15T11:32:13Z</time>
      </trkpt>
      <trkpt lat="45.03934" lon="5.23184">
        <ele>708.63</ele>
        <time>2018-11-15T11:32:17Z</time>
      </trkpt>
      <trkpt lat="45.03936" lon="5.23185">
        <ele>703.82</ele>
        <time>2018-11-15T11:32:20Z</time>
      </trkpt>
      <trkpt lat="45.03936" lon="5.23186">
        <ele>710.55</ele>
        <time>2018-11-15T11:32:21Z</time>
      </trkpt>
      <trkpt lat="45.03937" lon="5.2319">
        <ele>707.67</ele>
        <time>2018-11-15T11:32:25Z</time>
      </trkpt>
      <trkpt lat="45.03939" lon="5.23193">
        <ele>711.03</ele>
        <time>2018-11-15T11:32:29Z</time>
      </trkpt>
      <trkpt lat="45.03941" lon="5.23204">
        <ele>711.03</ele>
        <time>2018-11-15T11:32:41Z</time>
      </trkpt>
      <trkpt lat="45.03944" lon="5.23216">
        <ele>709.59</ele>
        <time>2018-11-15T11:32:52Z</time>
      </trkpt>
      <trkpt lat="45.03945" lon="5.23219">
        <ele>714.88</ele>
        <time>2018-11-15T11:32:54Z</time>
      </trkpt>
      <trkpt lat="45.03945" lon="5.23221">
        <ele>710.07</ele>
        <time>2018-11-15T11:32:55Z</time>
      </trkpt>
      <trkpt lat="45.03945" lon="5.23222">
        <ele>713.92</ele>
        <time>2018-11-15T11:32:57Z</time>
      </trkpt>
      <trkpt lat="45.03945" lon="5.23223">
        <ele>711.03</ele>
        <time>2018-11-15T11:32:58Z</time>
      </trkpt>
      <trkpt lat="45.03946" lon="5.23227">
        <ele>714.88</ele>
        <time>2018-11-15T11:33:02Z</time>
      </trkpt>
      <trkpt lat="45.03946" lon="5.23229">
        <ele>710.55</ele>
        <time>2018-11-15T11:33:04Z</time>
      </trkpt>
      <trkpt lat="45.03947" lon="5.2323">
        <ele>713.44</ele>
        <time>2018-11-15T11:33:05Z</time>
      </trkpt>
      <trkpt lat="45.03949" lon="5.23235">
        <ele>710.55</ele>
        <time>2018-11-15T11:33:12Z</time>
      </trkpt>
      <trkpt lat="45.0395" lon="5.23236">
        <ele>714.4</ele>
        <time>2018-11-15T11:33:13Z</time>
      </trkpt>
      <trkpt lat="45.03952" lon="5.23241">
        <ele>713.92</ele>
        <time>2018-11-15T11:33:23Z</time>
      </trkpt>
      <trkpt lat="45.03954" lon="5.23245">
        <ele>713.44</ele>
        <time>2018-11-15T11:33:34Z</time>
      </trkpt>
      <trkpt lat="45.03959" lon="5.23251">
        <ele>716.8</ele>
        <time>2018-11-15T11:33:44Z</time>
      </trkpt>
      <trkpt lat="45.03959" lon="5.23251">
        <ele>712.95</ele>
        <time>2018-11-15T11:33:45Z</time>
      </trkpt>
      <trkpt lat="45.03962" lon="5.23248">
        <ele>716.8</ele>
        <time>2018-11-15T11:33:51Z</time>
      </trkpt>
      <trkpt lat="45.03965" lon="5.23249">
        <ele>715.36</ele>
        <time>2018-11-15T11:34:00Z</time>
      </trkpt>
      <trkpt lat="45.03965" lon="5.2325">
        <ele>711.51</ele>
        <time>2018-11-15T11:34:03Z</time>
      </trkpt>
      <trkpt lat="45.03965" lon="5.2325">
        <ele>715.84</ele>
        <time>2018-11-15T11:34:04Z</time>
      </trkpt>
      <trkpt lat="45.03965" lon="5.2325">
        <ele>721.13</ele>
        <time>2018-11-15T11:34:07Z</time>
      </trkpt>
      <trkpt lat="45.03965" lon="5.2325">
        <ele>716.32</ele>
        <time>2018-11-15T11:34:08Z</time>
      </trkpt>
      <trkpt lat="45.03965" lon="5.2325">
        <ele>715.36</ele>
        <time>2018-11-15T11:34:27Z</time>
      </trkpt>
      <trkpt lat="45.03965" lon="5.2325">
        <ele>715.36</ele>
        <time>2018-11-15T11:34:45Z</time>
      </trkpt>
      <trkpt lat="45.03965" lon="5.23251">
        <ele>715.84</ele>
        <time>2018-11-15T11:35:05Z</time>
      </trkpt>
      <trkpt lat="45.03966" lon="5.23251">
        <ele>707.67</ele>
        <time>2018-11-15T11:35:24Z</time>
      </trkpt>
      <trkpt lat="45.03966" lon="5.23251">
        <ele>716.8</ele>
        <time>2018-11-15T11:35:25Z</time>
      </trkpt>
      <trkpt lat="45.03966" lon="5.23251">
        <ele>715.84</ele>
        <time>2018-11-15T11:35:26Z</time>
      </trkpt>
      <trkpt lat="45.03966" lon="5.2325">
        <ele>715.36</ele>
        <time>2018-11-15T11:35:42Z</time>
      </trkpt>
      <trkpt lat="45.03965" lon="5.23251">
        <ele>714.4</ele>
        <time>2018-11-15T11:35:53Z</time>
      </trkpt>
      <trkpt lat="45.03964" lon="5.23251">
        <ele>715.84</ele>
        <time>2018-11-15T11:35:55Z</time>
      </trkpt>
      <trkpt lat="45.03965" lon="5.23253">
        <ele>715.36</ele>
        <time>2018-11-15T11:36:12Z</time>
      </trkpt>
      <trkpt lat="45.03963" lon="5.23249">
        <ele>715.36</ele>
        <time>2018-11-15T11:36:31Z</time>
      </trkpt>
      <trkpt lat="45.03966" lon="5.23247">
        <ele>717.28</ele>
        <time>2018-11-15T11:36:47Z</time>
      </trkpt>
      <trkpt lat="45.03975" lon="5.23243">
        <ele>715.84</ele>
        <time>2018-11-15T11:37:01Z</time>
      </trkpt>
      <trkpt lat="45.03984" lon="5.23247">
        <ele>717.76</ele>
        <time>2018-11-15T11:37:12Z</time>
      </trkpt>
      <trkpt lat="45.03986" lon="5.23248">
        <ele>715.36</ele>
        <time>2018-11-15T11:37:14Z</time>
      </trkpt>
      <trkpt lat="45.03989" lon="5.23248">
        <ele>719.2</ele>
        <time>2018-11-15T11:37:17Z</time>
      </trkpt>
      <trkpt lat="45.03993" lon="5.23249">
        <ele>718.72</ele>
        <time>2018-11-15T11:37:21Z</time>
      </trkpt>
      <trkpt lat="45.03994" lon="5.23249">
        <ele>716.32</ele>
        <time>2018-11-15T11:37:22Z</time>
      </trkpt>
      <trkpt lat="45.03999" lon="5.23252">
        <ele>717.28</ele>
        <time>2018-11-15T11:37:26Z</time>
      </trkpt>
      <trkpt lat="45.04005" lon="5.23254">
        <ele>716.8</ele>
        <time>2018-11-15T11:37:31Z</time>
      </trkpt>
      <trkpt lat="45.04006" lon="5.23254">
        <ele>717.76</ele>
        <time>2018-11-15T11:37:32Z</time>
      </trkpt>
      <trkpt lat="45.04012" lon="5.23257">
        <ele>718.72</ele>
        <time>2018-11-15T11:37:37Z</time>
      </trkpt>
      <trkpt lat="45.04019" lon="5.23262">
        <ele>717.28</ele>
        <time>2018-11-15T11:37:45Z</time>
      </trkpt>
      <trkpt lat="45.04028" lon="5.23268">
        <ele>715.84</ele>
        <time>2018-11-15T11:37:54Z</time>
      </trkpt>
      <trkpt lat="45.04034" lon="5.2326">
        <ele>718.72</ele>
        <time>2018-11-15T11:38:03Z</time>
      </trkpt>
      <trkpt lat="45.04037" lon="5.23259">
        <ele>715.84</ele>
        <time>2018-11-15T11:38:08Z</time>
      </trkpt>
      <trkpt lat="45.04038" lon="5.23259">
        <ele>719.68</ele>
        <time>2018-11-15T11:38:09Z</time>
      </trkpt>
      <trkpt lat="45.0404" lon="5.23259">
        <ele>716.32</ele>
        <time>2018-11-15T11:38:12Z</time>
      </trkpt>
      <trkpt lat="45.0404" lon="5.23259">
        <ele>720.65</ele>
        <time>2018-11-15T11:38:13Z</time>
      </trkpt>
      <trkpt lat="45.04043" lon="5.23259">
        <ele>718.72</ele>
        <time>2018-11-15T11:38:16Z</time>
      </trkpt>
      <trkpt lat="45.0405" lon="5.23257">
        <ele>718.72</ele>
        <time>2018-11-15T11:38:26Z</time>
      </trkpt>
      <trkpt lat="45.04052" lon="5.23256">
        <ele>720.16</ele>
        <time>2018-11-15T11:38:28Z</time>
      </trkpt>
      <trkpt lat="45.0406" lon="5.23247">
        <ele>718.24</ele>
        <time>2018-11-15T11:38:39Z</time>
      </trkpt>
      <trkpt lat="45.0406" lon="5.23246">
        <ele>718.24</ele>
        <time>2018-11-15T11:38:40Z</time>
      </trkpt>
      <trkpt lat="45.04061" lon="5.23244">
        <ele>720.65</ele>
        <time>2018-11-15T11:38:42Z</time>
      </trkpt>
      <trkpt lat="45.04063" lon="5.23242">
        <ele>720.65</ele>
        <time>2018-11-15T11:38:58Z</time>
      </trkpt>
      <trkpt lat="45.04068" lon="5.23239">
        <ele>721.13</ele>
        <time>2018-11-15T11:39:10Z</time>
      </trkpt>
      <trkpt lat="45.04068" lon="5.23239">
        <ele>718.24</ele>
        <time>2018-11-15T11:39:14Z</time>
      </trkpt>
      <trkpt lat="45.04068" lon="5.23239">
        <ele>722.57</ele>
        <time>2018-11-15T11:39:15Z</time>
      </trkpt>
      <trkpt lat="45.04069" lon="5.23238">
        <ele>718.72</ele>
        <time>2018-11-15T11:39:17Z</time>
      </trkpt>
      <trkpt lat="45.0407" lon="5.23238">
        <ele>723.05</ele>
        <time>2018-11-15T11:39:18Z</time>
      </trkpt>
      <trkpt lat="45.04072" lon="5.23237">
        <ele>727.86</ele>
        <time>2018-11-15T11:39:23Z</time>
      </trkpt>
      <trkpt lat="45.04072" lon="5.23237">
        <ele>723.53</ele>
        <time>2018-11-15T11:39:24Z</time>
      </trkpt>
      <trkpt lat="45.04074" lon="5.23237">
        <ele>724.49</ele>
        <time>2018-11-15T11:39:34Z</time>
      </trkpt>
      <trkpt lat="45.04074" lon="5.23237">
        <ele>727.86</ele>
        <time>2018-11-15T11:39:40Z</time>
      </trkpt>
      <trkpt lat="45.04074" lon="5.23237">
        <ele>725.45</ele>
        <time>2018-11-15T11:39:41Z</time>
      </trkpt>
      <trkpt lat="45.04075" lon="5.23237">
        <ele>721.13</ele>
        <time>2018-11-15T11:39:46Z</time>
      </trkpt>
      <trkpt lat="45.04075" lon="5.23237">
        <ele>726.89</ele>
        <time>2018-11-15T11:39:47Z</time>
      </trkpt>
      <trkpt lat="45.04075" lon="5.23236">
        <ele>723.53</ele>
        <time>2018-11-15T11:39:54Z</time>
      </trkpt>
      <trkpt lat="45.04075" lon="5.23236">
        <ele>726.89</ele>
        <time>2018-11-15T11:39:55Z</time>
      </trkpt>
      <trkpt lat="45.04076" lon="5.23235">
        <ele>730.74</ele>
        <time>2018-11-15T11:39:59Z</time>
      </trkpt>
      <trkpt lat="45.04076" lon="5.23234">
        <ele>724.49</ele>
        <time>2018-11-15T11:40:00Z</time>
      </trkpt>
      <trkpt lat="45.04076" lon="5.23233">
        <ele>727.86</ele>
        <time>2018-11-15T11:40:01Z</time>
      </trkpt>
      <trkpt lat="45.04075" lon="5.23228">
        <ele>727.37</ele>
        <time>2018-11-15T11:40:11Z</time>
      </trkpt>
      <trkpt lat="45.04076" lon="5.23226">
        <ele>726.41</ele>
        <time>2018-11-15T11:40:21Z</time>
      </trkpt>
      <trkpt lat="45.04076" lon="5.23225">
        <ele>731.22</ele>
        <time>2018-11-15T11:40:30Z</time>
      </trkpt>
      <trkpt lat="45.04076" lon="5.23225">
        <ele>726.89</ele>
        <time>2018-11-15T11:40:31Z</time>
      </trkpt>
      <trkpt lat="45.04076" lon="5.23224">
        <ele>730.74</ele>
        <time>2018-11-15T11:40:36Z</time>
      </trkpt>
      <trkpt lat="45.04076" lon="5.23224">
        <ele>727.37</ele>
        <time>2018-11-15T11:40:37Z</time>
      </trkpt>
      <trkpt lat="45.04076" lon="5.23223">
        <ele>726.89</ele>
        <time>2018-11-15T11:40:50Z</time>
      </trkpt>
      <trkpt lat="45.04076" lon="5.23222">
        <ele>723.53</ele>
        <time>2018-11-15T11:40:53Z</time>
      </trkpt>
      <trkpt lat="45.04076" lon="5.23222">
        <ele>728.34</ele>
        <time>2018-11-15T11:40:54Z</time>
      </trkpt>
      <trkpt lat="45.04076" lon="5.23222">
        <ele>714.4</ele>
        <time>2018-11-15T11:40:56Z</time>
      </trkpt>
      <trkpt lat="45.04076" lon="5.23222">
        <ele>729.3</ele>
        <time>2018-11-15T11:40:57Z</time>
      </trkpt>
      <trkpt lat="45.04076" lon="5.23222">
        <ele>733.62</ele>
        <time>2018-11-15T11:40:58Z</time>
      </trkpt>
      <trkpt lat="45.04076" lon="5.23222">
        <ele>727.86</ele>
        <time>2018-11-15T11:40:59Z</time>
      </trkpt>
      <trkpt lat="45.04076" lon="5.23222">
        <ele>726.89</ele>
        <time>2018-11-15T11:41:01Z</time>
      </trkpt>
      <trkpt lat="45.04076" lon="5.23222">
        <ele>726.41</ele>
        <time>2018-11-15T11:41:21Z</time>
      </trkpt>
      <trkpt lat="45.04076" lon="5.23223">
        <ele>726.89</ele>
        <time>2018-11-15T11:41:46Z</time>
      </trkpt>
      <trkpt lat="45.04076" lon="5.23222">
        <ele>726.89</ele>
        <time>2018-11-15T11:42:14Z</time>
      </trkpt>
      <trkpt lat="45.04076" lon="5.23222">
        <ele>724.49</ele>
        <time>2018-11-15T11:42:40Z</time>
      </trkpt>
      <trkpt lat="45.04076" lon="5.23222">
        <ele>727.86</ele>
        <time>2018-11-15T11:42:48Z</time>
      </trkpt>
      <trkpt lat="45.04076" lon="5.23222">
        <ele>726.89</ele>
        <time>2018-11-15T11:43:13Z</time>
      </trkpt>
      <trkpt lat="45.04076" lon="5.23222">
        <ele>726.41</ele>
        <time>2018-11-15T11:43:37Z</time>
      </trkpt>
      <trkpt lat="45.04076" lon="5.23223">
        <ele>726.89</ele>
        <time>2018-11-15T11:44:03Z</time>
      </trkpt>
      <trkpt lat="45.04076" lon="5.23222">
        <ele>726.89</ele>
        <time>2018-11-15T11:44:31Z</time>
      </trkpt>
      <trkpt lat="45.04076" lon="5.23222">
        <ele>726.89</ele>
        <time>2018-11-15T11:44:51Z</time>
      </trkpt>
      <trkpt lat="45.04075" lon="5.23222">
        <ele>726.89</ele>
        <time>2018-11-15T11:45:13Z</time>
      </trkpt>
      <trkpt lat="45.04075" lon="5.23223">
        <ele>727.37</ele>
        <time>2018-11-15T11:45:39Z</time>
      </trkpt>
      <trkpt lat="45.04075" lon="5.23223">
        <ele>723.05</ele>
        <time>2018-11-15T11:45:52Z</time>
      </trkpt>
      <trkpt lat="45.04075" lon="5.23223">
        <ele>730.26</ele>
        <time>2018-11-15T11:45:53Z</time>
      </trkpt>
      <trkpt lat="45.04075" lon="5.23223">
        <ele>727.86</ele>
        <time>2018-11-15T11:45:54Z</time>
      </trkpt>
      <trkpt lat="45.04075" lon="5.23223">
        <ele>723.05</ele>
        <time>2018-11-15T11:46:00Z</time>
      </trkpt>
      <trkpt lat="45.04075" lon="5.23223">
        <ele>727.86</ele>
        <time>2018-11-15T11:46:01Z</time>
      </trkpt>
      <trkpt lat="45.04075" lon="5.23223">
        <ele>722.57</ele>
        <time>2018-11-15T11:46:14Z</time>
      </trkpt>
      <trkpt lat="45.04075" lon="5.23223">
        <ele>727.37</ele>
        <time>2018-11-15T11:46:15Z</time>
      </trkpt>
      <trkpt lat="45.04075" lon="5.23223">
        <ele>719.68</ele>
        <time>2018-11-15T11:46:16Z</time>
      </trkpt>
      <trkpt lat="45.04075" lon="5.23223">
        <ele>739.39</ele>
        <time>2018-11-15T11:46:17Z</time>
      </trkpt>
      <trkpt lat="45.04075" lon="5.23223">
        <ele>729.78</ele>
        <time>2018-11-15T11:46:18Z</time>
      </trkpt>
      <trkpt lat="45.04075" lon="5.23223">
        <ele>726.89</ele>
        <time>2018-11-15T11:46:20Z</time>
      </trkpt>
      <trkpt lat="45.04076" lon="5.23223">
        <ele>723.53</ele>
        <time>2018-11-15T11:46:45Z</time>
      </trkpt>
      <trkpt lat="45.04076" lon="5.23223">
        <ele>728.82</ele>
        <time>2018-11-15T11:46:49Z</time>
      </trkpt>
      <trkpt lat="45.04076" lon="5.23223">
        <ele>740.35</ele>
        <time>2018-11-15T11:46:50Z</time>
      </trkpt>
      <trkpt lat="45.04076" lon="5.23223">
        <ele>728.34</ele>
        <time>2018-11-15T11:46:51Z</time>
      </trkpt>
      <trkpt lat="45.04076" lon="5.23223">
        <ele>726.41</ele>
        <time>2018-11-15T11:47:13Z</time>
      </trkpt>
      <trkpt lat="45.04076" lon="5.23223">
        <ele>727.37</ele>
        <time>2018-11-15T11:47:38Z</time>
      </trkpt>
      <trkpt lat="45.04076" lon="5.23223">
        <ele>727.37</ele>
        <time>2018-11-15T11:48:01Z</time>
      </trkpt>
      <trkpt lat="45.04076" lon="5.23223">
        <ele>726.41</ele>
        <time>2018-11-15T11:48:29Z</time>
      </trkpt>
      <trkpt lat="45.04076" lon="5.23223">
        <ele>726.89</ele>
        <time>2018-11-15T11:48:54Z</time>
      </trkpt>
      <trkpt lat="45.04076" lon="5.23223">
        <ele>727.37</ele>
        <time>2018-11-15T11:49:20Z</time>
      </trkpt>
      <trkpt lat="45.04076" lon="5.23222">
        <ele>726.89</ele>
        <time>2018-11-15T11:49:49Z</time>
      </trkpt>
      <trkpt lat="45.04076" lon="5.23222">
        <ele>727.37</ele>
        <time>2018-11-15T11:50:14Z</time>
      </trkpt>
      <trkpt lat="45.04076" lon="5.23222">
        <ele>726.89</ele>
        <time>2018-11-15T11:50:40Z</time>
      </trkpt>
      <trkpt lat="45.04076" lon="5.23222">
        <ele>725.93</ele>
        <time>2018-11-15T11:51:05Z</time>
      </trkpt>
      <trkpt lat="45.04076" lon="5.23222">
        <ele>726.41</ele>
        <time>2018-11-15T11:51:26Z</time>
      </trkpt>
      <trkpt lat="45.04076" lon="5.23222">
        <ele>727.86</ele>
        <time>2018-11-15T11:51:30Z</time>
      </trkpt>
      <trkpt lat="45.04076" lon="5.23222">
        <ele>726.89</ele>
        <time>2018-11-15T11:51:52Z</time>
      </trkpt>
      <trkpt lat="45.04076" lon="5.23222">
        <ele>727.37</ele>
        <time>2018-11-15T11:52:20Z</time>
      </trkpt>
      <trkpt lat="45.04076" lon="5.23222">
        <ele>726.89</ele>
        <time>2018-11-15T11:52:46Z</time>
      </trkpt>
      <trkpt lat="45.04076" lon="5.23222">
        <ele>727.37</ele>
        <time>2018-11-15T11:53:13Z</time>
      </trkpt>
      <trkpt lat="45.04076" lon="5.23223">
        <ele>724.01</ele>
        <time>2018-11-15T11:53:35Z</time>
      </trkpt>
      <trkpt lat="45.04076" lon="5.23223">
        <ele>728.34</ele>
        <time>2018-11-15T11:53:36Z</time>
      </trkpt>
      <trkpt lat="45.04076" lon="5.23223">
        <ele>726.89</ele>
        <time>2018-11-15T11:53:40Z</time>
      </trkpt>
      <trkpt lat="45.04076" lon="5.23223">
        <ele>718.72</ele>
        <time>2018-11-15T11:53:46Z</time>
      </trkpt>
      <trkpt lat="45.04076" lon="5.23223">
        <ele>729.78</ele>
        <time>2018-11-15T11:53:47Z</time>
      </trkpt>
      <trkpt lat="45.04076" lon="5.23223">
        <ele>726.41</ele>
        <time>2018-11-15T11:53:48Z</time>
      </trkpt>
      <trkpt lat="45.04076" lon="5.23223">
        <ele>723.05</ele>
        <time>2018-11-15T11:53:52Z</time>
      </trkpt>
      <trkpt lat="45.04076" lon="5.23223">
        <ele>723.53</ele>
        <time>2018-11-15T11:53:53Z</time>
      </trkpt>
      <trkpt lat="45.04076" lon="5.23223">
        <ele>731.7</ele>
        <time>2018-11-15T11:53:54Z</time>
      </trkpt>
      <trkpt lat="45.04076" lon="5.23224">
        <ele>726.89</ele>
        <time>2018-11-15T11:53:55Z</time>
      </trkpt>
      <trkpt lat="45.04076" lon="5.23223">
        <ele>731.22</ele>
        <time>2018-11-15T11:54:01Z</time>
      </trkpt>
      <trkpt lat="45.04076" lon="5.23223">
        <ele>727.86</ele>
        <time>2018-11-15T11:54:02Z</time>
      </trkpt>
      <trkpt lat="45.04075" lon="5.23224">
        <ele>726.89</ele>
        <time>2018-11-15T11:54:04Z</time>
      </trkpt>
      <trkpt lat="45.04075" lon="5.23224">
        <ele>730.26</ele>
        <time>2018-11-15T11:54:09Z</time>
      </trkpt>
      <trkpt lat="45.04076" lon="5.23224">
        <ele>722.57</ele>
        <time>2018-11-15T11:54:10Z</time>
      </trkpt>
      <trkpt lat="45.04076" lon="5.23223">
        <ele>727.37</ele>
        <time>2018-11-15T11:54:12Z</time>
      </trkpt>
      <trkpt lat="45.04076" lon="5.23223">
        <ele>734.1</ele>
        <time>2018-11-15T11:54:13Z</time>
      </trkpt>
      <trkpt lat="45.04075" lon="5.23223">
        <ele>727.37</ele>
        <time>2018-11-15T11:54:14Z</time>
      </trkpt>
      <trkpt lat="45.04076" lon="5.23224">
        <ele>727.37</ele>
        <time>2018-11-15T11:54:32Z</time>
      </trkpt>
      <trkpt lat="45.04074" lon="5.23224">
        <ele>723.53</ele>
        <time>2018-11-15T11:54:48Z</time>
      </trkpt>
      <trkpt lat="45.04074" lon="5.23224">
        <ele>730.74</ele>
        <time>2018-11-15T11:54:51Z</time>
      </trkpt>
      <trkpt lat="45.04073" lon="5.23224">
        <ele>727.37</ele>
        <time>2018-11-15T11:54:52Z</time>
      </trkpt>
      <trkpt lat="45.04074" lon="5.23225">
        <ele>726.41</ele>
        <time>2018-11-15T11:55:19Z</time>
      </trkpt>
      <trkpt lat="45.04074" lon="5.23224">
        <ele>725.45</ele>
        <time>2018-11-15T11:55:27Z</time>
      </trkpt>
      <trkpt lat="45.04075" lon="5.23224">
        <ele>720.65</ele>
        <time>2018-11-15T11:55:29Z</time>
      </trkpt>
      <trkpt lat="45.04075" lon="5.23224">
        <ele>731.22</ele>
        <time>2018-11-15T11:55:30Z</time>
      </trkpt>
      <trkpt lat="45.04075" lon="5.23224">
        <ele>729.3</ele>
        <time>2018-11-15T11:55:31Z</time>
      </trkpt>
      <trkpt lat="45.04074" lon="5.23224">
        <ele>726.89</ele>
        <time>2018-11-15T11:55:33Z</time>
      </trkpt>
      <trkpt lat="45.04075" lon="5.23224">
        <ele>726.89</ele>
        <time>2018-11-15T11:55:57Z</time>
      </trkpt>
      <trkpt lat="45.04076" lon="5.23224">
        <ele>730.26</ele>
        <time>2018-11-15T11:56:17Z</time>
      </trkpt>
      <trkpt lat="45.04076" lon="5.23224">
        <ele>728.34</ele>
        <time>2018-11-15T11:56:18Z</time>
      </trkpt>
      <trkpt lat="45.04076" lon="5.23224">
        <ele>727.37</ele>
        <time>2018-11-15T11:56:20Z</time>
      </trkpt>
      <trkpt lat="45.04076" lon="5.23223">
        <ele>718.72</ele>
        <time>2018-11-15T11:56:32Z</time>
      </trkpt>
      <trkpt lat="45.04076" lon="5.23223">
        <ele>735.55</ele>
        <time>2018-11-15T11:56:33Z</time>
      </trkpt>
      <trkpt lat="45.04076" lon="5.23223">
        <ele>730.26</ele>
        <time>2018-11-15T11:56:34Z</time>
      </trkpt>
      <trkpt lat="45.04076" lon="5.23223">
        <ele>726.41</ele>
        <time>2018-11-15T11:56:35Z</time>
      </trkpt>
      <trkpt lat="45.04076" lon="5.23223">
        <ele>726.89</ele>
        <time>2018-11-15T11:56:36Z</time>
      </trkpt>
      <trkpt lat="45.04076" lon="5.23223">
        <ele>727.37</ele>
        <time>2018-11-15T11:56:59Z</time>
      </trkpt>
      <trkpt lat="45.04076" lon="5.23223">
        <ele>726.89</ele>
        <time>2018-11-15T11:57:16Z</time>
      </trkpt>
      <trkpt lat="45.04076" lon="5.23223">
        <ele>726.89</ele>
        <time>2018-11-15T11:57:40Z</time>
      </trkpt>
      <trkpt lat="45.04076" lon="5.23224">
        <ele>727.37</ele>
        <time>2018-11-15T11:58:03Z</time>
      </trkpt>
      <trkpt lat="45.04076" lon="5.23224">
        <ele>726.89</ele>
        <time>2018-11-15T11:58:27Z</time>
      </trkpt>
      <trkpt lat="45.04076" lon="5.23223">
        <ele>726.41</ele>
        <time>2018-11-15T11:58:50Z</time>
      </trkpt>
      <trkpt lat="45.04076" lon="5.23222">
        <ele>722.09</ele>
        <time>2018-11-15T11:59:08Z</time>
      </trkpt>
      <trkpt lat="45.04076" lon="5.23222">
        <ele>727.37</ele>
        <time>2018-11-15T11:59:09Z</time>
      </trkpt>
      <trkpt lat="45.04076" lon="5.23223">
        <ele>732.18</ele>
        <time>2018-11-15T11:59:12Z</time>
      </trkpt>
      <trkpt lat="45.04076" lon="5.23223">
        <ele>727.37</ele>
        <time>2018-11-15T11:59:13Z</time>
      </trkpt>
      <trkpt lat="45.04076" lon="5.23223">
        <ele>726.41</ele>
        <time>2018-11-15T11:59:30Z</time>
      </trkpt>
      <trkpt lat="45.04076" lon="5.23223">
        <ele>727.37</ele>
        <time>2018-11-15T11:59:51Z</time>
      </trkpt>
      <trkpt lat="45.04076" lon="5.23223">
        <ele>718.72</ele>
        <time>2018-11-15T11:59:53Z</time>
      </trkpt>
      <trkpt lat="45.04076" lon="5.23223">
        <ele>729.3</ele>
        <time>2018-11-15T11:59:54Z</time>
      </trkpt>
      <trkpt lat="45.04076" lon="5.23223">
        <ele>720.65</ele>
        <time>2018-11-15T11:59:55Z</time>
      </trkpt>
      <trkpt lat="45.04076" lon="5.23223">
        <ele>724.01</ele>
        <time>2018-11-15T11:59:56Z</time>
      </trkpt>
      <trkpt lat="45.04076" lon="5.23223">
        <ele>726.89</ele>
        <time>2018-11-15T11:59:57Z</time>
      </trkpt>
      <trkpt lat="45.04076" lon="5.23223">
        <ele>726.89</ele>
        <time>2018-11-15T11:59:58Z</time>
      </trkpt>
      <trkpt lat="45.04076" lon="5.23223">
        <ele>731.22</ele>
        <time>2018-11-15T12:00:00Z</time>
      </trkpt>
      <trkpt lat="45.04076" lon="5.23223">
        <ele>728.34</ele>
        <time>2018-11-15T12:00:01Z</time>
      </trkpt>
      <trkpt lat="45.04076" lon="5.23223">
        <ele>727.37</ele>
        <time>2018-11-15T12:00:04Z</time>
      </trkpt>
      <trkpt lat="45.04076" lon="5.23223">
        <ele>724.97</ele>
        <time>2018-11-15T12:00:18Z</time>
      </trkpt>
      <trkpt lat="45.04076" lon="5.23223">
        <ele>728.34</ele>
        <time>2018-11-15T12:00:19Z</time>
      </trkpt>
      <trkpt lat="45.04076" lon="5.23223">
        <ele>728.34</ele>
        <time>2018-11-15T12:00:20Z</time>
      </trkpt>
      <trkpt lat="45.04076" lon="5.23223">
        <ele>723.05</ele>
        <time>2018-11-15T12:00:23Z</time>
      </trkpt>
      <trkpt lat="45.04076" lon="5.23223">
        <ele>730.26</ele>
        <time>2018-11-15T12:00:24Z</time>
      </trkpt>
      <trkpt lat="45.04076" lon="5.23222">
        <ele>725.93</ele>
        <time>2018-11-15T12:00:26Z</time>
      </trkpt>
      <trkpt lat="45.04076" lon="5.23222">
        <ele>726.41</ele>
        <time>2018-11-15T12:00:27Z</time>
      </trkpt>
      <trkpt lat="45.04076" lon="5.23222">
        <ele>718.72</ele>
        <time>2018-11-15T12:00:28Z</time>
      </trkpt>
      <trkpt lat="45.04076" lon="5.23222">
        <ele>718.72</ele>
        <time>2018-11-15T12:00:29Z</time>
      </trkpt>
      <trkpt lat="45.04076" lon="5.23222">
        <ele>730.26</ele>
        <time>2018-11-15T12:00:30Z</time>
      </trkpt>
      <trkpt lat="45.04076" lon="5.23222">
        <ele>726.89</ele>
        <time>2018-11-15T12:00:31Z</time>
      </trkpt>
      <trkpt lat="45.04076" lon="5.23222">
        <ele>737.47</ele>
        <time>2018-11-15T12:00:33Z</time>
      </trkpt>
      <trkpt lat="45.04076" lon="5.23222">
        <ele>727.86</ele>
        <time>2018-11-15T12:00:34Z</time>
      </trkpt>
      <trkpt lat="45.04076" lon="5.23222">
        <ele>726.89</ele>
        <time>2018-11-15T12:00:36Z</time>
      </trkpt>
      <trkpt lat="45.04076" lon="5.23222">
        <ele>726.89</ele>
        <time>2018-11-15T12:00:57Z</time>
      </trkpt>
      <trkpt lat="45.04076" lon="5.23223">
        <ele>726.89</ele>
        <time>2018-11-15T12:01:20Z</time>
      </trkpt>
      <trkpt lat="45.04076" lon="5.23223">
        <ele>726.89</ele>
        <time>2018-11-15T12:01:47Z</time>
      </trkpt>
      <trkpt lat="45.04076" lon="5.23223">
        <ele>726.89</ele>
        <time>2018-11-15T12:02:08Z</time>
      </trkpt>
      <trkpt lat="45.04076" lon="5.23223">
        <ele>707.19</ele>
        <time>2018-11-15T12:02:28Z</time>
      </trkpt>
      <trkpt lat="45.04076" lon="5.23223">
        <ele>727.86</ele>
        <time>2018-11-15T12:02:29Z</time>
      </trkpt>
      <trkpt lat="45.04076" lon="5.23223">
        <ele>739.87</ele>
        <time>2018-11-15T12:02:31Z</time>
      </trkpt>
      <trkpt lat="45.04076" lon="5.23223">
        <ele>721.61</ele>
        <time>2018-11-15T12:02:32Z</time>
      </trkpt>
      <trkpt lat="45.04076" lon="5.23223">
        <ele>724.97</ele>
        <time>2018-11-15T12:02:33Z</time>
      </trkpt>
      <trkpt lat="45.04076" lon="5.23223">
        <ele>735.55</ele>
        <time>2018-11-15T12:02:37Z</time>
      </trkpt>
      <trkpt lat="45.04076" lon="5.23223">
        <ele>727.37</ele>
        <time>2018-11-15T12:02:38Z</time>
      </trkpt>
      <trkpt lat="45.04075" lon="5.23223">
        <ele>713.44</ele>
        <time>2018-11-15T12:02:43Z</time>
      </trkpt>
      <trkpt lat="45.04075" lon="5.23223">
        <ele>736.51</ele>
        <time>2018-11-15T12:02:44Z</time>
      </trkpt>
      <trkpt lat="45.04075" lon="5.23223">
        <ele>727.37</ele>
        <time>2018-11-15T12:02:45Z</time>
      </trkpt>
      <trkpt lat="45.04075" lon="5.23223">
        <ele>718.24</ele>
        <time>2018-11-15T12:02:47Z</time>
      </trkpt>
      <trkpt lat="45.04075" lon="5.23223">
        <ele>741.31</ele>
        <time>2018-11-15T12:02:48Z</time>
      </trkpt>
      <trkpt lat="45.04075" lon="5.23223">
        <ele>728.34</ele>
        <time>2018-11-15T12:02:49Z</time>
      </trkpt>
      <trkpt lat="45.04075" lon="5.23223">
        <ele>721.61</ele>
        <time>2018-11-15T12:02:50Z</time>
      </trkpt>
      <trkpt lat="45.04075" lon="5.23223">
        <ele>729.78</ele>
        <time>2018-11-15T12:02:51Z</time>
      </trkpt>
      <trkpt lat="45.04075" lon="5.23223">
        <ele>722.57</ele>
        <time>2018-11-15T12:02:52Z</time>
      </trkpt>
      <trkpt lat="45.04075" lon="5.23223">
        <ele>716.8</ele>
        <time>2018-11-15T12:02:53Z</time>
      </trkpt>
      <trkpt lat="45.04075" lon="5.23223">
        <ele>706.23</ele>
        <time>2018-11-15T12:02:54Z</time>
      </trkpt>
      <trkpt lat="45.04075" lon="5.23223">
        <ele>761.5</ele>
        <time>2018-11-15T12:02:55Z</time>
      </trkpt>
      <trkpt lat="45.04075" lon="5.23223">
        <ele>733.62</ele>
        <time>2018-11-15T12:02:56Z</time>
      </trkpt>
      <trkpt lat="45.04075" lon="5.23223">
        <ele>723.53</ele>
        <time>2018-11-15T12:02:58Z</time>
      </trkpt>
      <trkpt lat="45.04075" lon="5.23223">
        <ele>702.38</ele>
        <time>2018-11-15T12:02:59Z</time>
      </trkpt>
      <trkpt lat="45.04075" lon="5.23223">
        <ele>746.12</ele>
        <time>2018-11-15T12:03:00Z</time>
      </trkpt>
      <trkpt lat="45.04075" lon="5.23223">
        <ele>729.3</ele>
        <time>2018-11-15T12:03:01Z</time>
      </trkpt>
      <trkpt lat="45.04075" lon="5.23223">
        <ele>728.34</ele>
        <time>2018-11-15T12:03:03Z</time>
      </trkpt>
      <trkpt lat="45.04076" lon="5.23222">
        <ele>727.86</ele>
        <time>2018-11-15T12:03:21Z</time>
      </trkpt>
      <trkpt lat="45.04076" lon="5.23223">
        <ele>726.89</ele>
        <time>2018-11-15T12:03:41Z</time>
      </trkpt>
      <trkpt lat="45.04077" lon="5.23224">
        <ele>727.86</ele>
        <time>2018-11-15T12:03:51Z</time>
      </trkpt>
      <trkpt lat="45.04078" lon="5.23225">
        <ele>727.86</ele>
        <time>2018-11-15T12:04:08Z</time>
      </trkpt>
      <trkpt lat="45.04078" lon="5.23226">
        <ele>727.37</ele>
        <time>2018-11-15T12:04:21Z</time>
      </trkpt>
      <trkpt lat="45.04079" lon="5.23226">
        <ele>727.86</ele>
        <time>2018-11-15T12:04:32Z</time>
      </trkpt>
      <trkpt lat="45.04077" lon="5.23223">
        <ele>728.34</ele>
        <time>2018-11-15T12:04:46Z</time>
      </trkpt>
      <trkpt lat="45.04076" lon="5.23222">
        <ele>727.86</ele>
        <time>2018-11-15T12:04:58Z</time>
      </trkpt>
      <trkpt lat="45.04076" lon="5.23221">
        <ele>727.37</ele>
        <time>2018-11-15T12:05:10Z</time>
      </trkpt>
      <trkpt lat="45.04076" lon="5.23222">
        <ele>727.37</ele>
        <time>2018-11-15T12:05:32Z</time>
      </trkpt>
      <trkpt lat="45.04076" lon="5.23222">
        <ele>724.01</ele>
        <time>2018-11-15T12:05:46Z</time>
      </trkpt>
      <trkpt lat="45.04076" lon="5.23222">
        <ele>729.78</ele>
        <time>2018-11-15T12:05:47Z</time>
      </trkpt>
      <trkpt lat="45.04076" lon="5.23222">
        <ele>725.45</ele>
        <time>2018-11-15T12:06:09Z</time>
      </trkpt>
      <trkpt lat="45.04076" lon="5.23222">
        <ele>728.82</ele>
        <time>2018-11-15T12:06:11Z</time>
      </trkpt>
      <trkpt lat="45.04076" lon="5.23223">
        <ele>726.89</ele>
        <time>2018-11-15T12:06:31Z</time>
      </trkpt>
      <trkpt lat="45.04076" lon="5.23222">
        <ele>727.86</ele>
        <time>2018-11-15T12:06:55Z</time>
      </trkpt>
      <trkpt lat="45.04076" lon="5.23223">
        <ele>726.89</ele>
        <time>2018-11-15T12:07:14Z</time>
      </trkpt>
      <trkpt lat="45.04076" lon="5.23223">
        <ele>726.89</ele>
        <time>2018-11-15T12:07:39Z</time>
      </trkpt>
      <trkpt lat="45.04076" lon="5.23223">
        <ele>726.89</ele>
        <time>2018-11-15T12:08:05Z</time>
      </trkpt>
      <trkpt lat="45.04077" lon="5.23223">
        <ele>727.37</ele>
        <time>2018-11-15T12:08:31Z</time>
      </trkpt>
      <trkpt lat="45.04077" lon="5.23224">
        <ele>726.89</ele>
        <time>2018-11-15T12:08:59Z</time>
      </trkpt>
      <trkpt lat="45.04077" lon="5.23223">
        <ele>727.86</ele>
        <time>2018-11-15T12:09:24Z</time>
      </trkpt>
      <trkpt lat="45.04077" lon="5.23223">
        <ele>727.86</ele>
        <time>2018-11-15T12:09:48Z</time>
      </trkpt>
      <trkpt lat="45.04077" lon="5.23223">
        <ele>727.86</ele>
        <time>2018-11-15T12:10:13Z</time>
      </trkpt>
      <trkpt lat="45.04077" lon="5.23223">
        <ele>728.34</ele>
        <time>2018-11-15T12:10:33Z</time>
      </trkpt>
      <trkpt lat="45.04077" lon="5.23223">
        <ele>728.34</ele>
        <time>2018-11-15T12:11:00Z</time>
      </trkpt>
      <trkpt lat="45.04077" lon="5.23222">
        <ele>727.86</ele>
        <time>2018-11-15T12:11:23Z</time>
      </trkpt>
      <trkpt lat="45.04077" lon="5.23222">
        <ele>727.86</ele>
        <time>2018-11-15T12:11:51Z</time>
      </trkpt>
      <trkpt lat="45.04077" lon="5.23222">
        <ele>728.82</ele>
        <time>2018-11-15T12:12:13Z</time>
      </trkpt>
      <trkpt lat="45.04077" lon="5.23223">
        <ele>727.86</ele>
        <time>2018-11-15T12:12:33Z</time>
      </trkpt>
      <trkpt lat="45.04077" lon="5.23223">
        <ele>728.34</ele>
        <time>2018-11-15T12:12:53Z</time>
      </trkpt>
      <trkpt lat="45.04077" lon="5.23223">
        <ele>728.34</ele>
        <time>2018-11-15T12:13:13Z</time>
      </trkpt>
      <trkpt lat="45.04077" lon="5.23223">
        <ele>727.86</ele>
        <time>2018-11-15T12:13:39Z</time>
      </trkpt>
      <trkpt lat="45.04077" lon="5.23223">
        <ele>728.34</ele>
        <time>2018-11-15T12:13:53Z</time>
      </trkpt>
      <trkpt lat="45.04077" lon="5.23224">
        <ele>728.82</ele>
        <time>2018-11-15T12:14:17Z</time>
      </trkpt>
      <trkpt lat="45.04075" lon="5.23222">
        <ele>727.86</ele>
        <time>2018-11-15T12:14:33Z</time>
      </trkpt>
      <trkpt lat="45.04075" lon="5.23222">
        <ele>729.3</ele>
        <time>2018-11-15T12:14:56Z</time>
      </trkpt>
      <trkpt lat="45.04076" lon="5.23222">
        <ele>728.82</ele>
        <time>2018-11-15T12:15:15Z</time>
      </trkpt>
      <trkpt lat="45.04076" lon="5.23222">
        <ele>724.01</ele>
        <time>2018-11-15T12:15:27Z</time>
      </trkpt>
      <trkpt lat="45.04076" lon="5.23222">
        <ele>732.18</ele>
        <time>2018-11-15T12:15:28Z</time>
      </trkpt>
      <trkpt lat="45.04076" lon="5.23222">
        <ele>727.37</ele>
        <time>2018-11-15T12:15:29Z</time>
      </trkpt>
      <trkpt lat="45.04075" lon="5.23222">
        <ele>728.34</ele>
        <time>2018-11-15T12:15:43Z</time>
      </trkpt>
      <trkpt lat="45.04075" lon="5.23223">
        <ele>728.34</ele>
        <time>2018-11-15T12:16:11Z</time>
      </trkpt>
      <trkpt lat="45.04075" lon="5.23223">
        <ele>728.82</ele>
        <time>2018-11-15T12:16:36Z</time>
      </trkpt>
      <trkpt lat="45.04075" lon="5.23223">
        <ele>728.82</ele>
        <time>2018-11-15T12:17:00Z</time>
      </trkpt>
      <trkpt lat="45.04076" lon="5.23223">
        <ele>728.82</ele>
        <time>2018-11-15T12:17:17Z</time>
      </trkpt>
      <trkpt lat="45.04076" lon="5.23221">
        <ele>729.3</ele>
        <time>2018-11-15T12:17:37Z</time>
      </trkpt>
      <trkpt lat="45.04076" lon="5.2322">
        <ele>725.93</ele>
        <time>2018-11-15T12:17:40Z</time>
      </trkpt>
      <trkpt lat="45.04076" lon="5.2322">
        <ele>729.78</ele>
        <time>2018-11-15T12:17:42Z</time>
      </trkpt>
      <trkpt lat="45.04076" lon="5.23221">
        <ele>728.34</ele>
        <time>2018-11-15T12:18:00Z</time>
      </trkpt>
      <trkpt lat="45.04076" lon="5.23221">
        <ele>723.53</ele>
        <time>2018-11-15T12:18:11Z</time>
      </trkpt>
      <trkpt lat="45.04076" lon="5.23221">
        <ele>731.22</ele>
        <time>2018-11-15T12:18:12Z</time>
      </trkpt>
      <trkpt lat="45.04076" lon="5.23221">
        <ele>730.26</ele>
        <time>2018-11-15T12:18:13Z</time>
      </trkpt>
      <trkpt lat="45.04076" lon="5.23222">
        <ele>728.82</ele>
        <time>2018-11-15T12:18:32Z</time>
      </trkpt>
      <trkpt lat="45.04077" lon="5.23222">
        <ele>725.93</ele>
        <time>2018-11-15T12:18:53Z</time>
      </trkpt>
      <trkpt lat="45.04077" lon="5.23223">
        <ele>730.26</ele>
        <time>2018-11-15T12:18:54Z</time>
      </trkpt>
      <trkpt lat="45.04077" lon="5.23223">
        <ele>728.82</ele>
        <time>2018-11-15T12:19:11Z</time>
      </trkpt>
      <trkpt lat="45.04078" lon="5.23224">
        <ele>729.3</ele>
        <time>2018-11-15T12:19:30Z</time>
      </trkpt>
      <trkpt lat="45.04078" lon="5.23224">
        <ele>725.45</ele>
        <time>2018-11-15T12:19:35Z</time>
      </trkpt>
      <trkpt lat="45.04078" lon="5.23225">
        <ele>733.62</ele>
        <time>2018-11-15T12:19:36Z</time>
      </trkpt>
      <trkpt lat="45.04078" lon="5.23225">
        <ele>729.3</ele>
        <time>2018-11-15T12:19:37Z</time>
      </trkpt>
      <trkpt lat="45.04078" lon="5.23225">
        <ele>724.97</ele>
        <time>2018-11-15T12:19:42Z</time>
      </trkpt>
      <trkpt lat="45.04078" lon="5.23226">
        <ele>732.18</ele>
        <time>2018-11-15T12:19:43Z</time>
      </trkpt>
      <trkpt lat="45.04079" lon="5.23227">
        <ele>727.86</ele>
        <time>2018-11-15T12:19:44Z</time>
      </trkpt>
      <trkpt lat="45.0408" lon="5.23231">
        <ele>729.3</ele>
        <time>2018-11-15T12:19:58Z</time>
      </trkpt>
      <trkpt lat="45.04079" lon="5.23229">
        <ele>729.3</ele>
        <time>2018-11-15T12:20:23Z</time>
      </trkpt>
      <trkpt lat="45.0408" lon="5.23229">
        <ele>729.3</ele>
        <time>2018-11-15T12:20:56Z</time>
      </trkpt>
      <trkpt lat="45.0408" lon="5.23229">
        <ele>729.78</ele>
        <time>2018-11-15T12:21:13Z</time>
      </trkpt>
      <trkpt lat="45.0408" lon="5.23229">
        <ele>729.3</ele>
        <time>2018-11-15T12:21:40Z</time>
      </trkpt>
      <trkpt lat="45.0408" lon="5.23228">
        <ele>729.3</ele>
        <time>2018-11-15T12:21:56Z</time>
      </trkpt>
      <trkpt lat="45.0408" lon="5.23228">
        <ele>729.3</ele>
        <time>2018-11-15T12:22:19Z</time>
      </trkpt>
      <trkpt lat="45.04079" lon="5.23227">
        <ele>729.3</ele>
        <time>2018-11-15T12:22:43Z</time>
      </trkpt>
      <trkpt lat="45.0408" lon="5.23227">
        <ele>729.3</ele>
        <time>2018-11-15T12:23:07Z</time>
      </trkpt>
      <trkpt lat="45.0408" lon="5.23228">
        <ele>729.3</ele>
        <time>2018-11-15T12:23:25Z</time>
      </trkpt>
      <trkpt lat="45.04079" lon="5.2323">
        <ele>728.34</ele>
        <time>2018-11-15T12:23:45Z</time>
      </trkpt>
      <trkpt lat="45.04079" lon="5.2323">
        <ele>727.86</ele>
        <time>2018-11-15T12:23:52Z</time>
      </trkpt>
      <trkpt lat="45.04079" lon="5.23232">
        <ele>730.74</ele>
        <time>2018-11-15T12:23:59Z</time>
      </trkpt>
      <trkpt lat="45.04079" lon="5.23232">
        <ele>727.86</ele>
        <time>2018-11-15T12:24:00Z</time>
      </trkpt>
      <trkpt lat="45.04079" lon="5.23235">
        <ele>725.45</ele>
        <time>2018-11-15T12:24:13Z</time>
      </trkpt>
      <trkpt lat="45.04076" lon="5.23236">
        <ele>722.57</ele>
        <time>2018-11-15T12:24:24Z</time>
      </trkpt>
      <trkpt lat="45.04075" lon="5.23237">
        <ele>720.65</ele>
        <time>2018-11-15T12:24:25Z</time>
      </trkpt>
      <trkpt lat="45.04072" lon="5.2324">
        <ele>724.01</ele>
        <time>2018-11-15T12:24:28Z</time>
      </trkpt>
      <trkpt lat="45.04067" lon="5.23243">
        <ele>722.57</ele>
        <time>2018-11-15T12:24:40Z</time>
      </trkpt>
      <trkpt lat="45.04065" lon="5.23246">
        <ele>723.05</ele>
        <time>2018-11-15T12:25:00Z</time>
      </trkpt>
      <trkpt lat="45.04063" lon="5.23248">
        <ele>722.09</ele>
        <time>2018-11-15T12:25:12Z</time>
      </trkpt>
      <trkpt lat="45.0406" lon="5.23252">
        <ele>721.61</ele>
        <time>2018-11-15T12:25:30Z</time>
      </trkpt>
      <trkpt lat="45.04058" lon="5.23253">
        <ele>722.09</ele>
        <time>2018-11-15T12:25:54Z</time>
      </trkpt>
      <trkpt lat="45.04057" lon="5.23254">
        <ele>722.09</ele>
        <time>2018-11-15T12:26:18Z</time>
      </trkpt>
      <trkpt lat="45.04057" lon="5.23253">
        <ele>722.57</ele>
        <time>2018-11-15T12:26:42Z</time>
      </trkpt>
      <trkpt lat="45.04057" lon="5.23253">
        <ele>722.09</ele>
        <time>2018-11-15T12:27:00Z</time>
      </trkpt>
      <trkpt lat="45.04052" lon="5.23254">
        <ele>722.09</ele>
        <time>2018-11-15T12:27:16Z</time>
      </trkpt>
      <trkpt lat="45.04041" lon="5.23256">
        <ele>719.68</ele>
        <time>2018-11-15T12:27:28Z</time>
      </trkpt>
      <trkpt lat="45.04031" lon="5.23261">
        <ele>720.65</ele>
        <time>2018-11-15T12:27:40Z</time>
      </trkpt>
      <trkpt lat="45.04027" lon="5.23263">
        <ele>718.72</ele>
        <time>2018-11-15T12:27:52Z</time>
      </trkpt>
      <trkpt lat="45.04026" lon="5.23263">
        <ele>721.61</ele>
        <time>2018-11-15T12:27:54Z</time>
      </trkpt>
      <trkpt lat="45.04025" lon="5.23263">
        <ele>717.76</ele>
        <time>2018-11-15T12:27:55Z</time>
      </trkpt>
      <trkpt lat="45.04022" lon="5.23262">
        <ele>722.09</ele>
        <time>2018-11-15T12:27:57Z</time>
      </trkpt>
      <trkpt lat="45.04014" lon="5.23256">
        <ele>718.24</ele>
        <time>2018-11-15T12:28:07Z</time>
      </trkpt>
      <trkpt lat="45.04013" lon="5.23256">
        <ele>721.13</ele>
        <time>2018-11-15T12:28:09Z</time>
      </trkpt>
      <trkpt lat="45.04011" lon="5.23256">
        <ele>719.2</ele>
        <time>2018-11-15T12:28:11Z</time>
      </trkpt>
      <trkpt lat="45.04006" lon="5.23254">
        <ele>717.76</ele>
        <time>2018-11-15T12:28:16Z</time>
      </trkpt>
      <trkpt lat="45.04004" lon="5.23254">
        <ele>721.13</ele>
        <time>2018-11-15T12:28:17Z</time>
      </trkpt>
      <trkpt lat="45.04002" lon="5.23252">
        <ele>719.2</ele>
        <time>2018-11-15T12:28:20Z</time>
      </trkpt>
      <trkpt lat="45.03995" lon="5.23248">
        <ele>719.2</ele>
        <time>2018-11-15T12:28:24Z</time>
      </trkpt>
      <trkpt lat="45.03985" lon="5.23242">
        <ele>719.2</ele>
        <time>2018-11-15T12:28:33Z</time>
      </trkpt>
      <trkpt lat="45.03973" lon="5.2324">
        <ele>720.16</ele>
        <time>2018-11-15T12:28:44Z</time>
      </trkpt>
      <trkpt lat="45.0397" lon="5.2324">
        <ele>718.24</ele>
        <time>2018-11-15T12:28:47Z</time>
      </trkpt>
      <trkpt lat="45.03969" lon="5.23241">
        <ele>719.2</ele>
        <time>2018-11-15T12:28:48Z</time>
      </trkpt>
      <trkpt lat="45.03962" lon="5.23242">
        <ele>717.76</ele>
        <time>2018-11-15T12:28:55Z</time>
      </trkpt>
      <trkpt lat="45.03955" lon="5.23236">
        <ele>718.24</ele>
        <time>2018-11-15T12:29:04Z</time>
      </trkpt>
      <trkpt lat="45.03952" lon="5.23231">
        <ele>716.8</ele>
        <time>2018-11-15T12:29:09Z</time>
      </trkpt>
      <trkpt lat="45.03949" lon="5.23226">
        <ele>715.84</ele>
        <time>2018-11-15T12:29:14Z</time>
      </trkpt>
      <trkpt lat="45.03947" lon="5.23223">
        <ele>715.84</ele>
        <time>2018-11-15T12:29:17Z</time>
      </trkpt>
      <trkpt lat="45.0394" lon="5.23217">
        <ele>716.32</ele>
        <time>2018-11-15T12:29:25Z</time>
      </trkpt>
      <trkpt lat="45.03935" lon="5.23215">
        <ele>715.36</ele>
        <time>2018-11-15T12:29:36Z</time>
      </trkpt>
      <trkpt lat="45.03923" lon="5.23208">
        <ele>714.4</ele>
        <time>2018-11-15T12:29:48Z</time>
      </trkpt>
      <trkpt lat="45.03916" lon="5.23203">
        <ele>717.76</ele>
        <time>2018-11-15T12:29:59Z</time>
      </trkpt>
      <trkpt lat="45.03914" lon="5.23201">
        <ele>713.44</ele>
        <time>2018-11-15T12:30:01Z</time>
      </trkpt>
      <trkpt lat="45.03914" lon="5.232">
        <ele>715.36</ele>
        <time>2018-11-15T12:30:02Z</time>
      </trkpt>
      <trkpt lat="45.03912" lon="5.23196">
        <ele>716.8</ele>
        <time>2018-11-15T12:30:04Z</time>
      </trkpt>
      <trkpt lat="45.0391" lon="5.23193">
        <ele>717.76</ele>
        <time>2018-11-15T12:30:09Z</time>
      </trkpt>
      <trkpt lat="45.03908" lon="5.23192">
        <ele>713.44</ele>
        <time>2018-11-15T12:30:12Z</time>
      </trkpt>
      <trkpt lat="45.03907" lon="5.2319">
        <ele>717.76</ele>
        <time>2018-11-15T12:30:14Z</time>
      </trkpt>
      <trkpt lat="45.039" lon="5.23184">
        <ele>714.88</ele>
        <time>2018-11-15T12:30:20Z</time>
      </trkpt>
      <trkpt lat="45.03889" lon="5.23178">
        <ele>715.84</ele>
        <time>2018-11-15T12:30:32Z</time>
      </trkpt>
      <trkpt lat="45.03888" lon="5.23177">
        <ele>716.8</ele>
        <time>2018-11-15T12:30:34Z</time>
      </trkpt>
      <trkpt lat="45.03875" lon="5.23174">
        <ele>716.32</ele>
        <time>2018-11-15T12:30:44Z</time>
      </trkpt>
      <trkpt lat="45.03872" lon="5.23174">
        <ele>715.36</ele>
        <time>2018-11-15T12:30:46Z</time>
      </trkpt>
      <trkpt lat="45.03868" lon="5.23174">
        <ele>716.32</ele>
        <time>2018-11-15T12:30:50Z</time>
      </trkpt>
      <trkpt lat="45.03865" lon="5.23173">
        <ele>715.36</ele>
        <time>2018-11-15T12:31:01Z</time>
      </trkpt>
      <trkpt lat="45.03862" lon="5.23174">
        <ele>715.36</ele>
        <time>2018-11-15T12:31:14Z</time>
      </trkpt>
      <trkpt lat="45.0386" lon="5.23174">
        <ele>714.88</ele>
        <time>2018-11-15T12:31:16Z</time>
      </trkpt>
      <trkpt lat="45.03852" lon="5.23177">
        <ele>713.92</ele>
        <time>2018-11-15T12:31:21Z</time>
      </trkpt>
      <trkpt lat="45.03846" lon="5.23181">
        <ele>714.88</ele>
        <time>2018-11-15T12:31:33Z</time>
      </trkpt>
      <trkpt lat="45.03852" lon="5.23181">
        <ele>714.88</ele>
        <time>2018-11-15T12:31:47Z</time>
      </trkpt>
      <trkpt lat="45.03854" lon="5.23181">
        <ele>715.36</ele>
        <time>2018-11-15T12:31:49Z</time>
      </trkpt>
      <trkpt lat="45.03859" lon="5.23179">
        <ele>715.36</ele>
        <time>2018-11-15T12:32:04Z</time>
      </trkpt>
      <trkpt lat="45.03859" lon="5.2318">
        <ele>715.84</ele>
        <time>2018-11-15T12:32:23Z</time>
      </trkpt>
      <trkpt lat="45.03862" lon="5.23178">
        <ele>715.36</ele>
        <time>2018-11-15T12:32:36Z</time>
      </trkpt>
      <trkpt lat="45.03863" lon="5.23178">
        <ele>715.36</ele>
        <time>2018-11-15T12:32:56Z</time>
      </trkpt>
      <trkpt lat="45.0387" lon="5.23173">
        <ele>713.44</ele>
        <time>2018-11-15T12:33:09Z</time>
      </trkpt>
      <trkpt lat="45.03872" lon="5.23173">
        <ele>716.8</ele>
        <time>2018-11-15T12:33:11Z</time>
      </trkpt>
      <trkpt lat="45.03874" lon="5.23173">
        <ele>714.4</ele>
        <time>2018-11-15T12:33:13Z</time>
      </trkpt>
      <trkpt lat="45.03887" lon="5.23174">
        <ele>716.8</ele>
        <time>2018-11-15T12:33:27Z</time>
      </trkpt>
      <trkpt lat="45.03899" lon="5.23182">
        <ele>715.84</ele>
        <time>2018-11-15T12:33:43Z</time>
      </trkpt>
      <trkpt lat="45.03907" lon="5.23195">
        <ele>716.32</ele>
        <time>2018-11-15T12:33:58Z</time>
      </trkpt>
      <trkpt lat="45.03908" lon="5.23197">
        <ele>713.44</ele>
        <time>2018-11-15T12:34:14Z</time>
      </trkpt>
      <trkpt lat="45.0391" lon="5.23195">
        <ele>714.4</ele>
        <time>2018-11-15T12:34:19Z</time>
      </trkpt>
      <trkpt lat="45.03912" lon="5.23193">
        <ele>713.92</ele>
        <time>2018-11-15T12:34:21Z</time>
      </trkpt>
      <trkpt lat="45.03918" lon="5.23191">
        <ele>712.95</ele>
        <time>2018-11-15T12:34:25Z</time>
      </trkpt>
      <trkpt lat="45.03924" lon="5.23188">
        <ele>713.44</ele>
        <time>2018-11-15T12:34:29Z</time>
      </trkpt>
      <trkpt lat="45.03934" lon="5.23174">
        <ele>711.03</ele>
        <time>2018-11-15T12:34:40Z</time>
      </trkpt>
      <trkpt lat="45.03926" lon="5.23157">
        <ele>709.59</ele>
        <time>2018-11-15T12:34:50Z</time>
      </trkpt>
      <trkpt lat="45.03924" lon="5.23157">
        <ele>708.15</ele>
        <time>2018-11-15T12:34:52Z</time>
      </trkpt>
      <trkpt lat="45.03923" lon="5.23156">
        <ele>708.63</ele>
        <time>2018-11-15T12:34:54Z</time>
      </trkpt>
      <trkpt lat="45.0392" lon="5.23146">
        <ele>706.71</ele>
        <time>2018-11-15T12:35:03Z</time>
      </trkpt>
      <trkpt lat="45.03919" lon="5.23126">
        <ele>703.34</ele>
        <time>2018-11-15T12:35:14Z</time>
      </trkpt>
      <trkpt lat="45.0392" lon="5.23113">
        <ele>701.42</ele>
        <time>2018-11-15T12:35:24Z</time>
      </trkpt>
      <trkpt lat="45.03929" lon="5.23102">
        <ele>699.02</ele>
        <time>2018-11-15T12:35:35Z</time>
      </trkpt>
      <trkpt lat="45.03935" lon="5.23096">
        <ele>698.05</ele>
        <time>2018-11-15T12:35:43Z</time>
      </trkpt>
      <trkpt lat="45.03938" lon="5.23091">
        <ele>696.13</ele>
        <time>2018-11-15T12:35:50Z</time>
      </trkpt>
      <trkpt lat="45.03944" lon="5.23092">
        <ele>696.13</ele>
        <time>2018-11-15T12:36:00Z</time>
      </trkpt>
      <trkpt lat="45.03947" lon="5.23091">
        <ele>695.17</ele>
        <time>2018-11-15T12:36:11Z</time>
      </trkpt>
      <trkpt lat="45.03951" lon="5.2309">
        <ele>695.65</ele>
        <time>2018-11-15T12:36:25Z</time>
      </trkpt>
      <trkpt lat="45.03954" lon="5.23086">
        <ele>693.73</ele>
        <time>2018-11-15T12:36:30Z</time>
      </trkpt>
      <trkpt lat="45.03956" lon="5.23086">
        <ele>694.69</ele>
        <time>2018-11-15T12:36:43Z</time>
      </trkpt>
      <trkpt lat="45.03957" lon="5.23086">
        <ele>693.73</ele>
        <time>2018-11-15T12:36:44Z</time>
      </trkpt>
      <trkpt lat="45.03974" lon="5.2308">
        <ele>692.29</ele>
        <time>2018-11-15T12:36:56Z</time>
      </trkpt>
      <trkpt lat="45.03979" lon="5.23078">
        <ele>690.84</ele>
        <time>2018-11-15T12:37:00Z</time>
      </trkpt>
      <trkpt lat="45.03981" lon="5.23077">
        <ele>692.29</ele>
        <time>2018-11-15T12:37:02Z</time>
      </trkpt>
      <trkpt lat="45.03983" lon="5.23077">
        <ele>689.88</ele>
        <time>2018-11-15T12:37:08Z</time>
      </trkpt>
      <trkpt lat="45.03983" lon="5.23077">
        <ele>690.84</ele>
        <time>2018-11-15T12:37:10Z</time>
      </trkpt>
      <trkpt lat="45.03984" lon="5.23078">
        <ele>688.44</ele>
        <time>2018-11-15T12:37:18Z</time>
      </trkpt>
      <trkpt lat="45.03984" lon="5.23078">
        <ele>687.96</ele>
        <time>2018-11-15T12:37:22Z</time>
      </trkpt>
      <trkpt lat="45.03995" lon="5.23082">
        <ele>687</ele>
        <time>2018-11-15T12:37:34Z</time>
      </trkpt>
      <trkpt lat="45.04014" lon="5.23089">
        <ele>686.04</ele>
        <time>2018-11-15T12:37:45Z</time>
      </trkpt>
      <trkpt lat="45.04021" lon="5.2309">
        <ele>685.56</ele>
        <time>2018-11-15T12:37:59Z</time>
      </trkpt>
      <trkpt lat="45.04027" lon="5.23089">
        <ele>683.63</ele>
        <time>2018-11-15T12:38:13Z</time>
      </trkpt>
      <trkpt lat="45.04028" lon="5.23087">
        <ele>681.71</ele>
        <time>2018-11-15T12:38:28Z</time>
      </trkpt>
      <trkpt lat="45.04029" lon="5.23085">
        <ele>677.87</ele>
        <time>2018-11-15T12:38:38Z</time>
      </trkpt>
      <trkpt lat="45.0403" lon="5.23084">
        <ele>680.75</ele>
        <time>2018-11-15T12:38:39Z</time>
      </trkpt>
      <trkpt lat="45.04031" lon="5.23082">
        <ele>677.87</ele>
        <time>2018-11-15T12:38:52Z</time>
      </trkpt>
      <trkpt lat="45.04033" lon="5.23079">
        <ele>675.46</ele>
        <time>2018-11-15T12:39:08Z</time>
      </trkpt>
      <trkpt lat="45.04035" lon="5.23074">
        <ele>673.54</ele>
        <time>2018-11-15T12:39:21Z</time>
      </trkpt>
      <trkpt lat="45.04037" lon="5.23069">
        <ele>670.66</ele>
        <time>2018-11-15T12:39:36Z</time>
      </trkpt>
      <trkpt lat="45.04038" lon="5.23064">
        <ele>668.25</ele>
        <time>2018-11-15T12:39:51Z</time>
      </trkpt>
      <trkpt lat="45.04039" lon="5.23059">
        <ele>666.81</ele>
        <time>2018-11-15T12:40:03Z</time>
      </trkpt>
      <trkpt lat="45.04039" lon="5.2305">
        <ele>663.45</ele>
        <time>2018-11-15T12:40:17Z</time>
      </trkpt>
      <trkpt lat="45.04041" lon="5.23029">
        <ele>662.01</ele>
        <time>2018-11-15T12:40:27Z</time>
      </trkpt>
      <trkpt lat="45.0404" lon="5.23021">
        <ele>660.08</ele>
        <time>2018-11-15T12:40:38Z</time>
      </trkpt>
      <trkpt lat="45.04039" lon="5.2301">
        <ele>657.68</ele>
        <time>2018-11-15T12:40:50Z</time>
      </trkpt>
      <trkpt lat="45.04039" lon="5.23">
        <ele>655.28</ele>
        <time>2018-11-15T12:41:04Z</time>
      </trkpt>
      <trkpt lat="45.04043" lon="5.22979">
        <ele>652.87</ele>
        <time>2018-11-15T12:41:18Z</time>
      </trkpt>
      <trkpt lat="45.04049" lon="5.22969">
        <ele>650.47</ele>
        <time>2018-11-15T12:41:34Z</time>
      </trkpt>
      <trkpt lat="45.04048" lon="5.22963">
        <ele>648.07</ele>
        <time>2018-11-15T12:41:47Z</time>
      </trkpt>
      <trkpt lat="45.04049" lon="5.2296">
        <ele>645.18</ele>
        <time>2018-11-15T12:42:01Z</time>
      </trkpt>
      <trkpt lat="45.0405" lon="5.22957">
        <ele>642.3</ele>
        <time>2018-11-15T12:42:15Z</time>
      </trkpt>
      <trkpt lat="45.04058" lon="5.22948">
        <ele>639.41</ele>
        <time>2018-11-15T12:42:30Z</time>
      </trkpt>
      <trkpt lat="45.04065" lon="5.22933">
        <ele>638.45</ele>
        <time>2018-11-15T12:42:39Z</time>
      </trkpt>
      <trkpt lat="45.04077" lon="5.22923">
        <ele>636.53</ele>
        <time>2018-11-15T12:42:52Z</time>
      </trkpt>
      <trkpt lat="45.04082" lon="5.22919">
        <ele>635.09</ele>
        <time>2018-11-15T12:43:03Z</time>
      </trkpt>
      <trkpt lat="45.04086" lon="5.22905">
        <ele>633.65</ele>
        <time>2018-11-15T12:43:11Z</time>
      </trkpt>
      <trkpt lat="45.04087" lon="5.22899">
        <ele>632.2</ele>
        <time>2018-11-15T12:43:24Z</time>
      </trkpt>
      <trkpt lat="45.0409" lon="5.22893">
        <ele>630.28</ele>
        <time>2018-11-15T12:43:34Z</time>
      </trkpt>
      <trkpt lat="45.04091" lon="5.22888">
        <ele>627.88</ele>
        <time>2018-11-15T12:43:49Z</time>
      </trkpt>
      <trkpt lat="45.04093" lon="5.22872">
        <ele>625.96</ele>
        <time>2018-11-15T12:44:01Z</time>
      </trkpt>
      <trkpt lat="45.04101" lon="5.22862">
        <ele>624.51</ele>
        <time>2018-11-15T12:44:13Z</time>
      </trkpt>
      <trkpt lat="45.04102" lon="5.22857">
        <ele>623.07</ele>
        <time>2018-11-15T12:44:27Z</time>
      </trkpt>
      <trkpt lat="45.04103" lon="5.22849">
        <ele>622.59</ele>
        <time>2018-11-15T12:44:38Z</time>
      </trkpt>
      <trkpt lat="45.04104" lon="5.22838">
        <ele>620.67</ele>
        <time>2018-11-15T12:44:50Z</time>
      </trkpt>
      <trkpt lat="45.04107" lon="5.2283">
        <ele>618.75</ele>
        <time>2018-11-15T12:45:01Z</time>
      </trkpt>
      <trkpt lat="45.04108" lon="5.22823">
        <ele>616.34</ele>
        <time>2018-11-15T12:45:12Z</time>
      </trkpt>
      <trkpt lat="45.04112" lon="5.22817">
        <ele>614.9</ele>
        <time>2018-11-15T12:45:23Z</time>
      </trkpt>
      <trkpt lat="45.04117" lon="5.22807">
        <ele>612.5</ele>
        <time>2018-11-15T12:45:33Z</time>
      </trkpt>
      <trkpt lat="45.04117" lon="5.22779">
        <ele>611.06</ele>
        <time>2018-11-15T12:45:46Z</time>
      </trkpt>
      <trkpt lat="45.04119" lon="5.2277">
        <ele>609.13</ele>
        <time>2018-11-15T12:45:56Z</time>
      </trkpt>
      <trkpt lat="45.0412" lon="5.22765">
        <ele>608.17</ele>
        <time>2018-11-15T12:46:05Z</time>
      </trkpt>
      <trkpt lat="45.04121" lon="5.22753">
        <ele>606.73</ele>
        <time>2018-11-15T12:46:16Z</time>
      </trkpt>
      <trkpt lat="45.0412" lon="5.22745">
        <ele>605.77</ele>
        <time>2018-11-15T12:46:27Z</time>
      </trkpt>
      <trkpt lat="45.04119" lon="5.22734">
        <ele>603.85</ele>
        <time>2018-11-15T12:46:42Z</time>
      </trkpt>
      <trkpt lat="45.04121" lon="5.22719">
        <ele>601.92</ele>
        <time>2018-11-15T12:46:54Z</time>
      </trkpt>
      <trkpt lat="45.04126" lon="5.2271">
        <ele>599.04</ele>
        <time>2018-11-15T12:47:08Z</time>
      </trkpt>
      <trkpt lat="45.04131" lon="5.22706">
        <ele>597.6</ele>
        <time>2018-11-15T12:47:21Z</time>
      </trkpt>
      <trkpt lat="45.04131" lon="5.22704">
        <ele>595.67</ele>
        <time>2018-11-15T12:47:35Z</time>
      </trkpt>
      <trkpt lat="45.04131" lon="5.22701">
        <ele>596.15</ele>
        <time>2018-11-15T12:47:52Z</time>
      </trkpt>
      <trkpt lat="45.04131" lon="5.227">
        <ele>594.23</ele>
        <time>2018-11-15T12:47:54Z</time>
      </trkpt>
      <trkpt lat="45.0413" lon="5.22697">
        <ele>591.83</ele>
        <time>2018-11-15T12:48:08Z</time>
      </trkpt>
      <trkpt lat="45.04134" lon="5.22696">
        <ele>589.91</ele>
        <time>2018-11-15T12:48:21Z</time>
      </trkpt>
      <trkpt lat="45.04138" lon="5.22694">
        <ele>587.98</ele>
        <time>2018-11-15T12:48:33Z</time>
      </trkpt>
      <trkpt lat="45.04146" lon="5.2269">
        <ele>585.1</ele>
        <time>2018-11-15T12:48:42Z</time>
      </trkpt>
      <trkpt lat="45.04153" lon="5.22684">
        <ele>582.7</ele>
        <time>2018-11-15T12:48:55Z</time>
      </trkpt>
      <trkpt lat="45.04156" lon="5.22681">
        <ele>580.29</ele>
        <time>2018-11-15T12:49:09Z</time>
      </trkpt>
      <trkpt lat="45.04156" lon="5.22681">
        <ele>579.33</ele>
        <time>2018-11-15T12:49:11Z</time>
      </trkpt>
      <trkpt lat="45.0416" lon="5.22678">
        <ele>577.41</ele>
        <time>2018-11-15T12:49:24Z</time>
      </trkpt>
      <trkpt lat="45.04166" lon="5.22674">
        <ele>575.01</ele>
        <time>2018-11-15T12:49:38Z</time>
      </trkpt>
      <trkpt lat="45.04167" lon="5.22675">
        <ele>575.01</ele>
        <time>2018-11-15T12:49:58Z</time>
      </trkpt>
      <trkpt lat="45.04172" lon="5.22675">
        <ele>579.33</ele>
        <time>2018-11-15T12:50:19Z</time>
      </trkpt>
      <trkpt lat="45.04172" lon="5.22674">
        <ele>575.97</ele>
        <time>2018-11-15T12:50:20Z</time>
      </trkpt>
      <trkpt lat="45.04173" lon="5.22672">
        <ele>577.41</ele>
        <time>2018-11-15T12:50:42Z</time>
      </trkpt>
      <trkpt lat="45.04173" lon="5.22672">
        <ele>574.04</ele>
        <time>2018-11-15T12:50:51Z</time>
      </trkpt>
      <trkpt lat="45.04176" lon="5.22668">
        <ele>572.12</ele>
        <time>2018-11-15T12:51:04Z</time>
      </trkpt>
      <trkpt lat="45.04179" lon="5.22664">
        <ele>570.2</ele>
        <time>2018-11-15T12:51:18Z</time>
      </trkpt>
      <trkpt lat="45.04181" lon="5.22657">
        <ele>567.8</ele>
        <time>2018-11-15T12:51:32Z</time>
      </trkpt>
      <trkpt lat="45.04182" lon="5.22652">
        <ele>565.39</ele>
        <time>2018-11-15T12:51:46Z</time>
      </trkpt>
      <trkpt lat="45.04185" lon="5.22643">
        <ele>562.03</ele>
        <time>2018-11-15T12:51:58Z</time>
      </trkpt>
      <trkpt lat="45.04187" lon="5.2263">
        <ele>560.11</ele>
        <time>2018-11-15T12:52:10Z</time>
      </trkpt>
      <trkpt lat="45.04191" lon="5.22618">
        <ele>557.7</ele>
        <time>2018-11-15T12:52:24Z</time>
      </trkpt>
      <trkpt lat="45.04195" lon="5.2261">
        <ele>555.3</ele>
        <time>2018-11-15T12:52:36Z</time>
      </trkpt>
      <trkpt lat="45.04196" lon="5.22607">
        <ele>551.93</ele>
        <time>2018-11-15T12:52:48Z</time>
      </trkpt>
      <trkpt lat="45.04197" lon="5.22604">
        <ele>550.01</ele>
        <time>2018-11-15T12:52:59Z</time>
      </trkpt>
      <trkpt lat="45.04197" lon="5.22587">
        <ele>547.13</ele>
        <time>2018-11-15T12:53:09Z</time>
      </trkpt>
      <trkpt lat="45.042" lon="5.22567">
        <ele>544.24</ele>
        <time>2018-11-15T12:53:23Z</time>
      </trkpt>
      <trkpt lat="45.04202" lon="5.22559">
        <ele>541.36</ele>
        <time>2018-11-15T12:53:33Z</time>
      </trkpt>
      <trkpt lat="45.04204" lon="5.22545">
        <ele>538.96</ele>
        <time>2018-11-15T12:53:44Z</time>
      </trkpt>
      <trkpt lat="45.04203" lon="5.22538">
        <ele>537.51</ele>
        <time>2018-11-15T12:53:52Z</time>
      </trkpt>
      <trkpt lat="45.04202" lon="5.22525">
        <ele>535.59</ele>
        <time>2018-11-15T12:54:02Z</time>
      </trkpt>
      <trkpt lat="45.04207" lon="5.22512">
        <ele>534.15</ele>
        <time>2018-11-15T12:54:16Z</time>
      </trkpt>
      <trkpt lat="45.04208" lon="5.22509">
        <ele>534.15</ele>
        <time>2018-11-15T12:54:28Z</time>
      </trkpt>
      <trkpt lat="45.04207" lon="5.22506">
        <ele>534.15</ele>
        <time>2018-11-15T12:54:49Z</time>
      </trkpt>
      <trkpt lat="45.04207" lon="5.22508">
        <ele>535.11</ele>
        <time>2018-11-15T12:55:10Z</time>
      </trkpt>
      <trkpt lat="45.04209" lon="5.2251">
        <ele>535.11</ele>
        <time>2018-11-15T12:55:25Z</time>
      </trkpt>
      <trkpt lat="45.04203" lon="5.2251">
        <ele>535.59</ele>
        <time>2018-11-15T12:55:53Z</time>
      </trkpt>
      <trkpt lat="45.04199" lon="5.22512">
        <ele>535.11</ele>
        <time>2018-11-15T12:56:16Z</time>
      </trkpt>
      <trkpt lat="45.04207" lon="5.22503">
        <ele>534.63</ele>
        <time>2018-11-15T12:56:29Z</time>
      </trkpt>
      <trkpt lat="45.04208" lon="5.22499">
        <ele>534.63</ele>
        <time>2018-11-15T12:56:45Z</time>
      </trkpt>
      <trkpt lat="45.04208" lon="5.22497">
        <ele>534.15</ele>
        <time>2018-11-15T12:57:02Z</time>
      </trkpt>
      <trkpt lat="45.0421" lon="5.22501">
        <ele>534.15</ele>
        <time>2018-11-15T12:57:20Z</time>
      </trkpt>
      <trkpt lat="45.0421" lon="5.22502">
        <ele>534.63</ele>
        <time>2018-11-15T12:57:38Z</time>
      </trkpt>
      <trkpt lat="45.0421" lon="5.225">
        <ele>533.19</ele>
        <time>2018-11-15T12:57:58Z</time>
      </trkpt>
      <trkpt lat="45.04211" lon="5.225">
        <ele>537.99</ele>
        <time>2018-11-15T12:58:01Z</time>
      </trkpt>
      <trkpt lat="45.04211" lon="5.225">
        <ele>534.63</ele>
        <time>2018-11-15T12:58:02Z</time>
      </trkpt>
      <trkpt lat="45.04211" lon="5.22499">
        <ele>533.67</ele>
        <time>2018-11-15T12:58:18Z</time>
      </trkpt>
      <trkpt lat="45.04212" lon="5.22499">
        <ele>531.27</ele>
        <time>2018-11-15T12:58:34Z</time>
      </trkpt>
      <trkpt lat="45.04215" lon="5.22501">
        <ele>528.86</ele>
        <time>2018-11-15T12:58:50Z</time>
      </trkpt>
      <trkpt lat="45.04219" lon="5.22502">
        <ele>526.46</ele>
        <time>2018-11-15T12:59:05Z</time>
      </trkpt>
      <trkpt lat="45.04228" lon="5.22506">
        <ele>524.06</ele>
        <time>2018-11-15T12:59:19Z</time>
      </trkpt>
      <trkpt lat="45.04238" lon="5.22509">
        <ele>521.65</ele>
        <time>2018-11-15T12:59:37Z</time>
      </trkpt>
      <trkpt lat="45.04243" lon="5.22511">
        <ele>519.25</ele>
        <time>2018-11-15T12:59:53Z</time>
      </trkpt>
      <trkpt lat="45.04243" lon="5.22512">
        <ele>517.33</ele>
        <time>2018-11-15T13:00:06Z</time>
      </trkpt>
      <trkpt lat="45.04246" lon="5.22515">
        <ele>515.4</ele>
        <time>2018-11-15T13:00:19Z</time>
      </trkpt>
      <trkpt lat="45.04251" lon="5.22524">
        <ele>513.48</ele>
        <time>2018-11-15T13:00:33Z</time>
      </trkpt>
      <trkpt lat="45.04265" lon="5.22544">
        <ele>511.56</ele>
        <time>2018-11-15T13:00:45Z</time>
      </trkpt>
      <trkpt lat="45.04276" lon="5.22551">
        <ele>508.19</ele>
        <time>2018-11-15T13:01:00Z</time>
      </trkpt>
      <trkpt lat="45.04299" lon="5.22564">
        <ele>507.71</ele>
        <time>2018-11-15T13:01:16Z</time>
      </trkpt>
      <trkpt lat="45.04309" lon="5.2258">
        <ele>507.71</ele>
        <time>2018-11-15T13:01:33Z</time>
      </trkpt>
      <trkpt lat="45.04315" lon="5.22591">
        <ele>507.23</ele>
        <time>2018-11-15T13:01:44Z</time>
      </trkpt>
      <trkpt lat="45.0432" lon="5.22605">
        <ele>505.79</ele>
        <time>2018-11-15T13:01:59Z</time>
      </trkpt>
      <trkpt lat="45.04324" lon="5.22616">
        <ele>503.87</ele>
        <time>2018-11-15T13:02:13Z</time>
      </trkpt>
      <trkpt lat="45.04326" lon="5.22627">
        <ele>501.95</ele>
        <time>2018-11-15T13:02:26Z</time>
      </trkpt>
      <trkpt lat="45.04328" lon="5.22635">
        <ele>499.54</ele>
        <time>2018-11-15T13:02:40Z</time>
      </trkpt>
      <trkpt lat="45.04329" lon="5.2264">
        <ele>496.66</ele>
        <time>2018-11-15T13:02:51Z</time>
      </trkpt>
      <trkpt lat="45.0433" lon="5.22642">
        <ele>499.54</ele>
        <time>2018-11-15T13:02:53Z</time>
      </trkpt>
      <trkpt lat="45.04332" lon="5.22649">
        <ele>496.18</ele>
        <time>2018-11-15T13:03:07Z</time>
      </trkpt>
      <trkpt lat="45.04336" lon="5.22659">
        <ele>494.74</ele>
        <time>2018-11-15T13:03:19Z</time>
      </trkpt>
      <trkpt lat="45.04344" lon="5.22663">
        <ele>493.29</ele>
        <time>2018-11-15T13:03:33Z</time>
      </trkpt>
      <trkpt lat="45.04351" lon="5.22664">
        <ele>491.37</ele>
        <time>2018-11-15T13:03:50Z</time>
      </trkpt>
      <trkpt lat="45.04365" lon="5.22659">
        <ele>489.93</ele>
        <time>2018-11-15T13:04:02Z</time>
      </trkpt>
      <trkpt lat="45.04378" lon="5.22658">
        <ele>488.01</ele>
        <time>2018-11-15T13:04:19Z</time>
      </trkpt>
      <trkpt lat="45.04395" lon="5.22656">
        <ele>485.6</ele>
        <time>2018-11-15T13:04:34Z</time>
      </trkpt>
      <trkpt lat="45.044" lon="5.22656">
        <ele>484.16</ele>
        <time>2018-11-15T13:04:40Z</time>
      </trkpt>
      <trkpt lat="45.0441" lon="5.22658">
        <ele>482.72</ele>
        <time>2018-11-15T13:04:55Z</time>
      </trkpt>
      <trkpt lat="45.0442" lon="5.22661">
        <ele>481.28</ele>
        <time>2018-11-15T13:05:09Z</time>
      </trkpt>
      <trkpt lat="45.04431" lon="5.22663">
        <ele>479.35</ele>
        <time>2018-11-15T13:05:21Z</time>
      </trkpt>
      <trkpt lat="45.04438" lon="5.22664">
        <ele>477.43</ele>
        <time>2018-11-15T13:05:36Z</time>
      </trkpt>
      <trkpt lat="45.04443" lon="5.22666">
        <ele>475.03</ele>
        <time>2018-11-15T13:05:51Z</time>
      </trkpt>
      <trkpt lat="45.0446" lon="5.2267">
        <ele>472.14</ele>
        <time>2018-11-15T13:06:07Z</time>
      </trkpt>
      <trkpt lat="45.04472" lon="5.22675">
        <ele>470.22</ele>
        <time>2018-11-15T13:06:19Z</time>
      </trkpt>
      <trkpt lat="45.04484" lon="5.22679">
        <ele>469.74</ele>
        <time>2018-11-15T13:06:31Z</time>
      </trkpt>
      <trkpt lat="45.04491" lon="5.22682">
        <ele>470.22</ele>
        <time>2018-11-15T13:06:40Z</time>
      </trkpt>
      <trkpt lat="45.04518" lon="5.22686">
        <ele>467.34</ele>
        <time>2018-11-15T13:06:55Z</time>
      </trkpt>
      <trkpt lat="45.04524" lon="5.22687">
        <ele>465.42</ele>
        <time>2018-11-15T13:07:06Z</time>
      </trkpt>
      <trkpt lat="45.04533" lon="5.22694">
        <ele>464.93</ele>
        <time>2018-11-15T13:07:17Z</time>
      </trkpt>
      <trkpt lat="45.04545" lon="5.22702">
        <ele>464.45</ele>
        <time>2018-11-15T13:07:30Z</time>
      </trkpt>
      <trkpt lat="45.04554" lon="5.22712">
        <ele>461.57</ele>
        <time>2018-11-15T13:07:43Z</time>
      </trkpt>
      <trkpt lat="45.04555" lon="5.22713">
        <ele>460.13</ele>
        <time>2018-11-15T13:07:50Z</time>
      </trkpt>
      <trkpt lat="45.04556" lon="5.22715">
        <ele>457.24</ele>
        <time>2018-11-15T13:08:02Z</time>
      </trkpt>
      <trkpt lat="45.04557" lon="5.22717">
        <ele>454.84</ele>
        <time>2018-11-15T13:08:14Z</time>
      </trkpt>
      <trkpt lat="45.04586" lon="5.22735">
        <ele>452.92</ele>
        <time>2018-11-15T13:08:29Z</time>
      </trkpt>
      <trkpt lat="45.04602" lon="5.22744">
        <ele>450.03</ele>
        <time>2018-11-15T13:08:43Z</time>
      </trkpt>
      <trkpt lat="45.04605" lon="5.22746">
        <ele>447.15</ele>
        <time>2018-11-15T13:08:58Z</time>
      </trkpt>
      <trkpt lat="45.04608" lon="5.22756">
        <ele>443.79</ele>
        <time>2018-11-15T13:09:11Z</time>
      </trkpt>
      <trkpt lat="45.04619" lon="5.22757">
        <ele>440.9</ele>
        <time>2018-11-15T13:09:23Z</time>
      </trkpt>
      <trkpt lat="45.04632" lon="5.22757">
        <ele>440.42</ele>
        <time>2018-11-15T13:09:31Z</time>
      </trkpt>
      <trkpt lat="45.04636" lon="5.22758">
        <ele>441.86</ele>
        <time>2018-11-15T13:09:33Z</time>
      </trkpt>
      <trkpt lat="45.04644" lon="5.22758">
        <ele>439.94</ele>
        <time>2018-11-15T13:09:36Z</time>
      </trkpt>
      <trkpt lat="45.04649" lon="5.22756">
        <ele>440.9</ele>
        <time>2018-11-15T13:09:38Z</time>
      </trkpt>
      <trkpt lat="45.04652" lon="5.22756">
        <ele>439.46</ele>
        <time>2018-11-15T13:09:43Z</time>
      </trkpt>
      <trkpt lat="45.04672" lon="5.22759">
        <ele>439.94</ele>
        <time>2018-11-15T13:09:57Z</time>
      </trkpt>
      <trkpt lat="45.04686" lon="5.22758">
        <ele>437.06</ele>
        <time>2018-11-15T13:10:06Z</time>
      </trkpt>
      <trkpt lat="45.04695" lon="5.22759">
        <ele>437.06</ele>
        <time>2018-11-15T13:10:17Z</time>
      </trkpt>
      <trkpt lat="45.047" lon="5.22762">
        <ele>434.17</ele>
        <time>2018-11-15T13:10:29Z</time>
      </trkpt>
      <trkpt lat="45.04707" lon="5.22767">
        <ele>432.25</ele>
        <time>2018-11-15T13:10:44Z</time>
      </trkpt>
      <trkpt lat="45.04714" lon="5.22768">
        <ele>429.37</ele>
        <time>2018-11-15T13:10:56Z</time>
      </trkpt>
      <trkpt lat="45.04722" lon="5.22771">
        <ele>426.96</ele>
        <time>2018-11-15T13:11:12Z</time>
      </trkpt>
      <trkpt lat="45.0473" lon="5.22775">
        <ele>424.08</ele>
        <time>2018-11-15T13:11:23Z</time>
      </trkpt>
      <trkpt lat="45.04744" lon="5.2278">
        <ele>420.71</ele>
        <time>2018-11-15T13:11:37Z</time>
      </trkpt>
      <trkpt lat="45.04755" lon="5.22785">
        <ele>419.27</ele>
        <time>2018-11-15T13:11:51Z</time>
      </trkpt>
      <trkpt lat="45.04761" lon="5.22793">
        <ele>416.39</ele>
        <time>2018-11-15T13:12:04Z</time>
      </trkpt>
      <trkpt lat="45.04771" lon="5.228">
        <ele>413.5</ele>
        <time>2018-11-15T13:12:13Z</time>
      </trkpt>
      <trkpt lat="45.04782" lon="5.22807">
        <ele>411.1</ele>
        <time>2018-11-15T13:12:25Z</time>
      </trkpt>
      <trkpt lat="45.04793" lon="5.22811">
        <ele>407.74</ele>
        <time>2018-11-15T13:12:37Z</time>
      </trkpt>
      <trkpt lat="45.0482" lon="5.22812">
        <ele>406.77</ele>
        <time>2018-11-15T13:12:48Z</time>
      </trkpt>
      <trkpt lat="45.04822" lon="5.22812">
        <ele>404.85</ele>
        <time>2018-11-15T13:12:51Z</time>
      </trkpt>
      <trkpt lat="45.0483" lon="5.22814">
        <ele>403.41</ele>
        <time>2018-11-15T13:13:02Z</time>
      </trkpt>
      <trkpt lat="45.04831" lon="5.22818">
        <ele>401.97</ele>
        <time>2018-11-15T13:13:09Z</time>
      </trkpt>
      <trkpt lat="45.0484" lon="5.2283">
        <ele>400.05</ele>
        <time>2018-11-15T13:13:21Z</time>
      </trkpt>
      <trkpt lat="45.04842" lon="5.22838">
        <ele>398.6</ele>
        <time>2018-11-15T13:13:34Z</time>
      </trkpt>
      <trkpt lat="45.04845" lon="5.22845">
        <ele>395.24</ele>
        <time>2018-11-15T13:13:47Z</time>
      </trkpt>
      <trkpt lat="45.04864" lon="5.22851">
        <ele>393.8</ele>
        <time>2018-11-15T13:14:00Z</time>
      </trkpt>
      <trkpt lat="45.04888" lon="5.22856">
        <ele>390.43</ele>
        <time>2018-11-15T13:14:13Z</time>
      </trkpt>
      <trkpt lat="45.04897" lon="5.22857">
        <ele>388.99</ele>
        <time>2018-11-15T13:14:26Z</time>
      </trkpt>
      <trkpt lat="45.04912" lon="5.22858">
        <ele>387.55</ele>
        <time>2018-11-15T13:14:38Z</time>
      </trkpt>
      <trkpt lat="45.04914" lon="5.22857">
        <ele>386.11</ele>
        <time>2018-11-15T13:14:40Z</time>
      </trkpt>
      <trkpt lat="45.04931" lon="5.22855">
        <ele>384.18</ele>
        <time>2018-11-15T13:14:48Z</time>
      </trkpt>
      <trkpt lat="45.04942" lon="5.22853">
        <ele>382.74</ele>
        <time>2018-11-15T13:15:02Z</time>
      </trkpt>
      <trkpt lat="45.04946" lon="5.22856">
        <ele>382.26</ele>
        <time>2018-11-15T13:15:12Z</time>
      </trkpt>
      <trkpt lat="45.04952" lon="5.22856">
        <ele>381.3</ele>
        <time>2018-11-15T13:15:23Z</time>
      </trkpt>
      <trkpt lat="45.04954" lon="5.2286">
        <ele>379.86</ele>
        <time>2018-11-15T13:15:30Z</time>
      </trkpt>
      <trkpt lat="45.04973" lon="5.22858">
        <ele>378.9</ele>
        <time>2018-11-15T13:15:37Z</time>
      </trkpt>
      <trkpt lat="45.04975" lon="5.22857">
        <ele>379.38</ele>
        <time>2018-11-15T13:15:39Z</time>
      </trkpt>
      <trkpt lat="45.04978" lon="5.22858">
        <ele>377.94</ele>
        <time>2018-11-15T13:15:42Z</time>
      </trkpt>
      <trkpt lat="45.04986" lon="5.22858">
        <ele>376.97</ele>
        <time>2018-11-15T13:15:54Z</time>
      </trkpt>
      <trkpt lat="45.04998" lon="5.22868">
        <ele>375.53</ele>
        <time>2018-11-15T13:16:06Z</time>
      </trkpt>
      <trkpt lat="45.05006" lon="5.22878">
        <ele>373.61</ele>
        <time>2018-11-15T13:16:18Z</time>
      </trkpt>
      <trkpt lat="45.05007" lon="5.2288">
        <ele>373.61</ele>
        <time>2018-11-15T13:16:22Z</time>
      </trkpt>
      <trkpt lat="45.05013" lon="5.22891">
        <ele>371.69</ele>
        <time>2018-11-15T13:16:32Z</time>
      </trkpt>
      <trkpt lat="45.0502" lon="5.22905">
        <ele>370.73</ele>
        <time>2018-11-15T13:16:42Z</time>
      </trkpt>
      <trkpt lat="45.05026" lon="5.22916">
        <ele>370.24</ele>
        <time>2018-11-15T13:16:53Z</time>
      </trkpt>
      <trkpt lat="45.0504" lon="5.22932">
        <ele>367.84</ele>
        <time>2018-11-15T13:17:05Z</time>
      </trkpt>
      <trkpt lat="45.05051" lon="5.22941">
        <ele>367.36</ele>
        <time>2018-11-15T13:17:16Z</time>
      </trkpt>
      <trkpt lat="45.05055" lon="5.22948">
        <ele>365.92</ele>
        <time>2018-11-15T13:17:27Z</time>
      </trkpt>
      <trkpt lat="45.0506" lon="5.22954">
        <ele>364.96</ele>
        <time>2018-11-15T13:17:38Z</time>
      </trkpt>
      <trkpt lat="45.05061" lon="5.22961">
        <ele>364.96</ele>
        <time>2018-11-15T13:17:47Z</time>
      </trkpt>
      <trkpt lat="45.0507" lon="5.2297">
        <ele>362.07</ele>
        <time>2018-11-15T13:17:59Z</time>
      </trkpt>
      <trkpt lat="45.05075" lon="5.22976">
        <ele>361.11</ele>
        <time>2018-11-15T13:18:09Z</time>
      </trkpt>
      <trkpt lat="45.05081" lon="5.22991">
        <ele>359.19</ele>
        <time>2018-11-15T13:18:19Z</time>
      </trkpt>
      <trkpt lat="45.05088" lon="5.23009">
        <ele>357.27</ele>
        <time>2018-11-15T13:18:31Z</time>
      </trkpt>
      <trkpt lat="45.05089" lon="5.2301">
        <ele>357.27</ele>
        <time>2018-11-15T13:18:32Z</time>
      </trkpt>
      <trkpt lat="45.051" lon="5.23025">
        <ele>356.79</ele>
        <time>2018-11-15T13:18:45Z</time>
      </trkpt>
      <trkpt lat="45.05104" lon="5.23038">
        <ele>353.42</ele>
        <time>2018-11-15T13:18:58Z</time>
      </trkpt>
      <trkpt lat="45.05113" lon="5.23052">
        <ele>351.98</ele>
        <time>2018-11-15T13:19:14Z</time>
      </trkpt>
      <trkpt lat="45.05127" lon="5.23062">
        <ele>349.1</ele>
        <time>2018-11-15T13:19:27Z</time>
      </trkpt>
      <trkpt lat="45.05133" lon="5.23069">
        <ele>348.13</ele>
        <time>2018-11-15T13:19:34Z</time>
      </trkpt>
      <trkpt lat="45.05135" lon="5.2307">
        <ele>349.1</ele>
        <time>2018-11-15T13:19:36Z</time>
      </trkpt>
      <trkpt lat="45.05145" lon="5.23077">
        <ele>346.21</ele>
        <time>2018-11-15T13:19:47Z</time>
      </trkpt>
      <trkpt lat="45.05158" lon="5.23088">
        <ele>344.77</ele>
        <time>2018-11-15T13:20:00Z</time>
      </trkpt>
      <trkpt lat="45.05165" lon="5.23095">
        <ele>341.41</ele>
        <time>2018-11-15T13:20:10Z</time>
      </trkpt>
      <trkpt lat="45.05165" lon="5.23095">
        <ele>342.37</ele>
        <time>2018-11-15T13:20:11Z</time>
      </trkpt>
      <trkpt lat="45.05175" lon="5.23104">
        <ele>340.92</ele>
        <time>2018-11-15T13:20:24Z</time>
      </trkpt>
      <trkpt lat="45.05187" lon="5.23114">
        <ele>338.52</ele>
        <time>2018-11-15T13:20:40Z</time>
      </trkpt>
      <trkpt lat="45.05198" lon="5.2312">
        <ele>336.12</ele>
        <time>2018-11-15T13:20:56Z</time>
      </trkpt>
      <trkpt lat="45.05206" lon="5.23126">
        <ele>335.16</ele>
        <time>2018-11-15T13:21:09Z</time>
      </trkpt>
      <trkpt lat="45.05207" lon="5.23128">
        <ele>333.71</ele>
        <time>2018-11-15T13:21:12Z</time>
      </trkpt>
      <trkpt lat="45.05212" lon="5.23131">
        <ele>332.75</ele>
        <time>2018-11-15T13:21:27Z</time>
      </trkpt>
      <trkpt lat="45.05215" lon="5.23134">
        <ele>330.35</ele>
        <time>2018-11-15T13:21:39Z</time>
      </trkpt>
      <trkpt lat="45.0522" lon="5.23137">
        <ele>328.91</ele>
        <time>2018-11-15T13:21:51Z</time>
      </trkpt>
      <trkpt lat="45.0525" lon="5.23136">
        <ele>327.95</ele>
        <time>2018-11-15T13:22:03Z</time>
      </trkpt>
      <trkpt lat="45.05287" lon="5.23126">
        <ele>325.54</ele>
        <time>2018-11-15T13:22:18Z</time>
      </trkpt>
      <trkpt lat="45.05302" lon="5.2312">
        <ele>322.66</ele>
        <time>2018-11-15T13:22:32Z</time>
      </trkpt>
      <trkpt lat="45.05314" lon="5.23115">
        <ele>322.18</ele>
        <time>2018-11-15T13:22:46Z</time>
      </trkpt>
      <trkpt lat="45.05306" lon="5.23104">
        <ele>320.74</ele>
        <time>2018-11-15T13:22:56Z</time>
      </trkpt>
      <trkpt lat="45.05298" lon="5.23105">
        <ele>320.26</ele>
        <time>2018-11-15T13:23:07Z</time>
      </trkpt>
      <trkpt lat="45.05298" lon="5.23105">
        <ele>318.33</ele>
        <time>2018-11-15T13:23:10Z</time>
      </trkpt>
      <trkpt lat="45.05286" lon="5.23102">
        <ele>317.85</ele>
        <time>2018-11-15T13:23:22Z</time>
      </trkpt>
      <trkpt lat="45.05275" lon="5.2309">
        <ele>316.89</ele>
        <time>2018-11-15T13:23:33Z</time>
      </trkpt>
      <trkpt lat="45.05269" lon="5.23087">
        <ele>314.97</ele>
        <time>2018-11-15T13:23:42Z</time>
      </trkpt>
      <trkpt lat="45.05263" lon="5.23082">
        <ele>313.05</ele>
        <time>2018-11-15T13:23:52Z</time>
      </trkpt>
      <trkpt lat="45.0526" lon="5.23081">
        <ele>312.09</ele>
        <time>2018-11-15T13:23:57Z</time>
      </trkpt>
      <trkpt lat="45.05252" lon="5.23073">
        <ele>311.6</ele>
        <time>2018-11-15T13:24:09Z</time>
      </trkpt>
      <trkpt lat="45.05246" lon="5.23058">
        <ele>309.2</ele>
        <time>2018-11-15T13:24:19Z</time>
      </trkpt>
      <trkpt lat="45.05243" lon="5.23048">
        <ele>309.68</ele>
        <time>2018-11-15T13:24:28Z</time>
      </trkpt>
      <trkpt lat="45.05242" lon="5.23045">
        <ele>307.76</ele>
        <time>2018-11-15T13:24:30Z</time>
      </trkpt>
      <trkpt lat="45.05238" lon="5.23028">
        <ele>306.32</ele>
        <time>2018-11-15T13:24:40Z</time>
      </trkpt>
      <trkpt lat="45.05238" lon="5.23015">
        <ele>305.84</ele>
        <time>2018-11-15T13:24:52Z</time>
      </trkpt>
      <trkpt lat="45.05238" lon="5.22998">
        <ele>303.43</ele>
        <time>2018-11-15T13:25:02Z</time>
      </trkpt>
      <trkpt lat="45.05236" lon="5.22981">
        <ele>302.47</ele>
        <time>2018-11-15T13:25:12Z</time>
      </trkpt>
      <trkpt lat="45.05232" lon="5.22974">
        <ele>301.03</ele>
        <time>2018-11-15T13:25:19Z</time>
      </trkpt>
      <trkpt lat="45.05226" lon="5.22962">
        <ele>300.55</ele>
        <time>2018-11-15T13:25:29Z</time>
      </trkpt>
      <trkpt lat="45.05218" lon="5.22947">
        <ele>298.15</ele>
        <time>2018-11-15T13:25:42Z</time>
      </trkpt>
      <trkpt lat="45.05214" lon="5.22942">
        <ele>295.74</ele>
        <time>2018-11-15T13:25:50Z</time>
      </trkpt>
      <trkpt lat="45.05208" lon="5.22934">
        <ele>294.78</ele>
        <time>2018-11-15T13:26:00Z</time>
      </trkpt>
      <trkpt lat="45.05208" lon="5.22919">
        <ele>293.82</ele>
        <time>2018-11-15T13:26:11Z</time>
      </trkpt>
      <trkpt lat="45.05212" lon="5.22906">
        <ele>292.86</ele>
        <time>2018-11-15T13:26:22Z</time>
      </trkpt>
      <trkpt lat="45.05212" lon="5.22899">
        <ele>292.86</ele>
        <time>2018-11-15T13:26:37Z</time>
      </trkpt>
      <trkpt lat="45.05212" lon="5.22899">
        <ele>292.38</ele>
        <time>2018-11-15T13:26:53Z</time>
      </trkpt>
      <trkpt lat="45.05213" lon="5.22893">
        <ele>291.9</ele>
        <time>2018-11-15T13:27:16Z</time>
      </trkpt>
      <trkpt lat="45.05214" lon="5.22891">
        <ele>291.9</ele>
        <time>2018-11-15T13:27:33Z</time>
      </trkpt>
      <trkpt lat="45.05214" lon="5.22891">
        <ele>292.86</ele>
        <time>2018-11-15T13:27:50Z</time>
      </trkpt>
      <trkpt lat="45.05213" lon="5.22891">
        <ele>292.38</ele>
        <time>2018-11-15T13:28:10Z</time>
      </trkpt>
      <trkpt lat="45.05212" lon="5.22891">
        <ele>292.86</ele>
        <time>2018-11-15T13:28:31Z</time>
      </trkpt>
      <trkpt lat="45.05212" lon="5.22891">
        <ele>292.86</ele>
        <time>2018-11-15T13:28:50Z</time>
      </trkpt>
      <trkpt lat="45.05211" lon="5.22891">
        <ele>292.86</ele>
        <time>2018-11-15T13:29:07Z</time>
      </trkpt>
      <trkpt lat="45.05212" lon="5.22891">
        <ele>292.86</ele>
        <time>2018-11-15T13:29:22Z</time>
      </trkpt>
      <trkpt lat="45.0521" lon="5.22891">
        <ele>292.86</ele>
        <time>2018-11-15T13:29:37Z</time>
      </trkpt>
      <trkpt lat="45.05204" lon="5.22882">
        <ele>291.42</ele>
        <time>2018-11-15T13:29:46Z</time>
      </trkpt>
      <trkpt lat="45.05196" lon="5.2287">
        <ele>291.42</ele>
        <time>2018-11-15T13:29:56Z</time>
      </trkpt>
      <trkpt lat="45.05191" lon="5.22856">
        <ele>290.94</ele>
        <time>2018-11-15T13:30:07Z</time>
      </trkpt>
      <trkpt lat="45.05191" lon="5.22853">
        <ele>289.49</ele>
        <time>2018-11-15T13:30:09Z</time>
      </trkpt>
      <trkpt lat="45.05193" lon="5.22836">
        <ele>289.01</ele>
        <time>2018-11-15T13:30:20Z</time>
      </trkpt>
      <trkpt lat="45.05197" lon="5.22838">
        <ele>289.01</ele>
        <time>2018-11-15T13:30:33Z</time>
      </trkpt>
      <trkpt lat="45.05199" lon="5.22838">
        <ele>288.53</ele>
        <time>2018-11-15T13:30:48Z</time>
      </trkpt>
      <trkpt lat="45.05202" lon="5.22837">
        <ele>289.01</ele>
        <time>2018-11-15T13:31:06Z</time>
      </trkpt>
      <trkpt lat="45.05207" lon="5.22828">
        <ele>288.53</ele>
        <time>2018-11-15T13:31:16Z</time>
      </trkpt>
      <trkpt lat="45.05211" lon="5.22817">
        <ele>287.09</ele>
        <time>2018-11-15T13:31:28Z</time>
      </trkpt>
      <trkpt lat="45.05218" lon="5.22806">
        <ele>285.65</ele>
        <time>2018-11-15T13:31:38Z</time>
      </trkpt>
      <trkpt lat="45.05221" lon="5.22794">
        <ele>284.21</ele>
        <time>2018-11-15T13:31:49Z</time>
      </trkpt>
      <trkpt lat="45.05231" lon="5.2278">
        <ele>284.21</ele>
        <time>2018-11-15T13:32:00Z</time>
      </trkpt>
      <trkpt lat="45.05234" lon="5.22768">
        <ele>283.73</ele>
        <time>2018-11-15T13:32:10Z</time>
      </trkpt>
      <trkpt lat="45.05231" lon="5.22758">
        <ele>283.25</ele>
        <time>2018-11-15T13:32:16Z</time>
      </trkpt>
      <trkpt lat="45.05228" lon="5.22744">
        <ele>282.28</ele>
        <time>2018-11-15T13:32:28Z</time>
      </trkpt>
      <trkpt lat="45.05224" lon="5.22736">
        <ele>281.8</ele>
        <time>2018-11-15T13:32:41Z</time>
      </trkpt>
      <trkpt lat="45.05218" lon="5.22718">
        <ele>280.36</ele>
        <time>2018-11-15T13:32:54Z</time>
      </trkpt>
      <trkpt lat="45.05222" lon="5.22708">
        <ele>279.88</ele>
        <time>2018-11-15T13:33:04Z</time>
      </trkpt>
      <trkpt lat="45.05225" lon="5.22704">
        <ele>277.96</ele>
        <time>2018-11-15T13:33:14Z</time>
      </trkpt>
      <trkpt lat="45.05228" lon="5.22696">
        <ele>275.07</ele>
        <time>2018-11-15T13:33:28Z</time>
      </trkpt>
      <trkpt lat="45.05235" lon="5.22681">
        <ele>273.63</ele>
        <time>2018-11-15T13:33:40Z</time>
      </trkpt>
      <trkpt lat="45.05241" lon="5.22674">
        <ele>272.67</ele>
        <time>2018-11-15T13:33:53Z</time>
      </trkpt>
      <trkpt lat="45.05244" lon="5.22674">
        <ele>272.19</ele>
        <time>2018-11-15T13:34:04Z</time>
      </trkpt>
      <trkpt lat="45.05255" lon="5.22675">
        <ele>270.75</ele>
        <time>2018-11-15T13:34:17Z</time>
      </trkpt>
      <trkpt lat="45.05262" lon="5.22675">
        <ele>268.83</ele>
        <time>2018-11-15T13:34:23Z</time>
      </trkpt>
      <trkpt lat="45.05276" lon="5.22675">
        <ele>265.94</ele>
        <time>2018-11-15T13:34:36Z</time>
      </trkpt>
      <trkpt lat="45.05279" lon="5.22676">
        <ele>263.54</ele>
        <time>2018-11-15T13:34:46Z</time>
      </trkpt>
      <trkpt lat="45.0528" lon="5.22678">
        <ele>262.1</ele>
        <time>2018-11-15T13:34:53Z</time>
      </trkpt>
      <trkpt lat="45.05282" lon="5.22677">
        <ele>259.69</ele>
        <time>2018-11-15T13:35:00Z</time>
      </trkpt>
      <trkpt lat="45.05283" lon="5.22676">
        <ele>258.25</ele>
        <time>2018-11-15T13:35:09Z</time>
      </trkpt>
      <trkpt lat="45.05285" lon="5.22679">
        <ele>257.29</ele>
        <time>2018-11-15T13:35:20Z</time>
      </trkpt>
      <trkpt lat="45.05287" lon="5.22684">
        <ele>254.41</ele>
        <time>2018-11-15T13:35:29Z</time>
      </trkpt>
      <trkpt lat="45.05289" lon="5.22685">
        <ele>252.96</ele>
        <time>2018-11-15T13:35:31Z</time>
      </trkpt>
      <trkpt lat="45.05298" lon="5.22687">
        <ele>250.56</ele>
        <time>2018-11-15T13:35:41Z</time>
      </trkpt>
      <trkpt lat="45.05299" lon="5.22687">
        <ele>250.08</ele>
        <time>2018-11-15T13:35:42Z</time>
      </trkpt>
      <trkpt lat="45.05304" lon="5.22686">
        <ele>250.56</ele>
        <time>2018-11-15T13:35:52Z</time>
      </trkpt>
      <trkpt lat="45.05306" lon="5.22684">
        <ele>248.64</ele>
        <time>2018-11-15T13:35:56Z</time>
      </trkpt>
      <trkpt lat="45.05305" lon="5.22672">
        <ele>248.16</ele>
        <time>2018-11-15T13:36:06Z</time>
      </trkpt>
      <trkpt lat="45.05307" lon="5.22672">
        <ele>246.72</ele>
        <time>2018-11-15T13:36:11Z</time>
      </trkpt>
      <trkpt lat="45.05312" lon="5.22668">
        <ele>245.75</ele>
        <time>2018-11-15T13:36:18Z</time>
      </trkpt>
      <trkpt lat="45.05316" lon="5.22663">
        <ele>244.31</ele>
        <time>2018-11-15T13:36:23Z</time>
      </trkpt>
      <trkpt lat="45.05317" lon="5.2266">
        <ele>245.27</ele>
        <time>2018-11-15T13:36:25Z</time>
      </trkpt>
      <trkpt lat="45.05318" lon="5.22656">
        <ele>243.35</ele>
        <time>2018-11-15T13:36:28Z</time>
      </trkpt>
      <trkpt lat="45.05323" lon="5.22649">
        <ele>245.27</ele>
        <time>2018-11-15T13:36:33Z</time>
      </trkpt>
      <trkpt lat="45.05325" lon="5.22644">
        <ele>244.79</ele>
        <time>2018-11-15T13:36:37Z</time>
      </trkpt>
      <trkpt lat="45.05327" lon="5.22639">
        <ele>241.43</ele>
        <time>2018-11-15T13:36:40Z</time>
      </trkpt>
      <trkpt lat="45.05327" lon="5.22638">
        <ele>243.35</ele>
        <time>2018-11-15T13:36:41Z</time>
      </trkpt>
      <trkpt lat="45.05329" lon="5.22633">
        <ele>243.35</ele>
        <time>2018-11-15T13:36:44Z</time>
      </trkpt>
      <trkpt lat="45.05332" lon="5.22627">
        <ele>242.39</ele>
        <time>2018-11-15T13:36:48Z</time>
      </trkpt>
      <trkpt lat="45.05336" lon="5.22622">
        <ele>241.91</ele>
        <time>2018-11-15T13:36:53Z</time>
      </trkpt>
      <trkpt lat="45.0534" lon="5.22616">
        <ele>242.87</ele>
        <time>2018-11-15T13:36:57Z</time>
      </trkpt>
      <trkpt lat="45.05341" lon="5.22611">
        <ele>240.47</ele>
        <time>2018-11-15T13:37:00Z</time>
      </trkpt>
      <trkpt lat="45.05342" lon="5.2261">
        <ele>241.43</ele>
        <time>2018-11-15T13:37:01Z</time>
      </trkpt>
      <trkpt lat="45.05343" lon="5.22606">
        <ele>242.39</ele>
        <time>2018-11-15T13:37:03Z</time>
      </trkpt>
      <trkpt lat="45.05344" lon="5.22605">
        <ele>240.47</ele>
        <time>2018-11-15T13:37:05Z</time>
      </trkpt>
      <trkpt lat="45.05345" lon="5.22603">
        <ele>239.51</ele>
        <time>2018-11-15T13:37:07Z</time>
      </trkpt>
      <trkpt lat="45.05348" lon="5.2259">
        <ele>239.02</ele>
        <time>2018-11-15T13:37:16Z</time>
      </trkpt>
      <trkpt lat="45.05349" lon="5.22578">
        <ele>239.02</ele>
        <time>2018-11-15T13:37:23Z</time>
      </trkpt>
      <trkpt lat="45.0535" lon="5.22562">
        <ele>238.54</ele>
        <time>2018-11-15T13:37:32Z</time>
      </trkpt>
      <trkpt lat="45.05351" lon="5.2255">
        <ele>235.66</ele>
        <time>2018-11-15T13:37:38Z</time>
      </trkpt>
      <trkpt lat="45.05353" lon="5.22537">
        <ele>236.14</ele>
        <time>2018-11-15T13:37:46Z</time>
      </trkpt>
      <trkpt lat="45.05357" lon="5.22517">
        <ele>235.18</ele>
        <time>2018-11-15T13:37:58Z</time>
      </trkpt>
      <trkpt lat="45.05365" lon="5.22504">
        <ele>234.7</ele>
        <time>2018-11-15T13:38:10Z</time>
      </trkpt>
      <trkpt lat="45.05366" lon="5.22502">
        <ele>232.3</ele>
        <time>2018-11-15T13:38:12Z</time>
      </trkpt>
      <trkpt lat="45.0537" lon="5.22499">
        <ele>234.22</ele>
        <time>2018-11-15T13:38:15Z</time>
      </trkpt>
      <trkpt lat="45.05372" lon="5.22497">
        <ele>231.81</ele>
        <time>2018-11-15T13:38:17Z</time>
      </trkpt>
      <trkpt lat="45.05379" lon="5.2249">
        <ele>231.81</ele>
        <time>2018-11-15T13:38:24Z</time>
      </trkpt>
      <trkpt lat="45.05383" lon="5.22486">
        <ele>231.33</ele>
        <time>2018-11-15T13:38:29Z</time>
      </trkpt>
      <trkpt lat="45.05385" lon="5.22485">
        <ele>231.33</ele>
        <time>2018-11-15T13:38:31Z</time>
      </trkpt>
      <trkpt lat="45.0539" lon="5.22481">
        <ele>232.3</ele>
        <time>2018-11-15T13:38:37Z</time>
      </trkpt>
      <trkpt lat="45.05392" lon="5.22479">
        <ele>228.93</ele>
        <time>2018-11-15T13:38:39Z</time>
      </trkpt>
      <trkpt lat="45.05403" lon="5.22468">
        <ele>229.41</ele>
        <time>2018-11-15T13:38:52Z</time>
      </trkpt>
      <trkpt lat="45.05414" lon="5.22457">
        <ele>227.49</ele>
        <time>2018-11-15T13:39:03Z</time>
      </trkpt>
      <trkpt lat="45.05417" lon="5.22455">
        <ele>229.41</ele>
        <time>2018-11-15T13:39:06Z</time>
      </trkpt>
      <trkpt lat="45.05423" lon="5.22447">
        <ele>226.53</ele>
        <time>2018-11-15T13:39:14Z</time>
      </trkpt>
      <trkpt lat="45.05423" lon="5.22446">
        <ele>227.01</ele>
        <time>2018-11-15T13:39:15Z</time>
      </trkpt>
      <trkpt lat="45.05429" lon="5.22439">
        <ele>226.05</ele>
        <time>2018-11-15T13:39:22Z</time>
      </trkpt>
      <trkpt lat="45.05433" lon="5.22433">
        <ele>225.57</ele>
        <time>2018-11-15T13:39:26Z</time>
      </trkpt>
      <trkpt lat="45.05436" lon="5.22432">
        <ele>227.01</ele>
        <time>2018-11-15T13:39:29Z</time>
      </trkpt>
      <trkpt lat="45.05443" lon="5.22433">
        <ele>225.09</ele>
        <time>2018-11-15T13:39:34Z</time>
      </trkpt>
      <trkpt lat="45.05449" lon="5.22437">
        <ele>224.61</ele>
        <time>2018-11-15T13:39:39Z</time>
      </trkpt>
      <trkpt lat="45.0545" lon="5.22437">
        <ele>227.01</ele>
        <time>2018-11-15T13:39:40Z</time>
      </trkpt>
      <trkpt lat="45.05452" lon="5.2244">
        <ele>223.16</ele>
        <time>2018-11-15T13:39:43Z</time>
      </trkpt>
      <trkpt lat="45.05454" lon="5.22441">
        <ele>224.12</ele>
        <time>2018-11-15T13:39:45Z</time>
      </trkpt>
      <trkpt lat="45.05459" lon="5.22449">
        <ele>226.53</ele>
        <time>2018-11-15T13:39:51Z</time>
      </trkpt>
      <trkpt lat="45.05462" lon="5.22453">
        <ele>224.61</ele>
        <time>2018-11-15T13:39:54Z</time>
      </trkpt>
      <trkpt lat="45.05465" lon="5.22457">
        <ele>224.12</ele>
        <time>2018-11-15T13:39:59Z</time>
      </trkpt>
      <trkpt lat="45.05468" lon="5.22463">
        <ele>226.53</ele>
        <time>2018-11-15T13:40:04Z</time>
      </trkpt>
      <trkpt lat="45.05469" lon="5.22465">
        <ele>226.53</ele>
        <time>2018-11-15T13:40:06Z</time>
      </trkpt>
      <trkpt lat="45.05471" lon="5.2247">
        <ele>226.05</ele>
        <time>2018-11-15T13:40:10Z</time>
      </trkpt>
      <trkpt lat="45.05475" lon="5.22475">
        <ele>225.57</ele>
        <time>2018-11-15T13:40:15Z</time>
      </trkpt>
      <trkpt lat="45.05481" lon="5.22481">
        <ele>224.61</ele>
        <time>2018-11-15T13:40:20Z</time>
      </trkpt>
      <trkpt lat="45.05483" lon="5.22483">
        <ele>227.49</ele>
        <time>2018-11-15T13:40:22Z</time>
      </trkpt>
      <trkpt lat="45.05485" lon="5.22487">
        <ele>226.05</ele>
        <time>2018-11-15T13:40:25Z</time>
      </trkpt>
      <trkpt lat="45.0549" lon="5.22493">
        <ele>224.61</ele>
        <time>2018-11-15T13:40:31Z</time>
      </trkpt>
      <trkpt lat="45.05496" lon="5.225">
        <ele>227.01</ele>
        <time>2018-11-15T13:40:37Z</time>
      </trkpt>
      <trkpt lat="45.05499" lon="5.22506">
        <ele>227.49</ele>
        <time>2018-11-15T13:40:41Z</time>
      </trkpt>
      <trkpt lat="45.055" lon="5.22508">
        <ele>225.57</ele>
        <time>2018-11-15T13:40:43Z</time>
      </trkpt>
      <trkpt lat="45.05502" lon="5.22513">
        <ele>227.49</ele>
        <time>2018-11-15T13:40:46Z</time>
      </trkpt>
      <trkpt lat="45.05504" lon="5.22515">
        <ele>225.57</ele>
        <time>2018-11-15T13:40:48Z</time>
      </trkpt>
      <trkpt lat="45.05505" lon="5.22516">
        <ele>225.09</ele>
        <time>2018-11-15T13:40:49Z</time>
      </trkpt>
      <trkpt lat="45.05513" lon="5.22523">
        <ele>226.05</ele>
        <time>2018-11-15T13:40:55Z</time>
      </trkpt>
      <trkpt lat="45.05522" lon="5.22529">
        <ele>226.53</ele>
        <time>2018-11-15T13:41:01Z</time>
      </trkpt>
      <trkpt lat="45.0553" lon="5.22539">
        <ele>227.01</ele>
        <time>2018-11-15T13:41:09Z</time>
      </trkpt>
      <trkpt lat="45.05531" lon="5.22539">
        <ele>223.64</ele>
        <time>2018-11-15T13:41:10Z</time>
      </trkpt>
      <trkpt lat="45.05531" lon="5.22539">
        <ele>225.57</ele>
        <time>2018-11-15T13:41:11Z</time>
      </trkpt>
      <trkpt lat="45.05533" lon="5.22541">
        <ele>227.01</ele>
        <time>2018-11-15T13:41:13Z</time>
      </trkpt>
      <trkpt lat="45.05541" lon="5.22549">
        <ele>224.12</ele>
        <time>2018-11-15T13:41:22Z</time>
      </trkpt>
      <trkpt lat="45.05547" lon="5.22557">
        <ele>226.05</ele>
        <time>2018-11-15T13:41:30Z</time>
      </trkpt>
      <trkpt lat="45.0555" lon="5.2256">
        <ele>225.09</ele>
        <time>2018-11-15T13:41:34Z</time>
      </trkpt>
      <trkpt lat="45.05558" lon="5.2257">
        <ele>225.57</ele>
        <time>2018-11-15T13:41:45Z</time>
      </trkpt>
      <trkpt lat="45.05563" lon="5.22575">
        <ele>224.12</ele>
        <time>2018-11-15T13:41:49Z</time>
      </trkpt>
      <trkpt lat="45.05566" lon="5.22579">
        <ele>226.05</ele>
        <time>2018-11-15T13:41:52Z</time>
      </trkpt>
      <trkpt lat="45.05569" lon="5.22583">
        <ele>223.16</ele>
        <time>2018-11-15T13:41:55Z</time>
      </trkpt>
      <trkpt lat="45.05571" lon="5.22585">
        <ele>226.53</ele>
        <time>2018-11-15T13:41:57Z</time>
      </trkpt>
      <trkpt lat="45.05573" lon="5.22586">
        <ele>226.53</ele>
        <time>2018-11-15T13:41:58Z</time>
      </trkpt>
      <trkpt lat="45.05574" lon="5.22588">
        <ele>225.09</ele>
        <time>2018-11-15T13:42:00Z</time>
      </trkpt>
      <trkpt lat="45.05576" lon="5.22591">
        <ele>227.01</ele>
        <time>2018-11-15T13:42:03Z</time>
      </trkpt>
      <trkpt lat="45.05586" lon="5.22599">
        <ele>226.05</ele>
        <time>2018-11-15T13:42:13Z</time>
      </trkpt>
      <trkpt lat="45.05586" lon="5.22599">
        <ele>226.05</ele>
        <time>2018-11-15T13:42:15Z</time>
      </trkpt>
      <trkpt lat="45.05587" lon="5.22602">
        <ele>226.05</ele>
        <time>2018-11-15T13:42:18Z</time>
      </trkpt>
      <trkpt lat="45.05596" lon="5.22608">
        <ele>226.53</ele>
        <time>2018-11-15T13:42:30Z</time>
      </trkpt>
      <trkpt lat="45.05602" lon="5.22609">
        <ele>226.05</ele>
        <time>2018-11-15T13:42:36Z</time>
      </trkpt>
      <trkpt lat="45.05601" lon="5.22614">
        <ele>226.05</ele>
        <time>2018-11-15T13:42:40Z</time>
      </trkpt>
      <trkpt lat="45.05608" lon="5.22625">
        <ele>226.53</ele>
        <time>2018-11-15T13:42:51Z</time>
      </trkpt>
      <trkpt lat="45.05614" lon="5.22635">
        <ele>226.53</ele>
        <time>2018-11-15T13:43:04Z</time>
      </trkpt>
      <trkpt lat="45.05614" lon="5.22636">
        <ele>226.53</ele>
        <time>2018-11-15T13:43:22Z</time>
      </trkpt>
    </trkseg>
  </trk>
</gpx>